<?xml version="1.0" encoding="UTF-8" standalone="no" ?>
<gpx xmlns="http://www.topografix.com/GPX/1/1" xmlns:xsi="http://www.w3.org/2001/XMLSchema-instance" xsi:schemaLocation="http://www.topografix.com/GPX/1/1 http://www.topografix.com/GPX/1/1/gpx.xsd" version="1.1" creator="VisuGPX - https://www.visugpx.com">
  <metadata>
    <name>2017-02-09 Walk from Lamure-sur-Azergues</name>
    <desc><![CDATA[2017-02-09 Walk from Lamure-sur-Azergues]]></desc>
  </metadata>
  <wpt lat="46.0633" lon="4.49281">
    <ele>387</ele>
    <name><![CDATA[2017-02-09 09:14 (Start)]]></name>
  </wpt>
  <wpt lat="46.06325" lon="4.49287">
    <ele>387</ele>
    <name><![CDATA[2017-02-09 09:14 (End)]]></name>
    <desc><![CDATA[Created by Google My Tracks on Android  Name: 2017-02-09 09:14 Activity type: walking Description: - Total distance: 22.71 km (14.1 mi) Total time: 7:12:54 Moving time: 6:02:17 Average speed: 3.15 km/h (2.0 mi/h) Average moving speed: 3.76 km/h (2.3 mi/h) Max speed: 5.40 km/h (3.4 mi/h) Average pace: 19:04 min/km (30:41 min/mi) Average moving pace: 15:57 min/km (25:40 min/mi) Fastest pace: 11:07 min/km (17:53 min/mi) Max elevation: 802 m (2630 ft) Min elevation: 425 m (1393 ft) Elevation gain: 1456 m (4777 ft) Max grade: 34 % Min grade: -29 % Recorded: 09/02/2017 09:14]]></desc>
  </wpt>
  <trk>
    <name><![CDATA[2017-02-09 09:14]]></name>
    <trkseg>
      <trkpt lat="46.0633" lon="4.49281">
        <ele>387</ele>
        <time>2017-02-09T08:14:39.497Z</time>
      </trkpt>
      <trkpt lat="46.06332" lon="4.49282">
        <ele>387</ele>
        <time>2017-02-09T08:14:46.379Z</time>
      </trkpt>
      <trkpt lat="46.06319" lon="4.49297">
        <ele>388</ele>
        <time>2017-02-09T08:14:47.374Z</time>
      </trkpt>
      <trkpt lat="46.06332" lon="4.49291">
        <ele>388</ele>
        <time>2017-02-09T08:14:48.389Z</time>
      </trkpt>
      <trkpt lat="46.06328" lon="4.4928">
        <ele>387</ele>
        <time>2017-02-09T08:17:34Z</time>
      </trkpt>
      <trkpt lat="46.06327" lon="4.4928">
        <ele>387</ele>
        <time>2017-02-09T08:17:35Z</time>
      </trkpt>
      <trkpt lat="46.06319" lon="4.49277">
        <ele>387</ele>
        <time>2017-02-09T08:18:07Z</time>
      </trkpt>
      <trkpt lat="46.06319" lon="4.49277">
        <ele>387</ele>
        <time>2017-02-09T08:18:08Z</time>
      </trkpt>
      <trkpt lat="46.06317" lon="4.49264">
        <ele>386</ele>
        <time>2017-02-09T08:18:48Z</time>
      </trkpt>
      <trkpt lat="46.06317" lon="4.49263">
        <ele>386</ele>
        <time>2017-02-09T08:18:49Z</time>
      </trkpt>
      <trkpt lat="46.06317" lon="4.4925">
        <ele>384</ele>
        <time>2017-02-09T08:19:03Z</time>
      </trkpt>
      <trkpt lat="46.06317" lon="4.49249">
        <ele>384</ele>
        <time>2017-02-09T08:19:04Z</time>
      </trkpt>
      <trkpt lat="46.0632" lon="4.49237">
        <ele>384</ele>
        <time>2017-02-09T08:19:16Z</time>
      </trkpt>
      <trkpt lat="46.06321" lon="4.49236">
        <ele>384</ele>
        <time>2017-02-09T08:19:17Z</time>
      </trkpt>
      <trkpt lat="46.06325" lon="4.49227">
        <ele>384</ele>
        <time>2017-02-09T08:19:26Z</time>
      </trkpt>
      <trkpt lat="46.06326" lon="4.49226">
        <ele>384</ele>
        <time>2017-02-09T08:19:27Z</time>
      </trkpt>
      <trkpt lat="46.06322" lon="4.49216">
        <ele>384</ele>
        <time>2017-02-09T08:19:36Z</time>
      </trkpt>
      <trkpt lat="46.06321" lon="4.49214">
        <ele>384</ele>
        <time>2017-02-09T08:19:37Z</time>
      </trkpt>
      <trkpt lat="46.06319" lon="4.49202">
        <ele>384</ele>
        <time>2017-02-09T08:19:46Z</time>
      </trkpt>
      <trkpt lat="46.06319" lon="4.492">
        <ele>384</ele>
        <time>2017-02-09T08:19:47Z</time>
      </trkpt>
      <trkpt lat="46.0632" lon="4.49189">
        <ele>384</ele>
        <time>2017-02-09T08:19:55Z</time>
      </trkpt>
      <trkpt lat="46.06321" lon="4.49187">
        <ele>384</ele>
        <time>2017-02-09T08:19:56Z</time>
      </trkpt>
      <trkpt lat="46.06321" lon="4.49175">
        <ele>384</ele>
        <time>2017-02-09T08:20:13Z</time>
      </trkpt>
      <trkpt lat="46.0632" lon="4.49173">
        <ele>384</ele>
        <time>2017-02-09T08:20:14Z</time>
      </trkpt>
      <trkpt lat="46.06314" lon="4.49164">
        <ele>383</ele>
        <time>2017-02-09T08:20:22Z</time>
      </trkpt>
      <trkpt lat="46.06315" lon="4.49162">
        <ele>383</ele>
        <time>2017-02-09T08:20:23Z</time>
      </trkpt>
      <trkpt lat="46.06313" lon="4.49151">
        <ele>383</ele>
        <time>2017-02-09T08:20:30Z</time>
      </trkpt>
      <trkpt lat="46.06313" lon="4.49149">
        <ele>383</ele>
        <time>2017-02-09T08:20:31Z</time>
      </trkpt>
      <trkpt lat="46.06315" lon="4.49138">
        <ele>383</ele>
        <time>2017-02-09T08:20:38Z</time>
      </trkpt>
      <trkpt lat="46.06315" lon="4.49136">
        <ele>384</ele>
        <time>2017-02-09T08:20:39Z</time>
      </trkpt>
      <trkpt lat="46.06313" lon="4.49124">
        <ele>384</ele>
        <time>2017-02-09T08:20:46Z</time>
      </trkpt>
      <trkpt lat="46.06312" lon="4.49123">
        <ele>384</ele>
        <time>2017-02-09T08:20:47Z</time>
      </trkpt>
      <trkpt lat="46.06306" lon="4.49115">
        <ele>384</ele>
        <time>2017-02-09T08:20:52Z</time>
      </trkpt>
      <trkpt lat="46.06305" lon="4.49114">
        <ele>384</ele>
        <time>2017-02-09T08:20:53Z</time>
      </trkpt>
      <trkpt lat="46.06299" lon="4.49105">
        <ele>383</ele>
        <time>2017-02-09T08:21:00Z</time>
      </trkpt>
      <trkpt lat="46.06298" lon="4.49104">
        <ele>383</ele>
        <time>2017-02-09T08:21:01Z</time>
      </trkpt>
      <trkpt lat="46.06293" lon="4.49094">
        <ele>383</ele>
        <time>2017-02-09T08:21:08Z</time>
      </trkpt>
      <trkpt lat="46.06293" lon="4.49092">
        <ele>383</ele>
        <time>2017-02-09T08:21:09Z</time>
      </trkpt>
      <trkpt lat="46.06289" lon="4.49081">
        <ele>388</ele>
        <time>2017-02-09T08:21:16Z</time>
      </trkpt>
      <trkpt lat="46.06288" lon="4.4908">
        <ele>388</ele>
        <time>2017-02-09T08:21:17Z</time>
      </trkpt>
      <trkpt lat="46.06285" lon="4.49069">
        <ele>388</ele>
        <time>2017-02-09T08:21:23Z</time>
      </trkpt>
      <trkpt lat="46.06285" lon="4.49067">
        <ele>388</ele>
        <time>2017-02-09T08:21:24Z</time>
      </trkpt>
      <trkpt lat="46.06283" lon="4.49056">
        <ele>389</ele>
        <time>2017-02-09T08:21:30Z</time>
      </trkpt>
      <trkpt lat="46.06282" lon="4.49054">
        <ele>389</ele>
        <time>2017-02-09T08:21:31Z</time>
      </trkpt>
      <trkpt lat="46.06279" lon="4.49043">
        <ele>390</ele>
        <time>2017-02-09T08:21:37Z</time>
      </trkpt>
      <trkpt lat="46.06278" lon="4.49041">
        <ele>390</ele>
        <time>2017-02-09T08:21:38Z</time>
      </trkpt>
      <trkpt lat="46.06273" lon="4.49031">
        <ele>391</ele>
        <time>2017-02-09T08:21:45Z</time>
      </trkpt>
      <trkpt lat="46.06273" lon="4.4903">
        <ele>391</ele>
        <time>2017-02-09T08:21:46Z</time>
      </trkpt>
      <trkpt lat="46.06268" lon="4.4902">
        <ele>392</ele>
        <time>2017-02-09T08:21:56Z</time>
      </trkpt>
      <trkpt lat="46.06267" lon="4.49018">
        <ele>392</ele>
        <time>2017-02-09T08:21:57Z</time>
      </trkpt>
      <trkpt lat="46.06261" lon="4.49011">
        <ele>392</ele>
        <time>2017-02-09T08:22:03Z</time>
      </trkpt>
      <trkpt lat="46.0626" lon="4.49009">
        <ele>392</ele>
        <time>2017-02-09T08:22:04Z</time>
      </trkpt>
      <trkpt lat="46.06253" lon="4.49003">
        <ele>393</ele>
        <time>2017-02-09T08:22:12Z</time>
      </trkpt>
      <trkpt lat="46.06253" lon="4.49002">
        <ele>393</ele>
        <time>2017-02-09T08:22:13Z</time>
      </trkpt>
      <trkpt lat="46.06244" lon="4.48998">
        <ele>394</ele>
        <time>2017-02-09T08:22:22Z</time>
      </trkpt>
      <trkpt lat="46.06243" lon="4.48998">
        <ele>394</ele>
        <time>2017-02-09T08:22:23Z</time>
      </trkpt>
      <trkpt lat="46.06235" lon="4.48996">
        <ele>395</ele>
        <time>2017-02-09T08:22:30Z</time>
      </trkpt>
      <trkpt lat="46.06234" lon="4.48997">
        <ele>395</ele>
        <time>2017-02-09T08:22:31Z</time>
      </trkpt>
      <trkpt lat="46.06225" lon="4.48999">
        <ele>395</ele>
        <time>2017-02-09T08:22:39Z</time>
      </trkpt>
      <trkpt lat="46.06224" lon="4.48999">
        <ele>395</ele>
        <time>2017-02-09T08:22:40Z</time>
      </trkpt>
      <trkpt lat="46.06216" lon="4.49001">
        <ele>387</ele>
        <time>2017-02-09T08:22:47Z</time>
      </trkpt>
      <trkpt lat="46.06215" lon="4.49001">
        <ele>387</ele>
        <time>2017-02-09T08:22:48Z</time>
      </trkpt>
      <trkpt lat="46.06208" lon="4.49004">
        <ele>386</ele>
        <time>2017-02-09T08:22:53Z</time>
      </trkpt>
      <trkpt lat="46.06206" lon="4.49004">
        <ele>386</ele>
        <time>2017-02-09T08:22:54Z</time>
      </trkpt>
      <trkpt lat="46.06198" lon="4.49006">
        <ele>386</ele>
        <time>2017-02-09T08:22:59Z</time>
      </trkpt>
      <trkpt lat="46.06197" lon="4.49006">
        <ele>386</ele>
        <time>2017-02-09T08:23:00Z</time>
      </trkpt>
      <trkpt lat="46.06188" lon="4.49005">
        <ele>385</ele>
        <time>2017-02-09T08:23:06Z</time>
      </trkpt>
      <trkpt lat="46.06187" lon="4.49005">
        <ele>385</ele>
        <time>2017-02-09T08:23:07Z</time>
      </trkpt>
      <trkpt lat="46.06179" lon="4.49004">
        <ele>385</ele>
        <time>2017-02-09T08:23:13Z</time>
      </trkpt>
      <trkpt lat="46.06178" lon="4.49003">
        <ele>385</ele>
        <time>2017-02-09T08:23:14Z</time>
      </trkpt>
      <trkpt lat="46.06172" lon="4.48995">
        <ele>388</ele>
        <time>2017-02-09T08:23:19Z</time>
      </trkpt>
      <trkpt lat="46.06171" lon="4.48993">
        <ele>389</ele>
        <time>2017-02-09T08:23:20Z</time>
      </trkpt>
      <trkpt lat="46.06168" lon="4.48981">
        <ele>392</ele>
        <time>2017-02-09T08:23:27Z</time>
      </trkpt>
      <trkpt lat="46.06168" lon="4.4898">
        <ele>392</ele>
        <time>2017-02-09T08:23:28Z</time>
      </trkpt>
      <trkpt lat="46.06165" lon="4.48969">
        <ele>390</ele>
        <time>2017-02-09T08:23:35Z</time>
      </trkpt>
      <trkpt lat="46.06165" lon="4.48967">
        <ele>390</ele>
        <time>2017-02-09T08:23:36Z</time>
      </trkpt>
      <trkpt lat="46.06162" lon="4.48955">
        <ele>392</ele>
        <time>2017-02-09T08:23:44Z</time>
      </trkpt>
      <trkpt lat="46.06162" lon="4.48954">
        <ele>393</ele>
        <time>2017-02-09T08:23:45Z</time>
      </trkpt>
      <trkpt lat="46.06157" lon="4.48943">
        <ele>394</ele>
        <time>2017-02-09T08:23:53Z</time>
      </trkpt>
      <trkpt lat="46.06157" lon="4.48942">
        <ele>394</ele>
        <time>2017-02-09T08:23:54Z</time>
      </trkpt>
      <trkpt lat="46.0615" lon="4.48933">
        <ele>395</ele>
        <time>2017-02-09T08:24:02Z</time>
      </trkpt>
      <trkpt lat="46.06149" lon="4.48932">
        <ele>395</ele>
        <time>2017-02-09T08:24:03Z</time>
      </trkpt>
      <trkpt lat="46.06141" lon="4.48926">
        <ele>395</ele>
        <time>2017-02-09T08:24:15Z</time>
      </trkpt>
      <trkpt lat="46.0614" lon="4.48926">
        <ele>395</ele>
        <time>2017-02-09T08:24:16Z</time>
      </trkpt>
      <trkpt lat="46.06132" lon="4.48922">
        <ele>394</ele>
        <time>2017-02-09T08:24:26Z</time>
      </trkpt>
      <trkpt lat="46.06132" lon="4.48921">
        <ele>394</ele>
        <time>2017-02-09T08:24:27Z</time>
      </trkpt>
      <trkpt lat="46.06123" lon="4.48922">
        <ele>393</ele>
        <time>2017-02-09T08:24:36Z</time>
      </trkpt>
      <trkpt lat="46.06122" lon="4.48922">
        <ele>393</ele>
        <time>2017-02-09T08:24:37Z</time>
      </trkpt>
      <trkpt lat="46.06113" lon="4.48921">
        <ele>393</ele>
        <time>2017-02-09T08:24:45Z</time>
      </trkpt>
      <trkpt lat="46.06112" lon="4.48921">
        <ele>393</ele>
        <time>2017-02-09T08:24:46Z</time>
      </trkpt>
      <trkpt lat="46.06105" lon="4.48917">
        <ele>402</ele>
        <time>2017-02-09T08:24:54Z</time>
      </trkpt>
      <trkpt lat="46.06104" lon="4.48916">
        <ele>402</ele>
        <time>2017-02-09T08:24:55Z</time>
      </trkpt>
      <trkpt lat="46.06096" lon="4.4891">
        <ele>401</ele>
        <time>2017-02-09T08:25:04Z</time>
      </trkpt>
      <trkpt lat="46.06095" lon="4.48909">
        <ele>401</ele>
        <time>2017-02-09T08:25:05Z</time>
      </trkpt>
      <trkpt lat="46.06087" lon="4.48903">
        <ele>401</ele>
        <time>2017-02-09T08:25:13Z</time>
      </trkpt>
      <trkpt lat="46.06087" lon="4.48902">
        <ele>401</ele>
        <time>2017-02-09T08:25:14Z</time>
      </trkpt>
      <trkpt lat="46.0608" lon="4.48895">
        <ele>399</ele>
        <time>2017-02-09T08:25:22Z</time>
      </trkpt>
      <trkpt lat="46.06079" lon="4.48894">
        <ele>400</ele>
        <time>2017-02-09T08:25:23Z</time>
      </trkpt>
      <trkpt lat="46.06071" lon="4.48889">
        <ele>400</ele>
        <time>2017-02-09T08:25:30Z</time>
      </trkpt>
      <trkpt lat="46.0607" lon="4.48888">
        <ele>401</ele>
        <time>2017-02-09T08:25:31Z</time>
      </trkpt>
      <trkpt lat="46.06065" lon="4.48879">
        <ele>402</ele>
        <time>2017-02-09T08:25:39Z</time>
      </trkpt>
      <trkpt lat="46.06064" lon="4.48877">
        <ele>402</ele>
        <time>2017-02-09T08:25:40Z</time>
      </trkpt>
      <trkpt lat="46.06057" lon="4.48869">
        <ele>403</ele>
        <time>2017-02-09T08:25:49Z</time>
      </trkpt>
      <trkpt lat="46.06057" lon="4.48868">
        <ele>403</ele>
        <time>2017-02-09T08:25:50Z</time>
      </trkpt>
      <trkpt lat="46.06051" lon="4.48859">
        <ele>404</ele>
        <time>2017-02-09T08:26:01Z</time>
      </trkpt>
      <trkpt lat="46.0605" lon="4.48859">
        <ele>404</ele>
        <time>2017-02-09T08:26:02Z</time>
      </trkpt>
      <trkpt lat="46.06042" lon="4.48854">
        <ele>404</ele>
        <time>2017-02-09T08:26:12Z</time>
      </trkpt>
      <trkpt lat="46.06041" lon="4.48853">
        <ele>404</ele>
        <time>2017-02-09T08:26:13Z</time>
      </trkpt>
      <trkpt lat="46.06034" lon="4.48848">
        <ele>404</ele>
        <time>2017-02-09T08:26:20Z</time>
      </trkpt>
      <trkpt lat="46.06033" lon="4.48847">
        <ele>404</ele>
        <time>2017-02-09T08:26:21Z</time>
      </trkpt>
      <trkpt lat="46.06025" lon="4.48843">
        <ele>404</ele>
        <time>2017-02-09T08:26:27Z</time>
      </trkpt>
      <trkpt lat="46.06024" lon="4.48842">
        <ele>404</ele>
        <time>2017-02-09T08:26:28Z</time>
      </trkpt>
      <trkpt lat="46.06017" lon="4.48834">
        <ele>405</ele>
        <time>2017-02-09T08:26:35Z</time>
      </trkpt>
      <trkpt lat="46.06017" lon="4.48833">
        <ele>412</ele>
        <time>2017-02-09T08:26:36Z</time>
      </trkpt>
      <trkpt lat="46.06009" lon="4.48827">
        <ele>411</ele>
        <time>2017-02-09T08:26:43Z</time>
      </trkpt>
      <trkpt lat="46.06008" lon="4.48826">
        <ele>411</ele>
        <time>2017-02-09T08:26:44Z</time>
      </trkpt>
      <trkpt lat="46.06001" lon="4.4882">
        <ele>412</ele>
        <time>2017-02-09T08:26:50Z</time>
      </trkpt>
      <trkpt lat="46.06" lon="4.48819">
        <ele>409</ele>
        <time>2017-02-09T08:26:51Z</time>
      </trkpt>
      <trkpt lat="46.05994" lon="4.4881">
        <ele>411</ele>
        <time>2017-02-09T08:26:59Z</time>
      </trkpt>
      <trkpt lat="46.05994" lon="4.48808">
        <ele>411</ele>
        <time>2017-02-09T08:27:00Z</time>
      </trkpt>
      <trkpt lat="46.05989" lon="4.488">
        <ele>412</ele>
        <time>2017-02-09T08:27:06Z</time>
      </trkpt>
      <trkpt lat="46.05987" lon="4.48798">
        <ele>412</ele>
        <time>2017-02-09T08:27:07Z</time>
      </trkpt>
      <trkpt lat="46.05983" lon="4.48788">
        <ele>413</ele>
        <time>2017-02-09T08:27:13Z</time>
      </trkpt>
      <trkpt lat="46.05982" lon="4.48787">
        <ele>413</ele>
        <time>2017-02-09T08:27:14Z</time>
      </trkpt>
      <trkpt lat="46.05975" lon="4.4878">
        <ele>414</ele>
        <time>2017-02-09T08:27:21Z</time>
      </trkpt>
      <trkpt lat="46.05974" lon="4.48778">
        <ele>414</ele>
        <time>2017-02-09T08:27:22Z</time>
      </trkpt>
      <trkpt lat="46.0597" lon="4.48768">
        <ele>415</ele>
        <time>2017-02-09T08:27:33Z</time>
      </trkpt>
      <trkpt lat="46.0597" lon="4.48767">
        <ele>415</ele>
        <time>2017-02-09T08:27:34Z</time>
      </trkpt>
      <trkpt lat="46.05964" lon="4.48757">
        <ele>415</ele>
        <time>2017-02-09T08:27:43Z</time>
      </trkpt>
      <trkpt lat="46.05964" lon="4.48756">
        <ele>415</ele>
        <time>2017-02-09T08:27:44Z</time>
      </trkpt>
      <trkpt lat="46.05959" lon="4.48748">
        <ele>423</ele>
        <time>2017-02-09T08:27:53Z</time>
      </trkpt>
      <trkpt lat="46.05958" lon="4.48746">
        <ele>423</ele>
        <time>2017-02-09T08:27:54Z</time>
      </trkpt>
      <trkpt lat="46.05953" lon="4.48737">
        <ele>424</ele>
        <time>2017-02-09T08:28:02Z</time>
      </trkpt>
      <trkpt lat="46.05952" lon="4.48736">
        <ele>424</ele>
        <time>2017-02-09T08:28:03Z</time>
      </trkpt>
      <trkpt lat="46.05946" lon="4.48728">
        <ele>424</ele>
        <time>2017-02-09T08:28:10Z</time>
      </trkpt>
      <trkpt lat="46.05945" lon="4.48726">
        <ele>424</ele>
        <time>2017-02-09T08:28:11Z</time>
      </trkpt>
      <trkpt lat="46.05939" lon="4.48718">
        <ele>425</ele>
        <time>2017-02-09T08:28:20Z</time>
      </trkpt>
      <trkpt lat="46.05938" lon="4.48717">
        <ele>425</ele>
        <time>2017-02-09T08:28:21Z</time>
      </trkpt>
      <trkpt lat="46.05932" lon="4.48708">
        <ele>426</ele>
        <time>2017-02-09T08:28:32Z</time>
      </trkpt>
      <trkpt lat="46.05932" lon="4.48707">
        <ele>426</ele>
        <time>2017-02-09T08:28:33Z</time>
      </trkpt>
      <trkpt lat="46.05928" lon="4.48696">
        <ele>427</ele>
        <time>2017-02-09T08:28:41Z</time>
      </trkpt>
      <trkpt lat="46.05927" lon="4.48695">
        <ele>427</ele>
        <time>2017-02-09T08:28:42Z</time>
      </trkpt>
      <trkpt lat="46.05923" lon="4.48684">
        <ele>428</ele>
        <time>2017-02-09T08:28:51Z</time>
      </trkpt>
      <trkpt lat="46.05922" lon="4.48683">
        <ele>428</ele>
        <time>2017-02-09T08:28:52Z</time>
      </trkpt>
      <trkpt lat="46.05916" lon="4.48674">
        <ele>429</ele>
        <time>2017-02-09T08:29:03Z</time>
      </trkpt>
      <trkpt lat="46.05916" lon="4.48673">
        <ele>429</ele>
        <time>2017-02-09T08:29:04Z</time>
      </trkpt>
      <trkpt lat="46.0591" lon="4.48663">
        <ele>432</ele>
        <time>2017-02-09T08:29:15Z</time>
      </trkpt>
      <trkpt lat="46.0591" lon="4.48662">
        <ele>432</ele>
        <time>2017-02-09T08:29:16Z</time>
      </trkpt>
      <trkpt lat="46.05905" lon="4.48651">
        <ele>432</ele>
        <time>2017-02-09T08:29:26Z</time>
      </trkpt>
      <trkpt lat="46.05904" lon="4.4865">
        <ele>432</ele>
        <time>2017-02-09T08:29:27Z</time>
      </trkpt>
      <trkpt lat="46.059" lon="4.4864">
        <ele>433</ele>
        <time>2017-02-09T08:29:38Z</time>
      </trkpt>
      <trkpt lat="46.05899" lon="4.48639">
        <ele>433</ele>
        <time>2017-02-09T08:29:39Z</time>
      </trkpt>
      <trkpt lat="46.05895" lon="4.48628">
        <ele>434</ele>
        <time>2017-02-09T08:29:49Z</time>
      </trkpt>
      <trkpt lat="46.05895" lon="4.48627">
        <ele>434</ele>
        <time>2017-02-09T08:29:50Z</time>
      </trkpt>
      <trkpt lat="46.05892" lon="4.48615">
        <ele>435</ele>
        <time>2017-02-09T08:30:01Z</time>
      </trkpt>
      <trkpt lat="46.05892" lon="4.48614">
        <ele>435</ele>
        <time>2017-02-09T08:30:02Z</time>
      </trkpt>
      <trkpt lat="46.05892" lon="4.48601">
        <ele>436</ele>
        <time>2017-02-09T08:30:15Z</time>
      </trkpt>
      <trkpt lat="46.05892" lon="4.486">
        <ele>436</ele>
        <time>2017-02-09T08:30:16Z</time>
      </trkpt>
      <trkpt lat="46.05892" lon="4.48588">
        <ele>437</ele>
        <time>2017-02-09T08:30:28Z</time>
      </trkpt>
      <trkpt lat="46.05892" lon="4.48587">
        <ele>437</ele>
        <time>2017-02-09T08:30:29Z</time>
      </trkpt>
      <trkpt lat="46.05893" lon="4.48575">
        <ele>444</ele>
        <time>2017-02-09T08:30:40Z</time>
      </trkpt>
      <trkpt lat="46.05893" lon="4.48574">
        <ele>444</ele>
        <time>2017-02-09T08:30:41Z</time>
      </trkpt>
      <trkpt lat="46.05894" lon="4.48562">
        <ele>445</ele>
        <time>2017-02-09T08:30:51Z</time>
      </trkpt>
      <trkpt lat="46.05895" lon="4.48561">
        <ele>445</ele>
        <time>2017-02-09T08:30:52Z</time>
      </trkpt>
      <trkpt lat="46.05896" lon="4.48549">
        <ele>446</ele>
        <time>2017-02-09T08:31:03Z</time>
      </trkpt>
      <trkpt lat="46.05896" lon="4.48548">
        <ele>446</ele>
        <time>2017-02-09T08:31:04Z</time>
      </trkpt>
      <trkpt lat="46.05898" lon="4.48535">
        <ele>447</ele>
        <time>2017-02-09T08:31:13Z</time>
      </trkpt>
      <trkpt lat="46.05898" lon="4.48534">
        <ele>447</ele>
        <time>2017-02-09T08:31:14Z</time>
      </trkpt>
      <trkpt lat="46.05901" lon="4.48523">
        <ele>448</ele>
        <time>2017-02-09T08:31:22Z</time>
      </trkpt>
      <trkpt lat="46.05901" lon="4.48522">
        <ele>448</ele>
        <time>2017-02-09T08:31:23Z</time>
      </trkpt>
      <trkpt lat="46.05903" lon="4.4851">
        <ele>450</ele>
        <time>2017-02-09T08:31:32Z</time>
      </trkpt>
      <trkpt lat="46.05903" lon="4.48508">
        <ele>450</ele>
        <time>2017-02-09T08:31:33Z</time>
      </trkpt>
      <trkpt lat="46.05903" lon="4.48497">
        <ele>456</ele>
        <time>2017-02-09T08:31:40Z</time>
      </trkpt>
      <trkpt lat="46.05903" lon="4.48495">
        <ele>456</ele>
        <time>2017-02-09T08:31:41Z</time>
      </trkpt>
      <trkpt lat="46.05903" lon="4.48483">
        <ele>457</ele>
        <time>2017-02-09T08:31:49Z</time>
      </trkpt>
      <trkpt lat="46.05902" lon="4.48481">
        <ele>457</ele>
        <time>2017-02-09T08:31:50Z</time>
      </trkpt>
      <trkpt lat="46.05901" lon="4.4847">
        <ele>458</ele>
        <time>2017-02-09T08:31:58Z</time>
      </trkpt>
      <trkpt lat="46.05901" lon="4.48468">
        <ele>458</ele>
        <time>2017-02-09T08:31:59Z</time>
      </trkpt>
      <trkpt lat="46.059" lon="4.48456">
        <ele>459</ele>
        <time>2017-02-09T08:32:07Z</time>
      </trkpt>
      <trkpt lat="46.059" lon="4.48455">
        <ele>459</ele>
        <time>2017-02-09T08:32:08Z</time>
      </trkpt>
      <trkpt lat="46.05895" lon="4.48444">
        <ele>460</ele>
        <time>2017-02-09T08:32:17Z</time>
      </trkpt>
      <trkpt lat="46.05894" lon="4.48444">
        <ele>460</ele>
        <time>2017-02-09T08:32:18Z</time>
      </trkpt>
      <trkpt lat="46.05885" lon="4.48441">
        <ele>460</ele>
        <time>2017-02-09T08:32:26Z</time>
      </trkpt>
      <trkpt lat="46.05884" lon="4.48441">
        <ele>461</ele>
        <time>2017-02-09T08:32:27Z</time>
      </trkpt>
      <trkpt lat="46.05875" lon="4.4844">
        <ele>461</ele>
        <time>2017-02-09T08:32:35Z</time>
      </trkpt>
      <trkpt lat="46.05874" lon="4.4844">
        <ele>461</ele>
        <time>2017-02-09T08:32:36Z</time>
      </trkpt>
      <trkpt lat="46.05866" lon="4.48442">
        <ele>461</ele>
        <time>2017-02-09T08:32:45Z</time>
      </trkpt>
      <trkpt lat="46.05865" lon="4.48442">
        <ele>461</ele>
        <time>2017-02-09T08:32:46Z</time>
      </trkpt>
      <trkpt lat="46.05856" lon="4.48445">
        <ele>461</ele>
        <time>2017-02-09T08:32:59Z</time>
      </trkpt>
      <trkpt lat="46.05856" lon="4.48445">
        <ele>461</ele>
        <time>2017-02-09T08:33:00Z</time>
      </trkpt>
      <trkpt lat="46.05848" lon="4.48447">
        <ele>461</ele>
        <time>2017-02-09T08:33:09Z</time>
      </trkpt>
      <trkpt lat="46.05847" lon="4.48447">
        <ele>461</ele>
        <time>2017-02-09T08:33:10Z</time>
      </trkpt>
      <trkpt lat="46.05838" lon="4.48447">
        <ele>462</ele>
        <time>2017-02-09T08:33:17Z</time>
      </trkpt>
      <trkpt lat="46.05837" lon="4.48447">
        <ele>462</ele>
        <time>2017-02-09T08:33:18Z</time>
      </trkpt>
      <trkpt lat="46.05829" lon="4.4845">
        <ele>464</ele>
        <time>2017-02-09T08:33:29Z</time>
      </trkpt>
      <trkpt lat="46.05828" lon="4.4845">
        <ele>464</ele>
        <time>2017-02-09T08:33:30Z</time>
      </trkpt>
      <trkpt lat="46.0582" lon="4.48456">
        <ele>463</ele>
        <time>2017-02-09T08:33:38Z</time>
      </trkpt>
      <trkpt lat="46.05819" lon="4.48456">
        <ele>463</ele>
        <time>2017-02-09T08:33:39Z</time>
      </trkpt>
      <trkpt lat="46.05811" lon="4.4846">
        <ele>463</ele>
        <time>2017-02-09T08:33:48Z</time>
      </trkpt>
      <trkpt lat="46.0581" lon="4.48461">
        <ele>463</ele>
        <time>2017-02-09T08:33:49Z</time>
      </trkpt>
      <trkpt lat="46.05802" lon="4.48463">
        <ele>463</ele>
        <time>2017-02-09T08:33:58Z</time>
      </trkpt>
      <trkpt lat="46.05801" lon="4.48463">
        <ele>463</ele>
        <time>2017-02-09T08:33:59Z</time>
      </trkpt>
      <trkpt lat="46.05793" lon="4.48465">
        <ele>463</ele>
        <time>2017-02-09T08:34:06Z</time>
      </trkpt>
      <trkpt lat="46.05791" lon="4.48466">
        <ele>463</ele>
        <time>2017-02-09T08:34:07Z</time>
      </trkpt>
      <trkpt lat="46.05783" lon="4.4847">
        <ele>463</ele>
        <time>2017-02-09T08:34:15Z</time>
      </trkpt>
      <trkpt lat="46.05782" lon="4.48471">
        <ele>463</ele>
        <time>2017-02-09T08:34:16Z</time>
      </trkpt>
      <trkpt lat="46.05774" lon="4.48474">
        <ele>463</ele>
        <time>2017-02-09T08:34:24Z</time>
      </trkpt>
      <trkpt lat="46.05773" lon="4.48474">
        <ele>463</ele>
        <time>2017-02-09T08:34:25Z</time>
      </trkpt>
      <trkpt lat="46.05768" lon="4.48464">
        <ele>464</ele>
        <time>2017-02-09T08:34:34Z</time>
      </trkpt>
      <trkpt lat="46.05767" lon="4.48462">
        <ele>464</ele>
        <time>2017-02-09T08:34:35Z</time>
      </trkpt>
      <trkpt lat="46.05769" lon="4.4845">
        <ele>465</ele>
        <time>2017-02-09T08:35:01Z</time>
      </trkpt>
      <trkpt lat="46.05769" lon="4.48449">
        <ele>465</ele>
        <time>2017-02-09T08:35:02Z</time>
      </trkpt>
      <trkpt lat="46.05772" lon="4.48437">
        <ele>466</ele>
        <time>2017-02-09T08:35:16Z</time>
      </trkpt>
      <trkpt lat="46.05772" lon="4.48436">
        <ele>467</ele>
        <time>2017-02-09T08:35:17Z</time>
      </trkpt>
      <trkpt lat="46.05774" lon="4.48424">
        <ele>467</ele>
        <time>2017-02-09T08:35:30Z</time>
      </trkpt>
      <trkpt lat="46.05774" lon="4.48423">
        <ele>467</ele>
        <time>2017-02-09T08:35:31Z</time>
      </trkpt>
      <trkpt lat="46.05776" lon="4.48411">
        <ele>475</ele>
        <time>2017-02-09T08:35:42Z</time>
      </trkpt>
      <trkpt lat="46.05776" lon="4.4841">
        <ele>475</ele>
        <time>2017-02-09T08:35:43Z</time>
      </trkpt>
      <trkpt lat="46.05778" lon="4.48398">
        <ele>476</ele>
        <time>2017-02-09T08:35:53Z</time>
      </trkpt>
      <trkpt lat="46.05779" lon="4.48397">
        <ele>476</ele>
        <time>2017-02-09T08:35:54Z</time>
      </trkpt>
      <trkpt lat="46.05783" lon="4.48386">
        <ele>476</ele>
        <time>2017-02-09T08:36:05Z</time>
      </trkpt>
      <trkpt lat="46.05783" lon="4.48385">
        <ele>476</ele>
        <time>2017-02-09T08:36:06Z</time>
      </trkpt>
      <trkpt lat="46.05787" lon="4.48373">
        <ele>477</ele>
        <time>2017-02-09T08:36:18Z</time>
      </trkpt>
      <trkpt lat="46.05787" lon="4.48372">
        <ele>477</ele>
        <time>2017-02-09T08:36:19Z</time>
      </trkpt>
      <trkpt lat="46.05792" lon="4.48362">
        <ele>478</ele>
        <time>2017-02-09T08:36:31Z</time>
      </trkpt>
      <trkpt lat="46.05792" lon="4.48361">
        <ele>478</ele>
        <time>2017-02-09T08:36:32Z</time>
      </trkpt>
      <trkpt lat="46.05795" lon="4.4835">
        <ele>479</ele>
        <time>2017-02-09T08:36:44Z</time>
      </trkpt>
      <trkpt lat="46.05795" lon="4.48349">
        <ele>479</ele>
        <time>2017-02-09T08:36:45Z</time>
      </trkpt>
      <trkpt lat="46.05799" lon="4.48337">
        <ele>480</ele>
        <time>2017-02-09T08:36:58Z</time>
      </trkpt>
      <trkpt lat="46.05799" lon="4.48336">
        <ele>480</ele>
        <time>2017-02-09T08:36:59Z</time>
      </trkpt>
      <trkpt lat="46.05802" lon="4.48325">
        <ele>487</ele>
        <time>2017-02-09T08:37:11Z</time>
      </trkpt>
      <trkpt lat="46.05803" lon="4.48324">
        <ele>487</ele>
        <time>2017-02-09T08:37:12Z</time>
      </trkpt>
      <trkpt lat="46.05806" lon="4.48312">
        <ele>487</ele>
        <time>2017-02-09T08:37:23Z</time>
      </trkpt>
      <trkpt lat="46.05806" lon="4.48311">
        <ele>487</ele>
        <time>2017-02-09T08:37:24Z</time>
      </trkpt>
      <trkpt lat="46.0581" lon="4.483">
        <ele>488</ele>
        <time>2017-02-09T08:37:35Z</time>
      </trkpt>
      <trkpt lat="46.0581" lon="4.48299">
        <ele>488</ele>
        <time>2017-02-09T08:37:36Z</time>
      </trkpt>
      <trkpt lat="46.05814" lon="4.48288">
        <ele>489</ele>
        <time>2017-02-09T08:37:47Z</time>
      </trkpt>
      <trkpt lat="46.05815" lon="4.48287">
        <ele>489</ele>
        <time>2017-02-09T08:37:48Z</time>
      </trkpt>
      <trkpt lat="46.05819" lon="4.48276">
        <ele>491</ele>
        <time>2017-02-09T08:37:58Z</time>
      </trkpt>
      <trkpt lat="46.0582" lon="4.48275">
        <ele>491</ele>
        <time>2017-02-09T08:37:59Z</time>
      </trkpt>
      <trkpt lat="46.05824" lon="4.48265">
        <ele>493</ele>
        <time>2017-02-09T08:38:09Z</time>
      </trkpt>
      <trkpt lat="46.05825" lon="4.48264">
        <ele>493</ele>
        <time>2017-02-09T08:38:10Z</time>
      </trkpt>
      <trkpt lat="46.05829" lon="4.48253">
        <ele>496</ele>
        <time>2017-02-09T08:38:21Z</time>
      </trkpt>
      <trkpt lat="46.0583" lon="4.48252">
        <ele>496</ele>
        <time>2017-02-09T08:38:22Z</time>
      </trkpt>
      <trkpt lat="46.05835" lon="4.48241">
        <ele>499</ele>
        <time>2017-02-09T08:38:31Z</time>
      </trkpt>
      <trkpt lat="46.05835" lon="4.4824">
        <ele>499</ele>
        <time>2017-02-09T08:38:32Z</time>
      </trkpt>
      <trkpt lat="46.05835" lon="4.48227">
        <ele>501</ele>
        <time>2017-02-09T08:39:04Z</time>
      </trkpt>
      <trkpt lat="46.05836" lon="4.48226">
        <ele>501</ele>
        <time>2017-02-09T08:39:05Z</time>
      </trkpt>
      <trkpt lat="46.05841" lon="4.48216">
        <ele>501</ele>
        <time>2017-02-09T08:39:16Z</time>
      </trkpt>
      <trkpt lat="46.05841" lon="4.48215">
        <ele>501</ele>
        <time>2017-02-09T08:39:17Z</time>
      </trkpt>
      <trkpt lat="46.05847" lon="4.48205">
        <ele>502</ele>
        <time>2017-02-09T08:39:28Z</time>
      </trkpt>
      <trkpt lat="46.05848" lon="4.48204">
        <ele>502</ele>
        <time>2017-02-09T08:39:29Z</time>
      </trkpt>
      <trkpt lat="46.05854" lon="4.48195">
        <ele>502</ele>
        <time>2017-02-09T08:39:38Z</time>
      </trkpt>
      <trkpt lat="46.05854" lon="4.48194">
        <ele>502</ele>
        <time>2017-02-09T08:39:39Z</time>
      </trkpt>
      <trkpt lat="46.05857" lon="4.48183">
        <ele>503</ele>
        <time>2017-02-09T08:39:47Z</time>
      </trkpt>
      <trkpt lat="46.05858" lon="4.48182">
        <ele>503</ele>
        <time>2017-02-09T08:39:48Z</time>
      </trkpt>
      <trkpt lat="46.05861" lon="4.4817">
        <ele>503</ele>
        <time>2017-02-09T08:39:57Z</time>
      </trkpt>
      <trkpt lat="46.05861" lon="4.48169">
        <ele>503</ele>
        <time>2017-02-09T08:39:58Z</time>
      </trkpt>
      <trkpt lat="46.05864" lon="4.48158">
        <ele>506</ele>
        <time>2017-02-09T08:40:06Z</time>
      </trkpt>
      <trkpt lat="46.05864" lon="4.48156">
        <ele>506</ele>
        <time>2017-02-09T08:40:07Z</time>
      </trkpt>
      <trkpt lat="46.05868" lon="4.48147">
        <ele>507</ele>
        <time>2017-02-09T08:40:14Z</time>
      </trkpt>
      <trkpt lat="46.05869" lon="4.48145">
        <ele>507</ele>
        <time>2017-02-09T08:40:15Z</time>
      </trkpt>
      <trkpt lat="46.05872" lon="4.48134">
        <ele>507</ele>
        <time>2017-02-09T08:40:23Z</time>
      </trkpt>
      <trkpt lat="46.05872" lon="4.48132">
        <ele>507</ele>
        <time>2017-02-09T08:40:24Z</time>
      </trkpt>
      <trkpt lat="46.05877" lon="4.48123">
        <ele>508</ele>
        <time>2017-02-09T08:40:31Z</time>
      </trkpt>
      <trkpt lat="46.05878" lon="4.48121">
        <ele>508</ele>
        <time>2017-02-09T08:40:32Z</time>
      </trkpt>
      <trkpt lat="46.05882" lon="4.48111">
        <ele>508</ele>
        <time>2017-02-09T08:40:50Z</time>
      </trkpt>
      <trkpt lat="46.05882" lon="4.48109">
        <ele>508</ele>
        <time>2017-02-09T08:40:51Z</time>
      </trkpt>
      <trkpt lat="46.05889" lon="4.48104">
        <ele>509</ele>
        <time>2017-02-09T08:41:00Z</time>
      </trkpt>
      <trkpt lat="46.0589" lon="4.48103">
        <ele>509</ele>
        <time>2017-02-09T08:41:01Z</time>
      </trkpt>
      <trkpt lat="46.05897" lon="4.481">
        <ele>511</ele>
        <time>2017-02-09T08:41:23Z</time>
      </trkpt>
      <trkpt lat="46.05898" lon="4.48099">
        <ele>511</ele>
        <time>2017-02-09T08:41:24Z</time>
      </trkpt>
      <trkpt lat="46.05907" lon="4.48099">
        <ele>512</ele>
        <time>2017-02-09T08:41:36Z</time>
      </trkpt>
      <trkpt lat="46.05908" lon="4.48099">
        <ele>512</ele>
        <time>2017-02-09T08:41:37Z</time>
      </trkpt>
      <trkpt lat="46.05916" lon="4.481">
        <ele>513</ele>
        <time>2017-02-09T08:41:48Z</time>
      </trkpt>
      <trkpt lat="46.05917" lon="4.481">
        <ele>519</ele>
        <time>2017-02-09T08:41:49Z</time>
      </trkpt>
      <trkpt lat="46.05926" lon="4.48102">
        <ele>519</ele>
        <time>2017-02-09T08:42:01Z</time>
      </trkpt>
      <trkpt lat="46.05927" lon="4.48102">
        <ele>519</ele>
        <time>2017-02-09T08:42:02Z</time>
      </trkpt>
      <trkpt lat="46.05935" lon="4.48101">
        <ele>520</ele>
        <time>2017-02-09T08:42:11Z</time>
      </trkpt>
      <trkpt lat="46.05936" lon="4.48101">
        <ele>520</ele>
        <time>2017-02-09T08:42:12Z</time>
      </trkpt>
      <trkpt lat="46.05945" lon="4.48103">
        <ele>521</ele>
        <time>2017-02-09T08:42:23Z</time>
      </trkpt>
      <trkpt lat="46.05945" lon="4.48103">
        <ele>521</ele>
        <time>2017-02-09T08:42:24Z</time>
      </trkpt>
      <trkpt lat="46.05954" lon="4.48103">
        <ele>522</ele>
        <time>2017-02-09T08:42:38Z</time>
      </trkpt>
      <trkpt lat="46.05955" lon="4.48103">
        <ele>522</ele>
        <time>2017-02-09T08:42:39Z</time>
      </trkpt>
      <trkpt lat="46.05964" lon="4.48102">
        <ele>523</ele>
        <time>2017-02-09T08:42:49Z</time>
      </trkpt>
      <trkpt lat="46.05965" lon="4.48102">
        <ele>523</ele>
        <time>2017-02-09T08:42:50Z</time>
      </trkpt>
      <trkpt lat="46.05973" lon="4.48099">
        <ele>524</ele>
        <time>2017-02-09T08:43:01Z</time>
      </trkpt>
      <trkpt lat="46.05973" lon="4.48098">
        <ele>524</ele>
        <time>2017-02-09T08:43:02Z</time>
      </trkpt>
      <trkpt lat="46.05982" lon="4.48097">
        <ele>526</ele>
        <time>2017-02-09T08:43:16Z</time>
      </trkpt>
      <trkpt lat="46.05982" lon="4.48096">
        <ele>526</ele>
        <time>2017-02-09T08:43:17Z</time>
      </trkpt>
      <trkpt lat="46.0599" lon="4.48093">
        <ele>528</ele>
        <time>2017-02-09T08:43:25Z</time>
      </trkpt>
      <trkpt lat="46.05992" lon="4.48093">
        <ele>528</ele>
        <time>2017-02-09T08:43:26Z</time>
      </trkpt>
      <trkpt lat="46.06" lon="4.48091">
        <ele>529</ele>
        <time>2017-02-09T08:43:34Z</time>
      </trkpt>
      <trkpt lat="46.06001" lon="4.48091">
        <ele>532</ele>
        <time>2017-02-09T08:43:35Z</time>
      </trkpt>
      <trkpt lat="46.06009" lon="4.48088">
        <ele>533</ele>
        <time>2017-02-09T08:43:45Z</time>
      </trkpt>
      <trkpt lat="46.0601" lon="4.48088">
        <ele>533</ele>
        <time>2017-02-09T08:43:46Z</time>
      </trkpt>
      <trkpt lat="46.06017" lon="4.48083">
        <ele>534</ele>
        <time>2017-02-09T08:43:56Z</time>
      </trkpt>
      <trkpt lat="46.06018" lon="4.48082">
        <ele>534</ele>
        <time>2017-02-09T08:43:57Z</time>
      </trkpt>
      <trkpt lat="46.06027" lon="4.48079">
        <ele>535</ele>
        <time>2017-02-09T08:44:09Z</time>
      </trkpt>
      <trkpt lat="46.06027" lon="4.48079">
        <ele>535</ele>
        <time>2017-02-09T08:44:10Z</time>
      </trkpt>
      <trkpt lat="46.06036" lon="4.4808">
        <ele>536</ele>
        <time>2017-02-09T08:44:23Z</time>
      </trkpt>
      <trkpt lat="46.06037" lon="4.4808">
        <ele>536</ele>
        <time>2017-02-09T08:44:24Z</time>
      </trkpt>
      <trkpt lat="46.06045" lon="4.48079">
        <ele>537</ele>
        <time>2017-02-09T08:44:35Z</time>
      </trkpt>
      <trkpt lat="46.06046" lon="4.48079">
        <ele>537</ele>
        <time>2017-02-09T08:44:36Z</time>
      </trkpt>
      <trkpt lat="46.06054" lon="4.4808">
        <ele>538</ele>
        <time>2017-02-09T08:44:46Z</time>
      </trkpt>
      <trkpt lat="46.06055" lon="4.4808">
        <ele>538</ele>
        <time>2017-02-09T08:44:47Z</time>
      </trkpt>
      <trkpt lat="46.06063" lon="4.48079">
        <ele>539</ele>
        <time>2017-02-09T08:44:55Z</time>
      </trkpt>
      <trkpt lat="46.06064" lon="4.48079">
        <ele>539</ele>
        <time>2017-02-09T08:44:56Z</time>
      </trkpt>
      <trkpt lat="46.06073" lon="4.48078">
        <ele>540</ele>
        <time>2017-02-09T08:45:04Z</time>
      </trkpt>
      <trkpt lat="46.06073" lon="4.48077">
        <ele>540</ele>
        <time>2017-02-09T08:45:05Z</time>
      </trkpt>
      <trkpt lat="46.06081" lon="4.48076">
        <ele>541</ele>
        <time>2017-02-09T08:45:12Z</time>
      </trkpt>
      <trkpt lat="46.06083" lon="4.48076">
        <ele>541</ele>
        <time>2017-02-09T08:45:13Z</time>
      </trkpt>
      <trkpt lat="46.06091" lon="4.48075">
        <ele>542</ele>
        <time>2017-02-09T08:45:21Z</time>
      </trkpt>
      <trkpt lat="46.06092" lon="4.48074">
        <ele>542</ele>
        <time>2017-02-09T08:45:22Z</time>
      </trkpt>
      <trkpt lat="46.061" lon="4.48071">
        <ele>542</ele>
        <time>2017-02-09T08:45:29Z</time>
      </trkpt>
      <trkpt lat="46.06101" lon="4.48071">
        <ele>542</ele>
        <time>2017-02-09T08:45:30Z</time>
      </trkpt>
      <trkpt lat="46.06108" lon="4.48064">
        <ele>541</ele>
        <time>2017-02-09T08:45:37Z</time>
      </trkpt>
      <trkpt lat="46.06108" lon="4.48062">
        <ele>541</ele>
        <time>2017-02-09T08:45:38Z</time>
      </trkpt>
      <trkpt lat="46.06115" lon="4.48055">
        <ele>541</ele>
        <time>2017-02-09T08:45:46Z</time>
      </trkpt>
      <trkpt lat="46.06115" lon="4.48054">
        <ele>541</ele>
        <time>2017-02-09T08:45:47Z</time>
      </trkpt>
      <trkpt lat="46.06121" lon="4.48045">
        <ele>541</ele>
        <time>2017-02-09T08:45:54Z</time>
      </trkpt>
      <trkpt lat="46.06122" lon="4.48043">
        <ele>541</ele>
        <time>2017-02-09T08:45:55Z</time>
      </trkpt>
      <trkpt lat="46.06126" lon="4.48032">
        <ele>541</ele>
        <time>2017-02-09T08:46:02Z</time>
      </trkpt>
      <trkpt lat="46.06127" lon="4.4803">
        <ele>541</ele>
        <time>2017-02-09T08:46:03Z</time>
      </trkpt>
      <trkpt lat="46.0613" lon="4.48019">
        <ele>542</ele>
        <time>2017-02-09T08:46:10Z</time>
      </trkpt>
      <trkpt lat="46.06131" lon="4.48017">
        <ele>542</ele>
        <time>2017-02-09T08:46:11Z</time>
      </trkpt>
      <trkpt lat="46.06132" lon="4.48006">
        <ele>542</ele>
        <time>2017-02-09T08:46:17Z</time>
      </trkpt>
      <trkpt lat="46.06132" lon="4.48004">
        <ele>542</ele>
        <time>2017-02-09T08:46:18Z</time>
      </trkpt>
      <trkpt lat="46.06133" lon="4.47991">
        <ele>543</ele>
        <time>2017-02-09T08:46:25Z</time>
      </trkpt>
      <trkpt lat="46.06133" lon="4.4799">
        <ele>543</ele>
        <time>2017-02-09T08:46:26Z</time>
      </trkpt>
      <trkpt lat="46.06136" lon="4.47979">
        <ele>543</ele>
        <time>2017-02-09T08:46:32Z</time>
      </trkpt>
      <trkpt lat="46.06136" lon="4.47977">
        <ele>543</ele>
        <time>2017-02-09T08:46:33Z</time>
      </trkpt>
      <trkpt lat="46.06138" lon="4.47965">
        <ele>543</ele>
        <time>2017-02-09T08:46:40Z</time>
      </trkpt>
      <trkpt lat="46.06138" lon="4.47963">
        <ele>543</ele>
        <time>2017-02-09T08:46:41Z</time>
      </trkpt>
      <trkpt lat="46.06139" lon="4.4795">
        <ele>544</ele>
        <time>2017-02-09T08:46:48Z</time>
      </trkpt>
      <trkpt lat="46.06139" lon="4.47949">
        <ele>544</ele>
        <time>2017-02-09T08:46:49Z</time>
      </trkpt>
      <trkpt lat="46.06141" lon="4.47936">
        <ele>544</ele>
        <time>2017-02-09T08:46:56Z</time>
      </trkpt>
      <trkpt lat="46.06141" lon="4.47934">
        <ele>544</ele>
        <time>2017-02-09T08:46:57Z</time>
      </trkpt>
      <trkpt lat="46.06142" lon="4.47922">
        <ele>545</ele>
        <time>2017-02-09T08:47:04Z</time>
      </trkpt>
      <trkpt lat="46.06143" lon="4.47921">
        <ele>545</ele>
        <time>2017-02-09T08:47:05Z</time>
      </trkpt>
      <trkpt lat="46.0615" lon="4.47913">
        <ele>547</ele>
        <time>2017-02-09T08:47:51Z</time>
      </trkpt>
      <trkpt lat="46.0615" lon="4.47913">
        <ele>547</ele>
        <time>2017-02-09T08:47:52Z</time>
      </trkpt>
      <trkpt lat="46.06159" lon="4.47912">
        <ele>548</ele>
        <time>2017-02-09T08:48:01Z</time>
      </trkpt>
      <trkpt lat="46.0616" lon="4.47912">
        <ele>548</ele>
        <time>2017-02-09T08:48:02Z</time>
      </trkpt>
      <trkpt lat="46.06169" lon="4.47909">
        <ele>550</ele>
        <time>2017-02-09T08:48:09Z</time>
      </trkpt>
      <trkpt lat="46.0617" lon="4.47909">
        <ele>550</ele>
        <time>2017-02-09T08:48:10Z</time>
      </trkpt>
      <trkpt lat="46.06178" lon="4.47909">
        <ele>551</ele>
        <time>2017-02-09T08:48:17Z</time>
      </trkpt>
      <trkpt lat="46.06179" lon="4.47909">
        <ele>551</ele>
        <time>2017-02-09T08:48:18Z</time>
      </trkpt>
      <trkpt lat="46.06188" lon="4.47908">
        <ele>551</ele>
        <time>2017-02-09T08:48:25Z</time>
      </trkpt>
      <trkpt lat="46.06189" lon="4.47908">
        <ele>551</ele>
        <time>2017-02-09T08:48:26Z</time>
      </trkpt>
      <trkpt lat="46.06197" lon="4.47908">
        <ele>551</ele>
        <time>2017-02-09T08:48:34Z</time>
      </trkpt>
      <trkpt lat="46.06198" lon="4.47908">
        <ele>551</ele>
        <time>2017-02-09T08:48:35Z</time>
      </trkpt>
      <trkpt lat="46.06207" lon="4.47906">
        <ele>551</ele>
        <time>2017-02-09T08:48:41Z</time>
      </trkpt>
      <trkpt lat="46.06208" lon="4.47906">
        <ele>551</ele>
        <time>2017-02-09T08:48:42Z</time>
      </trkpt>
      <trkpt lat="46.06217" lon="4.47904">
        <ele>551</ele>
        <time>2017-02-09T08:48:50Z</time>
      </trkpt>
      <trkpt lat="46.06218" lon="4.47904">
        <ele>551</ele>
        <time>2017-02-09T08:48:51Z</time>
      </trkpt>
      <trkpt lat="46.06226" lon="4.47903">
        <ele>551</ele>
        <time>2017-02-09T08:48:59Z</time>
      </trkpt>
      <trkpt lat="46.06227" lon="4.47902">
        <ele>551</ele>
        <time>2017-02-09T08:49:00Z</time>
      </trkpt>
      <trkpt lat="46.06235" lon="4.47898">
        <ele>551</ele>
        <time>2017-02-09T08:49:07Z</time>
      </trkpt>
      <trkpt lat="46.06237" lon="4.47897">
        <ele>551</ele>
        <time>2017-02-09T08:49:08Z</time>
      </trkpt>
      <trkpt lat="46.06245" lon="4.47895">
        <ele>551</ele>
        <time>2017-02-09T08:49:14Z</time>
      </trkpt>
      <trkpt lat="46.06246" lon="4.47895">
        <ele>551</ele>
        <time>2017-02-09T08:49:15Z</time>
      </trkpt>
      <trkpt lat="46.06254" lon="4.47892">
        <ele>552</ele>
        <time>2017-02-09T08:49:21Z</time>
      </trkpt>
      <trkpt lat="46.06256" lon="4.47892">
        <ele>552</ele>
        <time>2017-02-09T08:49:22Z</time>
      </trkpt>
      <trkpt lat="46.06263" lon="4.47891">
        <ele>553</ele>
        <time>2017-02-09T08:49:28Z</time>
      </trkpt>
      <trkpt lat="46.06265" lon="4.4789">
        <ele>553</ele>
        <time>2017-02-09T08:49:29Z</time>
      </trkpt>
      <trkpt lat="46.06273" lon="4.47888">
        <ele>553</ele>
        <time>2017-02-09T08:49:36Z</time>
      </trkpt>
      <trkpt lat="46.06274" lon="4.47888">
        <ele>553</ele>
        <time>2017-02-09T08:49:37Z</time>
      </trkpt>
      <trkpt lat="46.06283" lon="4.47888">
        <ele>554</ele>
        <time>2017-02-09T08:49:44Z</time>
      </trkpt>
      <trkpt lat="46.06284" lon="4.47889">
        <ele>554</ele>
        <time>2017-02-09T08:49:45Z</time>
      </trkpt>
      <trkpt lat="46.06292" lon="4.47891">
        <ele>553</ele>
        <time>2017-02-09T08:49:53Z</time>
      </trkpt>
      <trkpt lat="46.06293" lon="4.47891">
        <ele>554</ele>
        <time>2017-02-09T08:49:54Z</time>
      </trkpt>
      <trkpt lat="46.06302" lon="4.47889">
        <ele>554</ele>
        <time>2017-02-09T08:50:03Z</time>
      </trkpt>
      <trkpt lat="46.06303" lon="4.47889">
        <ele>554</ele>
        <time>2017-02-09T08:50:04Z</time>
      </trkpt>
      <trkpt lat="46.06311" lon="4.47889">
        <ele>554</ele>
        <time>2017-02-09T08:50:14Z</time>
      </trkpt>
      <trkpt lat="46.06312" lon="4.47889">
        <ele>554</ele>
        <time>2017-02-09T08:50:15Z</time>
      </trkpt>
      <trkpt lat="46.06321" lon="4.47889">
        <ele>554</ele>
        <time>2017-02-09T08:50:24Z</time>
      </trkpt>
      <trkpt lat="46.06322" lon="4.47889">
        <ele>554</ele>
        <time>2017-02-09T08:50:25Z</time>
      </trkpt>
      <trkpt lat="46.0633" lon="4.47889">
        <ele>553</ele>
        <time>2017-02-09T08:50:33Z</time>
      </trkpt>
      <trkpt lat="46.06331" lon="4.47889">
        <ele>553</ele>
        <time>2017-02-09T08:50:34Z</time>
      </trkpt>
      <trkpt lat="46.06339" lon="4.4789">
        <ele>555</ele>
        <time>2017-02-09T08:50:44Z</time>
      </trkpt>
      <trkpt lat="46.0634" lon="4.4789">
        <ele>555</ele>
        <time>2017-02-09T08:50:45Z</time>
      </trkpt>
      <trkpt lat="46.06348" lon="4.47888">
        <ele>556</ele>
        <time>2017-02-09T08:50:52Z</time>
      </trkpt>
      <trkpt lat="46.06349" lon="4.47888">
        <ele>556</ele>
        <time>2017-02-09T08:50:53Z</time>
      </trkpt>
      <trkpt lat="46.06358" lon="4.47885">
        <ele>557</ele>
        <time>2017-02-09T08:51:01Z</time>
      </trkpt>
      <trkpt lat="46.06359" lon="4.47885">
        <ele>557</ele>
        <time>2017-02-09T08:51:02Z</time>
      </trkpt>
      <trkpt lat="46.06367" lon="4.47884">
        <ele>557</ele>
        <time>2017-02-09T08:51:13Z</time>
      </trkpt>
      <trkpt lat="46.06368" lon="4.47884">
        <ele>557</ele>
        <time>2017-02-09T08:51:14Z</time>
      </trkpt>
      <trkpt lat="46.06377" lon="4.47885">
        <ele>557</ele>
        <time>2017-02-09T08:51:24Z</time>
      </trkpt>
      <trkpt lat="46.06377" lon="4.47886">
        <ele>557</ele>
        <time>2017-02-09T08:51:25Z</time>
      </trkpt>
      <trkpt lat="46.06386" lon="4.47887">
        <ele>557</ele>
        <time>2017-02-09T08:51:33Z</time>
      </trkpt>
      <trkpt lat="46.06386" lon="4.47888">
        <ele>557</ele>
        <time>2017-02-09T08:51:34Z</time>
      </trkpt>
      <trkpt lat="46.06394" lon="4.47891">
        <ele>557</ele>
        <time>2017-02-09T08:51:42Z</time>
      </trkpt>
      <trkpt lat="46.06396" lon="4.47892">
        <ele>557</ele>
        <time>2017-02-09T08:51:43Z</time>
      </trkpt>
      <trkpt lat="46.06403" lon="4.47895">
        <ele>557</ele>
        <time>2017-02-09T08:51:51Z</time>
      </trkpt>
      <trkpt lat="46.06404" lon="4.47896">
        <ele>557</ele>
        <time>2017-02-09T08:51:52Z</time>
      </trkpt>
      <trkpt lat="46.06412" lon="4.479">
        <ele>557</ele>
        <time>2017-02-09T08:51:59Z</time>
      </trkpt>
      <trkpt lat="46.06413" lon="4.47901">
        <ele>557</ele>
        <time>2017-02-09T08:52:00Z</time>
      </trkpt>
      <trkpt lat="46.06421" lon="4.47904">
        <ele>559</ele>
        <time>2017-02-09T08:52:08Z</time>
      </trkpt>
      <trkpt lat="46.06422" lon="4.47905">
        <ele>559</ele>
        <time>2017-02-09T08:52:09Z</time>
      </trkpt>
      <trkpt lat="46.0643" lon="4.4791">
        <ele>559</ele>
        <time>2017-02-09T08:52:19Z</time>
      </trkpt>
      <trkpt lat="46.06431" lon="4.4791">
        <ele>559</ele>
        <time>2017-02-09T08:52:20Z</time>
      </trkpt>
      <trkpt lat="46.06439" lon="4.47913">
        <ele>560</ele>
        <time>2017-02-09T08:52:27Z</time>
      </trkpt>
      <trkpt lat="46.0644" lon="4.47914">
        <ele>561</ele>
        <time>2017-02-09T08:52:28Z</time>
      </trkpt>
      <trkpt lat="46.06448" lon="4.47916">
        <ele>561</ele>
        <time>2017-02-09T08:52:35Z</time>
      </trkpt>
      <trkpt lat="46.0645" lon="4.47916">
        <ele>562</ele>
        <time>2017-02-09T08:52:36Z</time>
      </trkpt>
      <trkpt lat="46.06458" lon="4.47918">
        <ele>555</ele>
        <time>2017-02-09T08:52:42Z</time>
      </trkpt>
      <trkpt lat="46.06459" lon="4.47918">
        <ele>555</ele>
        <time>2017-02-09T08:52:43Z</time>
      </trkpt>
      <trkpt lat="46.06467" lon="4.47921">
        <ele>555</ele>
        <time>2017-02-09T08:52:50Z</time>
      </trkpt>
      <trkpt lat="46.06468" lon="4.47921">
        <ele>555</ele>
        <time>2017-02-09T08:52:51Z</time>
      </trkpt>
      <trkpt lat="46.06476" lon="4.47923">
        <ele>556</ele>
        <time>2017-02-09T08:52:59Z</time>
      </trkpt>
      <trkpt lat="46.06478" lon="4.47923">
        <ele>556</ele>
        <time>2017-02-09T08:53:00Z</time>
      </trkpt>
      <trkpt lat="46.06486" lon="4.47927">
        <ele>557</ele>
        <time>2017-02-09T08:53:08Z</time>
      </trkpt>
      <trkpt lat="46.06487" lon="4.47927">
        <ele>557</ele>
        <time>2017-02-09T08:53:09Z</time>
      </trkpt>
      <trkpt lat="46.06495" lon="4.47925">
        <ele>559</ele>
        <time>2017-02-09T08:53:16Z</time>
      </trkpt>
      <trkpt lat="46.06497" lon="4.47924">
        <ele>559</ele>
        <time>2017-02-09T08:53:17Z</time>
      </trkpt>
      <trkpt lat="46.06505" lon="4.47923">
        <ele>560</ele>
        <time>2017-02-09T08:53:25Z</time>
      </trkpt>
      <trkpt lat="46.06506" lon="4.47923">
        <ele>560</ele>
        <time>2017-02-09T08:53:26Z</time>
      </trkpt>
      <trkpt lat="46.06514" lon="4.47919">
        <ele>559</ele>
        <time>2017-02-09T08:53:34Z</time>
      </trkpt>
      <trkpt lat="46.06515" lon="4.47919">
        <ele>559</ele>
        <time>2017-02-09T08:53:35Z</time>
      </trkpt>
      <trkpt lat="46.06522" lon="4.47912">
        <ele>565</ele>
        <time>2017-02-09T08:56:10Z</time>
      </trkpt>
      <trkpt lat="46.06523" lon="4.47912">
        <ele>565</ele>
        <time>2017-02-09T08:56:11Z</time>
      </trkpt>
      <trkpt lat="46.06532" lon="4.47916">
        <ele>565</ele>
        <time>2017-02-09T08:57:29Z</time>
      </trkpt>
      <trkpt lat="46.06532" lon="4.47916">
        <ele>565</ele>
        <time>2017-02-09T08:57:30Z</time>
      </trkpt>
      <trkpt lat="46.0654" lon="4.47922">
        <ele>557</ele>
        <time>2017-02-09T08:57:55Z</time>
      </trkpt>
      <trkpt lat="46.06541" lon="4.47922">
        <ele>557</ele>
        <time>2017-02-09T08:57:56Z</time>
      </trkpt>
      <trkpt lat="46.06549" lon="4.47923">
        <ele>557</ele>
        <time>2017-02-09T08:58:05Z</time>
      </trkpt>
      <trkpt lat="46.0655" lon="4.47924">
        <ele>557</ele>
        <time>2017-02-09T08:58:06Z</time>
      </trkpt>
      <trkpt lat="46.06559" lon="4.47927">
        <ele>557</ele>
        <time>2017-02-09T08:58:15Z</time>
      </trkpt>
      <trkpt lat="46.0656" lon="4.47927">
        <ele>557</ele>
        <time>2017-02-09T08:58:16Z</time>
      </trkpt>
      <trkpt lat="46.06568" lon="4.47928">
        <ele>558</ele>
        <time>2017-02-09T08:58:23Z</time>
      </trkpt>
      <trkpt lat="46.06569" lon="4.47928">
        <ele>558</ele>
        <time>2017-02-09T08:58:24Z</time>
      </trkpt>
      <trkpt lat="46.06577" lon="4.47932">
        <ele>558</ele>
        <time>2017-02-09T08:58:33Z</time>
      </trkpt>
      <trkpt lat="46.06578" lon="4.47932">
        <ele>558</ele>
        <time>2017-02-09T08:58:34Z</time>
      </trkpt>
      <trkpt lat="46.06586" lon="4.47934">
        <ele>557</ele>
        <time>2017-02-09T08:58:42Z</time>
      </trkpt>
      <trkpt lat="46.06587" lon="4.47935">
        <ele>557</ele>
        <time>2017-02-09T08:58:43Z</time>
      </trkpt>
      <trkpt lat="46.06595" lon="4.47934">
        <ele>557</ele>
        <time>2017-02-09T08:58:51Z</time>
      </trkpt>
      <trkpt lat="46.06596" lon="4.47934">
        <ele>556</ele>
        <time>2017-02-09T08:58:52Z</time>
      </trkpt>
      <trkpt lat="46.06604" lon="4.47936">
        <ele>556</ele>
        <time>2017-02-09T08:58:59Z</time>
      </trkpt>
      <trkpt lat="46.06605" lon="4.47936">
        <ele>556</ele>
        <time>2017-02-09T08:59:00Z</time>
      </trkpt>
      <trkpt lat="46.06613" lon="4.47941">
        <ele>555</ele>
        <time>2017-02-09T08:59:08Z</time>
      </trkpt>
      <trkpt lat="46.06614" lon="4.47941">
        <ele>555</ele>
        <time>2017-02-09T08:59:09Z</time>
      </trkpt>
      <trkpt lat="46.06622" lon="4.47937">
        <ele>555</ele>
        <time>2017-02-09T08:59:17Z</time>
      </trkpt>
      <trkpt lat="46.06623" lon="4.47937">
        <ele>555</ele>
        <time>2017-02-09T08:59:18Z</time>
      </trkpt>
      <trkpt lat="46.06631" lon="4.47933">
        <ele>556</ele>
        <time>2017-02-09T08:59:25Z</time>
      </trkpt>
      <trkpt lat="46.06632" lon="4.47932">
        <ele>556</ele>
        <time>2017-02-09T08:59:26Z</time>
      </trkpt>
      <trkpt lat="46.06639" lon="4.47926">
        <ele>556</ele>
        <time>2017-02-09T08:59:33Z</time>
      </trkpt>
      <trkpt lat="46.0664" lon="4.47925">
        <ele>556</ele>
        <time>2017-02-09T08:59:34Z</time>
      </trkpt>
      <trkpt lat="46.06647" lon="4.4792">
        <ele>557</ele>
        <time>2017-02-09T08:59:43Z</time>
      </trkpt>
      <trkpt lat="46.06648" lon="4.4792">
        <ele>557</ele>
        <time>2017-02-09T08:59:44Z</time>
      </trkpt>
      <trkpt lat="46.06651" lon="4.47908">
        <ele>562</ele>
        <time>2017-02-09T08:59:56Z</time>
      </trkpt>
      <trkpt lat="46.06652" lon="4.47907">
        <ele>562</ele>
        <time>2017-02-09T08:59:57Z</time>
      </trkpt>
      <trkpt lat="46.06657" lon="4.47899">
        <ele>562</ele>
        <time>2017-02-09T09:00:04Z</time>
      </trkpt>
      <trkpt lat="46.06658" lon="4.47898">
        <ele>562</ele>
        <time>2017-02-09T09:00:05Z</time>
      </trkpt>
      <trkpt lat="46.06664" lon="4.47889">
        <ele>563</ele>
        <time>2017-02-09T09:00:12Z</time>
      </trkpt>
      <trkpt lat="46.06665" lon="4.47888">
        <ele>563</ele>
        <time>2017-02-09T09:00:13Z</time>
      </trkpt>
      <trkpt lat="46.06672" lon="4.47884">
        <ele>558</ele>
        <time>2017-02-09T09:00:23Z</time>
      </trkpt>
      <trkpt lat="46.06673" lon="4.47882">
        <ele>558</ele>
        <time>2017-02-09T09:00:24Z</time>
      </trkpt>
      <trkpt lat="46.0668" lon="4.47875">
        <ele>559</ele>
        <time>2017-02-09T09:00:30Z</time>
      </trkpt>
      <trkpt lat="46.06681" lon="4.47875">
        <ele>559</ele>
        <time>2017-02-09T09:00:31Z</time>
      </trkpt>
      <trkpt lat="46.06688" lon="4.47867">
        <ele>559</ele>
        <time>2017-02-09T09:00:38Z</time>
      </trkpt>
      <trkpt lat="46.06688" lon="4.47866">
        <ele>559</ele>
        <time>2017-02-09T09:00:39Z</time>
      </trkpt>
      <trkpt lat="46.06695" lon="4.47859">
        <ele>559</ele>
        <time>2017-02-09T09:00:45Z</time>
      </trkpt>
      <trkpt lat="46.06696" lon="4.47858">
        <ele>559</ele>
        <time>2017-02-09T09:00:46Z</time>
      </trkpt>
      <trkpt lat="46.06703" lon="4.47853">
        <ele>558</ele>
        <time>2017-02-09T09:00:53Z</time>
      </trkpt>
      <trkpt lat="46.06704" lon="4.47851">
        <ele>558</ele>
        <time>2017-02-09T09:00:54Z</time>
      </trkpt>
      <trkpt lat="46.06712" lon="4.4785">
        <ele>558</ele>
        <time>2017-02-09T09:01:03Z</time>
      </trkpt>
      <trkpt lat="46.06713" lon="4.47849">
        <ele>558</ele>
        <time>2017-02-09T09:01:04Z</time>
      </trkpt>
      <trkpt lat="46.06722" lon="4.47845">
        <ele>557</ele>
        <time>2017-02-09T09:01:10Z</time>
      </trkpt>
      <trkpt lat="46.06723" lon="4.47845">
        <ele>557</ele>
        <time>2017-02-09T09:01:11Z</time>
      </trkpt>
      <trkpt lat="46.06732" lon="4.47846">
        <ele>557</ele>
        <time>2017-02-09T09:01:19Z</time>
      </trkpt>
      <trkpt lat="46.06733" lon="4.47847">
        <ele>557</ele>
        <time>2017-02-09T09:01:20Z</time>
      </trkpt>
      <trkpt lat="46.06739" lon="4.47854">
        <ele>557</ele>
        <time>2017-02-09T09:01:26Z</time>
      </trkpt>
      <trkpt lat="46.06741" lon="4.47856">
        <ele>557</ele>
        <time>2017-02-09T09:01:27Z</time>
      </trkpt>
      <trkpt lat="46.06748" lon="4.47863">
        <ele>556</ele>
        <time>2017-02-09T09:01:33Z</time>
      </trkpt>
      <trkpt lat="46.06749" lon="4.47864">
        <ele>556</ele>
        <time>2017-02-09T09:01:34Z</time>
      </trkpt>
      <trkpt lat="46.06756" lon="4.4787">
        <ele>553</ele>
        <time>2017-02-09T09:01:40Z</time>
      </trkpt>
      <trkpt lat="46.06757" lon="4.47871">
        <ele>553</ele>
        <time>2017-02-09T09:01:41Z</time>
      </trkpt>
      <trkpt lat="46.06763" lon="4.4788">
        <ele>552</ele>
        <time>2017-02-09T09:01:48Z</time>
      </trkpt>
      <trkpt lat="46.06764" lon="4.4788">
        <ele>552</ele>
        <time>2017-02-09T09:01:49Z</time>
      </trkpt>
      <trkpt lat="46.06769" lon="4.4789">
        <ele>552</ele>
        <time>2017-02-09T09:01:56Z</time>
      </trkpt>
      <trkpt lat="46.0677" lon="4.47891">
        <ele>552</ele>
        <time>2017-02-09T09:01:57Z</time>
      </trkpt>
      <trkpt lat="46.06775" lon="4.47899">
        <ele>551</ele>
        <time>2017-02-09T09:02:03Z</time>
      </trkpt>
      <trkpt lat="46.06776" lon="4.47901">
        <ele>551</ele>
        <time>2017-02-09T09:02:04Z</time>
      </trkpt>
      <trkpt lat="46.06782" lon="4.47909">
        <ele>551</ele>
        <time>2017-02-09T09:02:10Z</time>
      </trkpt>
      <trkpt lat="46.06783" lon="4.4791">
        <ele>551</ele>
        <time>2017-02-09T09:02:11Z</time>
      </trkpt>
      <trkpt lat="46.06789" lon="4.47917">
        <ele>544</ele>
        <time>2017-02-09T09:02:17Z</time>
      </trkpt>
      <trkpt lat="46.0679" lon="4.47918">
        <ele>544</ele>
        <time>2017-02-09T09:02:18Z</time>
      </trkpt>
      <trkpt lat="46.06797" lon="4.47925">
        <ele>544</ele>
        <time>2017-02-09T09:02:24Z</time>
      </trkpt>
      <trkpt lat="46.06798" lon="4.47926">
        <ele>544</ele>
        <time>2017-02-09T09:02:25Z</time>
      </trkpt>
      <trkpt lat="46.06806" lon="4.4793">
        <ele>544</ele>
        <time>2017-02-09T09:02:31Z</time>
      </trkpt>
      <trkpt lat="46.06807" lon="4.47931">
        <ele>544</ele>
        <time>2017-02-09T09:02:32Z</time>
      </trkpt>
      <trkpt lat="46.06814" lon="4.47935">
        <ele>544</ele>
        <time>2017-02-09T09:02:38Z</time>
      </trkpt>
      <trkpt lat="46.06816" lon="4.47935">
        <ele>544</ele>
        <time>2017-02-09T09:02:39Z</time>
      </trkpt>
      <trkpt lat="46.06824" lon="4.47936">
        <ele>544</ele>
        <time>2017-02-09T09:02:45Z</time>
      </trkpt>
      <trkpt lat="46.06825" lon="4.47936">
        <ele>544</ele>
        <time>2017-02-09T09:02:46Z</time>
      </trkpt>
      <trkpt lat="46.06834" lon="4.47939">
        <ele>546</ele>
        <time>2017-02-09T09:02:53Z</time>
      </trkpt>
      <trkpt lat="46.06835" lon="4.47939">
        <ele>546</ele>
        <time>2017-02-09T09:02:54Z</time>
      </trkpt>
      <trkpt lat="46.06843" lon="4.47938">
        <ele>546</ele>
        <time>2017-02-09T09:03:00Z</time>
      </trkpt>
      <trkpt lat="46.06844" lon="4.47938">
        <ele>546</ele>
        <time>2017-02-09T09:03:01Z</time>
      </trkpt>
      <trkpt lat="46.06852" lon="4.47938">
        <ele>546</ele>
        <time>2017-02-09T09:03:07Z</time>
      </trkpt>
      <trkpt lat="46.06854" lon="4.47938">
        <ele>546</ele>
        <time>2017-02-09T09:03:08Z</time>
      </trkpt>
      <trkpt lat="46.06862" lon="4.4794">
        <ele>546</ele>
        <time>2017-02-09T09:03:15Z</time>
      </trkpt>
      <trkpt lat="46.06863" lon="4.4794">
        <ele>546</ele>
        <time>2017-02-09T09:03:16Z</time>
      </trkpt>
      <trkpt lat="46.06871" lon="4.47942">
        <ele>546</ele>
        <time>2017-02-09T09:03:22Z</time>
      </trkpt>
      <trkpt lat="46.06872" lon="4.47942">
        <ele>546</ele>
        <time>2017-02-09T09:03:23Z</time>
      </trkpt>
      <trkpt lat="46.0688" lon="4.47944">
        <ele>546</ele>
        <time>2017-02-09T09:03:29Z</time>
      </trkpt>
      <trkpt lat="46.06881" lon="4.47944">
        <ele>546</ele>
        <time>2017-02-09T09:03:30Z</time>
      </trkpt>
      <trkpt lat="46.06889" lon="4.47943">
        <ele>547</ele>
        <time>2017-02-09T09:03:36Z</time>
      </trkpt>
      <trkpt lat="46.0689" lon="4.47943">
        <ele>547</ele>
        <time>2017-02-09T09:03:37Z</time>
      </trkpt>
      <trkpt lat="46.06899" lon="4.47943">
        <ele>547</ele>
        <time>2017-02-09T09:03:43Z</time>
      </trkpt>
      <trkpt lat="46.069" lon="4.47943">
        <ele>547</ele>
        <time>2017-02-09T09:03:44Z</time>
      </trkpt>
      <trkpt lat="46.06908" lon="4.47944">
        <ele>548</ele>
        <time>2017-02-09T09:03:50Z</time>
      </trkpt>
      <trkpt lat="46.06909" lon="4.47944">
        <ele>548</ele>
        <time>2017-02-09T09:03:51Z</time>
      </trkpt>
      <trkpt lat="46.06917" lon="4.47944">
        <ele>551</ele>
        <time>2017-02-09T09:03:58Z</time>
      </trkpt>
      <trkpt lat="46.06918" lon="4.47944">
        <ele>551</ele>
        <time>2017-02-09T09:03:59Z</time>
      </trkpt>
      <trkpt lat="46.06927" lon="4.47944">
        <ele>551</ele>
        <time>2017-02-09T09:04:07Z</time>
      </trkpt>
      <trkpt lat="46.06928" lon="4.47944">
        <ele>551</ele>
        <time>2017-02-09T09:04:08Z</time>
      </trkpt>
      <trkpt lat="46.06936" lon="4.47943">
        <ele>551</ele>
        <time>2017-02-09T09:04:15Z</time>
      </trkpt>
      <trkpt lat="46.06938" lon="4.47943">
        <ele>551</ele>
        <time>2017-02-09T09:04:16Z</time>
      </trkpt>
      <trkpt lat="46.06946" lon="4.47947">
        <ele>551</ele>
        <time>2017-02-09T09:04:23Z</time>
      </trkpt>
      <trkpt lat="46.06947" lon="4.47948">
        <ele>551</ele>
        <time>2017-02-09T09:04:24Z</time>
      </trkpt>
      <trkpt lat="46.06955" lon="4.4795">
        <ele>551</ele>
        <time>2017-02-09T09:04:31Z</time>
      </trkpt>
      <trkpt lat="46.06956" lon="4.47951">
        <ele>551</ele>
        <time>2017-02-09T09:04:32Z</time>
      </trkpt>
      <trkpt lat="46.06964" lon="4.47951">
        <ele>551</ele>
        <time>2017-02-09T09:04:39Z</time>
      </trkpt>
      <trkpt lat="46.06965" lon="4.47951">
        <ele>551</ele>
        <time>2017-02-09T09:04:40Z</time>
      </trkpt>
      <trkpt lat="46.06974" lon="4.47952">
        <ele>551</ele>
        <time>2017-02-09T09:04:47Z</time>
      </trkpt>
      <trkpt lat="46.06975" lon="4.47952">
        <ele>551</ele>
        <time>2017-02-09T09:04:48Z</time>
      </trkpt>
      <trkpt lat="46.06983" lon="4.47952">
        <ele>551</ele>
        <time>2017-02-09T09:04:54Z</time>
      </trkpt>
      <trkpt lat="46.06984" lon="4.47952">
        <ele>551</ele>
        <time>2017-02-09T09:04:55Z</time>
      </trkpt>
      <trkpt lat="46.06992" lon="4.47954">
        <ele>551</ele>
        <time>2017-02-09T09:05:01Z</time>
      </trkpt>
      <trkpt lat="46.06993" lon="4.47954">
        <ele>551</ele>
        <time>2017-02-09T09:05:02Z</time>
      </trkpt>
      <trkpt lat="46.07002" lon="4.47955">
        <ele>553</ele>
        <time>2017-02-09T09:05:09Z</time>
      </trkpt>
      <trkpt lat="46.07003" lon="4.47956">
        <ele>553</ele>
        <time>2017-02-09T09:05:10Z</time>
      </trkpt>
      <trkpt lat="46.07011" lon="4.47958">
        <ele>552</ele>
        <time>2017-02-09T09:05:16Z</time>
      </trkpt>
      <trkpt lat="46.07013" lon="4.47959">
        <ele>552</ele>
        <time>2017-02-09T09:05:17Z</time>
      </trkpt>
      <trkpt lat="46.07022" lon="4.47962">
        <ele>552</ele>
        <time>2017-02-09T09:05:23Z</time>
      </trkpt>
      <trkpt lat="46.07023" lon="4.47962">
        <ele>552</ele>
        <time>2017-02-09T09:05:24Z</time>
      </trkpt>
      <trkpt lat="46.07031" lon="4.47962">
        <ele>552</ele>
        <time>2017-02-09T09:05:30Z</time>
      </trkpt>
      <trkpt lat="46.07033" lon="4.47961">
        <ele>552</ele>
        <time>2017-02-09T09:05:31Z</time>
      </trkpt>
      <trkpt lat="46.07037" lon="4.4795">
        <ele>553</ele>
        <time>2017-02-09T09:05:41Z</time>
      </trkpt>
      <trkpt lat="46.07037" lon="4.47948">
        <ele>553</ele>
        <time>2017-02-09T09:05:42Z</time>
      </trkpt>
      <trkpt lat="46.07033" lon="4.47937">
        <ele>553</ele>
        <time>2017-02-09T09:05:48Z</time>
      </trkpt>
      <trkpt lat="46.07033" lon="4.47935">
        <ele>553</ele>
        <time>2017-02-09T09:05:49Z</time>
      </trkpt>
      <trkpt lat="46.07033" lon="4.47924">
        <ele>554</ele>
        <time>2017-02-09T09:05:55Z</time>
      </trkpt>
      <trkpt lat="46.07033" lon="4.47922">
        <ele>554</ele>
        <time>2017-02-09T09:05:56Z</time>
      </trkpt>
      <trkpt lat="46.07034" lon="4.4791">
        <ele>557</ele>
        <time>2017-02-09T09:06:03Z</time>
      </trkpt>
      <trkpt lat="46.07034" lon="4.47908">
        <ele>557</ele>
        <time>2017-02-09T09:06:04Z</time>
      </trkpt>
      <trkpt lat="46.07034" lon="4.47895">
        <ele>557</ele>
        <time>2017-02-09T09:06:11Z</time>
      </trkpt>
      <trkpt lat="46.07034" lon="4.47894">
        <ele>557</ele>
        <time>2017-02-09T09:06:12Z</time>
      </trkpt>
      <trkpt lat="46.07032" lon="4.47882">
        <ele>557</ele>
        <time>2017-02-09T09:06:20Z</time>
      </trkpt>
      <trkpt lat="46.07032" lon="4.4788">
        <ele>557</ele>
        <time>2017-02-09T09:06:21Z</time>
      </trkpt>
      <trkpt lat="46.07032" lon="4.47868">
        <ele>558</ele>
        <time>2017-02-09T09:06:28Z</time>
      </trkpt>
      <trkpt lat="46.07031" lon="4.47866">
        <ele>558</ele>
        <time>2017-02-09T09:06:29Z</time>
      </trkpt>
      <trkpt lat="46.07031" lon="4.47854">
        <ele>558</ele>
        <time>2017-02-09T09:06:36Z</time>
      </trkpt>
      <trkpt lat="46.07031" lon="4.47852">
        <ele>558</ele>
        <time>2017-02-09T09:06:37Z</time>
      </trkpt>
      <trkpt lat="46.07031" lon="4.4784">
        <ele>559</ele>
        <time>2017-02-09T09:06:44Z</time>
      </trkpt>
      <trkpt lat="46.07031" lon="4.47838">
        <ele>559</ele>
        <time>2017-02-09T09:06:45Z</time>
      </trkpt>
      <trkpt lat="46.07034" lon="4.47827">
        <ele>563</ele>
        <time>2017-02-09T09:06:51Z</time>
      </trkpt>
      <trkpt lat="46.07034" lon="4.47825">
        <ele>563</ele>
        <time>2017-02-09T09:06:52Z</time>
      </trkpt>
      <trkpt lat="46.07035" lon="4.47813">
        <ele>563</ele>
        <time>2017-02-09T09:06:58Z</time>
      </trkpt>
      <trkpt lat="46.07035" lon="4.47811">
        <ele>563</ele>
        <time>2017-02-09T09:06:59Z</time>
      </trkpt>
      <trkpt lat="46.07037" lon="4.47798">
        <ele>564</ele>
        <time>2017-02-09T09:07:06Z</time>
      </trkpt>
      <trkpt lat="46.07037" lon="4.47796">
        <ele>564</ele>
        <time>2017-02-09T09:07:07Z</time>
      </trkpt>
      <trkpt lat="46.07038" lon="4.47785">
        <ele>564</ele>
        <time>2017-02-09T09:07:14Z</time>
      </trkpt>
      <trkpt lat="46.07039" lon="4.47783">
        <ele>564</ele>
        <time>2017-02-09T09:07:15Z</time>
      </trkpt>
      <trkpt lat="46.07039" lon="4.47771">
        <ele>565</ele>
        <time>2017-02-09T09:07:22Z</time>
      </trkpt>
      <trkpt lat="46.07038" lon="4.47769">
        <ele>565</ele>
        <time>2017-02-09T09:07:23Z</time>
      </trkpt>
      <trkpt lat="46.07039" lon="4.47757">
        <ele>566</ele>
        <time>2017-02-09T09:07:30Z</time>
      </trkpt>
      <trkpt lat="46.07039" lon="4.47755">
        <ele>566</ele>
        <time>2017-02-09T09:07:31Z</time>
      </trkpt>
      <trkpt lat="46.07042" lon="4.47745">
        <ele>572</ele>
        <time>2017-02-09T09:07:37Z</time>
      </trkpt>
      <trkpt lat="46.07042" lon="4.47743">
        <ele>572</ele>
        <time>2017-02-09T09:07:38Z</time>
      </trkpt>
      <trkpt lat="46.07046" lon="4.47732">
        <ele>572</ele>
        <time>2017-02-09T09:07:45Z</time>
      </trkpt>
      <trkpt lat="46.07046" lon="4.47731">
        <ele>572</ele>
        <time>2017-02-09T09:07:46Z</time>
      </trkpt>
      <trkpt lat="46.07048" lon="4.4772">
        <ele>573</ele>
        <time>2017-02-09T09:07:54Z</time>
      </trkpt>
      <trkpt lat="46.07049" lon="4.47719">
        <ele>573</ele>
        <time>2017-02-09T09:07:55Z</time>
      </trkpt>
      <trkpt lat="46.07053" lon="4.47709">
        <ele>573</ele>
        <time>2017-02-09T09:08:01Z</time>
      </trkpt>
      <trkpt lat="46.07054" lon="4.47707">
        <ele>573</ele>
        <time>2017-02-09T09:08:02Z</time>
      </trkpt>
      <trkpt lat="46.07058" lon="4.47698">
        <ele>573</ele>
        <time>2017-02-09T09:08:08Z</time>
      </trkpt>
      <trkpt lat="46.07059" lon="4.47696">
        <ele>573</ele>
        <time>2017-02-09T09:08:09Z</time>
      </trkpt>
      <trkpt lat="46.07063" lon="4.47687">
        <ele>573</ele>
        <time>2017-02-09T09:08:15Z</time>
      </trkpt>
      <trkpt lat="46.07064" lon="4.47685">
        <ele>573</ele>
        <time>2017-02-09T09:08:16Z</time>
      </trkpt>
      <trkpt lat="46.07069" lon="4.47675">
        <ele>572</ele>
        <time>2017-02-09T09:08:54Z</time>
      </trkpt>
      <trkpt lat="46.0707" lon="4.47675">
        <ele>572</ele>
        <time>2017-02-09T09:08:55Z</time>
      </trkpt>
      <trkpt lat="46.07076" lon="4.47668">
        <ele>571</ele>
        <time>2017-02-09T09:09:02Z</time>
      </trkpt>
      <trkpt lat="46.07076" lon="4.47666">
        <ele>573</ele>
        <time>2017-02-09T09:09:03Z</time>
      </trkpt>
      <trkpt lat="46.07082" lon="4.47658">
        <ele>574</ele>
        <time>2017-02-09T09:09:10Z</time>
      </trkpt>
      <trkpt lat="46.07083" lon="4.47657">
        <ele>574</ele>
        <time>2017-02-09T09:09:11Z</time>
      </trkpt>
      <trkpt lat="46.07091" lon="4.4765">
        <ele>569</ele>
        <time>2017-02-09T09:09:18Z</time>
      </trkpt>
      <trkpt lat="46.07092" lon="4.47649">
        <ele>569</ele>
        <time>2017-02-09T09:09:19Z</time>
      </trkpt>
      <trkpt lat="46.071" lon="4.47645">
        <ele>569</ele>
        <time>2017-02-09T09:09:26Z</time>
      </trkpt>
      <trkpt lat="46.07101" lon="4.47644">
        <ele>569</ele>
        <time>2017-02-09T09:09:27Z</time>
      </trkpt>
      <trkpt lat="46.07109" lon="4.47639">
        <ele>568</ele>
        <time>2017-02-09T09:09:33Z</time>
      </trkpt>
      <trkpt lat="46.0711" lon="4.47639">
        <ele>568</ele>
        <time>2017-02-09T09:09:34Z</time>
      </trkpt>
      <trkpt lat="46.07118" lon="4.47633">
        <ele>568</ele>
        <time>2017-02-09T09:09:41Z</time>
      </trkpt>
      <trkpt lat="46.07119" lon="4.47632">
        <ele>568</ele>
        <time>2017-02-09T09:09:42Z</time>
      </trkpt>
      <trkpt lat="46.07127" lon="4.4763">
        <ele>568</ele>
        <time>2017-02-09T09:09:49Z</time>
      </trkpt>
      <trkpt lat="46.07129" lon="4.47629">
        <ele>568</ele>
        <time>2017-02-09T09:09:50Z</time>
      </trkpt>
      <trkpt lat="46.07137" lon="4.47629">
        <ele>567</ele>
        <time>2017-02-09T09:09:56Z</time>
      </trkpt>
      <trkpt lat="46.07139" lon="4.47629">
        <ele>567</ele>
        <time>2017-02-09T09:09:57Z</time>
      </trkpt>
      <trkpt lat="46.07147" lon="4.47629">
        <ele>566</ele>
        <time>2017-02-09T09:10:03Z</time>
      </trkpt>
      <trkpt lat="46.07148" lon="4.47629">
        <ele>566</ele>
        <time>2017-02-09T09:10:04Z</time>
      </trkpt>
      <trkpt lat="46.07156" lon="4.47632">
        <ele>565</ele>
        <time>2017-02-09T09:10:11Z</time>
      </trkpt>
      <trkpt lat="46.07157" lon="4.47633">
        <ele>565</ele>
        <time>2017-02-09T09:10:12Z</time>
      </trkpt>
      <trkpt lat="46.07165" lon="4.47637">
        <ele>564</ele>
        <time>2017-02-09T09:10:18Z</time>
      </trkpt>
      <trkpt lat="46.07166" lon="4.47637">
        <ele>564</ele>
        <time>2017-02-09T09:10:19Z</time>
      </trkpt>
      <trkpt lat="46.07175" lon="4.47642">
        <ele>561</ele>
        <time>2017-02-09T09:10:26Z</time>
      </trkpt>
      <trkpt lat="46.07176" lon="4.47643">
        <ele>561</ele>
        <time>2017-02-09T09:10:27Z</time>
      </trkpt>
      <trkpt lat="46.07183" lon="4.47646">
        <ele>561</ele>
        <time>2017-02-09T09:10:33Z</time>
      </trkpt>
      <trkpt lat="46.07185" lon="4.47646">
        <ele>561</ele>
        <time>2017-02-09T09:10:34Z</time>
      </trkpt>
      <trkpt lat="46.07193" lon="4.47645">
        <ele>561</ele>
        <time>2017-02-09T09:10:40Z</time>
      </trkpt>
      <trkpt lat="46.07194" lon="4.47645">
        <ele>562</ele>
        <time>2017-02-09T09:10:41Z</time>
      </trkpt>
      <trkpt lat="46.07203" lon="4.47644">
        <ele>562</ele>
        <time>2017-02-09T09:10:47Z</time>
      </trkpt>
      <trkpt lat="46.07204" lon="4.47645">
        <ele>562</ele>
        <time>2017-02-09T09:10:48Z</time>
      </trkpt>
      <trkpt lat="46.07212" lon="4.47649">
        <ele>562</ele>
        <time>2017-02-09T09:10:55Z</time>
      </trkpt>
      <trkpt lat="46.07213" lon="4.4765">
        <ele>562</ele>
        <time>2017-02-09T09:10:56Z</time>
      </trkpt>
      <trkpt lat="46.07221" lon="4.47656">
        <ele>562</ele>
        <time>2017-02-09T09:11:03Z</time>
      </trkpt>
      <trkpt lat="46.07222" lon="4.47657">
        <ele>562</ele>
        <time>2017-02-09T09:11:04Z</time>
      </trkpt>
      <trkpt lat="46.0723" lon="4.47662">
        <ele>562</ele>
        <time>2017-02-09T09:11:11Z</time>
      </trkpt>
      <trkpt lat="46.07231" lon="4.47662">
        <ele>562</ele>
        <time>2017-02-09T09:11:12Z</time>
      </trkpt>
      <trkpt lat="46.07239" lon="4.47662">
        <ele>561</ele>
        <time>2017-02-09T09:11:18Z</time>
      </trkpt>
      <trkpt lat="46.0724" lon="4.47662">
        <ele>561</ele>
        <time>2017-02-09T09:11:19Z</time>
      </trkpt>
      <trkpt lat="46.07248" lon="4.47665">
        <ele>560</ele>
        <time>2017-02-09T09:11:26Z</time>
      </trkpt>
      <trkpt lat="46.07249" lon="4.47666">
        <ele>560</ele>
        <time>2017-02-09T09:11:27Z</time>
      </trkpt>
      <trkpt lat="46.07257" lon="4.4767">
        <ele>559</ele>
        <time>2017-02-09T09:11:34Z</time>
      </trkpt>
      <trkpt lat="46.07258" lon="4.4767">
        <ele>559</ele>
        <time>2017-02-09T09:11:35Z</time>
      </trkpt>
      <trkpt lat="46.07266" lon="4.47674">
        <ele>558</ele>
        <time>2017-02-09T09:11:41Z</time>
      </trkpt>
      <trkpt lat="46.07267" lon="4.47674">
        <ele>558</ele>
        <time>2017-02-09T09:11:42Z</time>
      </trkpt>
      <trkpt lat="46.07275" lon="4.47678">
        <ele>557</ele>
        <time>2017-02-09T09:11:49Z</time>
      </trkpt>
      <trkpt lat="46.07276" lon="4.47679">
        <ele>557</ele>
        <time>2017-02-09T09:11:50Z</time>
      </trkpt>
      <trkpt lat="46.07284" lon="4.47682">
        <ele>557</ele>
        <time>2017-02-09T09:11:57Z</time>
      </trkpt>
      <trkpt lat="46.07285" lon="4.47682">
        <ele>557</ele>
        <time>2017-02-09T09:11:58Z</time>
      </trkpt>
      <trkpt lat="46.07292" lon="4.47687">
        <ele>557</ele>
        <time>2017-02-09T09:12:05Z</time>
      </trkpt>
      <trkpt lat="46.07293" lon="4.47687">
        <ele>557</ele>
        <time>2017-02-09T09:12:06Z</time>
      </trkpt>
      <trkpt lat="46.073" lon="4.47693">
        <ele>557</ele>
        <time>2017-02-09T09:12:13Z</time>
      </trkpt>
      <trkpt lat="46.07301" lon="4.47694">
        <ele>557</ele>
        <time>2017-02-09T09:12:14Z</time>
      </trkpt>
      <trkpt lat="46.07308" lon="4.47701">
        <ele>557</ele>
        <time>2017-02-09T09:12:21Z</time>
      </trkpt>
      <trkpt lat="46.07309" lon="4.47701">
        <ele>557</ele>
        <time>2017-02-09T09:12:22Z</time>
      </trkpt>
      <trkpt lat="46.07318" lon="4.47703">
        <ele>557</ele>
        <time>2017-02-09T09:12:29Z</time>
      </trkpt>
      <trkpt lat="46.07319" lon="4.47703">
        <ele>557</ele>
        <time>2017-02-09T09:12:30Z</time>
      </trkpt>
      <trkpt lat="46.07328" lon="4.47704">
        <ele>557</ele>
        <time>2017-02-09T09:12:37Z</time>
      </trkpt>
      <trkpt lat="46.07329" lon="4.47704">
        <ele>557</ele>
        <time>2017-02-09T09:12:38Z</time>
      </trkpt>
      <trkpt lat="46.07337" lon="4.47705">
        <ele>559</ele>
        <time>2017-02-09T09:12:45Z</time>
      </trkpt>
      <trkpt lat="46.07338" lon="4.47705">
        <ele>559</ele>
        <time>2017-02-09T09:12:46Z</time>
      </trkpt>
      <trkpt lat="46.07346" lon="4.47705">
        <ele>559</ele>
        <time>2017-02-09T09:12:53Z</time>
      </trkpt>
      <trkpt lat="46.07348" lon="4.47704">
        <ele>559</ele>
        <time>2017-02-09T09:12:54Z</time>
      </trkpt>
      <trkpt lat="46.07356" lon="4.47702">
        <ele>559</ele>
        <time>2017-02-09T09:13:00Z</time>
      </trkpt>
      <trkpt lat="46.07357" lon="4.47702">
        <ele>559</ele>
        <time>2017-02-09T09:13:01Z</time>
      </trkpt>
      <trkpt lat="46.07365" lon="4.477">
        <ele>560</ele>
        <time>2017-02-09T09:13:07Z</time>
      </trkpt>
      <trkpt lat="46.07367" lon="4.477">
        <ele>560</ele>
        <time>2017-02-09T09:13:08Z</time>
      </trkpt>
      <trkpt lat="46.07375" lon="4.47697">
        <ele>560</ele>
        <time>2017-02-09T09:13:14Z</time>
      </trkpt>
      <trkpt lat="46.07376" lon="4.47696">
        <ele>560</ele>
        <time>2017-02-09T09:13:15Z</time>
      </trkpt>
      <trkpt lat="46.07385" lon="4.47693">
        <ele>560</ele>
        <time>2017-02-09T09:13:22Z</time>
      </trkpt>
      <trkpt lat="46.07386" lon="4.47693">
        <ele>560</ele>
        <time>2017-02-09T09:13:23Z</time>
      </trkpt>
      <trkpt lat="46.07395" lon="4.4769">
        <ele>560</ele>
        <time>2017-02-09T09:13:30Z</time>
      </trkpt>
      <trkpt lat="46.07396" lon="4.4769">
        <ele>560</ele>
        <time>2017-02-09T09:13:31Z</time>
      </trkpt>
      <trkpt lat="46.07404" lon="4.47686">
        <ele>561</ele>
        <time>2017-02-09T09:13:37Z</time>
      </trkpt>
      <trkpt lat="46.07405" lon="4.47685">
        <ele>561</ele>
        <time>2017-02-09T09:13:38Z</time>
      </trkpt>
      <trkpt lat="46.07413" lon="4.47681">
        <ele>561</ele>
        <time>2017-02-09T09:13:45Z</time>
      </trkpt>
      <trkpt lat="46.07414" lon="4.47681">
        <ele>561</ele>
        <time>2017-02-09T09:13:46Z</time>
      </trkpt>
      <trkpt lat="46.07421" lon="4.47688">
        <ele>559</ele>
        <time>2017-02-09T09:14:05Z</time>
      </trkpt>
      <trkpt lat="46.07422" lon="4.47689">
        <ele>559</ele>
        <time>2017-02-09T09:14:06Z</time>
      </trkpt>
      <trkpt lat="46.07428" lon="4.47696">
        <ele>559</ele>
        <time>2017-02-09T09:14:13Z</time>
      </trkpt>
      <trkpt lat="46.0743" lon="4.47696">
        <ele>558</ele>
        <time>2017-02-09T09:14:14Z</time>
      </trkpt>
      <trkpt lat="46.07437" lon="4.477">
        <ele>558</ele>
        <time>2017-02-09T09:14:20Z</time>
      </trkpt>
      <trkpt lat="46.07438" lon="4.477">
        <ele>558</ele>
        <time>2017-02-09T09:14:21Z</time>
      </trkpt>
      <trkpt lat="46.07446" lon="4.47701">
        <ele>558</ele>
        <time>2017-02-09T09:14:27Z</time>
      </trkpt>
      <trkpt lat="46.07447" lon="4.47701">
        <ele>557</ele>
        <time>2017-02-09T09:14:28Z</time>
      </trkpt>
      <trkpt lat="46.07456" lon="4.47703">
        <ele>557</ele>
        <time>2017-02-09T09:14:34Z</time>
      </trkpt>
      <trkpt lat="46.07457" lon="4.47704">
        <ele>557</ele>
        <time>2017-02-09T09:14:35Z</time>
      </trkpt>
      <trkpt lat="46.07465" lon="4.47708">
        <ele>556</ele>
        <time>2017-02-09T09:14:41Z</time>
      </trkpt>
      <trkpt lat="46.07466" lon="4.47709">
        <ele>556</ele>
        <time>2017-02-09T09:14:42Z</time>
      </trkpt>
      <trkpt lat="46.07474" lon="4.47714">
        <ele>556</ele>
        <time>2017-02-09T09:14:49Z</time>
      </trkpt>
      <trkpt lat="46.07475" lon="4.47715">
        <ele>556</ele>
        <time>2017-02-09T09:14:50Z</time>
      </trkpt>
      <trkpt lat="46.07483" lon="4.47719">
        <ele>555</ele>
        <time>2017-02-09T09:14:57Z</time>
      </trkpt>
      <trkpt lat="46.07484" lon="4.4772">
        <ele>555</ele>
        <time>2017-02-09T09:14:58Z</time>
      </trkpt>
      <trkpt lat="46.07492" lon="4.47722">
        <ele>555</ele>
        <time>2017-02-09T09:15:05Z</time>
      </trkpt>
      <trkpt lat="46.07494" lon="4.47722">
        <ele>555</ele>
        <time>2017-02-09T09:15:06Z</time>
      </trkpt>
      <trkpt lat="46.07502" lon="4.47722">
        <ele>547</ele>
        <time>2017-02-09T09:15:13Z</time>
      </trkpt>
      <trkpt lat="46.07503" lon="4.47721">
        <ele>547</ele>
        <time>2017-02-09T09:15:14Z</time>
      </trkpt>
      <trkpt lat="46.07512" lon="4.47726">
        <ele>546</ele>
        <time>2017-02-09T09:15:22Z</time>
      </trkpt>
      <trkpt lat="46.07512" lon="4.47727">
        <ele>546</ele>
        <time>2017-02-09T09:15:23Z</time>
      </trkpt>
      <trkpt lat="46.07517" lon="4.47738">
        <ele>547</ele>
        <time>2017-02-09T09:15:31Z</time>
      </trkpt>
      <trkpt lat="46.07518" lon="4.47739">
        <ele>547</ele>
        <time>2017-02-09T09:15:32Z</time>
      </trkpt>
      <trkpt lat="46.07522" lon="4.47749">
        <ele>546</ele>
        <time>2017-02-09T09:15:40Z</time>
      </trkpt>
      <trkpt lat="46.07523" lon="4.4775">
        <ele>546</ele>
        <time>2017-02-09T09:15:41Z</time>
      </trkpt>
      <trkpt lat="46.0753" lon="4.47758">
        <ele>545</ele>
        <time>2017-02-09T09:15:50Z</time>
      </trkpt>
      <trkpt lat="46.07531" lon="4.47759">
        <ele>545</ele>
        <time>2017-02-09T09:15:51Z</time>
      </trkpt>
      <trkpt lat="46.07539" lon="4.47763">
        <ele>543</ele>
        <time>2017-02-09T09:16:01Z</time>
      </trkpt>
      <trkpt lat="46.0754" lon="4.47763">
        <ele>543</ele>
        <time>2017-02-09T09:16:02Z</time>
      </trkpt>
      <trkpt lat="46.07547" lon="4.47768">
        <ele>542</ele>
        <time>2017-02-09T09:16:10Z</time>
      </trkpt>
      <trkpt lat="46.07548" lon="4.47768">
        <ele>542</ele>
        <time>2017-02-09T09:16:11Z</time>
      </trkpt>
      <trkpt lat="46.07557" lon="4.47771">
        <ele>541</ele>
        <time>2017-02-09T09:16:20Z</time>
      </trkpt>
      <trkpt lat="46.07558" lon="4.47772">
        <ele>541</ele>
        <time>2017-02-09T09:16:21Z</time>
      </trkpt>
      <trkpt lat="46.07566" lon="4.47776">
        <ele>541</ele>
        <time>2017-02-09T09:16:30Z</time>
      </trkpt>
      <trkpt lat="46.07567" lon="4.47777">
        <ele>541</ele>
        <time>2017-02-09T09:16:31Z</time>
      </trkpt>
      <trkpt lat="46.07574" lon="4.47783">
        <ele>541</ele>
        <time>2017-02-09T09:16:39Z</time>
      </trkpt>
      <trkpt lat="46.07575" lon="4.47784">
        <ele>541</ele>
        <time>2017-02-09T09:16:40Z</time>
      </trkpt>
      <trkpt lat="46.07583" lon="4.47789">
        <ele>541</ele>
        <time>2017-02-09T09:16:47Z</time>
      </trkpt>
      <trkpt lat="46.07584" lon="4.4779">
        <ele>532</ele>
        <time>2017-02-09T09:16:48Z</time>
      </trkpt>
      <trkpt lat="46.0759" lon="4.47797">
        <ele>532</ele>
        <time>2017-02-09T09:16:54Z</time>
      </trkpt>
      <trkpt lat="46.07591" lon="4.47798">
        <ele>532</ele>
        <time>2017-02-09T09:16:55Z</time>
      </trkpt>
      <trkpt lat="46.07599" lon="4.47802">
        <ele>532</ele>
        <time>2017-02-09T09:17:02Z</time>
      </trkpt>
      <trkpt lat="46.076" lon="4.47803">
        <ele>532</ele>
        <time>2017-02-09T09:17:03Z</time>
      </trkpt>
      <trkpt lat="46.07608" lon="4.4781">
        <ele>532</ele>
        <time>2017-02-09T09:17:10Z</time>
      </trkpt>
      <trkpt lat="46.07609" lon="4.47811">
        <ele>531</ele>
        <time>2017-02-09T09:17:11Z</time>
      </trkpt>
      <trkpt lat="46.07616" lon="4.47818">
        <ele>531</ele>
        <time>2017-02-09T09:17:17Z</time>
      </trkpt>
      <trkpt lat="46.07617" lon="4.47819">
        <ele>531</ele>
        <time>2017-02-09T09:17:18Z</time>
      </trkpt>
      <trkpt lat="46.07624" lon="4.47825">
        <ele>530</ele>
        <time>2017-02-09T09:17:24Z</time>
      </trkpt>
      <trkpt lat="46.07625" lon="4.47826">
        <ele>530</ele>
        <time>2017-02-09T09:17:25Z</time>
      </trkpt>
      <trkpt lat="46.07631" lon="4.47833">
        <ele>530</ele>
        <time>2017-02-09T09:17:32Z</time>
      </trkpt>
      <trkpt lat="46.07632" lon="4.47835">
        <ele>530</ele>
        <time>2017-02-09T09:17:33Z</time>
      </trkpt>
      <trkpt lat="46.07638" lon="4.47845">
        <ele>529</ele>
        <time>2017-02-09T09:17:41Z</time>
      </trkpt>
      <trkpt lat="46.07638" lon="4.47846">
        <ele>529</ele>
        <time>2017-02-09T09:17:42Z</time>
      </trkpt>
      <trkpt lat="46.07643" lon="4.47856">
        <ele>528</ele>
        <time>2017-02-09T09:17:50Z</time>
      </trkpt>
      <trkpt lat="46.07643" lon="4.47858">
        <ele>528</ele>
        <time>2017-02-09T09:17:51Z</time>
      </trkpt>
      <trkpt lat="46.07647" lon="4.47868">
        <ele>528</ele>
        <time>2017-02-09T09:17:58Z</time>
      </trkpt>
      <trkpt lat="46.07648" lon="4.47869">
        <ele>528</ele>
        <time>2017-02-09T09:17:59Z</time>
      </trkpt>
      <trkpt lat="46.07653" lon="4.47878">
        <ele>527</ele>
        <time>2017-02-09T09:18:06Z</time>
      </trkpt>
      <trkpt lat="46.07653" lon="4.47879">
        <ele>527</ele>
        <time>2017-02-09T09:18:07Z</time>
      </trkpt>
      <trkpt lat="46.07659" lon="4.47889">
        <ele>526</ele>
        <time>2017-02-09T09:18:15Z</time>
      </trkpt>
      <trkpt lat="46.07659" lon="4.47891">
        <ele>526</ele>
        <time>2017-02-09T09:18:16Z</time>
      </trkpt>
      <trkpt lat="46.07664" lon="4.47901">
        <ele>525</ele>
        <time>2017-02-09T09:18:23Z</time>
      </trkpt>
      <trkpt lat="46.07664" lon="4.47902">
        <ele>525</ele>
        <time>2017-02-09T09:18:24Z</time>
      </trkpt>
      <trkpt lat="46.07668" lon="4.47913">
        <ele>519</ele>
        <time>2017-02-09T09:18:31Z</time>
      </trkpt>
      <trkpt lat="46.07668" lon="4.47914">
        <ele>520</ele>
        <time>2017-02-09T09:18:32Z</time>
      </trkpt>
      <trkpt lat="46.07671" lon="4.47926">
        <ele>517</ele>
        <time>2017-02-09T09:18:39Z</time>
      </trkpt>
      <trkpt lat="46.07672" lon="4.47927">
        <ele>517</ele>
        <time>2017-02-09T09:18:40Z</time>
      </trkpt>
      <trkpt lat="46.07674" lon="4.47938">
        <ele>515</ele>
        <time>2017-02-09T09:18:47Z</time>
      </trkpt>
      <trkpt lat="46.07675" lon="4.4794">
        <ele>515</ele>
        <time>2017-02-09T09:18:48Z</time>
      </trkpt>
      <trkpt lat="46.07678" lon="4.4795">
        <ele>513</ele>
        <time>2017-02-09T09:18:55Z</time>
      </trkpt>
      <trkpt lat="46.07679" lon="4.47952">
        <ele>513</ele>
        <time>2017-02-09T09:18:56Z</time>
      </trkpt>
      <trkpt lat="46.07682" lon="4.47963">
        <ele>513</ele>
        <time>2017-02-09T09:19:04Z</time>
      </trkpt>
      <trkpt lat="46.07683" lon="4.47964">
        <ele>513</ele>
        <time>2017-02-09T09:19:05Z</time>
      </trkpt>
      <trkpt lat="46.07687" lon="4.47975">
        <ele>512</ele>
        <time>2017-02-09T09:19:15Z</time>
      </trkpt>
      <trkpt lat="46.07688" lon="4.47976">
        <ele>512</ele>
        <time>2017-02-09T09:19:16Z</time>
      </trkpt>
      <trkpt lat="46.07693" lon="4.47986">
        <ele>512</ele>
        <time>2017-02-09T09:19:26Z</time>
      </trkpt>
      <trkpt lat="46.07693" lon="4.47987">
        <ele>512</ele>
        <time>2017-02-09T09:19:27Z</time>
      </trkpt>
      <trkpt lat="46.07699" lon="4.47996">
        <ele>511</ele>
        <time>2017-02-09T09:19:37Z</time>
      </trkpt>
      <trkpt lat="46.077" lon="4.47996">
        <ele>511</ele>
        <time>2017-02-09T09:19:38Z</time>
      </trkpt>
      <trkpt lat="46.07706" lon="4.48004">
        <ele>507</ele>
        <time>2017-02-09T09:19:47Z</time>
      </trkpt>
      <trkpt lat="46.07707" lon="4.48004">
        <ele>507</ele>
        <time>2017-02-09T09:19:48Z</time>
      </trkpt>
      <trkpt lat="46.07714" lon="4.48011">
        <ele>506</ele>
        <time>2017-02-09T09:19:57Z</time>
      </trkpt>
      <trkpt lat="46.07714" lon="4.48011">
        <ele>506</ele>
        <time>2017-02-09T09:19:58Z</time>
      </trkpt>
      <trkpt lat="46.07723" lon="4.48009">
        <ele>504</ele>
        <time>2017-02-09T09:20:07Z</time>
      </trkpt>
      <trkpt lat="46.07723" lon="4.48009">
        <ele>504</ele>
        <time>2017-02-09T09:20:08Z</time>
      </trkpt>
      <trkpt lat="46.07729" lon="4.48">
        <ele>506</ele>
        <time>2017-02-09T09:20:17Z</time>
      </trkpt>
      <trkpt lat="46.07729" lon="4.47999">
        <ele>506</ele>
        <time>2017-02-09T09:20:18Z</time>
      </trkpt>
      <trkpt lat="46.07734" lon="4.47989">
        <ele>505</ele>
        <time>2017-02-09T09:20:26Z</time>
      </trkpt>
      <trkpt lat="46.07735" lon="4.47988">
        <ele>505</ele>
        <time>2017-02-09T09:20:27Z</time>
      </trkpt>
      <trkpt lat="46.07739" lon="4.47978">
        <ele>506</ele>
        <time>2017-02-09T09:20:34Z</time>
      </trkpt>
      <trkpt lat="46.07739" lon="4.47976">
        <ele>506</ele>
        <time>2017-02-09T09:20:35Z</time>
      </trkpt>
      <trkpt lat="46.07742" lon="4.47965">
        <ele>507</ele>
        <time>2017-02-09T09:20:42Z</time>
      </trkpt>
      <trkpt lat="46.07743" lon="4.47963">
        <ele>507</ele>
        <time>2017-02-09T09:20:43Z</time>
      </trkpt>
      <trkpt lat="46.07746" lon="4.47952">
        <ele>507</ele>
        <time>2017-02-09T09:20:50Z</time>
      </trkpt>
      <trkpt lat="46.07746" lon="4.4795">
        <ele>506</ele>
        <time>2017-02-09T09:20:51Z</time>
      </trkpt>
      <trkpt lat="46.07749" lon="4.47939">
        <ele>506</ele>
        <time>2017-02-09T09:20:58Z</time>
      </trkpt>
      <trkpt lat="46.07749" lon="4.47937">
        <ele>505</ele>
        <time>2017-02-09T09:20:59Z</time>
      </trkpt>
      <trkpt lat="46.07751" lon="4.47926">
        <ele>497</ele>
        <time>2017-02-09T09:21:06Z</time>
      </trkpt>
      <trkpt lat="46.07751" lon="4.47924">
        <ele>497</ele>
        <time>2017-02-09T09:21:07Z</time>
      </trkpt>
      <trkpt lat="46.07753" lon="4.47912">
        <ele>498</ele>
        <time>2017-02-09T09:21:15Z</time>
      </trkpt>
      <trkpt lat="46.07753" lon="4.4791">
        <ele>497</ele>
        <time>2017-02-09T09:21:16Z</time>
      </trkpt>
      <trkpt lat="46.07756" lon="4.47899">
        <ele>493</ele>
        <time>2017-02-09T09:21:23Z</time>
      </trkpt>
      <trkpt lat="46.07756" lon="4.47897">
        <ele>493</ele>
        <time>2017-02-09T09:21:24Z</time>
      </trkpt>
      <trkpt lat="46.0776" lon="4.47886">
        <ele>490</ele>
        <time>2017-02-09T09:21:31Z</time>
      </trkpt>
      <trkpt lat="46.0776" lon="4.47884">
        <ele>490</ele>
        <time>2017-02-09T09:21:32Z</time>
      </trkpt>
      <trkpt lat="46.07763" lon="4.47873">
        <ele>489</ele>
        <time>2017-02-09T09:21:39Z</time>
      </trkpt>
      <trkpt lat="46.07764" lon="4.47871">
        <ele>489</ele>
        <time>2017-02-09T09:21:40Z</time>
      </trkpt>
      <trkpt lat="46.07768" lon="4.4786">
        <ele>489</ele>
        <time>2017-02-09T09:21:47Z</time>
      </trkpt>
      <trkpt lat="46.07768" lon="4.47858">
        <ele>489</ele>
        <time>2017-02-09T09:21:48Z</time>
      </trkpt>
      <trkpt lat="46.07772" lon="4.47848">
        <ele>489</ele>
        <time>2017-02-09T09:21:54Z</time>
      </trkpt>
      <trkpt lat="46.07773" lon="4.47847">
        <ele>489</ele>
        <time>2017-02-09T09:21:55Z</time>
      </trkpt>
      <trkpt lat="46.07776" lon="4.47835">
        <ele>488</ele>
        <time>2017-02-09T09:22:02Z</time>
      </trkpt>
      <trkpt lat="46.07776" lon="4.47834">
        <ele>488</ele>
        <time>2017-02-09T09:22:03Z</time>
      </trkpt>
      <trkpt lat="46.07778" lon="4.47823">
        <ele>488</ele>
        <time>2017-02-09T09:22:10Z</time>
      </trkpt>
      <trkpt lat="46.07778" lon="4.47821">
        <ele>488</ele>
        <time>2017-02-09T09:22:11Z</time>
      </trkpt>
      <trkpt lat="46.07778" lon="4.47809">
        <ele>488</ele>
        <time>2017-02-09T09:22:17Z</time>
      </trkpt>
      <trkpt lat="46.07778" lon="4.47807">
        <ele>488</ele>
        <time>2017-02-09T09:22:18Z</time>
      </trkpt>
      <trkpt lat="46.07777" lon="4.47795">
        <ele>488</ele>
        <time>2017-02-09T09:22:24Z</time>
      </trkpt>
      <trkpt lat="46.07777" lon="4.47793">
        <ele>488</ele>
        <time>2017-02-09T09:22:25Z</time>
      </trkpt>
      <trkpt lat="46.07775" lon="4.4778">
        <ele>488</ele>
        <time>2017-02-09T09:22:31Z</time>
      </trkpt>
      <trkpt lat="46.07775" lon="4.47778">
        <ele>488</ele>
        <time>2017-02-09T09:22:32Z</time>
      </trkpt>
      <trkpt lat="46.07772" lon="4.47766">
        <ele>489</ele>
        <time>2017-02-09T09:22:38Z</time>
      </trkpt>
      <trkpt lat="46.07772" lon="4.47765">
        <ele>489</ele>
        <time>2017-02-09T09:22:39Z</time>
      </trkpt>
      <trkpt lat="46.07772" lon="4.47753">
        <ele>490</ele>
        <time>2017-02-09T09:22:46Z</time>
      </trkpt>
      <trkpt lat="46.07773" lon="4.47751">
        <ele>489</ele>
        <time>2017-02-09T09:22:47Z</time>
      </trkpt>
      <trkpt lat="46.07781" lon="4.47748">
        <ele>493</ele>
        <time>2017-02-09T09:22:54Z</time>
      </trkpt>
      <trkpt lat="46.07782" lon="4.47748">
        <ele>493</ele>
        <time>2017-02-09T09:22:55Z</time>
      </trkpt>
      <trkpt lat="46.0779" lon="4.47751">
        <ele>487</ele>
        <time>2017-02-09T09:23:02Z</time>
      </trkpt>
      <trkpt lat="46.07791" lon="4.47752">
        <ele>487</ele>
        <time>2017-02-09T09:23:03Z</time>
      </trkpt>
      <trkpt lat="46.07798" lon="4.47756">
        <ele>486</ele>
        <time>2017-02-09T09:23:09Z</time>
      </trkpt>
      <trkpt lat="46.07799" lon="4.47757">
        <ele>486</ele>
        <time>2017-02-09T09:23:10Z</time>
      </trkpt>
      <trkpt lat="46.07806" lon="4.47762">
        <ele>486</ele>
        <time>2017-02-09T09:23:16Z</time>
      </trkpt>
      <trkpt lat="46.07807" lon="4.47763">
        <ele>485</ele>
        <time>2017-02-09T09:23:17Z</time>
      </trkpt>
      <trkpt lat="46.07815" lon="4.47767">
        <ele>485</ele>
        <time>2017-02-09T09:23:23Z</time>
      </trkpt>
      <trkpt lat="46.07816" lon="4.47768">
        <ele>485</ele>
        <time>2017-02-09T09:23:24Z</time>
      </trkpt>
      <trkpt lat="46.07824" lon="4.47773">
        <ele>484</ele>
        <time>2017-02-09T09:23:30Z</time>
      </trkpt>
      <trkpt lat="46.07825" lon="4.47774">
        <ele>484</ele>
        <time>2017-02-09T09:23:31Z</time>
      </trkpt>
      <trkpt lat="46.07832" lon="4.47779">
        <ele>484</ele>
        <time>2017-02-09T09:23:37Z</time>
      </trkpt>
      <trkpt lat="46.07834" lon="4.4778">
        <ele>480</ele>
        <time>2017-02-09T09:23:38Z</time>
      </trkpt>
      <trkpt lat="46.0784" lon="4.47786">
        <ele>480</ele>
        <time>2017-02-09T09:23:44Z</time>
      </trkpt>
      <trkpt lat="46.07841" lon="4.47787">
        <ele>480</ele>
        <time>2017-02-09T09:23:45Z</time>
      </trkpt>
      <trkpt lat="46.07848" lon="4.47793">
        <ele>479</ele>
        <time>2017-02-09T09:23:51Z</time>
      </trkpt>
      <trkpt lat="46.0785" lon="4.47794">
        <ele>479</ele>
        <time>2017-02-09T09:23:52Z</time>
      </trkpt>
      <trkpt lat="46.07858" lon="4.47798">
        <ele>479</ele>
        <time>2017-02-09T09:23:59Z</time>
      </trkpt>
      <trkpt lat="46.07858" lon="4.47799">
        <ele>479</ele>
        <time>2017-02-09T09:24:00Z</time>
      </trkpt>
      <trkpt lat="46.07865" lon="4.47805">
        <ele>479</ele>
        <time>2017-02-09T09:24:06Z</time>
      </trkpt>
      <trkpt lat="46.07866" lon="4.47806">
        <ele>479</ele>
        <time>2017-02-09T09:24:07Z</time>
      </trkpt>
      <trkpt lat="46.07874" lon="4.47811">
        <ele>479</ele>
        <time>2017-02-09T09:24:13Z</time>
      </trkpt>
      <trkpt lat="46.07875" lon="4.47811">
        <ele>479</ele>
        <time>2017-02-09T09:24:14Z</time>
      </trkpt>
      <trkpt lat="46.07882" lon="4.47819">
        <ele>479</ele>
        <time>2017-02-09T09:24:22Z</time>
      </trkpt>
      <trkpt lat="46.07883" lon="4.47819">
        <ele>479</ele>
        <time>2017-02-09T09:24:23Z</time>
      </trkpt>
      <trkpt lat="46.0789" lon="4.47825">
        <ele>479</ele>
        <time>2017-02-09T09:24:30Z</time>
      </trkpt>
      <trkpt lat="46.07891" lon="4.47826">
        <ele>479</ele>
        <time>2017-02-09T09:24:31Z</time>
      </trkpt>
      <trkpt lat="46.07899" lon="4.47833">
        <ele>478</ele>
        <time>2017-02-09T09:24:37Z</time>
      </trkpt>
      <trkpt lat="46.079" lon="4.47834">
        <ele>474</ele>
        <time>2017-02-09T09:24:38Z</time>
      </trkpt>
      <trkpt lat="46.07907" lon="4.47842">
        <ele>474</ele>
        <time>2017-02-09T09:24:44Z</time>
      </trkpt>
      <trkpt lat="46.07908" lon="4.47843">
        <ele>474</ele>
        <time>2017-02-09T09:24:45Z</time>
      </trkpt>
      <trkpt lat="46.07915" lon="4.4785">
        <ele>474</ele>
        <time>2017-02-09T09:24:51Z</time>
      </trkpt>
      <trkpt lat="46.07916" lon="4.4785">
        <ele>474</ele>
        <time>2017-02-09T09:24:52Z</time>
      </trkpt>
      <trkpt lat="46.07924" lon="4.47853">
        <ele>475</ele>
        <time>2017-02-09T09:24:58Z</time>
      </trkpt>
      <trkpt lat="46.07925" lon="4.47853">
        <ele>475</ele>
        <time>2017-02-09T09:24:59Z</time>
      </trkpt>
      <trkpt lat="46.07933" lon="4.47855">
        <ele>475</ele>
        <time>2017-02-09T09:25:04Z</time>
      </trkpt>
      <trkpt lat="46.07934" lon="4.47855">
        <ele>475</ele>
        <time>2017-02-09T09:25:05Z</time>
      </trkpt>
      <trkpt lat="46.07943" lon="4.47859">
        <ele>475</ele>
        <time>2017-02-09T09:25:11Z</time>
      </trkpt>
      <trkpt lat="46.07944" lon="4.4786">
        <ele>475</ele>
        <time>2017-02-09T09:25:12Z</time>
      </trkpt>
      <trkpt lat="46.07952" lon="4.47863">
        <ele>475</ele>
        <time>2017-02-09T09:25:18Z</time>
      </trkpt>
      <trkpt lat="46.07953" lon="4.47864">
        <ele>475</ele>
        <time>2017-02-09T09:25:19Z</time>
      </trkpt>
      <trkpt lat="46.0796" lon="4.47866">
        <ele>475</ele>
        <time>2017-02-09T09:25:25Z</time>
      </trkpt>
      <trkpt lat="46.07962" lon="4.47866">
        <ele>475</ele>
        <time>2017-02-09T09:25:26Z</time>
      </trkpt>
      <trkpt lat="46.07969" lon="4.47867">
        <ele>475</ele>
        <time>2017-02-09T09:25:32Z</time>
      </trkpt>
      <trkpt lat="46.07971" lon="4.47868">
        <ele>475</ele>
        <time>2017-02-09T09:25:33Z</time>
      </trkpt>
      <trkpt lat="46.07979" lon="4.47872">
        <ele>475</ele>
        <time>2017-02-09T09:25:39Z</time>
      </trkpt>
      <trkpt lat="46.0798" lon="4.47872">
        <ele>475</ele>
        <time>2017-02-09T09:25:40Z</time>
      </trkpt>
      <trkpt lat="46.07988" lon="4.4787">
        <ele>475</ele>
        <time>2017-02-09T09:25:46Z</time>
      </trkpt>
      <trkpt lat="46.07989" lon="4.47869">
        <ele>475</ele>
        <time>2017-02-09T09:25:47Z</time>
      </trkpt>
      <trkpt lat="46.07997" lon="4.47867">
        <ele>476</ele>
        <time>2017-02-09T09:25:53Z</time>
      </trkpt>
      <trkpt lat="46.07998" lon="4.47866">
        <ele>476</ele>
        <time>2017-02-09T09:25:54Z</time>
      </trkpt>
      <trkpt lat="46.08007" lon="4.47863">
        <ele>478</ele>
        <time>2017-02-09T09:26:01Z</time>
      </trkpt>
      <trkpt lat="46.08007" lon="4.47862">
        <ele>478</ele>
        <time>2017-02-09T09:26:02Z</time>
      </trkpt>
      <trkpt lat="46.08015" lon="4.47856">
        <ele>478</ele>
        <time>2017-02-09T09:26:09Z</time>
      </trkpt>
      <trkpt lat="46.08016" lon="4.47856">
        <ele>478</ele>
        <time>2017-02-09T09:26:10Z</time>
      </trkpt>
      <trkpt lat="46.08024" lon="4.47857">
        <ele>478</ele>
        <time>2017-02-09T09:26:17Z</time>
      </trkpt>
      <trkpt lat="46.08026" lon="4.47857">
        <ele>478</ele>
        <time>2017-02-09T09:26:18Z</time>
      </trkpt>
      <trkpt lat="46.08033" lon="4.47862">
        <ele>477</ele>
        <time>2017-02-09T09:26:25Z</time>
      </trkpt>
      <trkpt lat="46.08035" lon="4.47862">
        <ele>477</ele>
        <time>2017-02-09T09:26:26Z</time>
      </trkpt>
      <trkpt lat="46.08042" lon="4.47863">
        <ele>477</ele>
        <time>2017-02-09T09:26:32Z</time>
      </trkpt>
      <trkpt lat="46.08044" lon="4.47862">
        <ele>477</ele>
        <time>2017-02-09T09:26:33Z</time>
      </trkpt>
      <trkpt lat="46.08047" lon="4.47852">
        <ele>478</ele>
        <time>2017-02-09T09:26:41Z</time>
      </trkpt>
      <trkpt lat="46.08047" lon="4.4785">
        <ele>478</ele>
        <time>2017-02-09T09:26:42Z</time>
      </trkpt>
      <trkpt lat="46.08051" lon="4.47839">
        <ele>478</ele>
        <time>2017-02-09T09:26:50Z</time>
      </trkpt>
      <trkpt lat="46.08051" lon="4.47838">
        <ele>478</ele>
        <time>2017-02-09T09:26:51Z</time>
      </trkpt>
      <trkpt lat="46.0806" lon="4.47835">
        <ele>478</ele>
        <time>2017-02-09T09:26:59Z</time>
      </trkpt>
      <trkpt lat="46.08061" lon="4.47835">
        <ele>478</ele>
        <time>2017-02-09T09:27:00Z</time>
      </trkpt>
      <trkpt lat="46.08069" lon="4.47831">
        <ele>482</ele>
        <time>2017-02-09T09:27:09Z</time>
      </trkpt>
      <trkpt lat="46.0807" lon="4.47831">
        <ele>482</ele>
        <time>2017-02-09T09:27:10Z</time>
      </trkpt>
      <trkpt lat="46.08078" lon="4.4783">
        <ele>481</ele>
        <time>2017-02-09T09:27:18Z</time>
      </trkpt>
      <trkpt lat="46.08079" lon="4.4783">
        <ele>481</ele>
        <time>2017-02-09T09:27:19Z</time>
      </trkpt>
      <trkpt lat="46.08087" lon="4.47826">
        <ele>479</ele>
        <time>2017-02-09T09:27:26Z</time>
      </trkpt>
      <trkpt lat="46.08089" lon="4.47825">
        <ele>479</ele>
        <time>2017-02-09T09:27:27Z</time>
      </trkpt>
      <trkpt lat="46.08096" lon="4.4782">
        <ele>478</ele>
        <time>2017-02-09T09:27:34Z</time>
      </trkpt>
      <trkpt lat="46.08097" lon="4.47819">
        <ele>478</ele>
        <time>2017-02-09T09:27:35Z</time>
      </trkpt>
      <trkpt lat="46.08104" lon="4.47811">
        <ele>478</ele>
        <time>2017-02-09T09:27:42Z</time>
      </trkpt>
      <trkpt lat="46.08104" lon="4.47809">
        <ele>478</ele>
        <time>2017-02-09T09:27:43Z</time>
      </trkpt>
      <trkpt lat="46.08109" lon="4.478">
        <ele>477</ele>
        <time>2017-02-09T09:28:35Z</time>
      </trkpt>
      <trkpt lat="46.0811" lon="4.47799">
        <ele>477</ele>
        <time>2017-02-09T09:28:36Z</time>
      </trkpt>
      <trkpt lat="46.08113" lon="4.47788">
        <ele>478</ele>
        <time>2017-02-09T09:28:43Z</time>
      </trkpt>
      <trkpt lat="46.08114" lon="4.47786">
        <ele>478</ele>
        <time>2017-02-09T09:28:44Z</time>
      </trkpt>
      <trkpt lat="46.08117" lon="4.47776">
        <ele>478</ele>
        <time>2017-02-09T09:28:51Z</time>
      </trkpt>
      <trkpt lat="46.08118" lon="4.47774">
        <ele>478</ele>
        <time>2017-02-09T09:28:52Z</time>
      </trkpt>
      <trkpt lat="46.08122" lon="4.47764">
        <ele>477</ele>
        <time>2017-02-09T09:28:59Z</time>
      </trkpt>
      <trkpt lat="46.08122" lon="4.47763">
        <ele>477</ele>
        <time>2017-02-09T09:29:00Z</time>
      </trkpt>
      <trkpt lat="46.08123" lon="4.47751">
        <ele>477</ele>
        <time>2017-02-09T09:29:07Z</time>
      </trkpt>
      <trkpt lat="46.08123" lon="4.4775">
        <ele>479</ele>
        <time>2017-02-09T09:29:08Z</time>
      </trkpt>
      <trkpt lat="46.08124" lon="4.47738">
        <ele>479</ele>
        <time>2017-02-09T09:29:15Z</time>
      </trkpt>
      <trkpt lat="46.08124" lon="4.47736">
        <ele>479</ele>
        <time>2017-02-09T09:29:16Z</time>
      </trkpt>
      <trkpt lat="46.08125" lon="4.47725">
        <ele>479</ele>
        <time>2017-02-09T09:29:22Z</time>
      </trkpt>
      <trkpt lat="46.08125" lon="4.47723">
        <ele>479</ele>
        <time>2017-02-09T09:29:23Z</time>
      </trkpt>
      <trkpt lat="46.08125" lon="4.47712">
        <ele>479</ele>
        <time>2017-02-09T09:29:29Z</time>
      </trkpt>
      <trkpt lat="46.08125" lon="4.4771">
        <ele>479</ele>
        <time>2017-02-09T09:29:30Z</time>
      </trkpt>
      <trkpt lat="46.08125" lon="4.47699">
        <ele>479</ele>
        <time>2017-02-09T09:29:36Z</time>
      </trkpt>
      <trkpt lat="46.08124" lon="4.47697">
        <ele>479</ele>
        <time>2017-02-09T09:29:37Z</time>
      </trkpt>
      <trkpt lat="46.08121" lon="4.47686">
        <ele>479</ele>
        <time>2017-02-09T09:29:43Z</time>
      </trkpt>
      <trkpt lat="46.0812" lon="4.47684">
        <ele>480</ele>
        <time>2017-02-09T09:29:44Z</time>
      </trkpt>
      <trkpt lat="46.08117" lon="4.47672">
        <ele>480</ele>
        <time>2017-02-09T09:29:51Z</time>
      </trkpt>
      <trkpt lat="46.08117" lon="4.47671">
        <ele>480</ele>
        <time>2017-02-09T09:29:52Z</time>
      </trkpt>
      <trkpt lat="46.08116" lon="4.47658">
        <ele>479</ele>
        <time>2017-02-09T09:29:58Z</time>
      </trkpt>
      <trkpt lat="46.08116" lon="4.47657">
        <ele>479</ele>
        <time>2017-02-09T09:29:59Z</time>
      </trkpt>
      <trkpt lat="46.08113" lon="4.47645">
        <ele>479</ele>
        <time>2017-02-09T09:30:05Z</time>
      </trkpt>
      <trkpt lat="46.08113" lon="4.47643">
        <ele>479</ele>
        <time>2017-02-09T09:30:06Z</time>
      </trkpt>
      <trkpt lat="46.08111" lon="4.47632">
        <ele>479</ele>
        <time>2017-02-09T09:30:12Z</time>
      </trkpt>
      <trkpt lat="46.08111" lon="4.4763">
        <ele>479</ele>
        <time>2017-02-09T09:30:13Z</time>
      </trkpt>
      <trkpt lat="46.08107" lon="4.47618">
        <ele>478</ele>
        <time>2017-02-09T09:30:19Z</time>
      </trkpt>
      <trkpt lat="46.08107" lon="4.47617">
        <ele>478</ele>
        <time>2017-02-09T09:30:20Z</time>
      </trkpt>
      <trkpt lat="46.08103" lon="4.47605">
        <ele>478</ele>
        <time>2017-02-09T09:30:27Z</time>
      </trkpt>
      <trkpt lat="46.08102" lon="4.47604">
        <ele>478</ele>
        <time>2017-02-09T09:30:28Z</time>
      </trkpt>
      <trkpt lat="46.08097" lon="4.47593">
        <ele>478</ele>
        <time>2017-02-09T09:30:35Z</time>
      </trkpt>
      <trkpt lat="46.08097" lon="4.47591">
        <ele>478</ele>
        <time>2017-02-09T09:30:36Z</time>
      </trkpt>
      <trkpt lat="46.08096" lon="4.47579">
        <ele>479</ele>
        <time>2017-02-09T09:30:43Z</time>
      </trkpt>
      <trkpt lat="46.08096" lon="4.47578">
        <ele>479</ele>
        <time>2017-02-09T09:30:44Z</time>
      </trkpt>
      <trkpt lat="46.08095" lon="4.47565">
        <ele>479</ele>
        <time>2017-02-09T09:30:51Z</time>
      </trkpt>
      <trkpt lat="46.08095" lon="4.47563">
        <ele>479</ele>
        <time>2017-02-09T09:30:52Z</time>
      </trkpt>
      <trkpt lat="46.08099" lon="4.47553">
        <ele>479</ele>
        <time>2017-02-09T09:30:59Z</time>
      </trkpt>
      <trkpt lat="46.081" lon="4.47552">
        <ele>479</ele>
        <time>2017-02-09T09:31:00Z</time>
      </trkpt>
      <trkpt lat="46.08108" lon="4.47551">
        <ele>479</ele>
        <time>2017-02-09T09:31:07Z</time>
      </trkpt>
      <trkpt lat="46.0811" lon="4.47551">
        <ele>479</ele>
        <time>2017-02-09T09:31:08Z</time>
      </trkpt>
      <trkpt lat="46.08117" lon="4.47553">
        <ele>479</ele>
        <time>2017-02-09T09:31:14Z</time>
      </trkpt>
      <trkpt lat="46.08119" lon="4.47554">
        <ele>479</ele>
        <time>2017-02-09T09:31:15Z</time>
      </trkpt>
      <trkpt lat="46.08126" lon="4.47556">
        <ele>479</ele>
        <time>2017-02-09T09:31:21Z</time>
      </trkpt>
      <trkpt lat="46.08128" lon="4.47556">
        <ele>479</ele>
        <time>2017-02-09T09:31:22Z</time>
      </trkpt>
      <trkpt lat="46.08135" lon="4.47559">
        <ele>478</ele>
        <time>2017-02-09T09:31:28Z</time>
      </trkpt>
      <trkpt lat="46.08137" lon="4.47559">
        <ele>478</ele>
        <time>2017-02-09T09:31:29Z</time>
      </trkpt>
      <trkpt lat="46.08144" lon="4.47562">
        <ele>478</ele>
        <time>2017-02-09T09:31:35Z</time>
      </trkpt>
      <trkpt lat="46.08145" lon="4.47563">
        <ele>477</ele>
        <time>2017-02-09T09:31:36Z</time>
      </trkpt>
      <trkpt lat="46.08153" lon="4.47566">
        <ele>477</ele>
        <time>2017-02-09T09:31:42Z</time>
      </trkpt>
      <trkpt lat="46.08154" lon="4.47566">
        <ele>477</ele>
        <time>2017-02-09T09:31:43Z</time>
      </trkpt>
      <trkpt lat="46.08162" lon="4.4757">
        <ele>476</ele>
        <time>2017-02-09T09:31:49Z</time>
      </trkpt>
      <trkpt lat="46.08163" lon="4.4757">
        <ele>475</ele>
        <time>2017-02-09T09:31:50Z</time>
      </trkpt>
      <trkpt lat="46.08171" lon="4.47575">
        <ele>475</ele>
        <time>2017-02-09T09:31:56Z</time>
      </trkpt>
      <trkpt lat="46.08172" lon="4.47576">
        <ele>475</ele>
        <time>2017-02-09T09:31:57Z</time>
      </trkpt>
      <trkpt lat="46.08179" lon="4.47581">
        <ele>476</ele>
        <time>2017-02-09T09:32:03Z</time>
      </trkpt>
      <trkpt lat="46.0818" lon="4.47582">
        <ele>476</ele>
        <time>2017-02-09T09:32:04Z</time>
      </trkpt>
      <trkpt lat="46.08187" lon="4.4759">
        <ele>472</ele>
        <time>2017-02-09T09:32:10Z</time>
      </trkpt>
      <trkpt lat="46.08188" lon="4.47591">
        <ele>472</ele>
        <time>2017-02-09T09:32:11Z</time>
      </trkpt>
      <trkpt lat="46.08196" lon="4.47596">
        <ele>471</ele>
        <time>2017-02-09T09:32:17Z</time>
      </trkpt>
      <trkpt lat="46.08197" lon="4.47597">
        <ele>471</ele>
        <time>2017-02-09T09:32:18Z</time>
      </trkpt>
      <trkpt lat="46.08203" lon="4.47606">
        <ele>471</ele>
        <time>2017-02-09T09:32:25Z</time>
      </trkpt>
      <trkpt lat="46.08204" lon="4.47607">
        <ele>471</ele>
        <time>2017-02-09T09:32:26Z</time>
      </trkpt>
      <trkpt lat="46.08209" lon="4.47615">
        <ele>471</ele>
        <time>2017-02-09T09:32:32Z</time>
      </trkpt>
      <trkpt lat="46.0821" lon="4.47616">
        <ele>471</ele>
        <time>2017-02-09T09:32:33Z</time>
      </trkpt>
      <trkpt lat="46.08216" lon="4.47625">
        <ele>471</ele>
        <time>2017-02-09T09:32:39Z</time>
      </trkpt>
      <trkpt lat="46.08217" lon="4.47626">
        <ele>471</ele>
        <time>2017-02-09T09:32:40Z</time>
      </trkpt>
      <trkpt lat="46.08224" lon="4.47633">
        <ele>470</ele>
        <time>2017-02-09T09:32:46Z</time>
      </trkpt>
      <trkpt lat="46.08225" lon="4.47634">
        <ele>470</ele>
        <time>2017-02-09T09:32:47Z</time>
      </trkpt>
      <trkpt lat="46.08232" lon="4.4764">
        <ele>470</ele>
        <time>2017-02-09T09:32:53Z</time>
      </trkpt>
      <trkpt lat="46.08234" lon="4.47641">
        <ele>469</ele>
        <time>2017-02-09T09:32:54Z</time>
      </trkpt>
      <trkpt lat="46.08241" lon="4.47644">
        <ele>469</ele>
        <time>2017-02-09T09:33:00Z</time>
      </trkpt>
      <trkpt lat="46.08243" lon="4.47644">
        <ele>469</ele>
        <time>2017-02-09T09:33:01Z</time>
      </trkpt>
      <trkpt lat="46.0825" lon="4.47646">
        <ele>468</ele>
        <time>2017-02-09T09:33:07Z</time>
      </trkpt>
      <trkpt lat="46.08252" lon="4.47646">
        <ele>468</ele>
        <time>2017-02-09T09:33:08Z</time>
      </trkpt>
      <trkpt lat="46.08259" lon="4.4765">
        <ele>468</ele>
        <time>2017-02-09T09:33:15Z</time>
      </trkpt>
      <trkpt lat="46.0826" lon="4.4765">
        <ele>468</ele>
        <time>2017-02-09T09:33:16Z</time>
      </trkpt>
      <trkpt lat="46.08269" lon="4.47648">
        <ele>468</ele>
        <time>2017-02-09T09:33:24Z</time>
      </trkpt>
      <trkpt lat="46.0827" lon="4.47647">
        <ele>468</ele>
        <time>2017-02-09T09:33:25Z</time>
      </trkpt>
      <trkpt lat="46.08277" lon="4.4764">
        <ele>469</ele>
        <time>2017-02-09T09:33:33Z</time>
      </trkpt>
      <trkpt lat="46.08278" lon="4.47639">
        <ele>469</ele>
        <time>2017-02-09T09:33:34Z</time>
      </trkpt>
      <trkpt lat="46.08285" lon="4.47631">
        <ele>470</ele>
        <time>2017-02-09T09:33:42Z</time>
      </trkpt>
      <trkpt lat="46.08286" lon="4.4763">
        <ele>470</ele>
        <time>2017-02-09T09:33:43Z</time>
      </trkpt>
      <trkpt lat="46.08292" lon="4.47622">
        <ele>470</ele>
        <time>2017-02-09T09:33:51Z</time>
      </trkpt>
      <trkpt lat="46.08293" lon="4.47621">
        <ele>470</ele>
        <time>2017-02-09T09:33:52Z</time>
      </trkpt>
      <trkpt lat="46.08302" lon="4.47618">
        <ele>470</ele>
        <time>2017-02-09T09:34:00Z</time>
      </trkpt>
      <trkpt lat="46.08303" lon="4.47618">
        <ele>470</ele>
        <time>2017-02-09T09:34:01Z</time>
      </trkpt>
      <trkpt lat="46.08311" lon="4.47614">
        <ele>471</ele>
        <time>2017-02-09T09:34:08Z</time>
      </trkpt>
      <trkpt lat="46.08312" lon="4.47614">
        <ele>471</ele>
        <time>2017-02-09T09:34:09Z</time>
      </trkpt>
      <trkpt lat="46.08321" lon="4.47613">
        <ele>471</ele>
        <time>2017-02-09T09:34:17Z</time>
      </trkpt>
      <trkpt lat="46.08322" lon="4.47613">
        <ele>471</ele>
        <time>2017-02-09T09:34:18Z</time>
      </trkpt>
      <trkpt lat="46.0833" lon="4.47612">
        <ele>471</ele>
        <time>2017-02-09T09:34:25Z</time>
      </trkpt>
      <trkpt lat="46.08331" lon="4.47612">
        <ele>471</ele>
        <time>2017-02-09T09:34:26Z</time>
      </trkpt>
      <trkpt lat="46.08339" lon="4.47612">
        <ele>468</ele>
        <time>2017-02-09T09:34:32Z</time>
      </trkpt>
      <trkpt lat="46.08341" lon="4.47612">
        <ele>468</ele>
        <time>2017-02-09T09:34:33Z</time>
      </trkpt>
      <trkpt lat="46.08348" lon="4.47612">
        <ele>467</ele>
        <time>2017-02-09T09:34:39Z</time>
      </trkpt>
      <trkpt lat="46.0835" lon="4.47612">
        <ele>467</ele>
        <time>2017-02-09T09:34:40Z</time>
      </trkpt>
      <trkpt lat="46.08358" lon="4.47614">
        <ele>467</ele>
        <time>2017-02-09T09:34:47Z</time>
      </trkpt>
      <trkpt lat="46.0836" lon="4.47614">
        <ele>467</ele>
        <time>2017-02-09T09:34:48Z</time>
      </trkpt>
      <trkpt lat="46.08368" lon="4.47618">
        <ele>466</ele>
        <time>2017-02-09T09:34:55Z</time>
      </trkpt>
      <trkpt lat="46.08369" lon="4.47619">
        <ele>466</ele>
        <time>2017-02-09T09:34:56Z</time>
      </trkpt>
      <trkpt lat="46.08376" lon="4.47625">
        <ele>465</ele>
        <time>2017-02-09T09:35:03Z</time>
      </trkpt>
      <trkpt lat="46.08378" lon="4.47625">
        <ele>465</ele>
        <time>2017-02-09T09:35:04Z</time>
      </trkpt>
      <trkpt lat="46.08386" lon="4.47627">
        <ele>465</ele>
        <time>2017-02-09T09:35:10Z</time>
      </trkpt>
      <trkpt lat="46.08387" lon="4.47627">
        <ele>464</ele>
        <time>2017-02-09T09:35:11Z</time>
      </trkpt>
      <trkpt lat="46.08396" lon="4.47628">
        <ele>464</ele>
        <time>2017-02-09T09:35:17Z</time>
      </trkpt>
      <trkpt lat="46.08397" lon="4.47627">
        <ele>464</ele>
        <time>2017-02-09T09:35:18Z</time>
      </trkpt>
      <trkpt lat="46.08405" lon="4.47624">
        <ele>464</ele>
        <time>2017-02-09T09:35:23Z</time>
      </trkpt>
      <trkpt lat="46.08406" lon="4.47623">
        <ele>464</ele>
        <time>2017-02-09T09:35:24Z</time>
      </trkpt>
      <trkpt lat="46.08413" lon="4.47618">
        <ele>464</ele>
        <time>2017-02-09T09:35:30Z</time>
      </trkpt>
      <trkpt lat="46.08414" lon="4.47617">
        <ele>464</ele>
        <time>2017-02-09T09:35:31Z</time>
      </trkpt>
      <trkpt lat="46.0842" lon="4.47608">
        <ele>459</ele>
        <time>2017-02-09T09:35:37Z</time>
      </trkpt>
      <trkpt lat="46.08421" lon="4.47606">
        <ele>459</ele>
        <time>2017-02-09T09:35:38Z</time>
      </trkpt>
      <trkpt lat="46.08424" lon="4.47596">
        <ele>460</ele>
        <time>2017-02-09T09:35:43Z</time>
      </trkpt>
      <trkpt lat="46.08425" lon="4.47594">
        <ele>460</ele>
        <time>2017-02-09T09:35:44Z</time>
      </trkpt>
      <trkpt lat="46.08428" lon="4.47584">
        <ele>460</ele>
        <time>2017-02-09T09:35:50Z</time>
      </trkpt>
      <trkpt lat="46.08429" lon="4.47582">
        <ele>461</ele>
        <time>2017-02-09T09:35:51Z</time>
      </trkpt>
      <trkpt lat="46.08433" lon="4.47572">
        <ele>460</ele>
        <time>2017-02-09T09:35:58Z</time>
      </trkpt>
      <trkpt lat="46.08434" lon="4.4757">
        <ele>460</ele>
        <time>2017-02-09T09:35:59Z</time>
      </trkpt>
      <trkpt lat="46.08438" lon="4.47559">
        <ele>460</ele>
        <time>2017-02-09T09:36:06Z</time>
      </trkpt>
      <trkpt lat="46.08439" lon="4.47557">
        <ele>460</ele>
        <time>2017-02-09T09:36:07Z</time>
      </trkpt>
      <trkpt lat="46.08444" lon="4.47549">
        <ele>459</ele>
        <time>2017-02-09T09:36:12Z</time>
      </trkpt>
      <trkpt lat="46.08445" lon="4.47547">
        <ele>459</ele>
        <time>2017-02-09T09:36:13Z</time>
      </trkpt>
      <trkpt lat="46.08449" lon="4.47537">
        <ele>459</ele>
        <time>2017-02-09T09:36:19Z</time>
      </trkpt>
      <trkpt lat="46.0845" lon="4.47536">
        <ele>459</ele>
        <time>2017-02-09T09:36:20Z</time>
      </trkpt>
      <trkpt lat="46.08455" lon="4.47525">
        <ele>459</ele>
        <time>2017-02-09T09:36:27Z</time>
      </trkpt>
      <trkpt lat="46.08455" lon="4.47524">
        <ele>459</ele>
        <time>2017-02-09T09:36:28Z</time>
      </trkpt>
      <trkpt lat="46.08459" lon="4.47513">
        <ele>459</ele>
        <time>2017-02-09T09:36:37Z</time>
      </trkpt>
      <trkpt lat="46.08459" lon="4.47511">
        <ele>459</ele>
        <time>2017-02-09T09:36:38Z</time>
      </trkpt>
      <trkpt lat="46.08465" lon="4.47502">
        <ele>458</ele>
        <time>2017-02-09T09:36:46Z</time>
      </trkpt>
      <trkpt lat="46.08466" lon="4.475">
        <ele>458</ele>
        <time>2017-02-09T09:36:47Z</time>
      </trkpt>
      <trkpt lat="46.08471" lon="4.47491">
        <ele>461</ele>
        <time>2017-02-09T09:36:52Z</time>
      </trkpt>
      <trkpt lat="46.08472" lon="4.4749">
        <ele>461</ele>
        <time>2017-02-09T09:36:53Z</time>
      </trkpt>
      <trkpt lat="46.08478" lon="4.4748">
        <ele>460</ele>
        <time>2017-02-09T09:37:00Z</time>
      </trkpt>
      <trkpt lat="46.08479" lon="4.47479">
        <ele>460</ele>
        <time>2017-02-09T09:37:01Z</time>
      </trkpt>
      <trkpt lat="46.08484" lon="4.47471">
        <ele>461</ele>
        <time>2017-02-09T09:37:07Z</time>
      </trkpt>
      <trkpt lat="46.08485" lon="4.47469">
        <ele>461</ele>
        <time>2017-02-09T09:37:08Z</time>
      </trkpt>
      <trkpt lat="46.08491" lon="4.47461">
        <ele>461</ele>
        <time>2017-02-09T09:37:14Z</time>
      </trkpt>
      <trkpt lat="46.08491" lon="4.47459">
        <ele>461</ele>
        <time>2017-02-09T09:37:15Z</time>
      </trkpt>
      <trkpt lat="46.08497" lon="4.47451">
        <ele>462</ele>
        <time>2017-02-09T09:37:21Z</time>
      </trkpt>
      <trkpt lat="46.08498" lon="4.4745">
        <ele>462</ele>
        <time>2017-02-09T09:37:22Z</time>
      </trkpt>
      <trkpt lat="46.08503" lon="4.4744">
        <ele>455</ele>
        <time>2017-02-09T09:37:29Z</time>
      </trkpt>
      <trkpt lat="46.08504" lon="4.47439">
        <ele>456</ele>
        <time>2017-02-09T09:37:30Z</time>
      </trkpt>
      <trkpt lat="46.0851" lon="4.47431">
        <ele>456</ele>
        <time>2017-02-09T09:37:37Z</time>
      </trkpt>
      <trkpt lat="46.08511" lon="4.4743">
        <ele>456</ele>
        <time>2017-02-09T09:37:38Z</time>
      </trkpt>
      <trkpt lat="46.08518" lon="4.47422">
        <ele>456</ele>
        <time>2017-02-09T09:37:45Z</time>
      </trkpt>
      <trkpt lat="46.08519" lon="4.47421">
        <ele>456</ele>
        <time>2017-02-09T09:37:46Z</time>
      </trkpt>
      <trkpt lat="46.08525" lon="4.47413">
        <ele>461</ele>
        <time>2017-02-09T09:37:53Z</time>
      </trkpt>
      <trkpt lat="46.08526" lon="4.47413">
        <ele>461</ele>
        <time>2017-02-09T09:37:54Z</time>
      </trkpt>
      <trkpt lat="46.08533" lon="4.47406">
        <ele>461</ele>
        <time>2017-02-09T09:38:01Z</time>
      </trkpt>
      <trkpt lat="46.08534" lon="4.47405">
        <ele>461</ele>
        <time>2017-02-09T09:38:02Z</time>
      </trkpt>
      <trkpt lat="46.08542" lon="4.47399">
        <ele>461</ele>
        <time>2017-02-09T09:38:09Z</time>
      </trkpt>
      <trkpt lat="46.08543" lon="4.47398">
        <ele>461</ele>
        <time>2017-02-09T09:38:10Z</time>
      </trkpt>
      <trkpt lat="46.0855" lon="4.47393">
        <ele>461</ele>
        <time>2017-02-09T09:38:16Z</time>
      </trkpt>
      <trkpt lat="46.08551" lon="4.47392">
        <ele>461</ele>
        <time>2017-02-09T09:38:17Z</time>
      </trkpt>
      <trkpt lat="46.08558" lon="4.47386">
        <ele>460</ele>
        <time>2017-02-09T09:38:23Z</time>
      </trkpt>
      <trkpt lat="46.08559" lon="4.47385">
        <ele>460</ele>
        <time>2017-02-09T09:38:24Z</time>
      </trkpt>
      <trkpt lat="46.08566" lon="4.47378">
        <ele>461</ele>
        <time>2017-02-09T09:38:30Z</time>
      </trkpt>
      <trkpt lat="46.08567" lon="4.47377">
        <ele>461</ele>
        <time>2017-02-09T09:38:31Z</time>
      </trkpt>
      <trkpt lat="46.08574" lon="4.47369">
        <ele>461</ele>
        <time>2017-02-09T09:38:37Z</time>
      </trkpt>
      <trkpt lat="46.08575" lon="4.47368">
        <ele>461</ele>
        <time>2017-02-09T09:38:38Z</time>
      </trkpt>
      <trkpt lat="46.08582" lon="4.47362">
        <ele>462</ele>
        <time>2017-02-09T09:38:44Z</time>
      </trkpt>
      <trkpt lat="46.08583" lon="4.47361">
        <ele>462</ele>
        <time>2017-02-09T09:38:45Z</time>
      </trkpt>
      <trkpt lat="46.08591" lon="4.47357">
        <ele>456</ele>
        <time>2017-02-09T09:38:52Z</time>
      </trkpt>
      <trkpt lat="46.08592" lon="4.47357">
        <ele>456</ele>
        <time>2017-02-09T09:38:53Z</time>
      </trkpt>
      <trkpt lat="46.086" lon="4.47354">
        <ele>456</ele>
        <time>2017-02-09T09:38:59Z</time>
      </trkpt>
      <trkpt lat="46.08601" lon="4.47353">
        <ele>456</ele>
        <time>2017-02-09T09:39:00Z</time>
      </trkpt>
      <trkpt lat="46.0861" lon="4.47349">
        <ele>456</ele>
        <time>2017-02-09T09:39:06Z</time>
      </trkpt>
      <trkpt lat="46.08611" lon="4.47349">
        <ele>455</ele>
        <time>2017-02-09T09:39:07Z</time>
      </trkpt>
      <trkpt lat="46.08618" lon="4.47343">
        <ele>455</ele>
        <time>2017-02-09T09:39:13Z</time>
      </trkpt>
      <trkpt lat="46.08619" lon="4.47342">
        <ele>455</ele>
        <time>2017-02-09T09:39:14Z</time>
      </trkpt>
      <trkpt lat="46.08627" lon="4.47338">
        <ele>454</ele>
        <time>2017-02-09T09:39:21Z</time>
      </trkpt>
      <trkpt lat="46.08628" lon="4.47337">
        <ele>454</ele>
        <time>2017-02-09T09:39:22Z</time>
      </trkpt>
      <trkpt lat="46.08636" lon="4.47334">
        <ele>454</ele>
        <time>2017-02-09T09:39:28Z</time>
      </trkpt>
      <trkpt lat="46.08637" lon="4.47333">
        <ele>460</ele>
        <time>2017-02-09T09:39:29Z</time>
      </trkpt>
      <trkpt lat="46.08646" lon="4.4733">
        <ele>459</ele>
        <time>2017-02-09T09:39:35Z</time>
      </trkpt>
      <trkpt lat="46.08647" lon="4.4733">
        <ele>458</ele>
        <time>2017-02-09T09:39:36Z</time>
      </trkpt>
      <trkpt lat="46.08655" lon="4.47329">
        <ele>457</ele>
        <time>2017-02-09T09:39:42Z</time>
      </trkpt>
      <trkpt lat="46.08656" lon="4.47329">
        <ele>457</ele>
        <time>2017-02-09T09:39:43Z</time>
      </trkpt>
      <trkpt lat="46.08665" lon="4.47331">
        <ele>454</ele>
        <time>2017-02-09T09:39:50Z</time>
      </trkpt>
      <trkpt lat="46.08666" lon="4.47332">
        <ele>454</ele>
        <time>2017-02-09T09:39:51Z</time>
      </trkpt>
      <trkpt lat="46.08673" lon="4.47339">
        <ele>454</ele>
        <time>2017-02-09T09:39:58Z</time>
      </trkpt>
      <trkpt lat="46.08674" lon="4.4734">
        <ele>454</ele>
        <time>2017-02-09T09:39:59Z</time>
      </trkpt>
      <trkpt lat="46.0868" lon="4.47348">
        <ele>455</ele>
        <time>2017-02-09T09:40:05Z</time>
      </trkpt>
      <trkpt lat="46.08681" lon="4.4735">
        <ele>455</ele>
        <time>2017-02-09T09:40:06Z</time>
      </trkpt>
      <trkpt lat="46.08685" lon="4.4736">
        <ele>455</ele>
        <time>2017-02-09T09:40:13Z</time>
      </trkpt>
      <trkpt lat="46.08686" lon="4.47361">
        <ele>455</ele>
        <time>2017-02-09T09:40:14Z</time>
      </trkpt>
      <trkpt lat="46.0869" lon="4.47371">
        <ele>455</ele>
        <time>2017-02-09T09:40:21Z</time>
      </trkpt>
      <trkpt lat="46.08691" lon="4.47372">
        <ele>455</ele>
        <time>2017-02-09T09:40:22Z</time>
      </trkpt>
      <trkpt lat="46.08696" lon="4.4738">
        <ele>455</ele>
        <time>2017-02-09T09:40:30Z</time>
      </trkpt>
      <trkpt lat="46.08697" lon="4.47381">
        <ele>455</ele>
        <time>2017-02-09T09:40:31Z</time>
      </trkpt>
      <trkpt lat="46.08702" lon="4.47392">
        <ele>455</ele>
        <time>2017-02-09T09:40:39Z</time>
      </trkpt>
      <trkpt lat="46.08702" lon="4.47394">
        <ele>455</ele>
        <time>2017-02-09T09:40:40Z</time>
      </trkpt>
      <trkpt lat="46.08704" lon="4.47406">
        <ele>454</ele>
        <time>2017-02-09T09:40:47Z</time>
      </trkpt>
      <trkpt lat="46.08704" lon="4.47407">
        <ele>454</ele>
        <time>2017-02-09T09:40:48Z</time>
      </trkpt>
      <trkpt lat="46.0871" lon="4.47416">
        <ele>455</ele>
        <time>2017-02-09T09:40:55Z</time>
      </trkpt>
      <trkpt lat="46.08711" lon="4.47417">
        <ele>455</ele>
        <time>2017-02-09T09:40:56Z</time>
      </trkpt>
      <trkpt lat="46.08717" lon="4.47423">
        <ele>450</ele>
        <time>2017-02-09T09:41:02Z</time>
      </trkpt>
      <trkpt lat="46.08719" lon="4.47424">
        <ele>451</ele>
        <time>2017-02-09T09:41:03Z</time>
      </trkpt>
      <trkpt lat="46.08726" lon="4.4743">
        <ele>451</ele>
        <time>2017-02-09T09:41:10Z</time>
      </trkpt>
      <trkpt lat="46.08727" lon="4.47431">
        <ele>451</ele>
        <time>2017-02-09T09:41:11Z</time>
      </trkpt>
      <trkpt lat="46.08735" lon="4.47433">
        <ele>452</ele>
        <time>2017-02-09T09:41:17Z</time>
      </trkpt>
      <trkpt lat="46.08736" lon="4.47433">
        <ele>452</ele>
        <time>2017-02-09T09:41:18Z</time>
      </trkpt>
      <trkpt lat="46.08745" lon="4.47435">
        <ele>452</ele>
        <time>2017-02-09T09:41:25Z</time>
      </trkpt>
      <trkpt lat="46.08746" lon="4.47436">
        <ele>452</ele>
        <time>2017-02-09T09:41:26Z</time>
      </trkpt>
      <trkpt lat="46.08754" lon="4.47436">
        <ele>452</ele>
        <time>2017-02-09T09:41:32Z</time>
      </trkpt>
      <trkpt lat="46.08756" lon="4.47437">
        <ele>452</ele>
        <time>2017-02-09T09:41:33Z</time>
      </trkpt>
      <trkpt lat="46.08763" lon="4.47438">
        <ele>452</ele>
        <time>2017-02-09T09:41:39Z</time>
      </trkpt>
      <trkpt lat="46.08765" lon="4.47439">
        <ele>452</ele>
        <time>2017-02-09T09:41:40Z</time>
      </trkpt>
      <trkpt lat="46.08773" lon="4.47438">
        <ele>451</ele>
        <time>2017-02-09T09:41:47Z</time>
      </trkpt>
      <trkpt lat="46.08775" lon="4.47437">
        <ele>451</ele>
        <time>2017-02-09T09:41:48Z</time>
      </trkpt>
      <trkpt lat="46.08783" lon="4.47435">
        <ele>451</ele>
        <time>2017-02-09T09:41:55Z</time>
      </trkpt>
      <trkpt lat="46.08784" lon="4.47434">
        <ele>451</ele>
        <time>2017-02-09T09:41:56Z</time>
      </trkpt>
      <trkpt lat="46.08792" lon="4.47429">
        <ele>451</ele>
        <time>2017-02-09T09:42:02Z</time>
      </trkpt>
      <trkpt lat="46.08793" lon="4.47429">
        <ele>451</ele>
        <time>2017-02-09T09:42:03Z</time>
      </trkpt>
      <trkpt lat="46.088" lon="4.47424">
        <ele>451</ele>
        <time>2017-02-09T09:42:09Z</time>
      </trkpt>
      <trkpt lat="46.08801" lon="4.47423">
        <ele>451</ele>
        <time>2017-02-09T09:42:10Z</time>
      </trkpt>
      <trkpt lat="46.08809" lon="4.47419">
        <ele>451</ele>
        <time>2017-02-09T09:42:16Z</time>
      </trkpt>
      <trkpt lat="46.0881" lon="4.47419">
        <ele>451</ele>
        <time>2017-02-09T09:42:17Z</time>
      </trkpt>
      <trkpt lat="46.08818" lon="4.47415">
        <ele>456</ele>
        <time>2017-02-09T09:42:23Z</time>
      </trkpt>
      <trkpt lat="46.08819" lon="4.47415">
        <ele>456</ele>
        <time>2017-02-09T09:42:24Z</time>
      </trkpt>
      <trkpt lat="46.08828" lon="4.47411">
        <ele>454</ele>
        <time>2017-02-09T09:42:31Z</time>
      </trkpt>
      <trkpt lat="46.08829" lon="4.4741">
        <ele>455</ele>
        <time>2017-02-09T09:42:32Z</time>
      </trkpt>
      <trkpt lat="46.08836" lon="4.47403">
        <ele>453</ele>
        <time>2017-02-09T09:42:38Z</time>
      </trkpt>
      <trkpt lat="46.08837" lon="4.47402">
        <ele>453</ele>
        <time>2017-02-09T09:42:39Z</time>
      </trkpt>
      <trkpt lat="46.08844" lon="4.47398">
        <ele>453</ele>
        <time>2017-02-09T09:42:44Z</time>
      </trkpt>
      <trkpt lat="46.08845" lon="4.47397">
        <ele>453</ele>
        <time>2017-02-09T09:42:45Z</time>
      </trkpt>
      <trkpt lat="46.08853" lon="4.47393">
        <ele>453</ele>
        <time>2017-02-09T09:42:51Z</time>
      </trkpt>
      <trkpt lat="46.08854" lon="4.47392">
        <ele>453</ele>
        <time>2017-02-09T09:42:52Z</time>
      </trkpt>
      <trkpt lat="46.08862" lon="4.47388">
        <ele>453</ele>
        <time>2017-02-09T09:42:59Z</time>
      </trkpt>
      <trkpt lat="46.08863" lon="4.47387">
        <ele>453</ele>
        <time>2017-02-09T09:43:00Z</time>
      </trkpt>
      <trkpt lat="46.0887" lon="4.47382">
        <ele>453</ele>
        <time>2017-02-09T09:43:06Z</time>
      </trkpt>
      <trkpt lat="46.08871" lon="4.47381">
        <ele>453</ele>
        <time>2017-02-09T09:43:07Z</time>
      </trkpt>
      <trkpt lat="46.08879" lon="4.47377">
        <ele>453</ele>
        <time>2017-02-09T09:43:13Z</time>
      </trkpt>
      <trkpt lat="46.0888" lon="4.47377">
        <ele>453</ele>
        <time>2017-02-09T09:43:14Z</time>
      </trkpt>
      <trkpt lat="46.08888" lon="4.47373">
        <ele>452</ele>
        <time>2017-02-09T09:43:21Z</time>
      </trkpt>
      <trkpt lat="46.0889" lon="4.47372">
        <ele>452</ele>
        <time>2017-02-09T09:43:22Z</time>
      </trkpt>
      <trkpt lat="46.08898" lon="4.47367">
        <ele>452</ele>
        <time>2017-02-09T09:43:28Z</time>
      </trkpt>
      <trkpt lat="46.08899" lon="4.47366">
        <ele>452</ele>
        <time>2017-02-09T09:43:29Z</time>
      </trkpt>
      <trkpt lat="46.08907" lon="4.47365">
        <ele>452</ele>
        <time>2017-02-09T09:43:35Z</time>
      </trkpt>
      <trkpt lat="46.08908" lon="4.47365">
        <ele>452</ele>
        <time>2017-02-09T09:43:36Z</time>
      </trkpt>
      <trkpt lat="46.08917" lon="4.47367">
        <ele>446</ele>
        <time>2017-02-09T09:43:42Z</time>
      </trkpt>
      <trkpt lat="46.08918" lon="4.47367">
        <ele>446</ele>
        <time>2017-02-09T09:43:43Z</time>
      </trkpt>
      <trkpt lat="46.08926" lon="4.47368">
        <ele>445</ele>
        <time>2017-02-09T09:43:49Z</time>
      </trkpt>
      <trkpt lat="46.08928" lon="4.47369">
        <ele>445</ele>
        <time>2017-02-09T09:43:50Z</time>
      </trkpt>
      <trkpt lat="46.08936" lon="4.47371">
        <ele>445</ele>
        <time>2017-02-09T09:43:57Z</time>
      </trkpt>
      <trkpt lat="46.08937" lon="4.47371">
        <ele>445</ele>
        <time>2017-02-09T09:43:58Z</time>
      </trkpt>
      <trkpt lat="46.08946" lon="4.47372">
        <ele>444</ele>
        <time>2017-02-09T09:44:05Z</time>
      </trkpt>
      <trkpt lat="46.08948" lon="4.47372">
        <ele>444</ele>
        <time>2017-02-09T09:44:06Z</time>
      </trkpt>
      <trkpt lat="46.08956" lon="4.47375">
        <ele>444</ele>
        <time>2017-02-09T09:44:12Z</time>
      </trkpt>
      <trkpt lat="46.08957" lon="4.47376">
        <ele>444</ele>
        <time>2017-02-09T09:44:13Z</time>
      </trkpt>
      <trkpt lat="46.08965" lon="4.47379">
        <ele>443</ele>
        <time>2017-02-09T09:44:19Z</time>
      </trkpt>
      <trkpt lat="46.08966" lon="4.47379">
        <ele>443</ele>
        <time>2017-02-09T09:44:20Z</time>
      </trkpt>
      <trkpt lat="46.08975" lon="4.4738">
        <ele>443</ele>
        <time>2017-02-09T09:45:04Z</time>
      </trkpt>
      <trkpt lat="46.08975" lon="4.4738">
        <ele>443</ele>
        <time>2017-02-09T09:45:05Z</time>
      </trkpt>
      <trkpt lat="46.08982" lon="4.47386">
        <ele>442</ele>
        <time>2017-02-09T09:45:14Z</time>
      </trkpt>
      <trkpt lat="46.08984" lon="4.47386">
        <ele>442</ele>
        <time>2017-02-09T09:45:15Z</time>
      </trkpt>
      <trkpt lat="46.08991" lon="4.4739">
        <ele>442</ele>
        <time>2017-02-09T09:45:21Z</time>
      </trkpt>
      <trkpt lat="46.08992" lon="4.47391">
        <ele>441</ele>
        <time>2017-02-09T09:45:22Z</time>
      </trkpt>
      <trkpt lat="46.09" lon="4.47396">
        <ele>441</ele>
        <time>2017-02-09T09:45:29Z</time>
      </trkpt>
      <trkpt lat="46.09001" lon="4.47397">
        <ele>436</ele>
        <time>2017-02-09T09:45:30Z</time>
      </trkpt>
      <trkpt lat="46.09009" lon="4.474">
        <ele>436</ele>
        <time>2017-02-09T09:45:37Z</time>
      </trkpt>
      <trkpt lat="46.0901" lon="4.474">
        <ele>436</ele>
        <time>2017-02-09T09:45:38Z</time>
      </trkpt>
      <trkpt lat="46.09018" lon="4.47403">
        <ele>436</ele>
        <time>2017-02-09T09:45:45Z</time>
      </trkpt>
      <trkpt lat="46.09019" lon="4.47404">
        <ele>436</ele>
        <time>2017-02-09T09:45:46Z</time>
      </trkpt>
      <trkpt lat="46.09026" lon="4.47408">
        <ele>435</ele>
        <time>2017-02-09T09:45:52Z</time>
      </trkpt>
      <trkpt lat="46.09027" lon="4.47409">
        <ele>435</ele>
        <time>2017-02-09T09:45:53Z</time>
      </trkpt>
      <trkpt lat="46.09035" lon="4.47412">
        <ele>434</ele>
        <time>2017-02-09T09:45:59Z</time>
      </trkpt>
      <trkpt lat="46.09037" lon="4.47412">
        <ele>434</ele>
        <time>2017-02-09T09:46:00Z</time>
      </trkpt>
      <trkpt lat="46.09045" lon="4.4741">
        <ele>433</ele>
        <time>2017-02-09T09:46:06Z</time>
      </trkpt>
      <trkpt lat="46.09046" lon="4.4741">
        <ele>433</ele>
        <time>2017-02-09T09:46:07Z</time>
      </trkpt>
      <trkpt lat="46.09054" lon="4.47407">
        <ele>432</ele>
        <time>2017-02-09T09:46:13Z</time>
      </trkpt>
      <trkpt lat="46.09055" lon="4.47406">
        <ele>432</ele>
        <time>2017-02-09T09:46:14Z</time>
      </trkpt>
      <trkpt lat="46.09063" lon="4.47401">
        <ele>432</ele>
        <time>2017-02-09T09:46:21Z</time>
      </trkpt>
      <trkpt lat="46.09064" lon="4.474">
        <ele>432</ele>
        <time>2017-02-09T09:46:22Z</time>
      </trkpt>
      <trkpt lat="46.0907" lon="4.47392">
        <ele>432</ele>
        <time>2017-02-09T09:46:29Z</time>
      </trkpt>
      <trkpt lat="46.09071" lon="4.47391">
        <ele>432</ele>
        <time>2017-02-09T09:46:30Z</time>
      </trkpt>
      <trkpt lat="46.09079" lon="4.47386">
        <ele>432</ele>
        <time>2017-02-09T09:46:37Z</time>
      </trkpt>
      <trkpt lat="46.0908" lon="4.47386">
        <ele>432</ele>
        <time>2017-02-09T09:46:38Z</time>
      </trkpt>
      <trkpt lat="46.09089" lon="4.47387">
        <ele>426</ele>
        <time>2017-02-09T09:46:45Z</time>
      </trkpt>
      <trkpt lat="46.0909" lon="4.47387">
        <ele>426</ele>
        <time>2017-02-09T09:46:46Z</time>
      </trkpt>
      <trkpt lat="46.09098" lon="4.47391">
        <ele>426</ele>
        <time>2017-02-09T09:46:53Z</time>
      </trkpt>
      <trkpt lat="46.09099" lon="4.47392">
        <ele>426</ele>
        <time>2017-02-09T09:46:54Z</time>
      </trkpt>
      <trkpt lat="46.09108" lon="4.47393">
        <ele>426</ele>
        <time>2017-02-09T09:47:01Z</time>
      </trkpt>
      <trkpt lat="46.09109" lon="4.47392">
        <ele>426</ele>
        <time>2017-02-09T09:47:02Z</time>
      </trkpt>
      <trkpt lat="46.09117" lon="4.47388">
        <ele>425</ele>
        <time>2017-02-09T09:47:10Z</time>
      </trkpt>
      <trkpt lat="46.09118" lon="4.47389">
        <ele>425</ele>
        <time>2017-02-09T09:47:11Z</time>
      </trkpt>
      <trkpt lat="46.09126" lon="4.47391">
        <ele>425</ele>
        <time>2017-02-09T09:47:18Z</time>
      </trkpt>
      <trkpt lat="46.09127" lon="4.47391">
        <ele>425</ele>
        <time>2017-02-09T09:47:19Z</time>
      </trkpt>
      <trkpt lat="46.09135" lon="4.47396">
        <ele>424</ele>
        <time>2017-02-09T09:47:26Z</time>
      </trkpt>
      <trkpt lat="46.09136" lon="4.47398">
        <ele>424</ele>
        <time>2017-02-09T09:47:27Z</time>
      </trkpt>
      <trkpt lat="46.09141" lon="4.47406">
        <ele>423</ele>
        <time>2017-02-09T09:47:33Z</time>
      </trkpt>
      <trkpt lat="46.09142" lon="4.47407">
        <ele>423</ele>
        <time>2017-02-09T09:47:34Z</time>
      </trkpt>
      <trkpt lat="46.09146" lon="4.47418">
        <ele>421</ele>
        <time>2017-02-09T09:47:41Z</time>
      </trkpt>
      <trkpt lat="46.09147" lon="4.4742">
        <ele>421</ele>
        <time>2017-02-09T09:47:42Z</time>
      </trkpt>
      <trkpt lat="46.0915" lon="4.4743">
        <ele>421</ele>
        <time>2017-02-09T09:47:48Z</time>
      </trkpt>
      <trkpt lat="46.09151" lon="4.47432">
        <ele>421</ele>
        <time>2017-02-09T09:47:49Z</time>
      </trkpt>
      <trkpt lat="46.09153" lon="4.47444">
        <ele>421</ele>
        <time>2017-02-09T09:47:56Z</time>
      </trkpt>
      <trkpt lat="46.09154" lon="4.47446">
        <ele>421</ele>
        <time>2017-02-09T09:47:57Z</time>
      </trkpt>
      <trkpt lat="46.09156" lon="4.47457">
        <ele>421</ele>
        <time>2017-02-09T09:48:04Z</time>
      </trkpt>
      <trkpt lat="46.09156" lon="4.47458">
        <ele>421</ele>
        <time>2017-02-09T09:48:05Z</time>
      </trkpt>
      <trkpt lat="46.09158" lon="4.4747">
        <ele>421</ele>
        <time>2017-02-09T09:48:21Z</time>
      </trkpt>
      <trkpt lat="46.09158" lon="4.47473">
        <ele>421</ele>
        <time>2017-02-09T09:48:22Z</time>
      </trkpt>
      <trkpt lat="46.09157" lon="4.47483">
        <ele>421</ele>
        <time>2017-02-09T09:48:28Z</time>
      </trkpt>
      <trkpt lat="46.09157" lon="4.47485">
        <ele>421</ele>
        <time>2017-02-09T09:48:29Z</time>
      </trkpt>
      <trkpt lat="46.09157" lon="4.47497">
        <ele>421</ele>
        <time>2017-02-09T09:48:35Z</time>
      </trkpt>
      <trkpt lat="46.09157" lon="4.47499">
        <ele>421</ele>
        <time>2017-02-09T09:48:36Z</time>
      </trkpt>
      <trkpt lat="46.09161" lon="4.4751">
        <ele>422</ele>
        <time>2017-02-09T09:48:41Z</time>
      </trkpt>
      <trkpt lat="46.09161" lon="4.47511">
        <ele>422</ele>
        <time>2017-02-09T09:48:42Z</time>
      </trkpt>
      <trkpt lat="46.09167" lon="4.4752">
        <ele>422</ele>
        <time>2017-02-09T09:48:48Z</time>
      </trkpt>
      <trkpt lat="46.09167" lon="4.47521">
        <ele>426</ele>
        <time>2017-02-09T09:48:49Z</time>
      </trkpt>
      <trkpt lat="46.09173" lon="4.47528">
        <ele>427</ele>
        <time>2017-02-09T09:48:55Z</time>
      </trkpt>
      <trkpt lat="46.09174" lon="4.47529">
        <ele>427</ele>
        <time>2017-02-09T09:48:56Z</time>
      </trkpt>
      <trkpt lat="46.09181" lon="4.47537">
        <ele>428</ele>
        <time>2017-02-09T09:49:03Z</time>
      </trkpt>
      <trkpt lat="46.09181" lon="4.47538">
        <ele>428</ele>
        <time>2017-02-09T09:49:04Z</time>
      </trkpt>
      <trkpt lat="46.0918" lon="4.4755">
        <ele>429</ele>
        <time>2017-02-09T09:49:13Z</time>
      </trkpt>
      <trkpt lat="46.0918" lon="4.47551">
        <ele>429</ele>
        <time>2017-02-09T09:49:14Z</time>
      </trkpt>
      <trkpt lat="46.09181" lon="4.47564">
        <ele>429</ele>
        <time>2017-02-09T09:49:24Z</time>
      </trkpt>
      <trkpt lat="46.09181" lon="4.47565">
        <ele>429</ele>
        <time>2017-02-09T09:49:25Z</time>
      </trkpt>
      <trkpt lat="46.09185" lon="4.47575">
        <ele>429</ele>
        <time>2017-02-09T09:49:35Z</time>
      </trkpt>
      <trkpt lat="46.09185" lon="4.47576">
        <ele>430</ele>
        <time>2017-02-09T09:49:36Z</time>
      </trkpt>
      <trkpt lat="46.09193" lon="4.47583">
        <ele>430</ele>
        <time>2017-02-09T09:49:44Z</time>
      </trkpt>
      <trkpt lat="46.09194" lon="4.47584">
        <ele>435</ele>
        <time>2017-02-09T09:49:45Z</time>
      </trkpt>
      <trkpt lat="46.09201" lon="4.4759">
        <ele>436</ele>
        <time>2017-02-09T09:49:52Z</time>
      </trkpt>
      <trkpt lat="46.09201" lon="4.47591">
        <ele>436</ele>
        <time>2017-02-09T09:49:53Z</time>
      </trkpt>
      <trkpt lat="46.09209" lon="4.47598">
        <ele>437</ele>
        <time>2017-02-09T09:50:00Z</time>
      </trkpt>
      <trkpt lat="46.0921" lon="4.47598">
        <ele>437</ele>
        <time>2017-02-09T09:50:01Z</time>
      </trkpt>
      <trkpt lat="46.09218" lon="4.47604">
        <ele>438</ele>
        <time>2017-02-09T09:50:10Z</time>
      </trkpt>
      <trkpt lat="46.09219" lon="4.47604">
        <ele>438</ele>
        <time>2017-02-09T09:50:11Z</time>
      </trkpt>
      <trkpt lat="46.09227" lon="4.47607">
        <ele>438</ele>
        <time>2017-02-09T09:50:19Z</time>
      </trkpt>
      <trkpt lat="46.09228" lon="4.47608">
        <ele>438</ele>
        <time>2017-02-09T09:50:20Z</time>
      </trkpt>
      <trkpt lat="46.09237" lon="4.4761">
        <ele>438</ele>
        <time>2017-02-09T09:50:30Z</time>
      </trkpt>
      <trkpt lat="46.09237" lon="4.4761">
        <ele>438</ele>
        <time>2017-02-09T09:50:31Z</time>
      </trkpt>
      <trkpt lat="46.09245" lon="4.47615">
        <ele>439</ele>
        <time>2017-02-09T09:50:39Z</time>
      </trkpt>
      <trkpt lat="46.09246" lon="4.47616">
        <ele>439</ele>
        <time>2017-02-09T09:50:40Z</time>
      </trkpt>
      <trkpt lat="46.09254" lon="4.47621">
        <ele>443</ele>
        <time>2017-02-09T09:50:49Z</time>
      </trkpt>
      <trkpt lat="46.09255" lon="4.47622">
        <ele>443</ele>
        <time>2017-02-09T09:50:50Z</time>
      </trkpt>
      <trkpt lat="46.09261" lon="4.47629">
        <ele>444</ele>
        <time>2017-02-09T09:50:58Z</time>
      </trkpt>
      <trkpt lat="46.09262" lon="4.47629">
        <ele>444</ele>
        <time>2017-02-09T09:50:59Z</time>
      </trkpt>
      <trkpt lat="46.09269" lon="4.47637">
        <ele>445</ele>
        <time>2017-02-09T09:51:08Z</time>
      </trkpt>
      <trkpt lat="46.0927" lon="4.47637">
        <ele>445</ele>
        <time>2017-02-09T09:51:09Z</time>
      </trkpt>
      <trkpt lat="46.09278" lon="4.47642">
        <ele>445</ele>
        <time>2017-02-09T09:51:17Z</time>
      </trkpt>
      <trkpt lat="46.09279" lon="4.47642">
        <ele>445</ele>
        <time>2017-02-09T09:51:18Z</time>
      </trkpt>
      <trkpt lat="46.09285" lon="4.4765">
        <ele>446</ele>
        <time>2017-02-09T09:51:27Z</time>
      </trkpt>
      <trkpt lat="46.09286" lon="4.47651">
        <ele>446</ele>
        <time>2017-02-09T09:51:28Z</time>
      </trkpt>
      <trkpt lat="46.09292" lon="4.47659">
        <ele>446</ele>
        <time>2017-02-09T09:51:37Z</time>
      </trkpt>
      <trkpt lat="46.09293" lon="4.47659">
        <ele>446</ele>
        <time>2017-02-09T09:51:38Z</time>
      </trkpt>
      <trkpt lat="46.09299" lon="4.47667">
        <ele>454</ele>
        <time>2017-02-09T09:51:49Z</time>
      </trkpt>
      <trkpt lat="46.093" lon="4.47668">
        <ele>454</ele>
        <time>2017-02-09T09:51:50Z</time>
      </trkpt>
      <trkpt lat="46.09306" lon="4.47676">
        <ele>454</ele>
        <time>2017-02-09T09:52:04Z</time>
      </trkpt>
      <trkpt lat="46.09307" lon="4.47676">
        <ele>454</ele>
        <time>2017-02-09T09:52:05Z</time>
      </trkpt>
      <trkpt lat="46.09314" lon="4.47681">
        <ele>454</ele>
        <time>2017-02-09T09:52:19Z</time>
      </trkpt>
      <trkpt lat="46.09315" lon="4.47682">
        <ele>454</ele>
        <time>2017-02-09T09:52:20Z</time>
      </trkpt>
      <trkpt lat="46.09322" lon="4.47689">
        <ele>455</ele>
        <time>2017-02-09T09:52:33Z</time>
      </trkpt>
      <trkpt lat="46.09322" lon="4.47689">
        <ele>455</ele>
        <time>2017-02-09T09:52:34Z</time>
      </trkpt>
      <trkpt lat="46.09329" lon="4.47698">
        <ele>456</ele>
        <time>2017-02-09T09:52:46Z</time>
      </trkpt>
      <trkpt lat="46.09329" lon="4.47698">
        <ele>456</ele>
        <time>2017-02-09T09:52:47Z</time>
      </trkpt>
      <trkpt lat="46.09335" lon="4.47707">
        <ele>459</ele>
        <time>2017-02-09T09:53:01Z</time>
      </trkpt>
      <trkpt lat="46.09335" lon="4.47708">
        <ele>459</ele>
        <time>2017-02-09T09:53:02Z</time>
      </trkpt>
      <trkpt lat="46.0934" lon="4.47718">
        <ele>460</ele>
        <time>2017-02-09T09:53:22Z</time>
      </trkpt>
      <trkpt lat="46.0934" lon="4.47719">
        <ele>460</ele>
        <time>2017-02-09T09:53:23Z</time>
      </trkpt>
      <trkpt lat="46.09338" lon="4.47731">
        <ele>462</ele>
        <time>2017-02-09T09:53:34Z</time>
      </trkpt>
      <trkpt lat="46.09338" lon="4.47732">
        <ele>463</ele>
        <time>2017-02-09T09:53:35Z</time>
      </trkpt>
      <trkpt lat="46.09333" lon="4.47743">
        <ele>465</ele>
        <time>2017-02-09T09:53:49Z</time>
      </trkpt>
      <trkpt lat="46.09332" lon="4.47743">
        <ele>465</ele>
        <time>2017-02-09T09:53:50Z</time>
      </trkpt>
      <trkpt lat="46.09325" lon="4.47751">
        <ele>468</ele>
        <time>2017-02-09T09:54:03Z</time>
      </trkpt>
      <trkpt lat="46.09325" lon="4.47752">
        <ele>468</ele>
        <time>2017-02-09T09:54:04Z</time>
      </trkpt>
      <trkpt lat="46.09322" lon="4.47763">
        <ele>470</ele>
        <time>2017-02-09T09:54:17Z</time>
      </trkpt>
      <trkpt lat="46.09322" lon="4.47764">
        <ele>470</ele>
        <time>2017-02-09T09:54:18Z</time>
      </trkpt>
      <trkpt lat="46.09324" lon="4.47776">
        <ele>471</ele>
        <time>2017-02-09T09:54:30Z</time>
      </trkpt>
      <trkpt lat="46.09324" lon="4.47777">
        <ele>471</ele>
        <time>2017-02-09T09:54:31Z</time>
      </trkpt>
      <trkpt lat="46.09327" lon="4.47789">
        <ele>473</ele>
        <time>2017-02-09T09:54:44Z</time>
      </trkpt>
      <trkpt lat="46.09327" lon="4.4779">
        <ele>473</ele>
        <time>2017-02-09T09:54:45Z</time>
      </trkpt>
      <trkpt lat="46.09328" lon="4.47802">
        <ele>474</ele>
        <time>2017-02-09T09:54:56Z</time>
      </trkpt>
      <trkpt lat="46.09328" lon="4.47803">
        <ele>474</ele>
        <time>2017-02-09T09:54:57Z</time>
      </trkpt>
      <trkpt lat="46.09326" lon="4.47814">
        <ele>476</ele>
        <time>2017-02-09T09:55:12Z</time>
      </trkpt>
      <trkpt lat="46.09325" lon="4.47815">
        <ele>476</ele>
        <time>2017-02-09T09:55:13Z</time>
      </trkpt>
      <trkpt lat="46.09318" lon="4.47823">
        <ele>477</ele>
        <time>2017-02-09T09:55:24Z</time>
      </trkpt>
      <trkpt lat="46.09318" lon="4.47824">
        <ele>477</ele>
        <time>2017-02-09T09:55:25Z</time>
      </trkpt>
      <trkpt lat="46.09313" lon="4.47834">
        <ele>483</ele>
        <time>2017-02-09T09:55:36Z</time>
      </trkpt>
      <trkpt lat="46.09312" lon="4.47835">
        <ele>483</ele>
        <time>2017-02-09T09:55:37Z</time>
      </trkpt>
      <trkpt lat="46.09306" lon="4.47844">
        <ele>483</ele>
        <time>2017-02-09T09:55:50Z</time>
      </trkpt>
      <trkpt lat="46.09306" lon="4.47844">
        <ele>483</ele>
        <time>2017-02-09T09:55:51Z</time>
      </trkpt>
      <trkpt lat="46.09306" lon="4.47857">
        <ele>484</ele>
        <time>2017-02-09T09:56:03Z</time>
      </trkpt>
      <trkpt lat="46.09306" lon="4.47858">
        <ele>484</ele>
        <time>2017-02-09T09:56:04Z</time>
      </trkpt>
      <trkpt lat="46.09309" lon="4.4787">
        <ele>485</ele>
        <time>2017-02-09T09:56:15Z</time>
      </trkpt>
      <trkpt lat="46.09309" lon="4.47871">
        <ele>485</ele>
        <time>2017-02-09T09:56:16Z</time>
      </trkpt>
      <trkpt lat="46.09313" lon="4.47882">
        <ele>486</ele>
        <time>2017-02-09T09:56:25Z</time>
      </trkpt>
      <trkpt lat="46.09313" lon="4.47883">
        <ele>486</ele>
        <time>2017-02-09T09:56:26Z</time>
      </trkpt>
      <trkpt lat="46.09317" lon="4.47894">
        <ele>487</ele>
        <time>2017-02-09T09:56:37Z</time>
      </trkpt>
      <trkpt lat="46.09317" lon="4.47895">
        <ele>487</ele>
        <time>2017-02-09T09:56:38Z</time>
      </trkpt>
      <trkpt lat="46.09318" lon="4.47908">
        <ele>489</ele>
        <time>2017-02-09T09:57:03Z</time>
      </trkpt>
      <trkpt lat="46.09318" lon="4.47909">
        <ele>489</ele>
        <time>2017-02-09T09:57:04Z</time>
      </trkpt>
      <trkpt lat="46.09322" lon="4.4792">
        <ele>494</ele>
        <time>2017-02-09T10:02:53Z</time>
      </trkpt>
      <trkpt lat="46.09323" lon="4.47921">
        <ele>494</ele>
        <time>2017-02-09T10:02:54Z</time>
      </trkpt>
      <trkpt lat="46.09327" lon="4.47931">
        <ele>494</ele>
        <time>2017-02-09T10:03:04Z</time>
      </trkpt>
      <trkpt lat="46.09327" lon="4.47933">
        <ele>495</ele>
        <time>2017-02-09T10:03:05Z</time>
      </trkpt>
      <trkpt lat="46.09331" lon="4.47945">
        <ele>496</ele>
        <time>2017-02-09T10:03:14Z</time>
      </trkpt>
      <trkpt lat="46.09332" lon="4.47946">
        <ele>496</ele>
        <time>2017-02-09T10:03:15Z</time>
      </trkpt>
      <trkpt lat="46.09334" lon="4.47957">
        <ele>498</ele>
        <time>2017-02-09T10:03:26Z</time>
      </trkpt>
      <trkpt lat="46.09334" lon="4.47958">
        <ele>498</ele>
        <time>2017-02-09T10:03:27Z</time>
      </trkpt>
      <trkpt lat="46.09336" lon="4.4797">
        <ele>500</ele>
        <time>2017-02-09T10:03:41Z</time>
      </trkpt>
      <trkpt lat="46.09336" lon="4.47971">
        <ele>500</ele>
        <time>2017-02-09T10:03:42Z</time>
      </trkpt>
      <trkpt lat="46.09338" lon="4.47983">
        <ele>501</ele>
        <time>2017-02-09T10:03:53Z</time>
      </trkpt>
      <trkpt lat="46.09339" lon="4.47984">
        <ele>502</ele>
        <time>2017-02-09T10:03:54Z</time>
      </trkpt>
      <trkpt lat="46.09342" lon="4.47995">
        <ele>503</ele>
        <time>2017-02-09T10:04:12Z</time>
      </trkpt>
      <trkpt lat="46.09342" lon="4.47997">
        <ele>503</ele>
        <time>2017-02-09T10:04:13Z</time>
      </trkpt>
      <trkpt lat="46.09345" lon="4.48008">
        <ele>508</ele>
        <time>2017-02-09T10:04:28Z</time>
      </trkpt>
      <trkpt lat="46.09346" lon="4.48009">
        <ele>508</ele>
        <time>2017-02-09T10:04:29Z</time>
      </trkpt>
      <trkpt lat="46.09349" lon="4.48021">
        <ele>510</ele>
        <time>2017-02-09T10:04:42Z</time>
      </trkpt>
      <trkpt lat="46.09349" lon="4.48021">
        <ele>510</ele>
        <time>2017-02-09T10:04:43Z</time>
      </trkpt>
      <trkpt lat="46.09352" lon="4.48032">
        <ele>511</ele>
        <time>2017-02-09T10:04:55Z</time>
      </trkpt>
      <trkpt lat="46.09352" lon="4.48033">
        <ele>511</ele>
        <time>2017-02-09T10:04:56Z</time>
      </trkpt>
      <trkpt lat="46.09356" lon="4.48044">
        <ele>512</ele>
        <time>2017-02-09T10:05:05Z</time>
      </trkpt>
      <trkpt lat="46.09356" lon="4.48045">
        <ele>512</ele>
        <time>2017-02-09T10:05:06Z</time>
      </trkpt>
      <trkpt lat="46.09362" lon="4.48055">
        <ele>513</ele>
        <time>2017-02-09T10:05:18Z</time>
      </trkpt>
      <trkpt lat="46.09362" lon="4.48056">
        <ele>513</ele>
        <time>2017-02-09T10:05:19Z</time>
      </trkpt>
      <trkpt lat="46.09367" lon="4.48066">
        <ele>513</ele>
        <time>2017-02-09T10:05:32Z</time>
      </trkpt>
      <trkpt lat="46.09367" lon="4.48068">
        <ele>514</ele>
        <time>2017-02-09T10:05:33Z</time>
      </trkpt>
      <trkpt lat="46.09371" lon="4.48078">
        <ele>514</ele>
        <time>2017-02-09T10:05:43Z</time>
      </trkpt>
      <trkpt lat="46.09372" lon="4.48079">
        <ele>514</ele>
        <time>2017-02-09T10:05:44Z</time>
      </trkpt>
      <trkpt lat="46.09376" lon="4.48089">
        <ele>523</ele>
        <time>2017-02-09T10:05:54Z</time>
      </trkpt>
      <trkpt lat="46.09377" lon="4.4809">
        <ele>523</ele>
        <time>2017-02-09T10:05:55Z</time>
      </trkpt>
      <trkpt lat="46.09382" lon="4.481">
        <ele>523</ele>
        <time>2017-02-09T10:06:06Z</time>
      </trkpt>
      <trkpt lat="46.09382" lon="4.48101">
        <ele>523</ele>
        <time>2017-02-09T10:06:07Z</time>
      </trkpt>
      <trkpt lat="46.09386" lon="4.48112">
        <ele>524</ele>
        <time>2017-02-09T10:06:17Z</time>
      </trkpt>
      <trkpt lat="46.09386" lon="4.48114">
        <ele>524</ele>
        <time>2017-02-09T10:06:18Z</time>
      </trkpt>
      <trkpt lat="46.0939" lon="4.48125">
        <ele>525</ele>
        <time>2017-02-09T10:06:30Z</time>
      </trkpt>
      <trkpt lat="46.0939" lon="4.48126">
        <ele>525</ele>
        <time>2017-02-09T10:06:31Z</time>
      </trkpt>
      <trkpt lat="46.09395" lon="4.48136">
        <ele>526</ele>
        <time>2017-02-09T10:06:43Z</time>
      </trkpt>
      <trkpt lat="46.09396" lon="4.48136">
        <ele>526</ele>
        <time>2017-02-09T10:06:44Z</time>
      </trkpt>
      <trkpt lat="46.09401" lon="4.48146">
        <ele>527</ele>
        <time>2017-02-09T10:06:57Z</time>
      </trkpt>
      <trkpt lat="46.09401" lon="4.48147">
        <ele>528</ele>
        <time>2017-02-09T10:06:58Z</time>
      </trkpt>
      <trkpt lat="46.09407" lon="4.48157">
        <ele>529</ele>
        <time>2017-02-09T10:07:09Z</time>
      </trkpt>
      <trkpt lat="46.09408" lon="4.48158">
        <ele>530</ele>
        <time>2017-02-09T10:07:10Z</time>
      </trkpt>
      <trkpt lat="46.09414" lon="4.48167">
        <ele>533</ele>
        <time>2017-02-09T10:07:21Z</time>
      </trkpt>
      <trkpt lat="46.09414" lon="4.48168">
        <ele>533</ele>
        <time>2017-02-09T10:07:22Z</time>
      </trkpt>
      <trkpt lat="46.09419" lon="4.48178">
        <ele>536</ele>
        <time>2017-02-09T10:07:34Z</time>
      </trkpt>
      <trkpt lat="46.09419" lon="4.48179">
        <ele>536</ele>
        <time>2017-02-09T10:07:35Z</time>
      </trkpt>
      <trkpt lat="46.09424" lon="4.48189">
        <ele>538</ele>
        <time>2017-02-09T10:07:45Z</time>
      </trkpt>
      <trkpt lat="46.09425" lon="4.4819">
        <ele>538</ele>
        <time>2017-02-09T10:07:46Z</time>
      </trkpt>
      <trkpt lat="46.0943" lon="4.482">
        <ele>540</ele>
        <time>2017-02-09T10:07:57Z</time>
      </trkpt>
      <trkpt lat="46.09431" lon="4.48201">
        <ele>540</ele>
        <time>2017-02-09T10:07:58Z</time>
      </trkpt>
      <trkpt lat="46.09437" lon="4.48209">
        <ele>541</ele>
        <time>2017-02-09T10:08:09Z</time>
      </trkpt>
      <trkpt lat="46.09438" lon="4.4821">
        <ele>541</ele>
        <time>2017-02-09T10:08:10Z</time>
      </trkpt>
      <trkpt lat="46.09443" lon="4.48219">
        <ele>542</ele>
        <time>2017-02-09T10:08:20Z</time>
      </trkpt>
      <trkpt lat="46.09444" lon="4.4822">
        <ele>542</ele>
        <time>2017-02-09T10:08:21Z</time>
      </trkpt>
      <trkpt lat="46.0945" lon="4.48229">
        <ele>542</ele>
        <time>2017-02-09T10:08:31Z</time>
      </trkpt>
      <trkpt lat="46.0945" lon="4.48229">
        <ele>542</ele>
        <time>2017-02-09T10:08:32Z</time>
      </trkpt>
      <trkpt lat="46.09457" lon="4.48238">
        <ele>543</ele>
        <time>2017-02-09T10:08:44Z</time>
      </trkpt>
      <trkpt lat="46.09458" lon="4.48239">
        <ele>543</ele>
        <time>2017-02-09T10:08:45Z</time>
      </trkpt>
      <trkpt lat="46.09465" lon="4.48246">
        <ele>544</ele>
        <time>2017-02-09T10:08:58Z</time>
      </trkpt>
      <trkpt lat="46.09465" lon="4.48246">
        <ele>544</ele>
        <time>2017-02-09T10:08:59Z</time>
      </trkpt>
      <trkpt lat="46.09472" lon="4.48254">
        <ele>554</ele>
        <time>2017-02-09T10:09:08Z</time>
      </trkpt>
      <trkpt lat="46.09473" lon="4.48255">
        <ele>554</ele>
        <time>2017-02-09T10:09:09Z</time>
      </trkpt>
      <trkpt lat="46.0948" lon="4.48262">
        <ele>554</ele>
        <time>2017-02-09T10:09:18Z</time>
      </trkpt>
      <trkpt lat="46.09481" lon="4.48262">
        <ele>554</ele>
        <time>2017-02-09T10:09:19Z</time>
      </trkpt>
      <trkpt lat="46.09488" lon="4.48267">
        <ele>554</ele>
        <time>2017-02-09T10:09:31Z</time>
      </trkpt>
      <trkpt lat="46.09489" lon="4.48268">
        <ele>554</ele>
        <time>2017-02-09T10:09:32Z</time>
      </trkpt>
      <trkpt lat="46.09496" lon="4.48274">
        <ele>555</ele>
        <time>2017-02-09T10:09:42Z</time>
      </trkpt>
      <trkpt lat="46.09497" lon="4.48275">
        <ele>555</ele>
        <time>2017-02-09T10:09:43Z</time>
      </trkpt>
      <trkpt lat="46.09504" lon="4.48282">
        <ele>558</ele>
        <time>2017-02-09T10:09:53Z</time>
      </trkpt>
      <trkpt lat="46.09505" lon="4.48282">
        <ele>558</ele>
        <time>2017-02-09T10:09:54Z</time>
      </trkpt>
      <trkpt lat="46.09513" lon="4.48288">
        <ele>559</ele>
        <time>2017-02-09T10:10:05Z</time>
      </trkpt>
      <trkpt lat="46.09513" lon="4.48288">
        <ele>559</ele>
        <time>2017-02-09T10:10:06Z</time>
      </trkpt>
      <trkpt lat="46.09521" lon="4.48293">
        <ele>560</ele>
        <time>2017-02-09T10:10:17Z</time>
      </trkpt>
      <trkpt lat="46.09522" lon="4.48294">
        <ele>560</ele>
        <time>2017-02-09T10:10:18Z</time>
      </trkpt>
      <trkpt lat="46.0953" lon="4.48298">
        <ele>560</ele>
        <time>2017-02-09T10:10:29Z</time>
      </trkpt>
      <trkpt lat="46.09531" lon="4.48299">
        <ele>560</ele>
        <time>2017-02-09T10:10:30Z</time>
      </trkpt>
      <trkpt lat="46.09539" lon="4.48302">
        <ele>561</ele>
        <time>2017-02-09T10:10:44Z</time>
      </trkpt>
      <trkpt lat="46.0954" lon="4.48302">
        <ele>561</ele>
        <time>2017-02-09T10:10:45Z</time>
      </trkpt>
      <trkpt lat="46.09546" lon="4.48309">
        <ele>561</ele>
        <time>2017-02-09T10:10:55Z</time>
      </trkpt>
      <trkpt lat="46.09547" lon="4.4831">
        <ele>561</ele>
        <time>2017-02-09T10:10:56Z</time>
      </trkpt>
      <trkpt lat="46.09553" lon="4.48318">
        <ele>562</ele>
        <time>2017-02-09T10:11:05Z</time>
      </trkpt>
      <trkpt lat="46.09554" lon="4.48319">
        <ele>562</ele>
        <time>2017-02-09T10:11:06Z</time>
      </trkpt>
      <trkpt lat="46.0956" lon="4.48327">
        <ele>562</ele>
        <time>2017-02-09T10:11:15Z</time>
      </trkpt>
      <trkpt lat="46.09561" lon="4.48327">
        <ele>562</ele>
        <time>2017-02-09T10:11:16Z</time>
      </trkpt>
      <trkpt lat="46.09567" lon="4.48337">
        <ele>568</ele>
        <time>2017-02-09T10:11:27Z</time>
      </trkpt>
      <trkpt lat="46.09567" lon="4.48338">
        <ele>568</ele>
        <time>2017-02-09T10:11:28Z</time>
      </trkpt>
      <trkpt lat="46.09573" lon="4.48347">
        <ele>568</ele>
        <time>2017-02-09T10:11:37Z</time>
      </trkpt>
      <trkpt lat="46.09573" lon="4.48348">
        <ele>568</ele>
        <time>2017-02-09T10:11:38Z</time>
      </trkpt>
      <trkpt lat="46.09577" lon="4.48359">
        <ele>569</ele>
        <time>2017-02-09T10:11:47Z</time>
      </trkpt>
      <trkpt lat="46.09578" lon="4.4836">
        <ele>569</ele>
        <time>2017-02-09T10:11:48Z</time>
      </trkpt>
      <trkpt lat="46.09581" lon="4.48371">
        <ele>570</ele>
        <time>2017-02-09T10:11:56Z</time>
      </trkpt>
      <trkpt lat="46.09582" lon="4.48372">
        <ele>570</ele>
        <time>2017-02-09T10:11:57Z</time>
      </trkpt>
      <trkpt lat="46.09585" lon="4.48383">
        <ele>568</ele>
        <time>2017-02-09T10:12:06Z</time>
      </trkpt>
      <trkpt lat="46.09586" lon="4.48384">
        <ele>568</ele>
        <time>2017-02-09T10:12:07Z</time>
      </trkpt>
      <trkpt lat="46.09588" lon="4.48396">
        <ele>569</ele>
        <time>2017-02-09T10:12:58Z</time>
      </trkpt>
      <trkpt lat="46.09588" lon="4.48397">
        <ele>569</ele>
        <time>2017-02-09T10:12:59Z</time>
      </trkpt>
      <trkpt lat="46.09591" lon="4.48408">
        <ele>570</ele>
        <time>2017-02-09T10:13:07Z</time>
      </trkpt>
      <trkpt lat="46.09591" lon="4.4841">
        <ele>570</ele>
        <time>2017-02-09T10:13:08Z</time>
      </trkpt>
      <trkpt lat="46.09592" lon="4.48421">
        <ele>571</ele>
        <time>2017-02-09T10:13:14Z</time>
      </trkpt>
      <trkpt lat="46.09592" lon="4.48423">
        <ele>571</ele>
        <time>2017-02-09T10:13:15Z</time>
      </trkpt>
      <trkpt lat="46.09592" lon="4.48436">
        <ele>571</ele>
        <time>2017-02-09T10:13:22Z</time>
      </trkpt>
      <trkpt lat="46.09592" lon="4.48437">
        <ele>571</ele>
        <time>2017-02-09T10:13:23Z</time>
      </trkpt>
      <trkpt lat="46.09592" lon="4.4845">
        <ele>571</ele>
        <time>2017-02-09T10:13:31Z</time>
      </trkpt>
      <trkpt lat="46.09593" lon="4.48452">
        <ele>571</ele>
        <time>2017-02-09T10:13:32Z</time>
      </trkpt>
      <trkpt lat="46.09595" lon="4.48463">
        <ele>571</ele>
        <time>2017-02-09T10:13:40Z</time>
      </trkpt>
      <trkpt lat="46.09596" lon="4.48465">
        <ele>571</ele>
        <time>2017-02-09T10:13:41Z</time>
      </trkpt>
      <trkpt lat="46.09602" lon="4.48471">
        <ele>571</ele>
        <time>2017-02-09T10:13:48Z</time>
      </trkpt>
      <trkpt lat="46.09603" lon="4.48472">
        <ele>571</ele>
        <time>2017-02-09T10:13:49Z</time>
      </trkpt>
      <trkpt lat="46.09611" lon="4.48474">
        <ele>571</ele>
        <time>2017-02-09T10:13:56Z</time>
      </trkpt>
      <trkpt lat="46.09612" lon="4.48474">
        <ele>571</ele>
        <time>2017-02-09T10:13:57Z</time>
      </trkpt>
      <trkpt lat="46.09621" lon="4.48477">
        <ele>571</ele>
        <time>2017-02-09T10:14:04Z</time>
      </trkpt>
      <trkpt lat="46.09622" lon="4.48477">
        <ele>571</ele>
        <time>2017-02-09T10:14:05Z</time>
      </trkpt>
      <trkpt lat="46.09631" lon="4.48475">
        <ele>571</ele>
        <time>2017-02-09T10:14:12Z</time>
      </trkpt>
      <trkpt lat="46.09632" lon="4.48475">
        <ele>571</ele>
        <time>2017-02-09T10:14:13Z</time>
      </trkpt>
      <trkpt lat="46.0964" lon="4.48474">
        <ele>571</ele>
        <time>2017-02-09T10:14:20Z</time>
      </trkpt>
      <trkpt lat="46.09641" lon="4.48473">
        <ele>570</ele>
        <time>2017-02-09T10:14:21Z</time>
      </trkpt>
      <trkpt lat="46.0965" lon="4.48472">
        <ele>570</ele>
        <time>2017-02-09T10:14:28Z</time>
      </trkpt>
      <trkpt lat="46.09651" lon="4.48472">
        <ele>570</ele>
        <time>2017-02-09T10:14:29Z</time>
      </trkpt>
      <trkpt lat="46.09659" lon="4.48471">
        <ele>570</ele>
        <time>2017-02-09T10:14:36Z</time>
      </trkpt>
      <trkpt lat="46.09661" lon="4.4847">
        <ele>570</ele>
        <time>2017-02-09T10:14:37Z</time>
      </trkpt>
      <trkpt lat="46.09669" lon="4.48469">
        <ele>573</ele>
        <time>2017-02-09T10:14:44Z</time>
      </trkpt>
      <trkpt lat="46.0967" lon="4.48469">
        <ele>573</ele>
        <time>2017-02-09T10:14:45Z</time>
      </trkpt>
      <trkpt lat="46.09679" lon="4.48467">
        <ele>573</ele>
        <time>2017-02-09T10:14:52Z</time>
      </trkpt>
      <trkpt lat="46.0968" lon="4.48467">
        <ele>573</ele>
        <time>2017-02-09T10:14:53Z</time>
      </trkpt>
      <trkpt lat="46.09688" lon="4.48466">
        <ele>573</ele>
        <time>2017-02-09T10:15:00Z</time>
      </trkpt>
      <trkpt lat="46.09689" lon="4.48466">
        <ele>573</ele>
        <time>2017-02-09T10:15:01Z</time>
      </trkpt>
      <trkpt lat="46.09698" lon="4.48465">
        <ele>574</ele>
        <time>2017-02-09T10:15:08Z</time>
      </trkpt>
      <trkpt lat="46.09699" lon="4.48465">
        <ele>574</ele>
        <time>2017-02-09T10:15:09Z</time>
      </trkpt>
      <trkpt lat="46.09708" lon="4.48464">
        <ele>574</ele>
        <time>2017-02-09T10:15:17Z</time>
      </trkpt>
      <trkpt lat="46.09709" lon="4.48464">
        <ele>574</ele>
        <time>2017-02-09T10:15:18Z</time>
      </trkpt>
      <trkpt lat="46.09717" lon="4.4846">
        <ele>575</ele>
        <time>2017-02-09T10:15:26Z</time>
      </trkpt>
      <trkpt lat="46.09718" lon="4.4846">
        <ele>575</ele>
        <time>2017-02-09T10:15:27Z</time>
      </trkpt>
      <trkpt lat="46.09727" lon="4.4846">
        <ele>575</ele>
        <time>2017-02-09T10:15:35Z</time>
      </trkpt>
      <trkpt lat="46.09728" lon="4.4846">
        <ele>575</ele>
        <time>2017-02-09T10:15:36Z</time>
      </trkpt>
      <trkpt lat="46.09735" lon="4.48454">
        <ele>576</ele>
        <time>2017-02-09T10:15:43Z</time>
      </trkpt>
      <trkpt lat="46.09736" lon="4.48453">
        <ele>576</ele>
        <time>2017-02-09T10:15:44Z</time>
      </trkpt>
      <trkpt lat="46.09744" lon="4.4845">
        <ele>576</ele>
        <time>2017-02-09T10:15:51Z</time>
      </trkpt>
      <trkpt lat="46.09745" lon="4.48449">
        <ele>576</ele>
        <time>2017-02-09T10:15:52Z</time>
      </trkpt>
      <trkpt lat="46.09754" lon="4.48445">
        <ele>581</ele>
        <time>2017-02-09T10:16:00Z</time>
      </trkpt>
      <trkpt lat="46.09755" lon="4.48445">
        <ele>581</ele>
        <time>2017-02-09T10:16:01Z</time>
      </trkpt>
      <trkpt lat="46.09763" lon="4.4844">
        <ele>581</ele>
        <time>2017-02-09T10:16:09Z</time>
      </trkpt>
      <trkpt lat="46.09763" lon="4.48439">
        <ele>581</ele>
        <time>2017-02-09T10:16:10Z</time>
      </trkpt>
      <trkpt lat="46.09771" lon="4.48433">
        <ele>581</ele>
        <time>2017-02-09T10:16:19Z</time>
      </trkpt>
      <trkpt lat="46.09772" lon="4.48432">
        <ele>581</ele>
        <time>2017-02-09T10:16:20Z</time>
      </trkpt>
      <trkpt lat="46.09778" lon="4.48426">
        <ele>581</ele>
        <time>2017-02-09T10:16:28Z</time>
      </trkpt>
      <trkpt lat="46.09779" lon="4.48425">
        <ele>581</ele>
        <time>2017-02-09T10:16:29Z</time>
      </trkpt>
      <trkpt lat="46.09786" lon="4.48419">
        <ele>582</ele>
        <time>2017-02-09T10:16:36Z</time>
      </trkpt>
      <trkpt lat="46.09787" lon="4.48417">
        <ele>582</ele>
        <time>2017-02-09T10:16:37Z</time>
      </trkpt>
      <trkpt lat="46.09793" lon="4.4841">
        <ele>578</ele>
        <time>2017-02-09T10:16:45Z</time>
      </trkpt>
      <trkpt lat="46.09794" lon="4.48409">
        <ele>578</ele>
        <time>2017-02-09T10:16:46Z</time>
      </trkpt>
      <trkpt lat="46.09801" lon="4.48403">
        <ele>579</ele>
        <time>2017-02-09T10:16:53Z</time>
      </trkpt>
      <trkpt lat="46.09802" lon="4.48401">
        <ele>579</ele>
        <time>2017-02-09T10:16:54Z</time>
      </trkpt>
      <trkpt lat="46.09807" lon="4.48393">
        <ele>579</ele>
        <time>2017-02-09T10:17:00Z</time>
      </trkpt>
      <trkpt lat="46.09808" lon="4.48392">
        <ele>579</ele>
        <time>2017-02-09T10:17:01Z</time>
      </trkpt>
      <trkpt lat="46.09814" lon="4.48384">
        <ele>579</ele>
        <time>2017-02-09T10:17:07Z</time>
      </trkpt>
      <trkpt lat="46.09815" lon="4.48383">
        <ele>579</ele>
        <time>2017-02-09T10:17:08Z</time>
      </trkpt>
      <trkpt lat="46.09824" lon="4.48378">
        <ele>579</ele>
        <time>2017-02-09T10:17:15Z</time>
      </trkpt>
      <trkpt lat="46.09825" lon="4.48377">
        <ele>579</ele>
        <time>2017-02-09T10:17:16Z</time>
      </trkpt>
      <trkpt lat="46.09832" lon="4.48371">
        <ele>579</ele>
        <time>2017-02-09T10:17:24Z</time>
      </trkpt>
      <trkpt lat="46.09833" lon="4.4837">
        <ele>579</ele>
        <time>2017-02-09T10:17:25Z</time>
      </trkpt>
      <trkpt lat="46.0984" lon="4.48364">
        <ele>582</ele>
        <time>2017-02-09T10:17:31Z</time>
      </trkpt>
      <trkpt lat="46.09841" lon="4.48363">
        <ele>582</ele>
        <time>2017-02-09T10:17:32Z</time>
      </trkpt>
      <trkpt lat="46.09848" lon="4.48355">
        <ele>582</ele>
        <time>2017-02-09T10:17:40Z</time>
      </trkpt>
      <trkpt lat="46.09849" lon="4.48353">
        <ele>582</ele>
        <time>2017-02-09T10:17:41Z</time>
      </trkpt>
      <trkpt lat="46.09855" lon="4.48346">
        <ele>582</ele>
        <time>2017-02-09T10:17:47Z</time>
      </trkpt>
      <trkpt lat="46.09856" lon="4.48345">
        <ele>582</ele>
        <time>2017-02-09T10:17:48Z</time>
      </trkpt>
      <trkpt lat="46.09864" lon="4.48341">
        <ele>582</ele>
        <time>2017-02-09T10:17:55Z</time>
      </trkpt>
      <trkpt lat="46.09865" lon="4.4834">
        <ele>582</ele>
        <time>2017-02-09T10:17:56Z</time>
      </trkpt>
      <trkpt lat="46.09872" lon="4.48335">
        <ele>583</ele>
        <time>2017-02-09T10:18:03Z</time>
      </trkpt>
      <trkpt lat="46.09873" lon="4.48334">
        <ele>583</ele>
        <time>2017-02-09T10:18:04Z</time>
      </trkpt>
      <trkpt lat="46.0988" lon="4.48327">
        <ele>582</ele>
        <time>2017-02-09T10:18:10Z</time>
      </trkpt>
      <trkpt lat="46.09881" lon="4.48325">
        <ele>583</ele>
        <time>2017-02-09T10:18:11Z</time>
      </trkpt>
      <trkpt lat="46.09889" lon="4.48319">
        <ele>583</ele>
        <time>2017-02-09T10:18:18Z</time>
      </trkpt>
      <trkpt lat="46.0989" lon="4.48318">
        <ele>583</ele>
        <time>2017-02-09T10:18:19Z</time>
      </trkpt>
      <trkpt lat="46.09896" lon="4.4831">
        <ele>583</ele>
        <time>2017-02-09T10:18:26Z</time>
      </trkpt>
      <trkpt lat="46.09897" lon="4.48308">
        <ele>583</ele>
        <time>2017-02-09T10:18:27Z</time>
      </trkpt>
      <trkpt lat="46.09904" lon="4.48304">
        <ele>584</ele>
        <time>2017-02-09T10:18:33Z</time>
      </trkpt>
      <trkpt lat="46.09905" lon="4.48303">
        <ele>584</ele>
        <time>2017-02-09T10:18:34Z</time>
      </trkpt>
      <trkpt lat="46.09914" lon="4.48301">
        <ele>584</ele>
        <time>2017-02-09T10:18:41Z</time>
      </trkpt>
      <trkpt lat="46.09915" lon="4.48301">
        <ele>584</ele>
        <time>2017-02-09T10:18:42Z</time>
      </trkpt>
      <trkpt lat="46.09923" lon="4.48302">
        <ele>585</ele>
        <time>2017-02-09T10:18:51Z</time>
      </trkpt>
      <trkpt lat="46.09924" lon="4.48302">
        <ele>585</ele>
        <time>2017-02-09T10:18:52Z</time>
      </trkpt>
      <trkpt lat="46.09933" lon="4.483">
        <ele>584</ele>
        <time>2017-02-09T10:19:00Z</time>
      </trkpt>
      <trkpt lat="46.09934" lon="4.48299">
        <ele>584</ele>
        <time>2017-02-09T10:19:01Z</time>
      </trkpt>
      <trkpt lat="46.09942" lon="4.48297">
        <ele>584</ele>
        <time>2017-02-09T10:19:09Z</time>
      </trkpt>
      <trkpt lat="46.09943" lon="4.48296">
        <ele>584</ele>
        <time>2017-02-09T10:19:10Z</time>
      </trkpt>
      <trkpt lat="46.0995" lon="4.4829">
        <ele>584</ele>
        <time>2017-02-09T10:19:16Z</time>
      </trkpt>
      <trkpt lat="46.09952" lon="4.48289">
        <ele>584</ele>
        <time>2017-02-09T10:19:17Z</time>
      </trkpt>
      <trkpt lat="46.09959" lon="4.48283">
        <ele>583</ele>
        <time>2017-02-09T10:19:22Z</time>
      </trkpt>
      <trkpt lat="46.09961" lon="4.48282">
        <ele>583</ele>
        <time>2017-02-09T10:19:23Z</time>
      </trkpt>
      <trkpt lat="46.09968" lon="4.48277">
        <ele>583</ele>
        <time>2017-02-09T10:19:27Z</time>
      </trkpt>
      <trkpt lat="46.0997" lon="4.48276">
        <ele>583</ele>
        <time>2017-02-09T10:19:28Z</time>
      </trkpt>
      <trkpt lat="46.09977" lon="4.48271">
        <ele>583</ele>
        <time>2017-02-09T10:19:32Z</time>
      </trkpt>
      <trkpt lat="46.09978" lon="4.4827">
        <ele>583</ele>
        <time>2017-02-09T10:19:33Z</time>
      </trkpt>
      <trkpt lat="46.09986" lon="4.48265">
        <ele>583</ele>
        <time>2017-02-09T10:19:39Z</time>
      </trkpt>
      <trkpt lat="46.09987" lon="4.48265">
        <ele>583</ele>
        <time>2017-02-09T10:19:40Z</time>
      </trkpt>
      <trkpt lat="46.09994" lon="4.48261">
        <ele>583</ele>
        <time>2017-02-09T10:19:46Z</time>
      </trkpt>
      <trkpt lat="46.09996" lon="4.48261">
        <ele>583</ele>
        <time>2017-02-09T10:19:47Z</time>
      </trkpt>
      <trkpt lat="46.10003" lon="4.48254">
        <ele>582</ele>
        <time>2017-02-09T10:19:55Z</time>
      </trkpt>
      <trkpt lat="46.10004" lon="4.48253">
        <ele>582</ele>
        <time>2017-02-09T10:19:56Z</time>
      </trkpt>
      <trkpt lat="46.10011" lon="4.48247">
        <ele>583</ele>
        <time>2017-02-09T10:20:06Z</time>
      </trkpt>
      <trkpt lat="46.10012" lon="4.48246">
        <ele>583</ele>
        <time>2017-02-09T10:20:07Z</time>
      </trkpt>
      <trkpt lat="46.10019" lon="4.48238">
        <ele>584</ele>
        <time>2017-02-09T10:20:14Z</time>
      </trkpt>
      <trkpt lat="46.1002" lon="4.48237">
        <ele>584</ele>
        <time>2017-02-09T10:20:15Z</time>
      </trkpt>
      <trkpt lat="46.10027" lon="4.4823">
        <ele>584</ele>
        <time>2017-02-09T10:20:22Z</time>
      </trkpt>
      <trkpt lat="46.10028" lon="4.48229">
        <ele>584</ele>
        <time>2017-02-09T10:20:23Z</time>
      </trkpt>
      <trkpt lat="46.10036" lon="4.48223">
        <ele>584</ele>
        <time>2017-02-09T10:20:30Z</time>
      </trkpt>
      <trkpt lat="46.10037" lon="4.48222">
        <ele>584</ele>
        <time>2017-02-09T10:20:31Z</time>
      </trkpt>
      <trkpt lat="46.10045" lon="4.48217">
        <ele>584</ele>
        <time>2017-02-09T10:20:41Z</time>
      </trkpt>
      <trkpt lat="46.10046" lon="4.48217">
        <ele>584</ele>
        <time>2017-02-09T10:20:42Z</time>
      </trkpt>
      <trkpt lat="46.10054" lon="4.4821">
        <ele>584</ele>
        <time>2017-02-09T10:20:49Z</time>
      </trkpt>
      <trkpt lat="46.10055" lon="4.48209">
        <ele>584</ele>
        <time>2017-02-09T10:20:50Z</time>
      </trkpt>
      <trkpt lat="46.10061" lon="4.48202">
        <ele>584</ele>
        <time>2017-02-09T10:21:01Z</time>
      </trkpt>
      <trkpt lat="46.10062" lon="4.48201">
        <ele>584</ele>
        <time>2017-02-09T10:21:02Z</time>
      </trkpt>
      <trkpt lat="46.10069" lon="4.48199">
        <ele>584</ele>
        <time>2017-02-09T10:21:09Z</time>
      </trkpt>
      <trkpt lat="46.10071" lon="4.48197">
        <ele>584</ele>
        <time>2017-02-09T10:21:10Z</time>
      </trkpt>
      <trkpt lat="46.10077" lon="4.4819">
        <ele>584</ele>
        <time>2017-02-09T10:21:14Z</time>
      </trkpt>
      <trkpt lat="46.10079" lon="4.48189">
        <ele>584</ele>
        <time>2017-02-09T10:21:15Z</time>
      </trkpt>
      <trkpt lat="46.10087" lon="4.48183">
        <ele>584</ele>
        <time>2017-02-09T10:21:21Z</time>
      </trkpt>
      <trkpt lat="46.10088" lon="4.48182">
        <ele>584</ele>
        <time>2017-02-09T10:21:22Z</time>
      </trkpt>
      <trkpt lat="46.10095" lon="4.48175">
        <ele>584</ele>
        <time>2017-02-09T10:21:28Z</time>
      </trkpt>
      <trkpt lat="46.10096" lon="4.48174">
        <ele>584</ele>
        <time>2017-02-09T10:21:29Z</time>
      </trkpt>
      <trkpt lat="46.10101" lon="4.48164">
        <ele>584</ele>
        <time>2017-02-09T10:21:35Z</time>
      </trkpt>
      <trkpt lat="46.10102" lon="4.48164">
        <ele>584</ele>
        <time>2017-02-09T10:21:36Z</time>
      </trkpt>
      <trkpt lat="46.1011" lon="4.4816">
        <ele>584</ele>
        <time>2017-02-09T10:21:42Z</time>
      </trkpt>
      <trkpt lat="46.10111" lon="4.48159">
        <ele>584</ele>
        <time>2017-02-09T10:21:43Z</time>
      </trkpt>
      <trkpt lat="46.10119" lon="4.48154">
        <ele>584</ele>
        <time>2017-02-09T10:21:49Z</time>
      </trkpt>
      <trkpt lat="46.10121" lon="4.48154">
        <ele>584</ele>
        <time>2017-02-09T10:21:50Z</time>
      </trkpt>
      <trkpt lat="46.10129" lon="4.4815">
        <ele>584</ele>
        <time>2017-02-09T10:21:57Z</time>
      </trkpt>
      <trkpt lat="46.1013" lon="4.4815">
        <ele>584</ele>
        <time>2017-02-09T10:21:58Z</time>
      </trkpt>
      <trkpt lat="46.10139" lon="4.48149">
        <ele>584</ele>
        <time>2017-02-09T10:22:05Z</time>
      </trkpt>
      <trkpt lat="46.1014" lon="4.48149">
        <ele>584</ele>
        <time>2017-02-09T10:22:06Z</time>
      </trkpt>
      <trkpt lat="46.10148" lon="4.48145">
        <ele>584</ele>
        <time>2017-02-09T10:22:12Z</time>
      </trkpt>
      <trkpt lat="46.1015" lon="4.48144">
        <ele>584</ele>
        <time>2017-02-09T10:22:13Z</time>
      </trkpt>
      <trkpt lat="46.10157" lon="4.48141">
        <ele>584</ele>
        <time>2017-02-09T10:22:19Z</time>
      </trkpt>
      <trkpt lat="46.10158" lon="4.4814">
        <ele>584</ele>
        <time>2017-02-09T10:22:20Z</time>
      </trkpt>
      <trkpt lat="46.10166" lon="4.48136">
        <ele>584</ele>
        <time>2017-02-09T10:22:27Z</time>
      </trkpt>
      <trkpt lat="46.10167" lon="4.48135">
        <ele>582</ele>
        <time>2017-02-09T10:22:28Z</time>
      </trkpt>
      <trkpt lat="46.10175" lon="4.48133">
        <ele>582</ele>
        <time>2017-02-09T10:22:39Z</time>
      </trkpt>
      <trkpt lat="46.10177" lon="4.48133">
        <ele>582</ele>
        <time>2017-02-09T10:22:40Z</time>
      </trkpt>
      <trkpt lat="46.10184" lon="4.48127">
        <ele>582</ele>
        <time>2017-02-09T10:22:48Z</time>
      </trkpt>
      <trkpt lat="46.10185" lon="4.48127">
        <ele>582</ele>
        <time>2017-02-09T10:22:49Z</time>
      </trkpt>
      <trkpt lat="46.10192" lon="4.48122">
        <ele>582</ele>
        <time>2017-02-09T10:22:55Z</time>
      </trkpt>
      <trkpt lat="46.10193" lon="4.48122">
        <ele>582</ele>
        <time>2017-02-09T10:22:56Z</time>
      </trkpt>
      <trkpt lat="46.10201" lon="4.48117">
        <ele>581</ele>
        <time>2017-02-09T10:23:03Z</time>
      </trkpt>
      <trkpt lat="46.10202" lon="4.48116">
        <ele>581</ele>
        <time>2017-02-09T10:23:04Z</time>
      </trkpt>
      <trkpt lat="46.1021" lon="4.48112">
        <ele>581</ele>
        <time>2017-02-09T10:23:12Z</time>
      </trkpt>
      <trkpt lat="46.10211" lon="4.48111">
        <ele>581</ele>
        <time>2017-02-09T10:23:13Z</time>
      </trkpt>
      <trkpt lat="46.10218" lon="4.48104">
        <ele>581</ele>
        <time>2017-02-09T10:23:21Z</time>
      </trkpt>
      <trkpt lat="46.10219" lon="4.48103">
        <ele>581</ele>
        <time>2017-02-09T10:23:22Z</time>
      </trkpt>
      <trkpt lat="46.10225" lon="4.48099">
        <ele>580</ele>
        <time>2017-02-09T10:23:29Z</time>
      </trkpt>
      <trkpt lat="46.10227" lon="4.48097">
        <ele>580</ele>
        <time>2017-02-09T10:23:30Z</time>
      </trkpt>
      <trkpt lat="46.10234" lon="4.48089">
        <ele>579</ele>
        <time>2017-02-09T10:23:38Z</time>
      </trkpt>
      <trkpt lat="46.10235" lon="4.48088">
        <ele>579</ele>
        <time>2017-02-09T10:23:39Z</time>
      </trkpt>
      <trkpt lat="46.10244" lon="4.48087">
        <ele>578</ele>
        <time>2017-02-09T10:23:47Z</time>
      </trkpt>
      <trkpt lat="46.10245" lon="4.48087">
        <ele>578</ele>
        <time>2017-02-09T10:23:48Z</time>
      </trkpt>
      <trkpt lat="46.10253" lon="4.48086">
        <ele>577</ele>
        <time>2017-02-09T10:23:55Z</time>
      </trkpt>
      <trkpt lat="46.10255" lon="4.48085">
        <ele>577</ele>
        <time>2017-02-09T10:23:56Z</time>
      </trkpt>
      <trkpt lat="46.10262" lon="4.48082">
        <ele>574</ele>
        <time>2017-02-09T10:24:01Z</time>
      </trkpt>
      <trkpt lat="46.10264" lon="4.48082">
        <ele>574</ele>
        <time>2017-02-09T10:24:02Z</time>
      </trkpt>
      <trkpt lat="46.10271" lon="4.4808">
        <ele>573</ele>
        <time>2017-02-09T10:24:07Z</time>
      </trkpt>
      <trkpt lat="46.10273" lon="4.4808">
        <ele>573</ele>
        <time>2017-02-09T10:24:08Z</time>
      </trkpt>
      <trkpt lat="46.10281" lon="4.4808">
        <ele>572</ele>
        <time>2017-02-09T10:24:14Z</time>
      </trkpt>
      <trkpt lat="46.10282" lon="4.4808">
        <ele>572</ele>
        <time>2017-02-09T10:24:15Z</time>
      </trkpt>
      <trkpt lat="46.1029" lon="4.48079">
        <ele>571</ele>
        <time>2017-02-09T10:24:21Z</time>
      </trkpt>
      <trkpt lat="46.10292" lon="4.48079">
        <ele>571</ele>
        <time>2017-02-09T10:24:22Z</time>
      </trkpt>
      <trkpt lat="46.103" lon="4.48079">
        <ele>571</ele>
        <time>2017-02-09T10:24:28Z</time>
      </trkpt>
      <trkpt lat="46.10301" lon="4.48079">
        <ele>570</ele>
        <time>2017-02-09T10:24:29Z</time>
      </trkpt>
      <trkpt lat="46.10309" lon="4.48077">
        <ele>570</ele>
        <time>2017-02-09T10:24:36Z</time>
      </trkpt>
      <trkpt lat="46.1031" lon="4.48077">
        <ele>570</ele>
        <time>2017-02-09T10:24:37Z</time>
      </trkpt>
      <trkpt lat="46.10318" lon="4.48075">
        <ele>570</ele>
        <time>2017-02-09T10:24:44Z</time>
      </trkpt>
      <trkpt lat="46.1032" lon="4.48075">
        <ele>570</ele>
        <time>2017-02-09T10:24:45Z</time>
      </trkpt>
      <trkpt lat="46.10328" lon="4.48077">
        <ele>569</ele>
        <time>2017-02-09T10:24:53Z</time>
      </trkpt>
      <trkpt lat="46.10329" lon="4.48078">
        <ele>569</ele>
        <time>2017-02-09T10:24:54Z</time>
      </trkpt>
      <trkpt lat="46.10338" lon="4.48076">
        <ele>568</ele>
        <time>2017-02-09T10:25:01Z</time>
      </trkpt>
      <trkpt lat="46.10339" lon="4.48075">
        <ele>567</ele>
        <time>2017-02-09T10:25:02Z</time>
      </trkpt>
      <trkpt lat="46.10347" lon="4.48071">
        <ele>567</ele>
        <time>2017-02-09T10:25:09Z</time>
      </trkpt>
      <trkpt lat="46.10348" lon="4.4807">
        <ele>567</ele>
        <time>2017-02-09T10:25:10Z</time>
      </trkpt>
      <trkpt lat="46.10356" lon="4.48068">
        <ele>566</ele>
        <time>2017-02-09T10:25:17Z</time>
      </trkpt>
      <trkpt lat="46.10357" lon="4.48068">
        <ele>566</ele>
        <time>2017-02-09T10:25:18Z</time>
      </trkpt>
      <trkpt lat="46.10359" lon="4.48078">
        <ele>566</ele>
        <time>2017-02-09T10:26:00Z</time>
      </trkpt>
      <trkpt lat="46.1036" lon="4.4808">
        <ele>566</ele>
        <time>2017-02-09T10:26:01Z</time>
      </trkpt>
      <trkpt lat="46.10365" lon="4.48089">
        <ele>567</ele>
        <time>2017-02-09T10:26:29Z</time>
      </trkpt>
      <trkpt lat="46.10366" lon="4.4809">
        <ele>567</ele>
        <time>2017-02-09T10:26:30Z</time>
      </trkpt>
      <trkpt lat="46.10374" lon="4.48096">
        <ele>567</ele>
        <time>2017-02-09T10:26:36Z</time>
      </trkpt>
      <trkpt lat="46.10375" lon="4.48097">
        <ele>567</ele>
        <time>2017-02-09T10:26:37Z</time>
      </trkpt>
      <trkpt lat="46.10381" lon="4.48104">
        <ele>567</ele>
        <time>2017-02-09T10:26:42Z</time>
      </trkpt>
      <trkpt lat="46.10382" lon="4.48106">
        <ele>567</ele>
        <time>2017-02-09T10:26:43Z</time>
      </trkpt>
      <trkpt lat="46.1039" lon="4.48111">
        <ele>567</ele>
        <time>2017-02-09T10:26:50Z</time>
      </trkpt>
      <trkpt lat="46.10391" lon="4.48113">
        <ele>566</ele>
        <time>2017-02-09T10:26:51Z</time>
      </trkpt>
      <trkpt lat="46.10396" lon="4.48123">
        <ele>566</ele>
        <time>2017-02-09T10:26:58Z</time>
      </trkpt>
      <trkpt lat="46.10396" lon="4.48125">
        <ele>566</ele>
        <time>2017-02-09T10:26:59Z</time>
      </trkpt>
      <trkpt lat="46.10401" lon="4.48135">
        <ele>566</ele>
        <time>2017-02-09T10:27:08Z</time>
      </trkpt>
      <trkpt lat="46.10402" lon="4.48136">
        <ele>566</ele>
        <time>2017-02-09T10:27:09Z</time>
      </trkpt>
      <trkpt lat="46.10408" lon="4.48145">
        <ele>566</ele>
        <time>2017-02-09T10:27:19Z</time>
      </trkpt>
      <trkpt lat="46.10408" lon="4.48147">
        <ele>565</ele>
        <time>2017-02-09T10:27:20Z</time>
      </trkpt>
      <trkpt lat="46.10412" lon="4.48157">
        <ele>565</ele>
        <time>2017-02-09T10:27:27Z</time>
      </trkpt>
      <trkpt lat="46.10413" lon="4.48157">
        <ele>564</ele>
        <time>2017-02-09T10:27:28Z</time>
      </trkpt>
      <trkpt lat="46.10419" lon="4.48167">
        <ele>563</ele>
        <time>2017-02-09T10:27:37Z</time>
      </trkpt>
      <trkpt lat="46.10419" lon="4.48169">
        <ele>563</ele>
        <time>2017-02-09T10:27:38Z</time>
      </trkpt>
      <trkpt lat="46.10419" lon="4.48181">
        <ele>561</ele>
        <time>2017-02-09T10:27:45Z</time>
      </trkpt>
      <trkpt lat="46.10419" lon="4.48182">
        <ele>561</ele>
        <time>2017-02-09T10:27:46Z</time>
      </trkpt>
      <trkpt lat="46.10419" lon="4.48194">
        <ele>560</ele>
        <time>2017-02-09T10:27:54Z</time>
      </trkpt>
      <trkpt lat="46.10419" lon="4.48196">
        <ele>560</ele>
        <time>2017-02-09T10:27:55Z</time>
      </trkpt>
      <trkpt lat="46.10421" lon="4.48207">
        <ele>560</ele>
        <time>2017-02-09T10:28:03Z</time>
      </trkpt>
      <trkpt lat="46.10422" lon="4.48209">
        <ele>560</ele>
        <time>2017-02-09T10:28:04Z</time>
      </trkpt>
      <trkpt lat="46.10425" lon="4.4822">
        <ele>560</ele>
        <time>2017-02-09T10:28:12Z</time>
      </trkpt>
      <trkpt lat="46.10425" lon="4.48222">
        <ele>560</ele>
        <time>2017-02-09T10:28:13Z</time>
      </trkpt>
      <trkpt lat="46.10424" lon="4.48234">
        <ele>560</ele>
        <time>2017-02-09T10:28:21Z</time>
      </trkpt>
      <trkpt lat="46.10424" lon="4.48235">
        <ele>560</ele>
        <time>2017-02-09T10:28:22Z</time>
      </trkpt>
      <trkpt lat="46.10424" lon="4.48248">
        <ele>560</ele>
        <time>2017-02-09T10:28:31Z</time>
      </trkpt>
      <trkpt lat="46.10425" lon="4.4825">
        <ele>560</ele>
        <time>2017-02-09T10:28:32Z</time>
      </trkpt>
      <trkpt lat="46.10426" lon="4.48262">
        <ele>559</ele>
        <time>2017-02-09T10:28:44Z</time>
      </trkpt>
      <trkpt lat="46.10426" lon="4.48263">
        <ele>559</ele>
        <time>2017-02-09T10:28:45Z</time>
      </trkpt>
      <trkpt lat="46.10425" lon="4.48275">
        <ele>558</ele>
        <time>2017-02-09T10:29:11Z</time>
      </trkpt>
      <trkpt lat="46.10425" lon="4.48276">
        <ele>558</ele>
        <time>2017-02-09T10:29:12Z</time>
      </trkpt>
      <trkpt lat="46.10428" lon="4.48288">
        <ele>558</ele>
        <time>2017-02-09T10:29:53Z</time>
      </trkpt>
      <trkpt lat="46.10427" lon="4.48289">
        <ele>558</ele>
        <time>2017-02-09T10:29:54Z</time>
      </trkpt>
      <trkpt lat="46.10428" lon="4.48301">
        <ele>558</ele>
        <time>2017-02-09T10:30:06Z</time>
      </trkpt>
      <trkpt lat="46.10428" lon="4.48303">
        <ele>558</ele>
        <time>2017-02-09T10:30:07Z</time>
      </trkpt>
      <trkpt lat="46.10429" lon="4.48315">
        <ele>559</ele>
        <time>2017-02-09T10:31:59Z</time>
      </trkpt>
      <trkpt lat="46.10429" lon="4.48316">
        <ele>559</ele>
        <time>2017-02-09T10:32:00Z</time>
      </trkpt>
      <trkpt lat="46.10433" lon="4.48327">
        <ele>559</ele>
        <time>2017-02-09T10:32:09Z</time>
      </trkpt>
      <trkpt lat="46.10433" lon="4.48328">
        <ele>559</ele>
        <time>2017-02-09T10:32:10Z</time>
      </trkpt>
      <trkpt lat="46.10437" lon="4.48338">
        <ele>559</ele>
        <time>2017-02-09T10:32:18Z</time>
      </trkpt>
      <trkpt lat="46.10438" lon="4.48339">
        <ele>559</ele>
        <time>2017-02-09T10:32:19Z</time>
      </trkpt>
      <trkpt lat="46.10441" lon="4.48351">
        <ele>558</ele>
        <time>2017-02-09T10:32:26Z</time>
      </trkpt>
      <trkpt lat="46.10442" lon="4.48353">
        <ele>558</ele>
        <time>2017-02-09T10:32:27Z</time>
      </trkpt>
      <trkpt lat="46.10445" lon="4.48364">
        <ele>558</ele>
        <time>2017-02-09T10:32:34Z</time>
      </trkpt>
      <trkpt lat="46.10445" lon="4.48365">
        <ele>558</ele>
        <time>2017-02-09T10:32:35Z</time>
      </trkpt>
      <trkpt lat="46.10449" lon="4.48375">
        <ele>557</ele>
        <time>2017-02-09T10:32:41Z</time>
      </trkpt>
      <trkpt lat="46.1045" lon="4.48377">
        <ele>557</ele>
        <time>2017-02-09T10:32:42Z</time>
      </trkpt>
      <trkpt lat="46.10454" lon="4.48388">
        <ele>557</ele>
        <time>2017-02-09T10:32:50Z</time>
      </trkpt>
      <trkpt lat="46.10454" lon="4.48389">
        <ele>557</ele>
        <time>2017-02-09T10:32:51Z</time>
      </trkpt>
      <trkpt lat="46.10458" lon="4.484">
        <ele>556</ele>
        <time>2017-02-09T10:33:00Z</time>
      </trkpt>
      <trkpt lat="46.10459" lon="4.48402">
        <ele>556</ele>
        <time>2017-02-09T10:33:01Z</time>
      </trkpt>
      <trkpt lat="46.10463" lon="4.48413">
        <ele>556</ele>
        <time>2017-02-09T10:33:09Z</time>
      </trkpt>
      <trkpt lat="46.10463" lon="4.48414">
        <ele>556</ele>
        <time>2017-02-09T10:33:10Z</time>
      </trkpt>
      <trkpt lat="46.10468" lon="4.48424">
        <ele>556</ele>
        <time>2017-02-09T10:33:17Z</time>
      </trkpt>
      <trkpt lat="46.10469" lon="4.48425">
        <ele>556</ele>
        <time>2017-02-09T10:33:18Z</time>
      </trkpt>
      <trkpt lat="46.10473" lon="4.48435">
        <ele>555</ele>
        <time>2017-02-09T10:33:24Z</time>
      </trkpt>
      <trkpt lat="46.10474" lon="4.48436">
        <ele>555</ele>
        <time>2017-02-09T10:33:25Z</time>
      </trkpt>
      <trkpt lat="46.10476" lon="4.48448">
        <ele>556</ele>
        <time>2017-02-09T10:33:31Z</time>
      </trkpt>
      <trkpt lat="46.10476" lon="4.48449">
        <ele>556</ele>
        <time>2017-02-09T10:33:32Z</time>
      </trkpt>
      <trkpt lat="46.10476" lon="4.48462">
        <ele>556</ele>
        <time>2017-02-09T10:33:40Z</time>
      </trkpt>
      <trkpt lat="46.10476" lon="4.48464">
        <ele>556</ele>
        <time>2017-02-09T10:33:41Z</time>
      </trkpt>
      <trkpt lat="46.10476" lon="4.48476">
        <ele>555</ele>
        <time>2017-02-09T10:33:49Z</time>
      </trkpt>
      <trkpt lat="46.10476" lon="4.48478">
        <ele>555</ele>
        <time>2017-02-09T10:33:50Z</time>
      </trkpt>
      <trkpt lat="46.10476" lon="4.48489">
        <ele>555</ele>
        <time>2017-02-09T10:33:57Z</time>
      </trkpt>
      <trkpt lat="46.10476" lon="4.48491">
        <ele>555</ele>
        <time>2017-02-09T10:33:58Z</time>
      </trkpt>
      <trkpt lat="46.10478" lon="4.48502">
        <ele>555</ele>
        <time>2017-02-09T10:34:05Z</time>
      </trkpt>
      <trkpt lat="46.10478" lon="4.48503">
        <ele>555</ele>
        <time>2017-02-09T10:34:06Z</time>
      </trkpt>
      <trkpt lat="46.10478" lon="4.48516">
        <ele>555</ele>
        <time>2017-02-09T10:34:13Z</time>
      </trkpt>
      <trkpt lat="46.10479" lon="4.48517">
        <ele>555</ele>
        <time>2017-02-09T10:34:14Z</time>
      </trkpt>
      <trkpt lat="46.1048" lon="4.48529">
        <ele>556</ele>
        <time>2017-02-09T10:34:22Z</time>
      </trkpt>
      <trkpt lat="46.10481" lon="4.48531">
        <ele>556</ele>
        <time>2017-02-09T10:34:23Z</time>
      </trkpt>
      <trkpt lat="46.10484" lon="4.48543">
        <ele>556</ele>
        <time>2017-02-09T10:34:32Z</time>
      </trkpt>
      <trkpt lat="46.10484" lon="4.48544">
        <ele>556</ele>
        <time>2017-02-09T10:34:33Z</time>
      </trkpt>
      <trkpt lat="46.10489" lon="4.48554">
        <ele>555</ele>
        <time>2017-02-09T10:34:41Z</time>
      </trkpt>
      <trkpt lat="46.10489" lon="4.48556">
        <ele>555</ele>
        <time>2017-02-09T10:34:42Z</time>
      </trkpt>
      <trkpt lat="46.10493" lon="4.48567">
        <ele>553</ele>
        <time>2017-02-09T10:34:49Z</time>
      </trkpt>
      <trkpt lat="46.10494" lon="4.48568">
        <ele>552</ele>
        <time>2017-02-09T10:34:50Z</time>
      </trkpt>
      <trkpt lat="46.10499" lon="4.48578">
        <ele>549</ele>
        <time>2017-02-09T10:34:58Z</time>
      </trkpt>
      <trkpt lat="46.10499" lon="4.48579">
        <ele>549</ele>
        <time>2017-02-09T10:34:59Z</time>
      </trkpt>
      <trkpt lat="46.10503" lon="4.4859">
        <ele>546</ele>
        <time>2017-02-09T10:35:08Z</time>
      </trkpt>
      <trkpt lat="46.10503" lon="4.48591">
        <ele>546</ele>
        <time>2017-02-09T10:35:09Z</time>
      </trkpt>
      <trkpt lat="46.10507" lon="4.48601">
        <ele>544</ele>
        <time>2017-02-09T10:35:16Z</time>
      </trkpt>
      <trkpt lat="46.10508" lon="4.48603">
        <ele>544</ele>
        <time>2017-02-09T10:35:17Z</time>
      </trkpt>
      <trkpt lat="46.1051" lon="4.48615">
        <ele>543</ele>
        <time>2017-02-09T10:35:23Z</time>
      </trkpt>
      <trkpt lat="46.10511" lon="4.48617">
        <ele>543</ele>
        <time>2017-02-09T10:35:24Z</time>
      </trkpt>
      <trkpt lat="46.10514" lon="4.48627">
        <ele>543</ele>
        <time>2017-02-09T10:35:31Z</time>
      </trkpt>
      <trkpt lat="46.10515" lon="4.48629">
        <ele>543</ele>
        <time>2017-02-09T10:35:32Z</time>
      </trkpt>
      <trkpt lat="46.1052" lon="4.48638">
        <ele>543</ele>
        <time>2017-02-09T10:35:38Z</time>
      </trkpt>
      <trkpt lat="46.10521" lon="4.48639">
        <ele>543</ele>
        <time>2017-02-09T10:35:39Z</time>
      </trkpt>
      <trkpt lat="46.10523" lon="4.48652">
        <ele>543</ele>
        <time>2017-02-09T10:35:45Z</time>
      </trkpt>
      <trkpt lat="46.10524" lon="4.48654">
        <ele>543</ele>
        <time>2017-02-09T10:35:46Z</time>
      </trkpt>
      <trkpt lat="46.10526" lon="4.48664">
        <ele>542</ele>
        <time>2017-02-09T10:35:52Z</time>
      </trkpt>
      <trkpt lat="46.10527" lon="4.48666">
        <ele>542</ele>
        <time>2017-02-09T10:35:53Z</time>
      </trkpt>
      <trkpt lat="46.10531" lon="4.48676">
        <ele>539</ele>
        <time>2017-02-09T10:36:01Z</time>
      </trkpt>
      <trkpt lat="46.10531" lon="4.48677">
        <ele>539</ele>
        <time>2017-02-09T10:36:02Z</time>
      </trkpt>
      <trkpt lat="46.10533" lon="4.48689">
        <ele>538</ele>
        <time>2017-02-09T10:36:13Z</time>
      </trkpt>
      <trkpt lat="46.10533" lon="4.48691">
        <ele>538</ele>
        <time>2017-02-09T10:36:14Z</time>
      </trkpt>
      <trkpt lat="46.10537" lon="4.48701">
        <ele>538</ele>
        <time>2017-02-09T10:36:22Z</time>
      </trkpt>
      <trkpt lat="46.10537" lon="4.48703">
        <ele>538</ele>
        <time>2017-02-09T10:36:23Z</time>
      </trkpt>
      <trkpt lat="46.10538" lon="4.48715">
        <ele>537</ele>
        <time>2017-02-09T10:36:32Z</time>
      </trkpt>
      <trkpt lat="46.10537" lon="4.48716">
        <ele>537</ele>
        <time>2017-02-09T10:36:33Z</time>
      </trkpt>
      <trkpt lat="46.10537" lon="4.48728">
        <ele>537</ele>
        <time>2017-02-09T10:36:43Z</time>
      </trkpt>
      <trkpt lat="46.10538" lon="4.4873">
        <ele>537</ele>
        <time>2017-02-09T10:36:44Z</time>
      </trkpt>
      <trkpt lat="46.10538" lon="4.48742">
        <ele>537</ele>
        <time>2017-02-09T10:36:52Z</time>
      </trkpt>
      <trkpt lat="46.10538" lon="4.48743">
        <ele>537</ele>
        <time>2017-02-09T10:36:53Z</time>
      </trkpt>
      <trkpt lat="46.10538" lon="4.48756">
        <ele>532</ele>
        <time>2017-02-09T10:37:02Z</time>
      </trkpt>
      <trkpt lat="46.10538" lon="4.48757">
        <ele>532</ele>
        <time>2017-02-09T10:37:03Z</time>
      </trkpt>
      <trkpt lat="46.10538" lon="4.4877">
        <ele>531</ele>
        <time>2017-02-09T10:37:11Z</time>
      </trkpt>
      <trkpt lat="46.10538" lon="4.48771">
        <ele>531</ele>
        <time>2017-02-09T10:37:12Z</time>
      </trkpt>
      <trkpt lat="46.10538" lon="4.48782">
        <ele>530</ele>
        <time>2017-02-09T10:37:18Z</time>
      </trkpt>
      <trkpt lat="46.10538" lon="4.48784">
        <ele>530</ele>
        <time>2017-02-09T10:37:19Z</time>
      </trkpt>
      <trkpt lat="46.10536" lon="4.48796">
        <ele>529</ele>
        <time>2017-02-09T10:37:27Z</time>
      </trkpt>
      <trkpt lat="46.10536" lon="4.48797">
        <ele>529</ele>
        <time>2017-02-09T10:37:28Z</time>
      </trkpt>
      <trkpt lat="46.10535" lon="4.4881">
        <ele>528</ele>
        <time>2017-02-09T10:37:37Z</time>
      </trkpt>
      <trkpt lat="46.10535" lon="4.48812">
        <ele>528</ele>
        <time>2017-02-09T10:37:38Z</time>
      </trkpt>
      <trkpt lat="46.10533" lon="4.48823">
        <ele>528</ele>
        <time>2017-02-09T10:37:46Z</time>
      </trkpt>
      <trkpt lat="46.10532" lon="4.48824">
        <ele>528</ele>
        <time>2017-02-09T10:37:47Z</time>
      </trkpt>
      <trkpt lat="46.10529" lon="4.48835">
        <ele>520</ele>
        <time>2017-02-09T10:37:58Z</time>
      </trkpt>
      <trkpt lat="46.10529" lon="4.48837">
        <ele>520</ele>
        <time>2017-02-09T10:37:59Z</time>
      </trkpt>
      <trkpt lat="46.10527" lon="4.48849">
        <ele>520</ele>
        <time>2017-02-09T10:38:11Z</time>
      </trkpt>
      <trkpt lat="46.10527" lon="4.4885">
        <ele>519</ele>
        <time>2017-02-09T10:38:12Z</time>
      </trkpt>
      <trkpt lat="46.10528" lon="4.48861">
        <ele>518</ele>
        <time>2017-02-09T10:38:23Z</time>
      </trkpt>
      <trkpt lat="46.10528" lon="4.48863">
        <ele>518</ele>
        <time>2017-02-09T10:38:24Z</time>
      </trkpt>
      <trkpt lat="46.10528" lon="4.48875">
        <ele>516</ele>
        <time>2017-02-09T10:38:33Z</time>
      </trkpt>
      <trkpt lat="46.10528" lon="4.48877">
        <ele>516</ele>
        <time>2017-02-09T10:38:34Z</time>
      </trkpt>
      <trkpt lat="46.10526" lon="4.48888">
        <ele>515</ele>
        <time>2017-02-09T10:38:40Z</time>
      </trkpt>
      <trkpt lat="46.10526" lon="4.48891">
        <ele>515</ele>
        <time>2017-02-09T10:38:41Z</time>
      </trkpt>
      <trkpt lat="46.10523" lon="4.48903">
        <ele>514</ele>
        <time>2017-02-09T10:38:46Z</time>
      </trkpt>
      <trkpt lat="46.10523" lon="4.48905">
        <ele>514</ele>
        <time>2017-02-09T10:38:47Z</time>
      </trkpt>
      <trkpt lat="46.10519" lon="4.48915">
        <ele>514</ele>
        <time>2017-02-09T10:38:51Z</time>
      </trkpt>
      <trkpt lat="46.10519" lon="4.48918">
        <ele>507</ele>
        <time>2017-02-09T10:38:52Z</time>
      </trkpt>
      <trkpt lat="46.10515" lon="4.4893">
        <ele>506</ele>
        <time>2017-02-09T10:38:57Z</time>
      </trkpt>
      <trkpt lat="46.10515" lon="4.48932">
        <ele>506</ele>
        <time>2017-02-09T10:38:58Z</time>
      </trkpt>
      <trkpt lat="46.10512" lon="4.48943">
        <ele>504</ele>
        <time>2017-02-09T10:39:05Z</time>
      </trkpt>
      <trkpt lat="46.10512" lon="4.48945">
        <ele>504</ele>
        <time>2017-02-09T10:39:06Z</time>
      </trkpt>
      <trkpt lat="46.10507" lon="4.48956">
        <ele>502</ele>
        <time>2017-02-09T10:39:12Z</time>
      </trkpt>
      <trkpt lat="46.10507" lon="4.48958">
        <ele>502</ele>
        <time>2017-02-09T10:39:13Z</time>
      </trkpt>
      <trkpt lat="46.10503" lon="4.48969">
        <ele>500</ele>
        <time>2017-02-09T10:39:19Z</time>
      </trkpt>
      <trkpt lat="46.10503" lon="4.4897">
        <ele>500</ele>
        <time>2017-02-09T10:39:20Z</time>
      </trkpt>
      <trkpt lat="46.10505" lon="4.48983">
        <ele>498</ele>
        <time>2017-02-09T10:39:28Z</time>
      </trkpt>
      <trkpt lat="46.10504" lon="4.48984">
        <ele>498</ele>
        <time>2017-02-09T10:39:29Z</time>
      </trkpt>
      <trkpt lat="46.10497" lon="4.48988">
        <ele>500</ele>
        <time>2017-02-09T10:39:35Z</time>
      </trkpt>
      <trkpt lat="46.10496" lon="4.48988">
        <ele>500</ele>
        <time>2017-02-09T10:39:36Z</time>
      </trkpt>
      <trkpt lat="46.10488" lon="4.48991">
        <ele>501</ele>
        <time>2017-02-09T10:39:42Z</time>
      </trkpt>
      <trkpt lat="46.10487" lon="4.48991">
        <ele>502</ele>
        <time>2017-02-09T10:39:43Z</time>
      </trkpt>
      <trkpt lat="46.10478" lon="4.48994">
        <ele>503</ele>
        <time>2017-02-09T10:39:53Z</time>
      </trkpt>
      <trkpt lat="46.10477" lon="4.48994">
        <ele>503</ele>
        <time>2017-02-09T10:39:54Z</time>
      </trkpt>
      <trkpt lat="46.10469" lon="4.48998">
        <ele>505</ele>
        <time>2017-02-09T10:40:10Z</time>
      </trkpt>
      <trkpt lat="46.10468" lon="4.48998">
        <ele>505</ele>
        <time>2017-02-09T10:40:11Z</time>
      </trkpt>
      <trkpt lat="46.10461" lon="4.49003">
        <ele>494</ele>
        <time>2017-02-09T10:40:19Z</time>
      </trkpt>
      <trkpt lat="46.1046" lon="4.49004">
        <ele>494</ele>
        <time>2017-02-09T10:40:20Z</time>
      </trkpt>
      <trkpt lat="46.10452" lon="4.49007">
        <ele>494</ele>
        <time>2017-02-09T10:40:26Z</time>
      </trkpt>
      <trkpt lat="46.10451" lon="4.49007">
        <ele>495</ele>
        <time>2017-02-09T10:40:27Z</time>
      </trkpt>
      <trkpt lat="46.10442" lon="4.49008">
        <ele>496</ele>
        <time>2017-02-09T10:40:32Z</time>
      </trkpt>
      <trkpt lat="46.1044" lon="4.49008">
        <ele>496</ele>
        <time>2017-02-09T10:40:33Z</time>
      </trkpt>
      <trkpt lat="46.10432" lon="4.49009">
        <ele>498</ele>
        <time>2017-02-09T10:40:38Z</time>
      </trkpt>
      <trkpt lat="46.10431" lon="4.49009">
        <ele>498</ele>
        <time>2017-02-09T10:40:39Z</time>
      </trkpt>
      <trkpt lat="46.10423" lon="4.49012">
        <ele>499</ele>
        <time>2017-02-09T10:40:45Z</time>
      </trkpt>
      <trkpt lat="46.10422" lon="4.49012">
        <ele>499</ele>
        <time>2017-02-09T10:40:46Z</time>
      </trkpt>
      <trkpt lat="46.10414" lon="4.49012">
        <ele>503</ele>
        <time>2017-02-09T10:40:53Z</time>
      </trkpt>
      <trkpt lat="46.10413" lon="4.49012">
        <ele>503</ele>
        <time>2017-02-09T10:40:54Z</time>
      </trkpt>
      <trkpt lat="46.10404" lon="4.49014">
        <ele>503</ele>
        <time>2017-02-09T10:41:01Z</time>
      </trkpt>
      <trkpt lat="46.10403" lon="4.49015">
        <ele>503</ele>
        <time>2017-02-09T10:41:02Z</time>
      </trkpt>
      <trkpt lat="46.10395" lon="4.49018">
        <ele>502</ele>
        <time>2017-02-09T10:41:10Z</time>
      </trkpt>
      <trkpt lat="46.10394" lon="4.49019">
        <ele>502</ele>
        <time>2017-02-09T10:41:11Z</time>
      </trkpt>
      <trkpt lat="46.10386" lon="4.49022">
        <ele>502</ele>
        <time>2017-02-09T10:41:18Z</time>
      </trkpt>
      <trkpt lat="46.10385" lon="4.49023">
        <ele>502</ele>
        <time>2017-02-09T10:41:19Z</time>
      </trkpt>
      <trkpt lat="46.10377" lon="4.49028">
        <ele>502</ele>
        <time>2017-02-09T10:41:25Z</time>
      </trkpt>
      <trkpt lat="46.10376" lon="4.49028">
        <ele>502</ele>
        <time>2017-02-09T10:41:26Z</time>
      </trkpt>
      <trkpt lat="46.10369" lon="4.49033">
        <ele>502</ele>
        <time>2017-02-09T10:41:53Z</time>
      </trkpt>
      <trkpt lat="46.10368" lon="4.49034">
        <ele>502</ele>
        <time>2017-02-09T10:41:54Z</time>
      </trkpt>
      <trkpt lat="46.10361" lon="4.49038">
        <ele>502</ele>
        <time>2017-02-09T10:42:00Z</time>
      </trkpt>
      <trkpt lat="46.1036" lon="4.49038">
        <ele>502</ele>
        <time>2017-02-09T10:42:01Z</time>
      </trkpt>
      <trkpt lat="46.10351" lon="4.49041">
        <ele>503</ele>
        <time>2017-02-09T10:42:08Z</time>
      </trkpt>
      <trkpt lat="46.1035" lon="4.49041">
        <ele>503</ele>
        <time>2017-02-09T10:42:09Z</time>
      </trkpt>
      <trkpt lat="46.10343" lon="4.49046">
        <ele>502</ele>
        <time>2017-02-09T10:42:16Z</time>
      </trkpt>
      <trkpt lat="46.10341" lon="4.49047">
        <ele>502</ele>
        <time>2017-02-09T10:42:17Z</time>
      </trkpt>
      <trkpt lat="46.10334" lon="4.49052">
        <ele>501</ele>
        <time>2017-02-09T10:42:23Z</time>
      </trkpt>
      <trkpt lat="46.10333" lon="4.49053">
        <ele>506</ele>
        <time>2017-02-09T10:42:24Z</time>
      </trkpt>
      <trkpt lat="46.10325" lon="4.49057">
        <ele>505</ele>
        <time>2017-02-09T10:42:30Z</time>
      </trkpt>
      <trkpt lat="46.10323" lon="4.49057">
        <ele>505</ele>
        <time>2017-02-09T10:42:31Z</time>
      </trkpt>
      <trkpt lat="46.10316" lon="4.49062">
        <ele>505</ele>
        <time>2017-02-09T10:42:37Z</time>
      </trkpt>
      <trkpt lat="46.10314" lon="4.49062">
        <ele>505</ele>
        <time>2017-02-09T10:42:38Z</time>
      </trkpt>
      <trkpt lat="46.10307" lon="4.49066">
        <ele>505</ele>
        <time>2017-02-09T10:42:44Z</time>
      </trkpt>
      <trkpt lat="46.10305" lon="4.49067">
        <ele>505</ele>
        <time>2017-02-09T10:42:45Z</time>
      </trkpt>
      <trkpt lat="46.10297" lon="4.4907">
        <ele>506</ele>
        <time>2017-02-09T10:42:51Z</time>
      </trkpt>
      <trkpt lat="46.10295" lon="4.4907">
        <ele>506</ele>
        <time>2017-02-09T10:42:52Z</time>
      </trkpt>
      <trkpt lat="46.10287" lon="4.49072">
        <ele>506</ele>
        <time>2017-02-09T10:42:58Z</time>
      </trkpt>
      <trkpt lat="46.10286" lon="4.49072">
        <ele>506</ele>
        <time>2017-02-09T10:42:59Z</time>
      </trkpt>
      <trkpt lat="46.10277" lon="4.49074">
        <ele>506</ele>
        <time>2017-02-09T10:43:05Z</time>
      </trkpt>
      <trkpt lat="46.10276" lon="4.49074">
        <ele>506</ele>
        <time>2017-02-09T10:43:06Z</time>
      </trkpt>
      <trkpt lat="46.10268" lon="4.49077">
        <ele>505</ele>
        <time>2017-02-09T10:43:12Z</time>
      </trkpt>
      <trkpt lat="46.10267" lon="4.49077">
        <ele>505</ele>
        <time>2017-02-09T10:43:13Z</time>
      </trkpt>
      <trkpt lat="46.10259" lon="4.49082">
        <ele>503</ele>
        <time>2017-02-09T10:43:20Z</time>
      </trkpt>
      <trkpt lat="46.10258" lon="4.49083">
        <ele>503</ele>
        <time>2017-02-09T10:43:21Z</time>
      </trkpt>
      <trkpt lat="46.10251" lon="4.49087">
        <ele>499</ele>
        <time>2017-02-09T10:43:27Z</time>
      </trkpt>
      <trkpt lat="46.10249" lon="4.49088">
        <ele>499</ele>
        <time>2017-02-09T10:43:28Z</time>
      </trkpt>
      <trkpt lat="46.10242" lon="4.49093">
        <ele>496</ele>
        <time>2017-02-09T10:43:34Z</time>
      </trkpt>
      <trkpt lat="46.10241" lon="4.49094">
        <ele>496</ele>
        <time>2017-02-09T10:43:35Z</time>
      </trkpt>
      <trkpt lat="46.10234" lon="4.491">
        <ele>494</ele>
        <time>2017-02-09T10:43:41Z</time>
      </trkpt>
      <trkpt lat="46.10232" lon="4.491">
        <ele>493</ele>
        <time>2017-02-09T10:43:42Z</time>
      </trkpt>
      <trkpt lat="46.10225" lon="4.49107">
        <ele>492</ele>
        <time>2017-02-09T10:43:48Z</time>
      </trkpt>
      <trkpt lat="46.10224" lon="4.49108">
        <ele>492</ele>
        <time>2017-02-09T10:43:49Z</time>
      </trkpt>
      <trkpt lat="46.10217" lon="4.49115">
        <ele>491</ele>
        <time>2017-02-09T10:43:55Z</time>
      </trkpt>
      <trkpt lat="46.10216" lon="4.49117">
        <ele>490</ele>
        <time>2017-02-09T10:43:56Z</time>
      </trkpt>
      <trkpt lat="46.1021" lon="4.49125">
        <ele>490</ele>
        <time>2017-02-09T10:44:02Z</time>
      </trkpt>
      <trkpt lat="46.10209" lon="4.49126">
        <ele>489</ele>
        <time>2017-02-09T10:44:03Z</time>
      </trkpt>
      <trkpt lat="46.10203" lon="4.49135">
        <ele>489</ele>
        <time>2017-02-09T10:44:09Z</time>
      </trkpt>
      <trkpt lat="46.10202" lon="4.49137">
        <ele>488</ele>
        <time>2017-02-09T10:44:10Z</time>
      </trkpt>
      <trkpt lat="46.10197" lon="4.49147">
        <ele>488</ele>
        <time>2017-02-09T10:44:16Z</time>
      </trkpt>
      <trkpt lat="46.10196" lon="4.49149">
        <ele>488</ele>
        <time>2017-02-09T10:44:17Z</time>
      </trkpt>
      <trkpt lat="46.1019" lon="4.49157">
        <ele>487</ele>
        <time>2017-02-09T10:44:24Z</time>
      </trkpt>
      <trkpt lat="46.10189" lon="4.49158">
        <ele>487</ele>
        <time>2017-02-09T10:44:25Z</time>
      </trkpt>
      <trkpt lat="46.10183" lon="4.49167">
        <ele>481</ele>
        <time>2017-02-09T10:44:32Z</time>
      </trkpt>
      <trkpt lat="46.10182" lon="4.49169">
        <ele>481</ele>
        <time>2017-02-09T10:44:33Z</time>
      </trkpt>
      <trkpt lat="46.10176" lon="4.49178">
        <ele>481</ele>
        <time>2017-02-09T10:44:41Z</time>
      </trkpt>
      <trkpt lat="46.10175" lon="4.49179">
        <ele>481</ele>
        <time>2017-02-09T10:44:42Z</time>
      </trkpt>
      <trkpt lat="46.10168" lon="4.49186">
        <ele>481</ele>
        <time>2017-02-09T10:44:51Z</time>
      </trkpt>
      <trkpt lat="46.10167" lon="4.49186">
        <ele>480</ele>
        <time>2017-02-09T10:44:52Z</time>
      </trkpt>
      <trkpt lat="46.10161" lon="4.49192">
        <ele>480</ele>
        <time>2017-02-09T10:44:59Z</time>
      </trkpt>
      <trkpt lat="46.1016" lon="4.49193">
        <ele>480</ele>
        <time>2017-02-09T10:45:00Z</time>
      </trkpt>
      <trkpt lat="46.10154" lon="4.49201">
        <ele>479</ele>
        <time>2017-02-09T10:45:06Z</time>
      </trkpt>
      <trkpt lat="46.10153" lon="4.49202">
        <ele>479</ele>
        <time>2017-02-09T10:45:07Z</time>
      </trkpt>
      <trkpt lat="46.10146" lon="4.4921">
        <ele>478</ele>
        <time>2017-02-09T10:45:14Z</time>
      </trkpt>
      <trkpt lat="46.10145" lon="4.49212">
        <ele>478</ele>
        <time>2017-02-09T10:45:15Z</time>
      </trkpt>
      <trkpt lat="46.1014" lon="4.49221">
        <ele>477</ele>
        <time>2017-02-09T10:45:22Z</time>
      </trkpt>
      <trkpt lat="46.10139" lon="4.49223">
        <ele>477</ele>
        <time>2017-02-09T10:45:23Z</time>
      </trkpt>
      <trkpt lat="46.10133" lon="4.49233">
        <ele>477</ele>
        <time>2017-02-09T10:45:30Z</time>
      </trkpt>
      <trkpt lat="46.10132" lon="4.49234">
        <ele>477</ele>
        <time>2017-02-09T10:45:31Z</time>
      </trkpt>
      <trkpt lat="46.10126" lon="4.49241">
        <ele>476</ele>
        <time>2017-02-09T10:45:37Z</time>
      </trkpt>
      <trkpt lat="46.10125" lon="4.49242">
        <ele>476</ele>
        <time>2017-02-09T10:45:38Z</time>
      </trkpt>
      <trkpt lat="46.10119" lon="4.49251">
        <ele>470</ele>
        <time>2017-02-09T10:45:45Z</time>
      </trkpt>
      <trkpt lat="46.10118" lon="4.49252">
        <ele>470</ele>
        <time>2017-02-09T10:45:46Z</time>
      </trkpt>
      <trkpt lat="46.10113" lon="4.49261">
        <ele>470</ele>
        <time>2017-02-09T10:45:53Z</time>
      </trkpt>
      <trkpt lat="46.10112" lon="4.49262">
        <ele>470</ele>
        <time>2017-02-09T10:45:54Z</time>
      </trkpt>
      <trkpt lat="46.10105" lon="4.49268">
        <ele>470</ele>
        <time>2017-02-09T10:46:02Z</time>
      </trkpt>
      <trkpt lat="46.10104" lon="4.49269">
        <ele>470</ele>
        <time>2017-02-09T10:46:03Z</time>
      </trkpt>
      <trkpt lat="46.10096" lon="4.49276">
        <ele>470</ele>
        <time>2017-02-09T10:46:11Z</time>
      </trkpt>
      <trkpt lat="46.10095" lon="4.49278">
        <ele>470</ele>
        <time>2017-02-09T10:46:12Z</time>
      </trkpt>
      <trkpt lat="46.10092" lon="4.49287">
        <ele>469</ele>
        <time>2017-02-09T10:46:19Z</time>
      </trkpt>
      <trkpt lat="46.10091" lon="4.49289">
        <ele>469</ele>
        <time>2017-02-09T10:46:20Z</time>
      </trkpt>
      <trkpt lat="46.10086" lon="4.49298">
        <ele>469</ele>
        <time>2017-02-09T10:46:27Z</time>
      </trkpt>
      <trkpt lat="46.10085" lon="4.49299">
        <ele>469</ele>
        <time>2017-02-09T10:46:28Z</time>
      </trkpt>
      <trkpt lat="46.10081" lon="4.49311">
        <ele>468</ele>
        <time>2017-02-09T10:46:35Z</time>
      </trkpt>
      <trkpt lat="46.10081" lon="4.49312">
        <ele>468</ele>
        <time>2017-02-09T10:46:36Z</time>
      </trkpt>
      <trkpt lat="46.10076" lon="4.49323">
        <ele>468</ele>
        <time>2017-02-09T10:46:43Z</time>
      </trkpt>
      <trkpt lat="46.10075" lon="4.49324">
        <ele>468</ele>
        <time>2017-02-09T10:46:44Z</time>
      </trkpt>
      <trkpt lat="46.1007" lon="4.49334">
        <ele>465</ele>
        <time>2017-02-09T10:46:51Z</time>
      </trkpt>
      <trkpt lat="46.10069" lon="4.49335">
        <ele>465</ele>
        <time>2017-02-09T10:46:52Z</time>
      </trkpt>
      <trkpt lat="46.10064" lon="4.49345">
        <ele>465</ele>
        <time>2017-02-09T10:46:59Z</time>
      </trkpt>
      <trkpt lat="46.10063" lon="4.49347">
        <ele>465</ele>
        <time>2017-02-09T10:47:00Z</time>
      </trkpt>
      <trkpt lat="46.10057" lon="4.49356">
        <ele>464</ele>
        <time>2017-02-09T10:47:08Z</time>
      </trkpt>
      <trkpt lat="46.10056" lon="4.49357">
        <ele>464</ele>
        <time>2017-02-09T10:47:09Z</time>
      </trkpt>
      <trkpt lat="46.10048" lon="4.49362">
        <ele>464</ele>
        <time>2017-02-09T10:47:41Z</time>
      </trkpt>
      <trkpt lat="46.10047" lon="4.49362">
        <ele>464</ele>
        <time>2017-02-09T10:47:42Z</time>
      </trkpt>
      <trkpt lat="46.10039" lon="4.49368">
        <ele>463</ele>
        <time>2017-02-09T10:47:51Z</time>
      </trkpt>
      <trkpt lat="46.10038" lon="4.49369">
        <ele>463</ele>
        <time>2017-02-09T10:47:52Z</time>
      </trkpt>
      <trkpt lat="46.10031" lon="4.49376">
        <ele>463</ele>
        <time>2017-02-09T10:47:58Z</time>
      </trkpt>
      <trkpt lat="46.1003" lon="4.49378">
        <ele>463</ele>
        <time>2017-02-09T10:47:59Z</time>
      </trkpt>
      <trkpt lat="46.10027" lon="4.4939">
        <ele>462</ele>
        <time>2017-02-09T10:48:05Z</time>
      </trkpt>
      <trkpt lat="46.10027" lon="4.49391">
        <ele>462</ele>
        <time>2017-02-09T10:48:06Z</time>
      </trkpt>
      <trkpt lat="46.1003" lon="4.49403">
        <ele>461</ele>
        <time>2017-02-09T10:48:32Z</time>
      </trkpt>
      <trkpt lat="46.1003" lon="4.49403">
        <ele>461</ele>
        <time>2017-02-09T10:48:33Z</time>
      </trkpt>
      <trkpt lat="46.10037" lon="4.49395">
        <ele>462</ele>
        <time>2017-02-09T11:53:23Z</time>
      </trkpt>
      <trkpt lat="46.10037" lon="4.49394">
        <ele>462</ele>
        <time>2017-02-09T11:53:24Z</time>
      </trkpt>
      <trkpt lat="46.10033" lon="4.49383">
        <ele>462</ele>
        <time>2017-02-09T11:54:02Z</time>
      </trkpt>
      <trkpt lat="46.10033" lon="4.49382">
        <ele>463</ele>
        <time>2017-02-09T11:54:03Z</time>
      </trkpt>
      <trkpt lat="46.10026" lon="4.4939">
        <ele>462</ele>
        <time>2017-02-09T11:54:21Z</time>
      </trkpt>
      <trkpt lat="46.10026" lon="4.49391">
        <ele>462</ele>
        <time>2017-02-09T11:54:22Z</time>
      </trkpt>
      <trkpt lat="46.10022" lon="4.49401">
        <ele>461</ele>
        <time>2017-02-09T11:54:34Z</time>
      </trkpt>
      <trkpt lat="46.10021" lon="4.49402">
        <ele>461</ele>
        <time>2017-02-09T11:54:35Z</time>
      </trkpt>
      <trkpt lat="46.1002" lon="4.49413">
        <ele>460</ele>
        <time>2017-02-09T11:54:43Z</time>
      </trkpt>
      <trkpt lat="46.1002" lon="4.49415">
        <ele>460</ele>
        <time>2017-02-09T11:54:44Z</time>
      </trkpt>
      <trkpt lat="46.10017" lon="4.49425">
        <ele>457</ele>
        <time>2017-02-09T11:54:50Z</time>
      </trkpt>
      <trkpt lat="46.10015" lon="4.49427">
        <ele>457</ele>
        <time>2017-02-09T11:54:51Z</time>
      </trkpt>
      <trkpt lat="46.1001" lon="4.49437">
        <ele>456</ele>
        <time>2017-02-09T11:54:57Z</time>
      </trkpt>
      <trkpt lat="46.1001" lon="4.49438">
        <ele>456</ele>
        <time>2017-02-09T11:54:58Z</time>
      </trkpt>
      <trkpt lat="46.10006" lon="4.49448">
        <ele>456</ele>
        <time>2017-02-09T11:55:04Z</time>
      </trkpt>
      <trkpt lat="46.10006" lon="4.4945">
        <ele>456</ele>
        <time>2017-02-09T11:55:05Z</time>
      </trkpt>
      <trkpt lat="46.10004" lon="4.49461">
        <ele>455</ele>
        <time>2017-02-09T11:55:11Z</time>
      </trkpt>
      <trkpt lat="46.10004" lon="4.49463">
        <ele>455</ele>
        <time>2017-02-09T11:55:12Z</time>
      </trkpt>
      <trkpt lat="46.10003" lon="4.49476">
        <ele>454</ele>
        <time>2017-02-09T11:55:18Z</time>
      </trkpt>
      <trkpt lat="46.10002" lon="4.49478">
        <ele>454</ele>
        <time>2017-02-09T11:55:19Z</time>
      </trkpt>
      <trkpt lat="46.10002" lon="4.4949">
        <ele>452</ele>
        <time>2017-02-09T11:55:25Z</time>
      </trkpt>
      <trkpt lat="46.10002" lon="4.49493">
        <ele>452</ele>
        <time>2017-02-09T11:55:26Z</time>
      </trkpt>
      <trkpt lat="46.10002" lon="4.49505">
        <ele>450</ele>
        <time>2017-02-09T11:55:32Z</time>
      </trkpt>
      <trkpt lat="46.10003" lon="4.49507">
        <ele>450</ele>
        <time>2017-02-09T11:55:33Z</time>
      </trkpt>
      <trkpt lat="46.10002" lon="4.49519">
        <ele>450</ele>
        <time>2017-02-09T11:55:41Z</time>
      </trkpt>
      <trkpt lat="46.10002" lon="4.49521">
        <ele>450</ele>
        <time>2017-02-09T11:55:42Z</time>
      </trkpt>
      <trkpt lat="46.10001" lon="4.49533">
        <ele>450</ele>
        <time>2017-02-09T11:55:49Z</time>
      </trkpt>
      <trkpt lat="46.10001" lon="4.49535">
        <ele>450</ele>
        <time>2017-02-09T11:55:50Z</time>
      </trkpt>
      <trkpt lat="46.10001" lon="4.49546">
        <ele>450</ele>
        <time>2017-02-09T11:55:56Z</time>
      </trkpt>
      <trkpt lat="46.10001" lon="4.49548">
        <ele>450</ele>
        <time>2017-02-09T11:55:57Z</time>
      </trkpt>
      <trkpt lat="46.10001" lon="4.4956">
        <ele>449</ele>
        <time>2017-02-09T11:56:03Z</time>
      </trkpt>
      <trkpt lat="46.10001" lon="4.49562">
        <ele>449</ele>
        <time>2017-02-09T11:56:04Z</time>
      </trkpt>
      <trkpt lat="46.1" lon="4.49573">
        <ele>448</ele>
        <time>2017-02-09T11:56:11Z</time>
      </trkpt>
      <trkpt lat="46.1" lon="4.49574">
        <ele>448</ele>
        <time>2017-02-09T11:56:12Z</time>
      </trkpt>
      <trkpt lat="46.09999" lon="4.49587">
        <ele>447</ele>
        <time>2017-02-09T11:56:23Z</time>
      </trkpt>
      <trkpt lat="46.09998" lon="4.49588">
        <ele>447</ele>
        <time>2017-02-09T11:56:24Z</time>
      </trkpt>
      <trkpt lat="46.09992" lon="4.49597">
        <ele>448</ele>
        <time>2017-02-09T11:56:34Z</time>
      </trkpt>
      <trkpt lat="46.09991" lon="4.49598">
        <ele>448</ele>
        <time>2017-02-09T11:56:35Z</time>
      </trkpt>
      <trkpt lat="46.09985" lon="4.49605">
        <ele>448</ele>
        <time>2017-02-09T11:56:43Z</time>
      </trkpt>
      <trkpt lat="46.09984" lon="4.49606">
        <ele>448</ele>
        <time>2017-02-09T11:56:44Z</time>
      </trkpt>
      <trkpt lat="46.09979" lon="4.49614">
        <ele>448</ele>
        <time>2017-02-09T11:56:51Z</time>
      </trkpt>
      <trkpt lat="46.09978" lon="4.49616">
        <ele>448</ele>
        <time>2017-02-09T11:56:52Z</time>
      </trkpt>
      <trkpt lat="46.09973" lon="4.49624">
        <ele>448</ele>
        <time>2017-02-09T11:56:58Z</time>
      </trkpt>
      <trkpt lat="46.09972" lon="4.49625">
        <ele>448</ele>
        <time>2017-02-09T11:56:59Z</time>
      </trkpt>
      <trkpt lat="46.09965" lon="4.49632">
        <ele>448</ele>
        <time>2017-02-09T11:57:05Z</time>
      </trkpt>
      <trkpt lat="46.09964" lon="4.49633">
        <ele>448</ele>
        <time>2017-02-09T11:57:06Z</time>
      </trkpt>
      <trkpt lat="46.09957" lon="4.4964">
        <ele>448</ele>
        <time>2017-02-09T11:57:13Z</time>
      </trkpt>
      <trkpt lat="46.09956" lon="4.49641">
        <ele>448</ele>
        <time>2017-02-09T11:57:14Z</time>
      </trkpt>
      <trkpt lat="46.09949" lon="4.49648">
        <ele>448</ele>
        <time>2017-02-09T11:57:21Z</time>
      </trkpt>
      <trkpt lat="46.09948" lon="4.49649">
        <ele>448</ele>
        <time>2017-02-09T11:57:22Z</time>
      </trkpt>
      <trkpt lat="46.09941" lon="4.49652">
        <ele>448</ele>
        <time>2017-02-09T11:57:28Z</time>
      </trkpt>
      <trkpt lat="46.0994" lon="4.49653">
        <ele>448</ele>
        <time>2017-02-09T11:57:29Z</time>
      </trkpt>
      <trkpt lat="46.09931" lon="4.49657">
        <ele>448</ele>
        <time>2017-02-09T11:57:36Z</time>
      </trkpt>
      <trkpt lat="46.0993" lon="4.49658">
        <ele>448</ele>
        <time>2017-02-09T11:57:37Z</time>
      </trkpt>
      <trkpt lat="46.09923" lon="4.49664">
        <ele>448</ele>
        <time>2017-02-09T11:57:43Z</time>
      </trkpt>
      <trkpt lat="46.09922" lon="4.49666">
        <ele>448</ele>
        <time>2017-02-09T11:57:44Z</time>
      </trkpt>
      <trkpt lat="46.09916" lon="4.49674">
        <ele>450</ele>
        <time>2017-02-09T11:57:50Z</time>
      </trkpt>
      <trkpt lat="46.09915" lon="4.49675">
        <ele>450</ele>
        <time>2017-02-09T11:57:51Z</time>
      </trkpt>
      <trkpt lat="46.09907" lon="4.49681">
        <ele>451</ele>
        <time>2017-02-09T11:57:58Z</time>
      </trkpt>
      <trkpt lat="46.09906" lon="4.49682">
        <ele>452</ele>
        <time>2017-02-09T11:57:59Z</time>
      </trkpt>
      <trkpt lat="46.09898" lon="4.49685">
        <ele>452</ele>
        <time>2017-02-09T11:58:06Z</time>
      </trkpt>
      <trkpt lat="46.09896" lon="4.49685">
        <ele>452</ele>
        <time>2017-02-09T11:58:07Z</time>
      </trkpt>
      <trkpt lat="46.09888" lon="4.49685">
        <ele>453</ele>
        <time>2017-02-09T11:58:12Z</time>
      </trkpt>
      <trkpt lat="46.09887" lon="4.49685">
        <ele>453</ele>
        <time>2017-02-09T11:58:13Z</time>
      </trkpt>
      <trkpt lat="46.09884" lon="4.49696">
        <ele>454</ele>
        <time>2017-02-09T11:58:34Z</time>
      </trkpt>
      <trkpt lat="46.09884" lon="4.49697">
        <ele>454</ele>
        <time>2017-02-09T11:58:35Z</time>
      </trkpt>
      <trkpt lat="46.09886" lon="4.4971">
        <ele>455</ele>
        <time>2017-02-09T11:58:46Z</time>
      </trkpt>
      <trkpt lat="46.09885" lon="4.4971">
        <ele>455</ele>
        <time>2017-02-09T11:58:47Z</time>
      </trkpt>
      <trkpt lat="46.09886" lon="4.49723">
        <ele>456</ele>
        <time>2017-02-09T11:59:10Z</time>
      </trkpt>
      <trkpt lat="46.09886" lon="4.49724">
        <ele>456</ele>
        <time>2017-02-09T11:59:11Z</time>
      </trkpt>
      <trkpt lat="46.09884" lon="4.49736">
        <ele>457</ele>
        <time>2017-02-09T11:59:25Z</time>
      </trkpt>
      <trkpt lat="46.09884" lon="4.49737">
        <ele>457</ele>
        <time>2017-02-09T11:59:26Z</time>
      </trkpt>
      <trkpt lat="46.09884" lon="4.49749">
        <ele>458</ele>
        <time>2017-02-09T11:59:49Z</time>
      </trkpt>
      <trkpt lat="46.09884" lon="4.49749">
        <ele>458</ele>
        <time>2017-02-09T11:59:50Z</time>
      </trkpt>
      <trkpt lat="46.09881" lon="4.49761">
        <ele>469</ele>
        <time>2017-02-09T12:00:11Z</time>
      </trkpt>
      <trkpt lat="46.09881" lon="4.49764">
        <ele>469</ele>
        <time>2017-02-09T12:00:12Z</time>
      </trkpt>
      <trkpt lat="46.09874" lon="4.49771">
        <ele>470</ele>
        <time>2017-02-09T12:00:34Z</time>
      </trkpt>
      <trkpt lat="46.09873" lon="4.49772">
        <ele>470</ele>
        <time>2017-02-09T12:00:35Z</time>
      </trkpt>
      <trkpt lat="46.09867" lon="4.49781">
        <ele>471</ele>
        <time>2017-02-09T12:00:49Z</time>
      </trkpt>
      <trkpt lat="46.09867" lon="4.49782">
        <ele>471</ele>
        <time>2017-02-09T12:00:50Z</time>
      </trkpt>
      <trkpt lat="46.09862" lon="4.49791">
        <ele>472</ele>
        <time>2017-02-09T12:01:03Z</time>
      </trkpt>
      <trkpt lat="46.09861" lon="4.49792">
        <ele>472</ele>
        <time>2017-02-09T12:01:04Z</time>
      </trkpt>
      <trkpt lat="46.09857" lon="4.49803">
        <ele>473</ele>
        <time>2017-02-09T12:01:21Z</time>
      </trkpt>
      <trkpt lat="46.09856" lon="4.49803">
        <ele>473</ele>
        <time>2017-02-09T12:01:22Z</time>
      </trkpt>
      <trkpt lat="46.09852" lon="4.49814">
        <ele>475</ele>
        <time>2017-02-09T12:01:37Z</time>
      </trkpt>
      <trkpt lat="46.09851" lon="4.49815">
        <ele>475</ele>
        <time>2017-02-09T12:01:38Z</time>
      </trkpt>
      <trkpt lat="46.09845" lon="4.49824">
        <ele>477</ele>
        <time>2017-02-09T12:01:52Z</time>
      </trkpt>
      <trkpt lat="46.09845" lon="4.49825">
        <ele>477</ele>
        <time>2017-02-09T12:01:53Z</time>
      </trkpt>
      <trkpt lat="46.09841" lon="4.49835">
        <ele>483</ele>
        <time>2017-02-09T12:02:04Z</time>
      </trkpt>
      <trkpt lat="46.09841" lon="4.49836">
        <ele>483</ele>
        <time>2017-02-09T12:02:05Z</time>
      </trkpt>
      <trkpt lat="46.09837" lon="4.49847">
        <ele>485</ele>
        <time>2017-02-09T12:02:21Z</time>
      </trkpt>
      <trkpt lat="46.09836" lon="4.49848">
        <ele>485</ele>
        <time>2017-02-09T12:02:22Z</time>
      </trkpt>
      <trkpt lat="46.09831" lon="4.49858">
        <ele>483</ele>
        <time>2017-02-09T12:02:36Z</time>
      </trkpt>
      <trkpt lat="46.09831" lon="4.49858">
        <ele>483</ele>
        <time>2017-02-09T12:02:37Z</time>
      </trkpt>
      <trkpt lat="46.09826" lon="4.49868">
        <ele>484</ele>
        <time>2017-02-09T12:02:46Z</time>
      </trkpt>
      <trkpt lat="46.09825" lon="4.49869">
        <ele>484</ele>
        <time>2017-02-09T12:02:47Z</time>
      </trkpt>
      <trkpt lat="46.0982" lon="4.49878">
        <ele>485</ele>
        <time>2017-02-09T12:02:56Z</time>
      </trkpt>
      <trkpt lat="46.09819" lon="4.49879">
        <ele>485</ele>
        <time>2017-02-09T12:02:57Z</time>
      </trkpt>
      <trkpt lat="46.09815" lon="4.49889">
        <ele>486</ele>
        <time>2017-02-09T12:03:07Z</time>
      </trkpt>
      <trkpt lat="46.09814" lon="4.4989">
        <ele>486</ele>
        <time>2017-02-09T12:03:08Z</time>
      </trkpt>
      <trkpt lat="46.0981" lon="4.499">
        <ele>487</ele>
        <time>2017-02-09T12:03:18Z</time>
      </trkpt>
      <trkpt lat="46.0981" lon="4.49901">
        <ele>487</ele>
        <time>2017-02-09T12:03:19Z</time>
      </trkpt>
      <trkpt lat="46.09806" lon="4.49913">
        <ele>488</ele>
        <time>2017-02-09T12:03:31Z</time>
      </trkpt>
      <trkpt lat="46.09806" lon="4.49914">
        <ele>488</ele>
        <time>2017-02-09T12:03:32Z</time>
      </trkpt>
      <trkpt lat="46.09805" lon="4.49926">
        <ele>494</ele>
        <time>2017-02-09T12:03:42Z</time>
      </trkpt>
      <trkpt lat="46.09805" lon="4.49928">
        <ele>494</ele>
        <time>2017-02-09T12:03:43Z</time>
      </trkpt>
      <trkpt lat="46.09805" lon="4.4994">
        <ele>494</ele>
        <time>2017-02-09T12:03:52Z</time>
      </trkpt>
      <trkpt lat="46.09805" lon="4.49941">
        <ele>494</ele>
        <time>2017-02-09T12:03:53Z</time>
      </trkpt>
      <trkpt lat="46.09806" lon="4.49953">
        <ele>495</ele>
        <time>2017-02-09T12:04:02Z</time>
      </trkpt>
      <trkpt lat="46.09806" lon="4.49954">
        <ele>495</ele>
        <time>2017-02-09T12:04:03Z</time>
      </trkpt>
      <trkpt lat="46.09807" lon="4.49966">
        <ele>495</ele>
        <time>2017-02-09T12:04:13Z</time>
      </trkpt>
      <trkpt lat="46.09807" lon="4.49968">
        <ele>495</ele>
        <time>2017-02-09T12:04:14Z</time>
      </trkpt>
      <trkpt lat="46.09808" lon="4.4998">
        <ele>496</ele>
        <time>2017-02-09T12:04:24Z</time>
      </trkpt>
      <trkpt lat="46.09808" lon="4.49981">
        <ele>496</ele>
        <time>2017-02-09T12:04:25Z</time>
      </trkpt>
      <trkpt lat="46.09809" lon="4.49993">
        <ele>497</ele>
        <time>2017-02-09T12:04:34Z</time>
      </trkpt>
      <trkpt lat="46.09809" lon="4.49995">
        <ele>497</ele>
        <time>2017-02-09T12:04:35Z</time>
      </trkpt>
      <trkpt lat="46.0981" lon="4.50007">
        <ele>499</ele>
        <time>2017-02-09T12:04:43Z</time>
      </trkpt>
      <trkpt lat="46.09811" lon="4.50009">
        <ele>499</ele>
        <time>2017-02-09T12:04:44Z</time>
      </trkpt>
      <trkpt lat="46.09811" lon="4.5002">
        <ele>499</ele>
        <time>2017-02-09T12:04:52Z</time>
      </trkpt>
      <trkpt lat="46.09812" lon="4.50022">
        <ele>499</ele>
        <time>2017-02-09T12:04:53Z</time>
      </trkpt>
      <trkpt lat="46.09812" lon="4.50034">
        <ele>499</ele>
        <time>2017-02-09T12:05:40Z</time>
      </trkpt>
      <trkpt lat="46.09812" lon="4.50036">
        <ele>499</ele>
        <time>2017-02-09T12:05:41Z</time>
      </trkpt>
      <trkpt lat="46.09813" lon="4.50047">
        <ele>499</ele>
        <time>2017-02-09T12:05:50Z</time>
      </trkpt>
      <trkpt lat="46.09813" lon="4.50048">
        <ele>499</ele>
        <time>2017-02-09T12:05:51Z</time>
      </trkpt>
      <trkpt lat="46.09816" lon="4.5006">
        <ele>499</ele>
        <time>2017-02-09T12:06:02Z</time>
      </trkpt>
      <trkpt lat="46.09817" lon="4.50061">
        <ele>499</ele>
        <time>2017-02-09T12:06:03Z</time>
      </trkpt>
      <trkpt lat="46.09824" lon="4.50069">
        <ele>499</ele>
        <time>2017-02-09T12:06:16Z</time>
      </trkpt>
      <trkpt lat="46.09824" lon="4.50069">
        <ele>499</ele>
        <time>2017-02-09T12:06:17Z</time>
      </trkpt>
      <trkpt lat="46.09831" lon="4.50074">
        <ele>500</ele>
        <time>2017-02-09T12:06:24Z</time>
      </trkpt>
      <trkpt lat="46.09832" lon="4.50075">
        <ele>500</ele>
        <time>2017-02-09T12:06:25Z</time>
      </trkpt>
      <trkpt lat="46.09839" lon="4.50081">
        <ele>502</ele>
        <time>2017-02-09T12:06:31Z</time>
      </trkpt>
      <trkpt lat="46.0984" lon="4.50082">
        <ele>502</ele>
        <time>2017-02-09T12:06:32Z</time>
      </trkpt>
      <trkpt lat="46.09848" lon="4.50086">
        <ele>501</ele>
        <time>2017-02-09T12:06:38Z</time>
      </trkpt>
      <trkpt lat="46.0985" lon="4.50086">
        <ele>501</ele>
        <time>2017-02-09T12:06:39Z</time>
      </trkpt>
      <trkpt lat="46.09858" lon="4.50089">
        <ele>501</ele>
        <time>2017-02-09T12:06:45Z</time>
      </trkpt>
      <trkpt lat="46.09859" lon="4.50089">
        <ele>501</ele>
        <time>2017-02-09T12:06:46Z</time>
      </trkpt>
      <trkpt lat="46.09868" lon="4.5009">
        <ele>501</ele>
        <time>2017-02-09T12:06:53Z</time>
      </trkpt>
      <trkpt lat="46.09869" lon="4.50089">
        <ele>501</ele>
        <time>2017-02-09T12:06:54Z</time>
      </trkpt>
      <trkpt lat="46.09878" lon="4.50089">
        <ele>502</ele>
        <time>2017-02-09T12:07:01Z</time>
      </trkpt>
      <trkpt lat="46.09879" lon="4.50089">
        <ele>502</ele>
        <time>2017-02-09T12:07:02Z</time>
      </trkpt>
      <trkpt lat="46.09886" lon="4.50091">
        <ele>502</ele>
        <time>2017-02-09T12:07:09Z</time>
      </trkpt>
      <trkpt lat="46.09888" lon="4.50092">
        <ele>502</ele>
        <time>2017-02-09T12:07:10Z</time>
      </trkpt>
      <trkpt lat="46.09895" lon="4.50097">
        <ele>502</ele>
        <time>2017-02-09T12:07:17Z</time>
      </trkpt>
      <trkpt lat="46.09896" lon="4.50098">
        <ele>502</ele>
        <time>2017-02-09T12:07:18Z</time>
      </trkpt>
      <trkpt lat="46.09903" lon="4.50104">
        <ele>502</ele>
        <time>2017-02-09T12:07:24Z</time>
      </trkpt>
      <trkpt lat="46.09904" lon="4.50105">
        <ele>502</ele>
        <time>2017-02-09T12:07:25Z</time>
      </trkpt>
      <trkpt lat="46.09911" lon="4.50112">
        <ele>502</ele>
        <time>2017-02-09T12:07:32Z</time>
      </trkpt>
      <trkpt lat="46.09912" lon="4.50112">
        <ele>502</ele>
        <time>2017-02-09T12:07:33Z</time>
      </trkpt>
      <trkpt lat="46.09919" lon="4.5012">
        <ele>506</ele>
        <time>2017-02-09T12:07:40Z</time>
      </trkpt>
      <trkpt lat="46.0992" lon="4.50121">
        <ele>506</ele>
        <time>2017-02-09T12:07:41Z</time>
      </trkpt>
      <trkpt lat="46.09926" lon="4.5013">
        <ele>506</ele>
        <time>2017-02-09T12:07:48Z</time>
      </trkpt>
      <trkpt lat="46.09927" lon="4.50131">
        <ele>506</ele>
        <time>2017-02-09T12:07:49Z</time>
      </trkpt>
      <trkpt lat="46.09932" lon="4.5014">
        <ele>506</ele>
        <time>2017-02-09T12:07:56Z</time>
      </trkpt>
      <trkpt lat="46.09933" lon="4.50141">
        <ele>506</ele>
        <time>2017-02-09T12:07:57Z</time>
      </trkpt>
      <trkpt lat="46.09938" lon="4.50152">
        <ele>505</ele>
        <time>2017-02-09T12:08:04Z</time>
      </trkpt>
      <trkpt lat="46.09938" lon="4.50153">
        <ele>505</ele>
        <time>2017-02-09T12:08:05Z</time>
      </trkpt>
      <trkpt lat="46.09941" lon="4.50165">
        <ele>505</ele>
        <time>2017-02-09T12:08:13Z</time>
      </trkpt>
      <trkpt lat="46.09942" lon="4.50166">
        <ele>505</ele>
        <time>2017-02-09T12:08:14Z</time>
      </trkpt>
      <trkpt lat="46.09945" lon="4.50178">
        <ele>506</ele>
        <time>2017-02-09T12:08:21Z</time>
      </trkpt>
      <trkpt lat="46.09946" lon="4.50179">
        <ele>506</ele>
        <time>2017-02-09T12:08:22Z</time>
      </trkpt>
      <trkpt lat="46.09951" lon="4.5019">
        <ele>506</ele>
        <time>2017-02-09T12:08:28Z</time>
      </trkpt>
      <trkpt lat="46.09952" lon="4.50191">
        <ele>506</ele>
        <time>2017-02-09T12:08:29Z</time>
      </trkpt>
      <trkpt lat="46.09956" lon="4.50202">
        <ele>507</ele>
        <time>2017-02-09T12:08:35Z</time>
      </trkpt>
      <trkpt lat="46.09956" lon="4.50204">
        <ele>507</ele>
        <time>2017-02-09T12:08:36Z</time>
      </trkpt>
      <trkpt lat="46.09955" lon="4.50215">
        <ele>507</ele>
        <time>2017-02-09T12:08:44Z</time>
      </trkpt>
      <trkpt lat="46.09955" lon="4.50217">
        <ele>507</ele>
        <time>2017-02-09T12:08:45Z</time>
      </trkpt>
      <trkpt lat="46.09953" lon="4.50228">
        <ele>507</ele>
        <time>2017-02-09T12:08:54Z</time>
      </trkpt>
      <trkpt lat="46.09952" lon="4.5023">
        <ele>507</ele>
        <time>2017-02-09T12:08:55Z</time>
      </trkpt>
      <trkpt lat="46.09949" lon="4.5024">
        <ele>507</ele>
        <time>2017-02-09T12:09:04Z</time>
      </trkpt>
      <trkpt lat="46.09949" lon="4.50242">
        <ele>507</ele>
        <time>2017-02-09T12:09:05Z</time>
      </trkpt>
      <trkpt lat="46.09946" lon="4.50254">
        <ele>509</ele>
        <time>2017-02-09T12:09:16Z</time>
      </trkpt>
      <trkpt lat="46.09946" lon="4.50254">
        <ele>509</ele>
        <time>2017-02-09T12:09:17Z</time>
      </trkpt>
      <trkpt lat="46.09939" lon="4.5026">
        <ele>509</ele>
        <time>2017-02-09T12:09:41Z</time>
      </trkpt>
      <trkpt lat="46.09938" lon="4.50262">
        <ele>509</ele>
        <time>2017-02-09T12:09:42Z</time>
      </trkpt>
      <trkpt lat="46.09933" lon="4.50271">
        <ele>509</ele>
        <time>2017-02-09T12:09:50Z</time>
      </trkpt>
      <trkpt lat="46.09933" lon="4.50273">
        <ele>509</ele>
        <time>2017-02-09T12:09:51Z</time>
      </trkpt>
      <trkpt lat="46.09928" lon="4.50284">
        <ele>510</ele>
        <time>2017-02-09T12:09:58Z</time>
      </trkpt>
      <trkpt lat="46.09928" lon="4.50285">
        <ele>510</ele>
        <time>2017-02-09T12:09:59Z</time>
      </trkpt>
      <trkpt lat="46.09923" lon="4.50294">
        <ele>510</ele>
        <time>2017-02-09T12:10:06Z</time>
      </trkpt>
      <trkpt lat="46.09922" lon="4.50296">
        <ele>510</ele>
        <time>2017-02-09T12:10:07Z</time>
      </trkpt>
      <trkpt lat="46.09915" lon="4.50303">
        <ele>504</ele>
        <time>2017-02-09T12:10:14Z</time>
      </trkpt>
      <trkpt lat="46.09914" lon="4.50304">
        <ele>504</ele>
        <time>2017-02-09T12:10:15Z</time>
      </trkpt>
      <trkpt lat="46.09908" lon="4.50313">
        <ele>505</ele>
        <time>2017-02-09T12:10:22Z</time>
      </trkpt>
      <trkpt lat="46.09907" lon="4.50314">
        <ele>505</ele>
        <time>2017-02-09T12:10:23Z</time>
      </trkpt>
      <trkpt lat="46.09902" lon="4.50323">
        <ele>506</ele>
        <time>2017-02-09T12:10:29Z</time>
      </trkpt>
      <trkpt lat="46.09901" lon="4.50324">
        <ele>506</ele>
        <time>2017-02-09T12:10:30Z</time>
      </trkpt>
      <trkpt lat="46.09898" lon="4.50336">
        <ele>509</ele>
        <time>2017-02-09T12:10:37Z</time>
      </trkpt>
      <trkpt lat="46.09897" lon="4.50337">
        <ele>509</ele>
        <time>2017-02-09T12:10:38Z</time>
      </trkpt>
      <trkpt lat="46.09898" lon="4.5035">
        <ele>508</ele>
        <time>2017-02-09T12:10:45Z</time>
      </trkpt>
      <trkpt lat="46.09898" lon="4.50352">
        <ele>508</ele>
        <time>2017-02-09T12:10:46Z</time>
      </trkpt>
      <trkpt lat="46.09904" lon="4.5036">
        <ele>509</ele>
        <time>2017-02-09T12:10:53Z</time>
      </trkpt>
      <trkpt lat="46.09905" lon="4.50361">
        <ele>509</ele>
        <time>2017-02-09T12:10:54Z</time>
      </trkpt>
      <trkpt lat="46.09913" lon="4.50363">
        <ele>509</ele>
        <time>2017-02-09T12:11:01Z</time>
      </trkpt>
      <trkpt lat="46.09914" lon="4.50363">
        <ele>509</ele>
        <time>2017-02-09T12:11:02Z</time>
      </trkpt>
      <trkpt lat="46.09922" lon="4.5037">
        <ele>516</ele>
        <time>2017-02-09T12:11:09Z</time>
      </trkpt>
      <trkpt lat="46.09923" lon="4.50371">
        <ele>516</ele>
        <time>2017-02-09T12:11:10Z</time>
      </trkpt>
      <trkpt lat="46.0993" lon="4.50377">
        <ele>516</ele>
        <time>2017-02-09T12:11:18Z</time>
      </trkpt>
      <trkpt lat="46.09931" lon="4.50377">
        <ele>516</ele>
        <time>2017-02-09T12:11:19Z</time>
      </trkpt>
      <trkpt lat="46.09938" lon="4.50383">
        <ele>516</ele>
        <time>2017-02-09T12:11:28Z</time>
      </trkpt>
      <trkpt lat="46.09939" lon="4.50384">
        <ele>517</ele>
        <time>2017-02-09T12:11:29Z</time>
      </trkpt>
      <trkpt lat="46.09946" lon="4.50391">
        <ele>517</ele>
        <time>2017-02-09T12:11:37Z</time>
      </trkpt>
      <trkpt lat="46.09947" lon="4.50392">
        <ele>517</ele>
        <time>2017-02-09T12:11:38Z</time>
      </trkpt>
      <trkpt lat="46.09954" lon="4.50399">
        <ele>517</ele>
        <time>2017-02-09T12:11:46Z</time>
      </trkpt>
      <trkpt lat="46.09955" lon="4.504">
        <ele>517</ele>
        <time>2017-02-09T12:11:47Z</time>
      </trkpt>
      <trkpt lat="46.09961" lon="4.50407">
        <ele>518</ele>
        <time>2017-02-09T12:11:54Z</time>
      </trkpt>
      <trkpt lat="46.09962" lon="4.50408">
        <ele>518</ele>
        <time>2017-02-09T12:11:55Z</time>
      </trkpt>
      <trkpt lat="46.0997" lon="4.50414">
        <ele>519</ele>
        <time>2017-02-09T12:12:02Z</time>
      </trkpt>
      <trkpt lat="46.09971" lon="4.50415">
        <ele>519</ele>
        <time>2017-02-09T12:12:03Z</time>
      </trkpt>
      <trkpt lat="46.09979" lon="4.50419">
        <ele>519</ele>
        <time>2017-02-09T12:12:09Z</time>
      </trkpt>
      <trkpt lat="46.0998" lon="4.5042">
        <ele>519</ele>
        <time>2017-02-09T12:12:10Z</time>
      </trkpt>
      <trkpt lat="46.09988" lon="4.50424">
        <ele>520</ele>
        <time>2017-02-09T12:12:17Z</time>
      </trkpt>
      <trkpt lat="46.09989" lon="4.50425">
        <ele>520</ele>
        <time>2017-02-09T12:12:18Z</time>
      </trkpt>
      <trkpt lat="46.09997" lon="4.50428">
        <ele>521</ele>
        <time>2017-02-09T12:12:25Z</time>
      </trkpt>
      <trkpt lat="46.09999" lon="4.50429">
        <ele>521</ele>
        <time>2017-02-09T12:12:26Z</time>
      </trkpt>
      <trkpt lat="46.10006" lon="4.50432">
        <ele>524</ele>
        <time>2017-02-09T12:12:32Z</time>
      </trkpt>
      <trkpt lat="46.10007" lon="4.50432">
        <ele>524</ele>
        <time>2017-02-09T12:12:33Z</time>
      </trkpt>
      <trkpt lat="46.10015" lon="4.50436">
        <ele>524</ele>
        <time>2017-02-09T12:12:39Z</time>
      </trkpt>
      <trkpt lat="46.10017" lon="4.50437">
        <ele>524</ele>
        <time>2017-02-09T12:12:40Z</time>
      </trkpt>
      <trkpt lat="46.10024" lon="4.50442">
        <ele>524</ele>
        <time>2017-02-09T12:12:46Z</time>
      </trkpt>
      <trkpt lat="46.10025" lon="4.50443">
        <ele>524</ele>
        <time>2017-02-09T12:12:47Z</time>
      </trkpt>
      <trkpt lat="46.10033" lon="4.50447">
        <ele>524</ele>
        <time>2017-02-09T12:12:54Z</time>
      </trkpt>
      <trkpt lat="46.10034" lon="4.50447">
        <ele>524</ele>
        <time>2017-02-09T12:12:55Z</time>
      </trkpt>
      <trkpt lat="46.10043" lon="4.50449">
        <ele>525</ele>
        <time>2017-02-09T12:13:03Z</time>
      </trkpt>
      <trkpt lat="46.10044" lon="4.50449">
        <ele>525</ele>
        <time>2017-02-09T12:13:04Z</time>
      </trkpt>
      <trkpt lat="46.10052" lon="4.50449">
        <ele>525</ele>
        <time>2017-02-09T12:13:13Z</time>
      </trkpt>
      <trkpt lat="46.10053" lon="4.5045">
        <ele>525</ele>
        <time>2017-02-09T12:13:14Z</time>
      </trkpt>
      <trkpt lat="46.10061" lon="4.50455">
        <ele>525</ele>
        <time>2017-02-09T12:13:22Z</time>
      </trkpt>
      <trkpt lat="46.10062" lon="4.50456">
        <ele>525</ele>
        <time>2017-02-09T12:13:23Z</time>
      </trkpt>
      <trkpt lat="46.1007" lon="4.50462">
        <ele>525</ele>
        <time>2017-02-09T12:13:31Z</time>
      </trkpt>
      <trkpt lat="46.10071" lon="4.50463">
        <ele>525</ele>
        <time>2017-02-09T12:13:32Z</time>
      </trkpt>
      <trkpt lat="46.10079" lon="4.50464">
        <ele>526</ele>
        <time>2017-02-09T12:13:42Z</time>
      </trkpt>
      <trkpt lat="46.10081" lon="4.50464">
        <ele>526</ele>
        <time>2017-02-09T12:13:43Z</time>
      </trkpt>
      <trkpt lat="46.10089" lon="4.50465">
        <ele>526</ele>
        <time>2017-02-09T12:13:49Z</time>
      </trkpt>
      <trkpt lat="46.1009" lon="4.50466">
        <ele>526</ele>
        <time>2017-02-09T12:13:50Z</time>
      </trkpt>
      <trkpt lat="46.10099" lon="4.50468">
        <ele>526</ele>
        <time>2017-02-09T12:13:56Z</time>
      </trkpt>
      <trkpt lat="46.101" lon="4.50468">
        <ele>526</ele>
        <time>2017-02-09T12:13:57Z</time>
      </trkpt>
      <trkpt lat="46.10108" lon="4.5047">
        <ele>526</ele>
        <time>2017-02-09T12:14:03Z</time>
      </trkpt>
      <trkpt lat="46.10109" lon="4.50471">
        <ele>526</ele>
        <time>2017-02-09T12:14:04Z</time>
      </trkpt>
      <trkpt lat="46.10117" lon="4.50473">
        <ele>525</ele>
        <time>2017-02-09T12:14:10Z</time>
      </trkpt>
      <trkpt lat="46.10118" lon="4.50474">
        <ele>525</ele>
        <time>2017-02-09T12:14:11Z</time>
      </trkpt>
      <trkpt lat="46.10127" lon="4.50476">
        <ele>525</ele>
        <time>2017-02-09T12:14:18Z</time>
      </trkpt>
      <trkpt lat="46.10128" lon="4.50476">
        <ele>525</ele>
        <time>2017-02-09T12:14:19Z</time>
      </trkpt>
      <trkpt lat="46.10136" lon="4.50479">
        <ele>525</ele>
        <time>2017-02-09T12:14:26Z</time>
      </trkpt>
      <trkpt lat="46.10137" lon="4.50479">
        <ele>525</ele>
        <time>2017-02-09T12:14:27Z</time>
      </trkpt>
      <trkpt lat="46.10145" lon="4.50484">
        <ele>525</ele>
        <time>2017-02-09T12:14:34Z</time>
      </trkpt>
      <trkpt lat="46.10147" lon="4.50485">
        <ele>525</ele>
        <time>2017-02-09T12:14:35Z</time>
      </trkpt>
      <trkpt lat="46.10153" lon="4.50491">
        <ele>525</ele>
        <time>2017-02-09T12:14:41Z</time>
      </trkpt>
      <trkpt lat="46.10154" lon="4.50493">
        <ele>525</ele>
        <time>2017-02-09T12:14:42Z</time>
      </trkpt>
      <trkpt lat="46.1016" lon="4.505">
        <ele>526</ele>
        <time>2017-02-09T12:14:48Z</time>
      </trkpt>
      <trkpt lat="46.1016" lon="4.50502">
        <ele>526</ele>
        <time>2017-02-09T12:14:49Z</time>
      </trkpt>
      <trkpt lat="46.10166" lon="4.50511">
        <ele>526</ele>
        <time>2017-02-09T12:14:56Z</time>
      </trkpt>
      <trkpt lat="46.10167" lon="4.50513">
        <ele>526</ele>
        <time>2017-02-09T12:14:57Z</time>
      </trkpt>
      <trkpt lat="46.10171" lon="4.50524">
        <ele>526</ele>
        <time>2017-02-09T12:15:05Z</time>
      </trkpt>
      <trkpt lat="46.10172" lon="4.50525">
        <ele>526</ele>
        <time>2017-02-09T12:15:06Z</time>
      </trkpt>
      <trkpt lat="46.10175" lon="4.50537">
        <ele>526</ele>
        <time>2017-02-09T12:15:21Z</time>
      </trkpt>
      <trkpt lat="46.10175" lon="4.50537">
        <ele>526</ele>
        <time>2017-02-09T12:15:22Z</time>
      </trkpt>
      <trkpt lat="46.10176" lon="4.50549">
        <ele>527</ele>
        <time>2017-02-09T12:15:39Z</time>
      </trkpt>
      <trkpt lat="46.10176" lon="4.5055">
        <ele>527</ele>
        <time>2017-02-09T12:15:40Z</time>
      </trkpt>
      <trkpt lat="46.10176" lon="4.50562">
        <ele>528</ele>
        <time>2017-02-09T12:15:48Z</time>
      </trkpt>
      <trkpt lat="46.10176" lon="4.50563">
        <ele>528</ele>
        <time>2017-02-09T12:15:49Z</time>
      </trkpt>
      <trkpt lat="46.10174" lon="4.50575">
        <ele>530</ele>
        <time>2017-02-09T12:15:57Z</time>
      </trkpt>
      <trkpt lat="46.10174" lon="4.50577">
        <ele>530</ele>
        <time>2017-02-09T12:15:58Z</time>
      </trkpt>
      <trkpt lat="46.10171" lon="4.50587">
        <ele>533</ele>
        <time>2017-02-09T12:16:05Z</time>
      </trkpt>
      <trkpt lat="46.10171" lon="4.50589">
        <ele>534</ele>
        <time>2017-02-09T12:16:06Z</time>
      </trkpt>
      <trkpt lat="46.10168" lon="4.50601">
        <ele>535</ele>
        <time>2017-02-09T12:16:14Z</time>
      </trkpt>
      <trkpt lat="46.10168" lon="4.50602">
        <ele>536</ele>
        <time>2017-02-09T12:16:15Z</time>
      </trkpt>
      <trkpt lat="46.10164" lon="4.50614">
        <ele>531</ele>
        <time>2017-02-09T12:16:22Z</time>
      </trkpt>
      <trkpt lat="46.10164" lon="4.50615">
        <ele>531</ele>
        <time>2017-02-09T12:16:23Z</time>
      </trkpt>
      <trkpt lat="46.10161" lon="4.50627">
        <ele>531</ele>
        <time>2017-02-09T12:16:30Z</time>
      </trkpt>
      <trkpt lat="46.10161" lon="4.50629">
        <ele>531</ele>
        <time>2017-02-09T12:16:31Z</time>
      </trkpt>
      <trkpt lat="46.10163" lon="4.50641">
        <ele>532</ele>
        <time>2017-02-09T12:16:38Z</time>
      </trkpt>
      <trkpt lat="46.10164" lon="4.50642">
        <ele>533</ele>
        <time>2017-02-09T12:16:39Z</time>
      </trkpt>
      <trkpt lat="46.10167" lon="4.50654">
        <ele>535</ele>
        <time>2017-02-09T12:16:46Z</time>
      </trkpt>
      <trkpt lat="46.10167" lon="4.50655">
        <ele>539</ele>
        <time>2017-02-09T12:16:47Z</time>
      </trkpt>
      <trkpt lat="46.10168" lon="4.50668">
        <ele>540</ele>
        <time>2017-02-09T12:16:55Z</time>
      </trkpt>
      <trkpt lat="46.10168" lon="4.50669">
        <ele>541</ele>
        <time>2017-02-09T12:16:56Z</time>
      </trkpt>
      <trkpt lat="46.1017" lon="4.50682">
        <ele>545</ele>
        <time>2017-02-09T12:17:05Z</time>
      </trkpt>
      <trkpt lat="46.1017" lon="4.50683">
        <ele>545</ele>
        <time>2017-02-09T12:17:06Z</time>
      </trkpt>
      <trkpt lat="46.10174" lon="4.50693">
        <ele>548</ele>
        <time>2017-02-09T12:17:14Z</time>
      </trkpt>
      <trkpt lat="46.10174" lon="4.50695">
        <ele>548</ele>
        <time>2017-02-09T12:17:15Z</time>
      </trkpt>
      <trkpt lat="46.10177" lon="4.50705">
        <ele>550</ele>
        <time>2017-02-09T12:17:22Z</time>
      </trkpt>
      <trkpt lat="46.10178" lon="4.50707">
        <ele>550</ele>
        <time>2017-02-09T12:17:23Z</time>
      </trkpt>
      <trkpt lat="46.10182" lon="4.50717">
        <ele>551</ele>
        <time>2017-02-09T12:17:30Z</time>
      </trkpt>
      <trkpt lat="46.10183" lon="4.50718">
        <ele>551</ele>
        <time>2017-02-09T12:17:31Z</time>
      </trkpt>
      <trkpt lat="46.10185" lon="4.5073">
        <ele>552</ele>
        <time>2017-02-09T12:17:40Z</time>
      </trkpt>
      <trkpt lat="46.10186" lon="4.50731">
        <ele>552</ele>
        <time>2017-02-09T12:17:41Z</time>
      </trkpt>
      <trkpt lat="46.10187" lon="4.50743">
        <ele>552</ele>
        <time>2017-02-09T12:17:50Z</time>
      </trkpt>
      <trkpt lat="46.10187" lon="4.50745">
        <ele>552</ele>
        <time>2017-02-09T12:17:51Z</time>
      </trkpt>
      <trkpt lat="46.10187" lon="4.50757">
        <ele>558</ele>
        <time>2017-02-09T12:18:09Z</time>
      </trkpt>
      <trkpt lat="46.10187" lon="4.50758">
        <ele>558</ele>
        <time>2017-02-09T12:18:10Z</time>
      </trkpt>
      <trkpt lat="46.10196" lon="4.50759">
        <ele>560</ele>
        <time>2017-02-09T12:18:28Z</time>
      </trkpt>
      <trkpt lat="46.10196" lon="4.50758">
        <ele>560</ele>
        <time>2017-02-09T12:18:29Z</time>
      </trkpt>
      <trkpt lat="46.102" lon="4.50747">
        <ele>554</ele>
        <time>2017-02-09T12:18:39Z</time>
      </trkpt>
      <trkpt lat="46.10201" lon="4.50746">
        <ele>554</ele>
        <time>2017-02-09T12:18:40Z</time>
      </trkpt>
      <trkpt lat="46.10205" lon="4.50735">
        <ele>554</ele>
        <time>2017-02-09T12:18:51Z</time>
      </trkpt>
      <trkpt lat="46.10206" lon="4.50733">
        <ele>554</ele>
        <time>2017-02-09T12:18:52Z</time>
      </trkpt>
      <trkpt lat="46.10212" lon="4.50725">
        <ele>555</ele>
        <time>2017-02-09T12:19:02Z</time>
      </trkpt>
      <trkpt lat="46.10213" lon="4.50724">
        <ele>555</ele>
        <time>2017-02-09T12:19:03Z</time>
      </trkpt>
      <trkpt lat="46.10221" lon="4.50721">
        <ele>556</ele>
        <time>2017-02-09T12:19:13Z</time>
      </trkpt>
      <trkpt lat="46.10222" lon="4.50721">
        <ele>556</ele>
        <time>2017-02-09T12:19:14Z</time>
      </trkpt>
      <trkpt lat="46.1023" lon="4.5072">
        <ele>557</ele>
        <time>2017-02-09T12:19:23Z</time>
      </trkpt>
      <trkpt lat="46.10231" lon="4.50721">
        <ele>557</ele>
        <time>2017-02-09T12:19:24Z</time>
      </trkpt>
      <trkpt lat="46.10234" lon="4.50732">
        <ele>559</ele>
        <time>2017-02-09T12:19:35Z</time>
      </trkpt>
      <trkpt lat="46.10235" lon="4.50732">
        <ele>560</ele>
        <time>2017-02-09T12:19:36Z</time>
      </trkpt>
      <trkpt lat="46.10233" lon="4.50744">
        <ele>561</ele>
        <time>2017-02-09T12:19:47Z</time>
      </trkpt>
      <trkpt lat="46.10233" lon="4.50746">
        <ele>561</ele>
        <time>2017-02-09T12:19:48Z</time>
      </trkpt>
      <trkpt lat="46.10233" lon="4.50758">
        <ele>567</ele>
        <time>2017-02-09T12:20:02Z</time>
      </trkpt>
      <trkpt lat="46.10233" lon="4.50759">
        <ele>567</ele>
        <time>2017-02-09T12:20:03Z</time>
      </trkpt>
      <trkpt lat="46.10235" lon="4.50772">
        <ele>567</ele>
        <time>2017-02-09T12:20:18Z</time>
      </trkpt>
      <trkpt lat="46.10235" lon="4.50773">
        <ele>567</ele>
        <time>2017-02-09T12:20:19Z</time>
      </trkpt>
      <trkpt lat="46.10235" lon="4.50785">
        <ele>567</ele>
        <time>2017-02-09T12:20:33Z</time>
      </trkpt>
      <trkpt lat="46.10235" lon="4.50786">
        <ele>567</ele>
        <time>2017-02-09T12:20:34Z</time>
      </trkpt>
      <trkpt lat="46.10236" lon="4.50798">
        <ele>568</ele>
        <time>2017-02-09T12:20:47Z</time>
      </trkpt>
      <trkpt lat="46.10236" lon="4.50799">
        <ele>568</ele>
        <time>2017-02-09T12:20:48Z</time>
      </trkpt>
      <trkpt lat="46.10241" lon="4.50809">
        <ele>570</ele>
        <time>2017-02-09T12:21:03Z</time>
      </trkpt>
      <trkpt lat="46.10242" lon="4.5081">
        <ele>570</ele>
        <time>2017-02-09T12:21:04Z</time>
      </trkpt>
      <trkpt lat="46.1025" lon="4.50809">
        <ele>581</ele>
        <time>2017-02-09T12:21:25Z</time>
      </trkpt>
      <trkpt lat="46.10251" lon="4.50808">
        <ele>581</ele>
        <time>2017-02-09T12:21:26Z</time>
      </trkpt>
      <trkpt lat="46.1026" lon="4.50807">
        <ele>581</ele>
        <time>2017-02-09T12:21:41Z</time>
      </trkpt>
      <trkpt lat="46.10261" lon="4.50808">
        <ele>581</ele>
        <time>2017-02-09T12:21:42Z</time>
      </trkpt>
      <trkpt lat="46.10269" lon="4.50809">
        <ele>582</ele>
        <time>2017-02-09T12:22:06Z</time>
      </trkpt>
      <trkpt lat="46.1027" lon="4.5081">
        <ele>582</ele>
        <time>2017-02-09T12:22:07Z</time>
      </trkpt>
      <trkpt lat="46.10278" lon="4.50811">
        <ele>582</ele>
        <time>2017-02-09T12:22:16Z</time>
      </trkpt>
      <trkpt lat="46.10279" lon="4.50811">
        <ele>582</ele>
        <time>2017-02-09T12:22:17Z</time>
      </trkpt>
      <trkpt lat="46.10287" lon="4.50811">
        <ele>583</ele>
        <time>2017-02-09T12:22:27Z</time>
      </trkpt>
      <trkpt lat="46.10288" lon="4.50811">
        <ele>583</ele>
        <time>2017-02-09T12:22:28Z</time>
      </trkpt>
      <trkpt lat="46.10297" lon="4.5081">
        <ele>584</ele>
        <time>2017-02-09T12:22:40Z</time>
      </trkpt>
      <trkpt lat="46.10298" lon="4.50811">
        <ele>584</ele>
        <time>2017-02-09T12:22:41Z</time>
      </trkpt>
      <trkpt lat="46.10306" lon="4.50812">
        <ele>586</ele>
        <time>2017-02-09T12:22:51Z</time>
      </trkpt>
      <trkpt lat="46.10307" lon="4.50811">
        <ele>586</ele>
        <time>2017-02-09T12:22:52Z</time>
      </trkpt>
      <trkpt lat="46.10315" lon="4.50816">
        <ele>588</ele>
        <time>2017-02-09T12:23:02Z</time>
      </trkpt>
      <trkpt lat="46.10316" lon="4.50816">
        <ele>588</ele>
        <time>2017-02-09T12:23:03Z</time>
      </trkpt>
      <trkpt lat="46.10323" lon="4.50823">
        <ele>591</ele>
        <time>2017-02-09T12:23:16Z</time>
      </trkpt>
      <trkpt lat="46.10323" lon="4.50823">
        <ele>591</ele>
        <time>2017-02-09T12:23:17Z</time>
      </trkpt>
      <trkpt lat="46.10329" lon="4.50832">
        <ele>595</ele>
        <time>2017-02-09T12:23:29Z</time>
      </trkpt>
      <trkpt lat="46.10329" lon="4.50833">
        <ele>595</ele>
        <time>2017-02-09T12:23:30Z</time>
      </trkpt>
      <trkpt lat="46.10332" lon="4.50845">
        <ele>597</ele>
        <time>2017-02-09T12:23:42Z</time>
      </trkpt>
      <trkpt lat="46.10333" lon="4.50846">
        <ele>597</ele>
        <time>2017-02-09T12:23:43Z</time>
      </trkpt>
      <trkpt lat="46.10333" lon="4.50858">
        <ele>597</ele>
        <time>2017-02-09T12:23:57Z</time>
      </trkpt>
      <trkpt lat="46.10333" lon="4.50859">
        <ele>597</ele>
        <time>2017-02-09T12:23:58Z</time>
      </trkpt>
      <trkpt lat="46.10332" lon="4.50872">
        <ele>598</ele>
        <time>2017-02-09T12:24:10Z</time>
      </trkpt>
      <trkpt lat="46.10332" lon="4.50873">
        <ele>598</ele>
        <time>2017-02-09T12:24:11Z</time>
      </trkpt>
      <trkpt lat="46.10335" lon="4.50884">
        <ele>603</ele>
        <time>2017-02-09T12:24:22Z</time>
      </trkpt>
      <trkpt lat="46.10335" lon="4.50885">
        <ele>603</ele>
        <time>2017-02-09T12:24:23Z</time>
      </trkpt>
      <trkpt lat="46.10337" lon="4.50897">
        <ele>605</ele>
        <time>2017-02-09T12:24:35Z</time>
      </trkpt>
      <trkpt lat="46.10337" lon="4.50898">
        <ele>605</ele>
        <time>2017-02-09T12:24:36Z</time>
      </trkpt>
      <trkpt lat="46.10339" lon="4.5091">
        <ele>608</ele>
        <time>2017-02-09T12:24:47Z</time>
      </trkpt>
      <trkpt lat="46.10339" lon="4.50911">
        <ele>608</ele>
        <time>2017-02-09T12:24:48Z</time>
      </trkpt>
      <trkpt lat="46.10341" lon="4.50923">
        <ele>612</ele>
        <time>2017-02-09T12:24:59Z</time>
      </trkpt>
      <trkpt lat="46.10341" lon="4.50925">
        <ele>613</ele>
        <time>2017-02-09T12:25:00Z</time>
      </trkpt>
      <trkpt lat="46.10344" lon="4.50937">
        <ele>614</ele>
        <time>2017-02-09T12:25:11Z</time>
      </trkpt>
      <trkpt lat="46.10344" lon="4.50938">
        <ele>614</ele>
        <time>2017-02-09T12:25:12Z</time>
      </trkpt>
      <trkpt lat="46.10348" lon="4.50948">
        <ele>615</ele>
        <time>2017-02-09T12:25:23Z</time>
      </trkpt>
      <trkpt lat="46.10349" lon="4.50949">
        <ele>615</ele>
        <time>2017-02-09T12:25:24Z</time>
      </trkpt>
      <trkpt lat="46.10351" lon="4.50961">
        <ele>616</ele>
        <time>2017-02-09T12:25:37Z</time>
      </trkpt>
      <trkpt lat="46.10351" lon="4.50962">
        <ele>617</ele>
        <time>2017-02-09T12:25:38Z</time>
      </trkpt>
      <trkpt lat="46.10355" lon="4.50973">
        <ele>618</ele>
        <time>2017-02-09T12:25:51Z</time>
      </trkpt>
      <trkpt lat="46.10355" lon="4.50974">
        <ele>618</ele>
        <time>2017-02-09T12:25:52Z</time>
      </trkpt>
      <trkpt lat="46.10359" lon="4.50985">
        <ele>619</ele>
        <time>2017-02-09T12:26:07Z</time>
      </trkpt>
      <trkpt lat="46.10359" lon="4.50986">
        <ele>619</ele>
        <time>2017-02-09T12:26:08Z</time>
      </trkpt>
      <trkpt lat="46.10364" lon="4.50997">
        <ele>619</ele>
        <time>2017-02-09T12:26:24Z</time>
      </trkpt>
      <trkpt lat="46.10364" lon="4.50998">
        <ele>619</ele>
        <time>2017-02-09T12:26:25Z</time>
      </trkpt>
      <trkpt lat="46.10364" lon="4.5101">
        <ele>629</ele>
        <time>2017-02-09T12:26:44Z</time>
      </trkpt>
      <trkpt lat="46.10364" lon="4.51011">
        <ele>629</ele>
        <time>2017-02-09T12:26:45Z</time>
      </trkpt>
      <trkpt lat="46.10366" lon="4.51023">
        <ele>630</ele>
        <time>2017-02-09T12:26:59Z</time>
      </trkpt>
      <trkpt lat="46.10366" lon="4.51024">
        <ele>630</ele>
        <time>2017-02-09T12:27:00Z</time>
      </trkpt>
      <trkpt lat="46.10369" lon="4.51036">
        <ele>631</ele>
        <time>2017-02-09T12:27:12Z</time>
      </trkpt>
      <trkpt lat="46.10369" lon="4.51037">
        <ele>632</ele>
        <time>2017-02-09T12:27:13Z</time>
      </trkpt>
      <trkpt lat="46.10374" lon="4.51048">
        <ele>633</ele>
        <time>2017-02-09T12:27:27Z</time>
      </trkpt>
      <trkpt lat="46.10374" lon="4.51049">
        <ele>633</ele>
        <time>2017-02-09T12:27:28Z</time>
      </trkpt>
      <trkpt lat="46.1038" lon="4.51058">
        <ele>634</ele>
        <time>2017-02-09T12:27:39Z</time>
      </trkpt>
      <trkpt lat="46.1038" lon="4.51059">
        <ele>634</ele>
        <time>2017-02-09T12:27:40Z</time>
      </trkpt>
      <trkpt lat="46.10384" lon="4.5107">
        <ele>635</ele>
        <time>2017-02-09T12:27:53Z</time>
      </trkpt>
      <trkpt lat="46.10384" lon="4.51071">
        <ele>635</ele>
        <time>2017-02-09T12:27:54Z</time>
      </trkpt>
      <trkpt lat="46.10384" lon="4.51083">
        <ele>643</ele>
        <time>2017-02-09T12:28:11Z</time>
      </trkpt>
      <trkpt lat="46.10384" lon="4.51084">
        <ele>643</ele>
        <time>2017-02-09T12:28:12Z</time>
      </trkpt>
      <trkpt lat="46.10387" lon="4.51096">
        <ele>644</ele>
        <time>2017-02-09T12:28:25Z</time>
      </trkpt>
      <trkpt lat="46.10387" lon="4.51097">
        <ele>644</ele>
        <time>2017-02-09T12:28:26Z</time>
      </trkpt>
      <trkpt lat="46.10388" lon="4.5111">
        <ele>644</ele>
        <time>2017-02-09T12:28:38Z</time>
      </trkpt>
      <trkpt lat="46.10388" lon="4.51111">
        <ele>645</ele>
        <time>2017-02-09T12:28:39Z</time>
      </trkpt>
      <trkpt lat="46.10391" lon="4.51123">
        <ele>645</ele>
        <time>2017-02-09T12:28:50Z</time>
      </trkpt>
      <trkpt lat="46.10392" lon="4.51124">
        <ele>645</ele>
        <time>2017-02-09T12:28:51Z</time>
      </trkpt>
      <trkpt lat="46.10394" lon="4.51136">
        <ele>646</ele>
        <time>2017-02-09T12:29:02Z</time>
      </trkpt>
      <trkpt lat="46.10394" lon="4.51137">
        <ele>646</ele>
        <time>2017-02-09T12:29:03Z</time>
      </trkpt>
      <trkpt lat="46.10395" lon="4.51149">
        <ele>647</ele>
        <time>2017-02-09T12:29:11Z</time>
      </trkpt>
      <trkpt lat="46.10396" lon="4.5115">
        <ele>647</ele>
        <time>2017-02-09T12:29:12Z</time>
      </trkpt>
      <trkpt lat="46.10401" lon="4.51159">
        <ele>649</ele>
        <time>2017-02-09T12:29:19Z</time>
      </trkpt>
      <trkpt lat="46.10401" lon="4.5116">
        <ele>649</ele>
        <time>2017-02-09T12:29:20Z</time>
      </trkpt>
      <trkpt lat="46.10406" lon="4.5117">
        <ele>652</ele>
        <time>2017-02-09T12:29:28Z</time>
      </trkpt>
      <trkpt lat="46.10407" lon="4.51171">
        <ele>652</ele>
        <time>2017-02-09T12:29:29Z</time>
      </trkpt>
      <trkpt lat="46.10412" lon="4.5118">
        <ele>652</ele>
        <time>2017-02-09T12:29:36Z</time>
      </trkpt>
      <trkpt lat="46.10413" lon="4.51181">
        <ele>652</ele>
        <time>2017-02-09T12:29:37Z</time>
      </trkpt>
      <trkpt lat="46.10417" lon="4.51193">
        <ele>652</ele>
        <time>2017-02-09T12:29:46Z</time>
      </trkpt>
      <trkpt lat="46.10417" lon="4.51194">
        <ele>651</ele>
        <time>2017-02-09T12:29:47Z</time>
      </trkpt>
      <trkpt lat="46.10421" lon="4.51205">
        <ele>651</ele>
        <time>2017-02-09T12:29:55Z</time>
      </trkpt>
      <trkpt lat="46.10421" lon="4.51206">
        <ele>651</ele>
        <time>2017-02-09T12:29:56Z</time>
      </trkpt>
      <trkpt lat="46.10425" lon="4.51217">
        <ele>652</ele>
        <time>2017-02-09T12:30:04Z</time>
      </trkpt>
      <trkpt lat="46.10426" lon="4.51218">
        <ele>652</ele>
        <time>2017-02-09T12:30:05Z</time>
      </trkpt>
      <trkpt lat="46.10428" lon="4.5123">
        <ele>653</ele>
        <time>2017-02-09T12:30:13Z</time>
      </trkpt>
      <trkpt lat="46.10429" lon="4.51232">
        <ele>654</ele>
        <time>2017-02-09T12:30:14Z</time>
      </trkpt>
      <trkpt lat="46.10433" lon="4.51243">
        <ele>654</ele>
        <time>2017-02-09T12:30:22Z</time>
      </trkpt>
      <trkpt lat="46.10434" lon="4.51244">
        <ele>654</ele>
        <time>2017-02-09T12:30:23Z</time>
      </trkpt>
      <trkpt lat="46.10438" lon="4.51255">
        <ele>658</ele>
        <time>2017-02-09T12:30:31Z</time>
      </trkpt>
      <trkpt lat="46.10438" lon="4.51257">
        <ele>658</ele>
        <time>2017-02-09T12:30:32Z</time>
      </trkpt>
      <trkpt lat="46.10441" lon="4.51268">
        <ele>658</ele>
        <time>2017-02-09T12:30:42Z</time>
      </trkpt>
      <trkpt lat="46.10441" lon="4.51269">
        <ele>658</ele>
        <time>2017-02-09T12:30:43Z</time>
      </trkpt>
      <trkpt lat="46.10447" lon="4.51278">
        <ele>658</ele>
        <time>2017-02-09T12:30:54Z</time>
      </trkpt>
      <trkpt lat="46.10448" lon="4.51279">
        <ele>658</ele>
        <time>2017-02-09T12:30:55Z</time>
      </trkpt>
      <trkpt lat="46.10451" lon="4.5129">
        <ele>658</ele>
        <time>2017-02-09T12:31:04Z</time>
      </trkpt>
      <trkpt lat="46.10451" lon="4.51292">
        <ele>659</ele>
        <time>2017-02-09T12:31:05Z</time>
      </trkpt>
      <trkpt lat="46.10453" lon="4.51303">
        <ele>659</ele>
        <time>2017-02-09T12:31:17Z</time>
      </trkpt>
      <trkpt lat="46.10453" lon="4.51304">
        <ele>659</ele>
        <time>2017-02-09T12:31:18Z</time>
      </trkpt>
      <trkpt lat="46.10457" lon="4.51315">
        <ele>659</ele>
        <time>2017-02-09T12:31:25Z</time>
      </trkpt>
      <trkpt lat="46.10458" lon="4.51317">
        <ele>659</ele>
        <time>2017-02-09T12:31:26Z</time>
      </trkpt>
      <trkpt lat="46.1046" lon="4.51328">
        <ele>660</ele>
        <time>2017-02-09T12:31:34Z</time>
      </trkpt>
      <trkpt lat="46.1046" lon="4.51329">
        <ele>660</ele>
        <time>2017-02-09T12:31:35Z</time>
      </trkpt>
      <trkpt lat="46.10462" lon="4.51341">
        <ele>665</ele>
        <time>2017-02-09T12:31:46Z</time>
      </trkpt>
      <trkpt lat="46.10462" lon="4.51342">
        <ele>665</ele>
        <time>2017-02-09T12:31:47Z</time>
      </trkpt>
      <trkpt lat="46.10467" lon="4.51353">
        <ele>666</ele>
        <time>2017-02-09T12:31:58Z</time>
      </trkpt>
      <trkpt lat="46.10467" lon="4.51354">
        <ele>666</ele>
        <time>2017-02-09T12:31:59Z</time>
      </trkpt>
      <trkpt lat="46.1047" lon="4.51365">
        <ele>666</ele>
        <time>2017-02-09T12:32:10Z</time>
      </trkpt>
      <trkpt lat="46.1047" lon="4.51366">
        <ele>666</ele>
        <time>2017-02-09T12:32:11Z</time>
      </trkpt>
      <trkpt lat="46.10474" lon="4.51376">
        <ele>667</ele>
        <time>2017-02-09T12:32:21Z</time>
      </trkpt>
      <trkpt lat="46.10475" lon="4.51377">
        <ele>667</ele>
        <time>2017-02-09T12:32:22Z</time>
      </trkpt>
      <trkpt lat="46.10477" lon="4.51389">
        <ele>668</ele>
        <time>2017-02-09T12:32:33Z</time>
      </trkpt>
      <trkpt lat="46.10477" lon="4.5139">
        <ele>668</ele>
        <time>2017-02-09T12:32:34Z</time>
      </trkpt>
      <trkpt lat="46.10482" lon="4.514">
        <ele>670</ele>
        <time>2017-02-09T12:32:44Z</time>
      </trkpt>
      <trkpt lat="46.10483" lon="4.51401">
        <ele>670</ele>
        <time>2017-02-09T12:32:45Z</time>
      </trkpt>
      <trkpt lat="46.10486" lon="4.51413">
        <ele>672</ele>
        <time>2017-02-09T12:32:55Z</time>
      </trkpt>
      <trkpt lat="46.10485" lon="4.51414">
        <ele>672</ele>
        <time>2017-02-09T12:32:56Z</time>
      </trkpt>
      <trkpt lat="46.10486" lon="4.51426">
        <ele>675</ele>
        <time>2017-02-09T12:33:06Z</time>
      </trkpt>
      <trkpt lat="46.10486" lon="4.51427">
        <ele>675</ele>
        <time>2017-02-09T12:33:07Z</time>
      </trkpt>
      <trkpt lat="46.10486" lon="4.5144">
        <ele>675</ele>
        <time>2017-02-09T12:33:17Z</time>
      </trkpt>
      <trkpt lat="46.10486" lon="4.51441">
        <ele>675</ele>
        <time>2017-02-09T12:33:18Z</time>
      </trkpt>
      <trkpt lat="46.1049" lon="4.51453">
        <ele>676</ele>
        <time>2017-02-09T12:33:28Z</time>
      </trkpt>
      <trkpt lat="46.10491" lon="4.51454">
        <ele>676</ele>
        <time>2017-02-09T12:33:29Z</time>
      </trkpt>
      <trkpt lat="46.10497" lon="4.51462">
        <ele>677</ele>
        <time>2017-02-09T12:33:36Z</time>
      </trkpt>
      <trkpt lat="46.10498" lon="4.51464">
        <ele>678</ele>
        <time>2017-02-09T12:33:37Z</time>
      </trkpt>
      <trkpt lat="46.10501" lon="4.51476">
        <ele>683</ele>
        <time>2017-02-09T12:33:48Z</time>
      </trkpt>
      <trkpt lat="46.10501" lon="4.51477">
        <ele>683</ele>
        <time>2017-02-09T12:33:49Z</time>
      </trkpt>
      <trkpt lat="46.10506" lon="4.51487">
        <ele>685</ele>
        <time>2017-02-09T12:33:59Z</time>
      </trkpt>
      <trkpt lat="46.10507" lon="4.51488">
        <ele>685</ele>
        <time>2017-02-09T12:34:00Z</time>
      </trkpt>
      <trkpt lat="46.10506" lon="4.515">
        <ele>689</ele>
        <time>2017-02-09T12:34:10Z</time>
      </trkpt>
      <trkpt lat="46.10506" lon="4.51502">
        <ele>689</ele>
        <time>2017-02-09T12:34:11Z</time>
      </trkpt>
      <trkpt lat="46.10506" lon="4.51514">
        <ele>689</ele>
        <time>2017-02-09T12:34:20Z</time>
      </trkpt>
      <trkpt lat="46.10507" lon="4.51515">
        <ele>689</ele>
        <time>2017-02-09T12:34:21Z</time>
      </trkpt>
      <trkpt lat="46.10509" lon="4.51527">
        <ele>690</ele>
        <time>2017-02-09T12:34:29Z</time>
      </trkpt>
      <trkpt lat="46.1051" lon="4.51528">
        <ele>690</ele>
        <time>2017-02-09T12:34:30Z</time>
      </trkpt>
      <trkpt lat="46.10513" lon="4.5154">
        <ele>690</ele>
        <time>2017-02-09T12:34:38Z</time>
      </trkpt>
      <trkpt lat="46.10513" lon="4.51541">
        <ele>690</ele>
        <time>2017-02-09T12:34:39Z</time>
      </trkpt>
      <trkpt lat="46.10516" lon="4.51552">
        <ele>690</ele>
        <time>2017-02-09T12:34:46Z</time>
      </trkpt>
      <trkpt lat="46.10516" lon="4.51553">
        <ele>690</ele>
        <time>2017-02-09T12:34:47Z</time>
      </trkpt>
      <trkpt lat="46.1052" lon="4.51564">
        <ele>691</ele>
        <time>2017-02-09T12:34:55Z</time>
      </trkpt>
      <trkpt lat="46.10521" lon="4.51565">
        <ele>691</ele>
        <time>2017-02-09T12:34:56Z</time>
      </trkpt>
      <trkpt lat="46.10524" lon="4.51577">
        <ele>691</ele>
        <time>2017-02-09T12:35:04Z</time>
      </trkpt>
      <trkpt lat="46.10524" lon="4.51579">
        <ele>691</ele>
        <time>2017-02-09T12:35:05Z</time>
      </trkpt>
      <trkpt lat="46.10524" lon="4.51591">
        <ele>692</ele>
        <time>2017-02-09T12:35:15Z</time>
      </trkpt>
      <trkpt lat="46.10524" lon="4.51592">
        <ele>692</ele>
        <time>2017-02-09T12:35:16Z</time>
      </trkpt>
      <trkpt lat="46.10529" lon="4.51601">
        <ele>692</ele>
        <time>2017-02-09T12:35:25Z</time>
      </trkpt>
      <trkpt lat="46.1053" lon="4.51602">
        <ele>692</ele>
        <time>2017-02-09T12:35:26Z</time>
      </trkpt>
      <trkpt lat="46.10536" lon="4.51611">
        <ele>692</ele>
        <time>2017-02-09T12:35:32Z</time>
      </trkpt>
      <trkpt lat="46.10537" lon="4.51613">
        <ele>692</ele>
        <time>2017-02-09T12:35:33Z</time>
      </trkpt>
      <trkpt lat="46.1054" lon="4.51624">
        <ele>692</ele>
        <time>2017-02-09T12:35:41Z</time>
      </trkpt>
      <trkpt lat="46.1054" lon="4.51625">
        <ele>692</ele>
        <time>2017-02-09T12:35:42Z</time>
      </trkpt>
      <trkpt lat="46.10545" lon="4.51635">
        <ele>693</ele>
        <time>2017-02-09T12:35:51Z</time>
      </trkpt>
      <trkpt lat="46.10546" lon="4.51636">
        <ele>693</ele>
        <time>2017-02-09T12:35:52Z</time>
      </trkpt>
      <trkpt lat="46.1055" lon="4.51647">
        <ele>693</ele>
        <time>2017-02-09T12:36:02Z</time>
      </trkpt>
      <trkpt lat="46.1055" lon="4.51648">
        <ele>693</ele>
        <time>2017-02-09T12:36:03Z</time>
      </trkpt>
      <trkpt lat="46.10556" lon="4.51657">
        <ele>694</ele>
        <time>2017-02-09T12:36:10Z</time>
      </trkpt>
      <trkpt lat="46.10557" lon="4.51658">
        <ele>695</ele>
        <time>2017-02-09T12:36:11Z</time>
      </trkpt>
      <trkpt lat="46.10563" lon="4.51665">
        <ele>696</ele>
        <time>2017-02-09T12:36:16Z</time>
      </trkpt>
      <trkpt lat="46.10564" lon="4.51667">
        <ele>695</ele>
        <time>2017-02-09T12:36:17Z</time>
      </trkpt>
      <trkpt lat="46.1057" lon="4.51675">
        <ele>695</ele>
        <time>2017-02-09T12:36:22Z</time>
      </trkpt>
      <trkpt lat="46.1057" lon="4.51677">
        <ele>695</ele>
        <time>2017-02-09T12:36:23Z</time>
      </trkpt>
      <trkpt lat="46.10577" lon="4.51685">
        <ele>695</ele>
        <time>2017-02-09T12:36:30Z</time>
      </trkpt>
      <trkpt lat="46.10578" lon="4.51686">
        <ele>695</ele>
        <time>2017-02-09T12:36:31Z</time>
      </trkpt>
      <trkpt lat="46.10584" lon="4.51693">
        <ele>703</ele>
        <time>2017-02-09T12:36:37Z</time>
      </trkpt>
      <trkpt lat="46.10585" lon="4.51694">
        <ele>703</ele>
        <time>2017-02-09T12:36:38Z</time>
      </trkpt>
      <trkpt lat="46.10591" lon="4.51704">
        <ele>704</ele>
        <time>2017-02-09T12:36:45Z</time>
      </trkpt>
      <trkpt lat="46.10591" lon="4.51705">
        <ele>704</ele>
        <time>2017-02-09T12:36:46Z</time>
      </trkpt>
      <trkpt lat="46.10596" lon="4.51715">
        <ele>704</ele>
        <time>2017-02-09T12:36:54Z</time>
      </trkpt>
      <trkpt lat="46.10597" lon="4.51716">
        <ele>704</ele>
        <time>2017-02-09T12:36:55Z</time>
      </trkpt>
      <trkpt lat="46.10603" lon="4.51725">
        <ele>704</ele>
        <time>2017-02-09T12:37:03Z</time>
      </trkpt>
      <trkpt lat="46.10604" lon="4.51726">
        <ele>704</ele>
        <time>2017-02-09T12:37:04Z</time>
      </trkpt>
      <trkpt lat="46.10611" lon="4.51735">
        <ele>705</ele>
        <time>2017-02-09T12:37:13Z</time>
      </trkpt>
      <trkpt lat="46.10611" lon="4.51736">
        <ele>705</ele>
        <time>2017-02-09T12:37:14Z</time>
      </trkpt>
      <trkpt lat="46.10619" lon="4.51742">
        <ele>706</ele>
        <time>2017-02-09T12:37:23Z</time>
      </trkpt>
      <trkpt lat="46.1062" lon="4.51742">
        <ele>706</ele>
        <time>2017-02-09T12:37:24Z</time>
      </trkpt>
      <trkpt lat="46.10627" lon="4.51749">
        <ele>707</ele>
        <time>2017-02-09T12:37:34Z</time>
      </trkpt>
      <trkpt lat="46.10628" lon="4.5175">
        <ele>707</ele>
        <time>2017-02-09T12:37:35Z</time>
      </trkpt>
      <trkpt lat="46.10632" lon="4.51759">
        <ele>710</ele>
        <time>2017-02-09T12:37:48Z</time>
      </trkpt>
      <trkpt lat="46.10633" lon="4.5176">
        <ele>711</ele>
        <time>2017-02-09T12:37:49Z</time>
      </trkpt>
      <trkpt lat="46.10638" lon="4.51769">
        <ele>711</ele>
        <time>2017-02-09T12:37:55Z</time>
      </trkpt>
      <trkpt lat="46.10639" lon="4.5177">
        <ele>711</ele>
        <time>2017-02-09T12:37:56Z</time>
      </trkpt>
      <trkpt lat="46.10644" lon="4.5178">
        <ele>712</ele>
        <time>2017-02-09T12:38:05Z</time>
      </trkpt>
      <trkpt lat="46.10644" lon="4.51781">
        <ele>712</ele>
        <time>2017-02-09T12:38:06Z</time>
      </trkpt>
      <trkpt lat="46.10648" lon="4.51792">
        <ele>712</ele>
        <time>2017-02-09T12:38:19Z</time>
      </trkpt>
      <trkpt lat="46.10648" lon="4.51793">
        <ele>713</ele>
        <time>2017-02-09T12:38:20Z</time>
      </trkpt>
      <trkpt lat="46.10649" lon="4.51805">
        <ele>714</ele>
        <time>2017-02-09T12:38:34Z</time>
      </trkpt>
      <trkpt lat="46.1065" lon="4.51806">
        <ele>714</ele>
        <time>2017-02-09T12:38:35Z</time>
      </trkpt>
      <trkpt lat="46.1065" lon="4.51818">
        <ele>715</ele>
        <time>2017-02-09T12:38:56Z</time>
      </trkpt>
      <trkpt lat="46.1065" lon="4.51819">
        <ele>715</ele>
        <time>2017-02-09T12:38:57Z</time>
      </trkpt>
      <trkpt lat="46.10656" lon="4.51829">
        <ele>718</ele>
        <time>2017-02-09T12:39:07Z</time>
      </trkpt>
      <trkpt lat="46.10656" lon="4.5183">
        <ele>719</ele>
        <time>2017-02-09T12:39:08Z</time>
      </trkpt>
      <trkpt lat="46.1066" lon="4.51841">
        <ele>719</ele>
        <time>2017-02-09T12:39:20Z</time>
      </trkpt>
      <trkpt lat="46.1066" lon="4.51842">
        <ele>719</ele>
        <time>2017-02-09T12:39:21Z</time>
      </trkpt>
      <trkpt lat="46.10667" lon="4.51849">
        <ele>717</ele>
        <time>2017-02-09T12:39:31Z</time>
      </trkpt>
      <trkpt lat="46.10667" lon="4.5185">
        <ele>724</ele>
        <time>2017-02-09T12:39:32Z</time>
      </trkpt>
      <trkpt lat="46.10672" lon="4.5186">
        <ele>724</ele>
        <time>2017-02-09T12:39:41Z</time>
      </trkpt>
      <trkpt lat="46.10673" lon="4.51861">
        <ele>724</ele>
        <time>2017-02-09T12:39:42Z</time>
      </trkpt>
      <trkpt lat="46.10679" lon="4.5187">
        <ele>724</ele>
        <time>2017-02-09T12:39:52Z</time>
      </trkpt>
      <trkpt lat="46.10679" lon="4.51871">
        <ele>724</ele>
        <time>2017-02-09T12:39:53Z</time>
      </trkpt>
      <trkpt lat="46.10685" lon="4.51879">
        <ele>724</ele>
        <time>2017-02-09T12:40:02Z</time>
      </trkpt>
      <trkpt lat="46.10686" lon="4.51879">
        <ele>724</ele>
        <time>2017-02-09T12:40:03Z</time>
      </trkpt>
      <trkpt lat="46.10693" lon="4.51886">
        <ele>724</ele>
        <time>2017-02-09T12:40:10Z</time>
      </trkpt>
      <trkpt lat="46.10695" lon="4.51887">
        <ele>724</ele>
        <time>2017-02-09T12:40:11Z</time>
      </trkpt>
      <trkpt lat="46.10699" lon="4.51896">
        <ele>724</ele>
        <time>2017-02-09T12:40:19Z</time>
      </trkpt>
      <trkpt lat="46.107" lon="4.51897">
        <ele>724</ele>
        <time>2017-02-09T12:40:20Z</time>
      </trkpt>
      <trkpt lat="46.10707" lon="4.51904">
        <ele>725</ele>
        <time>2017-02-09T12:40:28Z</time>
      </trkpt>
      <trkpt lat="46.10707" lon="4.51905">
        <ele>725</ele>
        <time>2017-02-09T12:40:29Z</time>
      </trkpt>
      <trkpt lat="46.10713" lon="4.51912">
        <ele>725</ele>
        <time>2017-02-09T12:40:35Z</time>
      </trkpt>
      <trkpt lat="46.10714" lon="4.51914">
        <ele>725</ele>
        <time>2017-02-09T12:40:36Z</time>
      </trkpt>
      <trkpt lat="46.10718" lon="4.51924">
        <ele>724</ele>
        <time>2017-02-09T12:40:43Z</time>
      </trkpt>
      <trkpt lat="46.10719" lon="4.51925">
        <ele>724</ele>
        <time>2017-02-09T12:40:44Z</time>
      </trkpt>
      <trkpt lat="46.10725" lon="4.51935">
        <ele>725</ele>
        <time>2017-02-09T12:40:52Z</time>
      </trkpt>
      <trkpt lat="46.10726" lon="4.51936">
        <ele>725</ele>
        <time>2017-02-09T12:40:53Z</time>
      </trkpt>
      <trkpt lat="46.10729" lon="4.51946">
        <ele>724</ele>
        <time>2017-02-09T12:41:02Z</time>
      </trkpt>
      <trkpt lat="46.1073" lon="4.51947">
        <ele>724</ele>
        <time>2017-02-09T12:41:03Z</time>
      </trkpt>
      <trkpt lat="46.10733" lon="4.5196">
        <ele>724</ele>
        <time>2017-02-09T12:41:29Z</time>
      </trkpt>
      <trkpt lat="46.10733" lon="4.5196">
        <ele>724</ele>
        <time>2017-02-09T12:41:30Z</time>
      </trkpt>
      <trkpt lat="46.10736" lon="4.51971">
        <ele>725</ele>
        <time>2017-02-09T12:50:08Z</time>
      </trkpt>
      <trkpt lat="46.10736" lon="4.51972">
        <ele>725</ele>
        <time>2017-02-09T12:50:09Z</time>
      </trkpt>
      <trkpt lat="46.10737" lon="4.51985">
        <ele>725</ele>
        <time>2017-02-09T12:50:19Z</time>
      </trkpt>
      <trkpt lat="46.10737" lon="4.51986">
        <ele>726</ele>
        <time>2017-02-09T12:50:20Z</time>
      </trkpt>
      <trkpt lat="46.10737" lon="4.51998">
        <ele>726</ele>
        <time>2017-02-09T12:50:28Z</time>
      </trkpt>
      <trkpt lat="46.10737" lon="4.52">
        <ele>726</ele>
        <time>2017-02-09T12:50:29Z</time>
      </trkpt>
      <trkpt lat="46.10735" lon="4.52011">
        <ele>725</ele>
        <time>2017-02-09T12:50:37Z</time>
      </trkpt>
      <trkpt lat="46.10735" lon="4.52013">
        <ele>725</ele>
        <time>2017-02-09T12:50:38Z</time>
      </trkpt>
      <trkpt lat="46.10733" lon="4.52025">
        <ele>724</ele>
        <time>2017-02-09T12:50:45Z</time>
      </trkpt>
      <trkpt lat="46.10733" lon="4.52027">
        <ele>723</ele>
        <time>2017-02-09T12:50:46Z</time>
      </trkpt>
      <trkpt lat="46.10734" lon="4.52039">
        <ele>723</ele>
        <time>2017-02-09T12:50:52Z</time>
      </trkpt>
      <trkpt lat="46.10734" lon="4.52041">
        <ele>723</ele>
        <time>2017-02-09T12:50:53Z</time>
      </trkpt>
      <trkpt lat="46.10734" lon="4.52053">
        <ele>723</ele>
        <time>2017-02-09T12:51:00Z</time>
      </trkpt>
      <trkpt lat="46.10734" lon="4.52055">
        <ele>723</ele>
        <time>2017-02-09T12:51:01Z</time>
      </trkpt>
      <trkpt lat="46.10729" lon="4.52065">
        <ele>723</ele>
        <time>2017-02-09T12:51:08Z</time>
      </trkpt>
      <trkpt lat="46.10728" lon="4.52066">
        <ele>723</ele>
        <time>2017-02-09T12:51:09Z</time>
      </trkpt>
      <trkpt lat="46.1073" lon="4.52078">
        <ele>724</ele>
        <time>2017-02-09T12:51:16Z</time>
      </trkpt>
      <trkpt lat="46.1073" lon="4.52079">
        <ele>724</ele>
        <time>2017-02-09T12:51:17Z</time>
      </trkpt>
      <trkpt lat="46.10729" lon="4.52092">
        <ele>725</ele>
        <time>2017-02-09T12:51:25Z</time>
      </trkpt>
      <trkpt lat="46.10729" lon="4.52094">
        <ele>725</ele>
        <time>2017-02-09T12:51:26Z</time>
      </trkpt>
      <trkpt lat="46.10729" lon="4.52105">
        <ele>725</ele>
        <time>2017-02-09T12:51:32Z</time>
      </trkpt>
      <trkpt lat="46.10729" lon="4.52107">
        <ele>725</ele>
        <time>2017-02-09T12:51:33Z</time>
      </trkpt>
      <trkpt lat="46.10727" lon="4.52119">
        <ele>725</ele>
        <time>2017-02-09T12:51:40Z</time>
      </trkpt>
      <trkpt lat="46.10727" lon="4.52121">
        <ele>725</ele>
        <time>2017-02-09T12:51:41Z</time>
      </trkpt>
      <trkpt lat="46.10725" lon="4.52132">
        <ele>725</ele>
        <time>2017-02-09T12:51:48Z</time>
      </trkpt>
      <trkpt lat="46.10724" lon="4.52134">
        <ele>725</ele>
        <time>2017-02-09T12:51:49Z</time>
      </trkpt>
      <trkpt lat="46.10722" lon="4.52145">
        <ele>726</ele>
        <time>2017-02-09T12:51:56Z</time>
      </trkpt>
      <trkpt lat="46.10721" lon="4.52146">
        <ele>726</ele>
        <time>2017-02-09T12:51:57Z</time>
      </trkpt>
      <trkpt lat="46.10721" lon="4.52158">
        <ele>726</ele>
        <time>2017-02-09T12:52:04Z</time>
      </trkpt>
      <trkpt lat="46.1072" lon="4.5216">
        <ele>726</ele>
        <time>2017-02-09T12:52:05Z</time>
      </trkpt>
      <trkpt lat="46.10719" lon="4.52172">
        <ele>730</ele>
        <time>2017-02-09T12:52:12Z</time>
      </trkpt>
      <trkpt lat="46.10719" lon="4.52173">
        <ele>730</ele>
        <time>2017-02-09T12:52:13Z</time>
      </trkpt>
      <trkpt lat="46.10718" lon="4.52184">
        <ele>730</ele>
        <time>2017-02-09T12:52:20Z</time>
      </trkpt>
      <trkpt lat="46.10718" lon="4.52186">
        <ele>730</ele>
        <time>2017-02-09T12:52:21Z</time>
      </trkpt>
      <trkpt lat="46.10718" lon="4.52197">
        <ele>730</ele>
        <time>2017-02-09T12:52:28Z</time>
      </trkpt>
      <trkpt lat="46.10718" lon="4.52199">
        <ele>730</ele>
        <time>2017-02-09T12:52:29Z</time>
      </trkpt>
      <trkpt lat="46.10717" lon="4.52211">
        <ele>730</ele>
        <time>2017-02-09T12:52:36Z</time>
      </trkpt>
      <trkpt lat="46.10717" lon="4.52213">
        <ele>730</ele>
        <time>2017-02-09T12:52:37Z</time>
      </trkpt>
      <trkpt lat="46.10717" lon="4.52225">
        <ele>731</ele>
        <time>2017-02-09T12:52:44Z</time>
      </trkpt>
      <trkpt lat="46.10717" lon="4.52227">
        <ele>731</ele>
        <time>2017-02-09T12:52:45Z</time>
      </trkpt>
      <trkpt lat="46.10717" lon="4.52238">
        <ele>731</ele>
        <time>2017-02-09T12:52:52Z</time>
      </trkpt>
      <trkpt lat="46.10717" lon="4.5224">
        <ele>731</ele>
        <time>2017-02-09T12:52:53Z</time>
      </trkpt>
      <trkpt lat="46.10717" lon="4.52252">
        <ele>735</ele>
        <time>2017-02-09T12:53:00Z</time>
      </trkpt>
      <trkpt lat="46.10717" lon="4.52253">
        <ele>735</ele>
        <time>2017-02-09T12:53:01Z</time>
      </trkpt>
      <trkpt lat="46.10718" lon="4.52266">
        <ele>735</ele>
        <time>2017-02-09T12:53:08Z</time>
      </trkpt>
      <trkpt lat="46.10718" lon="4.52268">
        <ele>735</ele>
        <time>2017-02-09T12:53:09Z</time>
      </trkpt>
      <trkpt lat="46.10718" lon="4.5228">
        <ele>735</ele>
        <time>2017-02-09T12:53:17Z</time>
      </trkpt>
      <trkpt lat="46.10719" lon="4.52282">
        <ele>735</ele>
        <time>2017-02-09T12:53:18Z</time>
      </trkpt>
      <trkpt lat="46.10722" lon="4.52293">
        <ele>736</ele>
        <time>2017-02-09T12:53:25Z</time>
      </trkpt>
      <trkpt lat="46.10722" lon="4.52294">
        <ele>736</ele>
        <time>2017-02-09T12:53:26Z</time>
      </trkpt>
      <trkpt lat="46.10721" lon="4.52307">
        <ele>736</ele>
        <time>2017-02-09T12:53:34Z</time>
      </trkpt>
      <trkpt lat="46.10721" lon="4.52308">
        <ele>736</ele>
        <time>2017-02-09T12:53:35Z</time>
      </trkpt>
      <trkpt lat="46.10721" lon="4.5232">
        <ele>737</ele>
        <time>2017-02-09T12:53:42Z</time>
      </trkpt>
      <trkpt lat="46.10721" lon="4.52321">
        <ele>737</ele>
        <time>2017-02-09T12:53:43Z</time>
      </trkpt>
      <trkpt lat="46.10722" lon="4.52333">
        <ele>737</ele>
        <time>2017-02-09T12:53:50Z</time>
      </trkpt>
      <trkpt lat="46.10723" lon="4.52334">
        <ele>739</ele>
        <time>2017-02-09T12:53:51Z</time>
      </trkpt>
      <trkpt lat="46.10723" lon="4.52345">
        <ele>738</ele>
        <time>2017-02-09T12:53:58Z</time>
      </trkpt>
      <trkpt lat="46.10723" lon="4.52347">
        <ele>738</ele>
        <time>2017-02-09T12:53:59Z</time>
      </trkpt>
      <trkpt lat="46.10724" lon="4.5236">
        <ele>738</ele>
        <time>2017-02-09T12:54:05Z</time>
      </trkpt>
      <trkpt lat="46.10724" lon="4.52362">
        <ele>738</ele>
        <time>2017-02-09T12:54:06Z</time>
      </trkpt>
      <trkpt lat="46.10724" lon="4.52373">
        <ele>738</ele>
        <time>2017-02-09T12:54:13Z</time>
      </trkpt>
      <trkpt lat="46.10724" lon="4.52375">
        <ele>738</ele>
        <time>2017-02-09T12:54:14Z</time>
      </trkpt>
      <trkpt lat="46.10727" lon="4.52387">
        <ele>738</ele>
        <time>2017-02-09T12:54:22Z</time>
      </trkpt>
      <trkpt lat="46.10727" lon="4.52388">
        <ele>738</ele>
        <time>2017-02-09T12:54:23Z</time>
      </trkpt>
      <trkpt lat="46.10727" lon="4.524">
        <ele>739</ele>
        <time>2017-02-09T12:54:30Z</time>
      </trkpt>
      <trkpt lat="46.10727" lon="4.52402">
        <ele>739</ele>
        <time>2017-02-09T12:54:31Z</time>
      </trkpt>
      <trkpt lat="46.10727" lon="4.52414">
        <ele>739</ele>
        <time>2017-02-09T12:54:37Z</time>
      </trkpt>
      <trkpt lat="46.10727" lon="4.52416">
        <ele>739</ele>
        <time>2017-02-09T12:54:38Z</time>
      </trkpt>
      <trkpt lat="46.10727" lon="4.52428">
        <ele>740</ele>
        <time>2017-02-09T12:54:44Z</time>
      </trkpt>
      <trkpt lat="46.10728" lon="4.52429">
        <ele>740</ele>
        <time>2017-02-09T12:54:45Z</time>
      </trkpt>
      <trkpt lat="46.10729" lon="4.52442">
        <ele>739</ele>
        <time>2017-02-09T12:54:53Z</time>
      </trkpt>
      <trkpt lat="46.10729" lon="4.52443">
        <ele>739</ele>
        <time>2017-02-09T12:54:54Z</time>
      </trkpt>
      <trkpt lat="46.1073" lon="4.52456">
        <ele>739</ele>
        <time>2017-02-09T12:55:03Z</time>
      </trkpt>
      <trkpt lat="46.1073" lon="4.52457">
        <ele>739</ele>
        <time>2017-02-09T12:55:04Z</time>
      </trkpt>
      <trkpt lat="46.10726" lon="4.52468">
        <ele>739</ele>
        <time>2017-02-09T12:56:30Z</time>
      </trkpt>
      <trkpt lat="46.10726" lon="4.52469">
        <ele>739</ele>
        <time>2017-02-09T12:56:31Z</time>
      </trkpt>
      <trkpt lat="46.10728" lon="4.52481">
        <ele>740</ele>
        <time>2017-02-09T12:56:39Z</time>
      </trkpt>
      <trkpt lat="46.10728" lon="4.52482">
        <ele>740</ele>
        <time>2017-02-09T12:56:40Z</time>
      </trkpt>
      <trkpt lat="46.10728" lon="4.52494">
        <ele>741</ele>
        <time>2017-02-09T12:56:47Z</time>
      </trkpt>
      <trkpt lat="46.10728" lon="4.52496">
        <ele>741</ele>
        <time>2017-02-09T12:56:48Z</time>
      </trkpt>
      <trkpt lat="46.10729" lon="4.52508">
        <ele>741</ele>
        <time>2017-02-09T12:56:55Z</time>
      </trkpt>
      <trkpt lat="46.10728" lon="4.5251">
        <ele>741</ele>
        <time>2017-02-09T12:56:56Z</time>
      </trkpt>
      <trkpt lat="46.10724" lon="4.52521">
        <ele>740</ele>
        <time>2017-02-09T12:57:02Z</time>
      </trkpt>
      <trkpt lat="46.10723" lon="4.52523">
        <ele>740</ele>
        <time>2017-02-09T12:57:03Z</time>
      </trkpt>
      <trkpt lat="46.10721" lon="4.52535">
        <ele>739</ele>
        <time>2017-02-09T12:57:10Z</time>
      </trkpt>
      <trkpt lat="46.10721" lon="4.52537">
        <ele>739</ele>
        <time>2017-02-09T12:57:11Z</time>
      </trkpt>
      <trkpt lat="46.10719" lon="4.52549">
        <ele>739</ele>
        <time>2017-02-09T12:57:18Z</time>
      </trkpt>
      <trkpt lat="46.10719" lon="4.52551">
        <ele>739</ele>
        <time>2017-02-09T12:57:19Z</time>
      </trkpt>
      <trkpt lat="46.10716" lon="4.52563">
        <ele>738</ele>
        <time>2017-02-09T12:57:26Z</time>
      </trkpt>
      <trkpt lat="46.10715" lon="4.52565">
        <ele>738</ele>
        <time>2017-02-09T12:57:27Z</time>
      </trkpt>
      <trkpt lat="46.10713" lon="4.52577">
        <ele>738</ele>
        <time>2017-02-09T12:57:35Z</time>
      </trkpt>
      <trkpt lat="46.10713" lon="4.52579">
        <ele>738</ele>
        <time>2017-02-09T12:57:36Z</time>
      </trkpt>
      <trkpt lat="46.10709" lon="4.5259">
        <ele>739</ele>
        <time>2017-02-09T12:57:44Z</time>
      </trkpt>
      <trkpt lat="46.10708" lon="4.52592">
        <ele>739</ele>
        <time>2017-02-09T12:57:45Z</time>
      </trkpt>
      <trkpt lat="46.10705" lon="4.52602">
        <ele>738</ele>
        <time>2017-02-09T12:57:51Z</time>
      </trkpt>
      <trkpt lat="46.10704" lon="4.52604">
        <ele>738</ele>
        <time>2017-02-09T12:57:52Z</time>
      </trkpt>
      <trkpt lat="46.10703" lon="4.52616">
        <ele>739</ele>
        <time>2017-02-09T12:57:58Z</time>
      </trkpt>
      <trkpt lat="46.10703" lon="4.52618">
        <ele>739</ele>
        <time>2017-02-09T12:57:59Z</time>
      </trkpt>
      <trkpt lat="46.107" lon="4.5263">
        <ele>739</ele>
        <time>2017-02-09T12:58:07Z</time>
      </trkpt>
      <trkpt lat="46.10699" lon="4.52631">
        <ele>738</ele>
        <time>2017-02-09T12:58:08Z</time>
      </trkpt>
      <trkpt lat="46.10694" lon="4.5264">
        <ele>738</ele>
        <time>2017-02-09T12:58:14Z</time>
      </trkpt>
      <trkpt lat="46.10693" lon="4.52641">
        <ele>738</ele>
        <time>2017-02-09T12:58:15Z</time>
      </trkpt>
      <trkpt lat="46.10691" lon="4.52652">
        <ele>737</ele>
        <time>2017-02-09T12:58:21Z</time>
      </trkpt>
      <trkpt lat="46.10692" lon="4.52654">
        <ele>737</ele>
        <time>2017-02-09T12:58:22Z</time>
      </trkpt>
      <trkpt lat="46.10692" lon="4.52665">
        <ele>737</ele>
        <time>2017-02-09T12:58:27Z</time>
      </trkpt>
      <trkpt lat="46.10691" lon="4.52667">
        <ele>741</ele>
        <time>2017-02-09T12:58:28Z</time>
      </trkpt>
      <trkpt lat="46.10686" lon="4.52675">
        <ele>739</ele>
        <time>2017-02-09T12:58:33Z</time>
      </trkpt>
      <trkpt lat="46.10685" lon="4.52678">
        <ele>740</ele>
        <time>2017-02-09T12:58:34Z</time>
      </trkpt>
      <trkpt lat="46.10682" lon="4.52688">
        <ele>741</ele>
        <time>2017-02-09T12:58:39Z</time>
      </trkpt>
      <trkpt lat="46.10681" lon="4.5269">
        <ele>741</ele>
        <time>2017-02-09T12:58:40Z</time>
      </trkpt>
      <trkpt lat="46.10679" lon="4.52701">
        <ele>742</ele>
        <time>2017-02-09T12:58:46Z</time>
      </trkpt>
      <trkpt lat="46.10679" lon="4.52703">
        <ele>742</ele>
        <time>2017-02-09T12:58:47Z</time>
      </trkpt>
      <trkpt lat="46.10673" lon="4.52711">
        <ele>743</ele>
        <time>2017-02-09T12:58:54Z</time>
      </trkpt>
      <trkpt lat="46.10672" lon="4.52712">
        <ele>743</ele>
        <time>2017-02-09T12:58:55Z</time>
      </trkpt>
      <trkpt lat="46.10665" lon="4.52715">
        <ele>731</ele>
        <time>2017-02-09T12:59:01Z</time>
      </trkpt>
      <trkpt lat="46.10664" lon="4.52715">
        <ele>731</ele>
        <time>2017-02-09T12:59:02Z</time>
      </trkpt>
      <trkpt lat="46.10655" lon="4.52717">
        <ele>731</ele>
        <time>2017-02-09T12:59:08Z</time>
      </trkpt>
      <trkpt lat="46.10654" lon="4.52717">
        <ele>731</ele>
        <time>2017-02-09T12:59:09Z</time>
      </trkpt>
      <trkpt lat="46.10645" lon="4.52718">
        <ele>731</ele>
        <time>2017-02-09T12:59:17Z</time>
      </trkpt>
      <trkpt lat="46.10644" lon="4.52718">
        <ele>731</ele>
        <time>2017-02-09T12:59:18Z</time>
      </trkpt>
      <trkpt lat="46.10636" lon="4.52715">
        <ele>730</ele>
        <time>2017-02-09T12:59:25Z</time>
      </trkpt>
      <trkpt lat="46.10635" lon="4.52715">
        <ele>730</ele>
        <time>2017-02-09T12:59:26Z</time>
      </trkpt>
      <trkpt lat="46.10627" lon="4.52716">
        <ele>729</ele>
        <time>2017-02-09T12:59:32Z</time>
      </trkpt>
      <trkpt lat="46.10625" lon="4.52717">
        <ele>729</ele>
        <time>2017-02-09T12:59:33Z</time>
      </trkpt>
      <trkpt lat="46.10618" lon="4.52717">
        <ele>729</ele>
        <time>2017-02-09T12:59:39Z</time>
      </trkpt>
      <trkpt lat="46.10616" lon="4.52717">
        <ele>729</ele>
        <time>2017-02-09T12:59:40Z</time>
      </trkpt>
      <trkpt lat="46.10609" lon="4.52711">
        <ele>728</ele>
        <time>2017-02-09T12:59:48Z</time>
      </trkpt>
      <trkpt lat="46.10608" lon="4.5271">
        <ele>728</ele>
        <time>2017-02-09T12:59:49Z</time>
      </trkpt>
      <trkpt lat="46.10599" lon="4.52707">
        <ele>727</ele>
        <time>2017-02-09T12:59:56Z</time>
      </trkpt>
      <trkpt lat="46.10598" lon="4.52707">
        <ele>727</ele>
        <time>2017-02-09T12:59:57Z</time>
      </trkpt>
      <trkpt lat="46.1059" lon="4.52704">
        <ele>726</ele>
        <time>2017-02-09T13:00:02Z</time>
      </trkpt>
      <trkpt lat="46.10589" lon="4.52703">
        <ele>726</ele>
        <time>2017-02-09T13:00:03Z</time>
      </trkpt>
      <trkpt lat="46.10582" lon="4.52697">
        <ele>727</ele>
        <time>2017-02-09T13:00:13Z</time>
      </trkpt>
      <trkpt lat="46.10582" lon="4.52695">
        <ele>726</ele>
        <time>2017-02-09T13:00:14Z</time>
      </trkpt>
      <trkpt lat="46.10577" lon="4.52685">
        <ele>724</ele>
        <time>2017-02-09T13:00:22Z</time>
      </trkpt>
      <trkpt lat="46.10576" lon="4.52684">
        <ele>724</ele>
        <time>2017-02-09T13:00:23Z</time>
      </trkpt>
      <trkpt lat="46.10571" lon="4.52673">
        <ele>722</ele>
        <time>2017-02-09T13:00:30Z</time>
      </trkpt>
      <trkpt lat="46.10571" lon="4.52671">
        <ele>722</ele>
        <time>2017-02-09T13:00:31Z</time>
      </trkpt>
      <trkpt lat="46.10566" lon="4.52662">
        <ele>715</ele>
        <time>2017-02-09T13:00:38Z</time>
      </trkpt>
      <trkpt lat="46.10566" lon="4.52661">
        <ele>715</ele>
        <time>2017-02-09T13:00:39Z</time>
      </trkpt>
      <trkpt lat="46.1056" lon="4.52651">
        <ele>715</ele>
        <time>2017-02-09T13:00:47Z</time>
      </trkpt>
      <trkpt lat="46.10559" lon="4.5265">
        <ele>715</ele>
        <time>2017-02-09T13:00:48Z</time>
      </trkpt>
      <trkpt lat="46.10551" lon="4.52648">
        <ele>715</ele>
        <time>2017-02-09T13:00:54Z</time>
      </trkpt>
      <trkpt lat="46.1055" lon="4.52648">
        <ele>715</ele>
        <time>2017-02-09T13:00:55Z</time>
      </trkpt>
      <trkpt lat="46.10542" lon="4.52644">
        <ele>715</ele>
        <time>2017-02-09T13:01:01Z</time>
      </trkpt>
      <trkpt lat="46.10541" lon="4.52643">
        <ele>715</ele>
        <time>2017-02-09T13:01:02Z</time>
      </trkpt>
      <trkpt lat="46.10533" lon="4.52638">
        <ele>715</ele>
        <time>2017-02-09T13:01:08Z</time>
      </trkpt>
      <trkpt lat="46.10533" lon="4.52636">
        <ele>715</ele>
        <time>2017-02-09T13:01:09Z</time>
      </trkpt>
      <trkpt lat="46.10526" lon="4.52629">
        <ele>715</ele>
        <time>2017-02-09T13:01:15Z</time>
      </trkpt>
      <trkpt lat="46.10525" lon="4.52628">
        <ele>715</ele>
        <time>2017-02-09T13:01:16Z</time>
      </trkpt>
      <trkpt lat="46.1052" lon="4.52618">
        <ele>714</ele>
        <time>2017-02-09T13:01:24Z</time>
      </trkpt>
      <trkpt lat="46.10518" lon="4.52618">
        <ele>714</ele>
        <time>2017-02-09T13:01:25Z</time>
      </trkpt>
      <trkpt lat="46.10513" lon="4.52608">
        <ele>712</ele>
        <time>2017-02-09T13:01:42Z</time>
      </trkpt>
      <trkpt lat="46.10512" lon="4.52606">
        <ele>712</ele>
        <time>2017-02-09T13:01:43Z</time>
      </trkpt>
      <trkpt lat="46.10506" lon="4.52597">
        <ele>711</ele>
        <time>2017-02-09T13:01:48Z</time>
      </trkpt>
      <trkpt lat="46.10505" lon="4.52596">
        <ele>711</ele>
        <time>2017-02-09T13:01:49Z</time>
      </trkpt>
      <trkpt lat="46.10499" lon="4.52587">
        <ele>711</ele>
        <time>2017-02-09T13:01:55Z</time>
      </trkpt>
      <trkpt lat="46.10499" lon="4.52586">
        <ele>710</ele>
        <time>2017-02-09T13:01:56Z</time>
      </trkpt>
      <trkpt lat="46.10493" lon="4.52577">
        <ele>706</ele>
        <time>2017-02-09T13:02:04Z</time>
      </trkpt>
      <trkpt lat="46.10492" lon="4.52577">
        <ele>706</ele>
        <time>2017-02-09T13:02:05Z</time>
      </trkpt>
      <trkpt lat="46.10485" lon="4.52573">
        <ele>704</ele>
        <time>2017-02-09T13:02:10Z</time>
      </trkpt>
      <trkpt lat="46.10483" lon="4.52572">
        <ele>704</ele>
        <time>2017-02-09T13:02:11Z</time>
      </trkpt>
      <trkpt lat="46.10476" lon="4.52568">
        <ele>703</ele>
        <time>2017-02-09T13:02:16Z</time>
      </trkpt>
      <trkpt lat="46.10475" lon="4.52567">
        <ele>702</ele>
        <time>2017-02-09T13:02:17Z</time>
      </trkpt>
      <trkpt lat="46.10468" lon="4.52562">
        <ele>702</ele>
        <time>2017-02-09T13:02:22Z</time>
      </trkpt>
      <trkpt lat="46.10466" lon="4.52561">
        <ele>702</ele>
        <time>2017-02-09T13:02:23Z</time>
      </trkpt>
      <trkpt lat="46.10459" lon="4.52558">
        <ele>701</ele>
        <time>2017-02-09T13:02:28Z</time>
      </trkpt>
      <trkpt lat="46.10457" lon="4.52557">
        <ele>701</ele>
        <time>2017-02-09T13:02:29Z</time>
      </trkpt>
      <trkpt lat="46.10449" lon="4.52552">
        <ele>701</ele>
        <time>2017-02-09T13:02:36Z</time>
      </trkpt>
      <trkpt lat="46.10448" lon="4.52551">
        <ele>701</ele>
        <time>2017-02-09T13:02:37Z</time>
      </trkpt>
      <trkpt lat="46.10441" lon="4.52547">
        <ele>700</ele>
        <time>2017-02-09T13:02:44Z</time>
      </trkpt>
      <trkpt lat="46.10439" lon="4.52546">
        <ele>700</ele>
        <time>2017-02-09T13:02:45Z</time>
      </trkpt>
      <trkpt lat="46.10431" lon="4.52545">
        <ele>700</ele>
        <time>2017-02-09T13:02:52Z</time>
      </trkpt>
      <trkpt lat="46.1043" lon="4.52545">
        <ele>700</ele>
        <time>2017-02-09T13:02:53Z</time>
      </trkpt>
      <trkpt lat="46.10422" lon="4.5254">
        <ele>699</ele>
        <time>2017-02-09T13:03:02Z</time>
      </trkpt>
      <trkpt lat="46.10421" lon="4.52539">
        <ele>699</ele>
        <time>2017-02-09T13:03:03Z</time>
      </trkpt>
      <trkpt lat="46.10413" lon="4.52534">
        <ele>705</ele>
        <time>2017-02-09T13:03:09Z</time>
      </trkpt>
      <trkpt lat="46.10412" lon="4.52533">
        <ele>704</ele>
        <time>2017-02-09T13:03:10Z</time>
      </trkpt>
      <trkpt lat="46.10405" lon="4.52526">
        <ele>703</ele>
        <time>2017-02-09T13:03:21Z</time>
      </trkpt>
      <trkpt lat="46.10404" lon="4.52526">
        <ele>703</ele>
        <time>2017-02-09T13:03:22Z</time>
      </trkpt>
      <trkpt lat="46.10397" lon="4.52518">
        <ele>702</ele>
        <time>2017-02-09T13:03:29Z</time>
      </trkpt>
      <trkpt lat="46.10397" lon="4.52517">
        <ele>702</ele>
        <time>2017-02-09T13:03:30Z</time>
      </trkpt>
      <trkpt lat="46.10393" lon="4.52506">
        <ele>701</ele>
        <time>2017-02-09T13:03:39Z</time>
      </trkpt>
      <trkpt lat="46.10391" lon="4.52504">
        <ele>701</ele>
        <time>2017-02-09T13:03:40Z</time>
      </trkpt>
      <trkpt lat="46.10389" lon="4.52493">
        <ele>687</ele>
        <time>2017-02-09T13:03:45Z</time>
      </trkpt>
      <trkpt lat="46.10388" lon="4.52491">
        <ele>687</ele>
        <time>2017-02-09T13:03:46Z</time>
      </trkpt>
      <trkpt lat="46.10382" lon="4.52484">
        <ele>687</ele>
        <time>2017-02-09T13:03:52Z</time>
      </trkpt>
      <trkpt lat="46.10381" lon="4.52482">
        <ele>687</ele>
        <time>2017-02-09T13:03:53Z</time>
      </trkpt>
      <trkpt lat="46.10375" lon="4.52474">
        <ele>687</ele>
        <time>2017-02-09T13:03:59Z</time>
      </trkpt>
      <trkpt lat="46.10373" lon="4.52473">
        <ele>687</ele>
        <time>2017-02-09T13:04:00Z</time>
      </trkpt>
      <trkpt lat="46.10367" lon="4.52465">
        <ele>687</ele>
        <time>2017-02-09T13:04:05Z</time>
      </trkpt>
      <trkpt lat="46.10366" lon="4.52463">
        <ele>687</ele>
        <time>2017-02-09T13:04:06Z</time>
      </trkpt>
      <trkpt lat="46.10363" lon="4.52453">
        <ele>686</ele>
        <time>2017-02-09T13:04:12Z</time>
      </trkpt>
      <trkpt lat="46.10362" lon="4.52452">
        <ele>686</ele>
        <time>2017-02-09T13:04:13Z</time>
      </trkpt>
      <trkpt lat="46.10356" lon="4.52444">
        <ele>685</ele>
        <time>2017-02-09T13:04:20Z</time>
      </trkpt>
      <trkpt lat="46.10355" lon="4.52443">
        <ele>685</ele>
        <time>2017-02-09T13:04:21Z</time>
      </trkpt>
      <trkpt lat="46.10348" lon="4.52435">
        <ele>684</ele>
        <time>2017-02-09T13:04:30Z</time>
      </trkpt>
      <trkpt lat="46.10347" lon="4.52434">
        <ele>684</ele>
        <time>2017-02-09T13:04:31Z</time>
      </trkpt>
      <trkpt lat="46.10339" lon="4.5243">
        <ele>683</ele>
        <time>2017-02-09T13:04:36Z</time>
      </trkpt>
      <trkpt lat="46.10338" lon="4.52428">
        <ele>683</ele>
        <time>2017-02-09T13:04:37Z</time>
      </trkpt>
      <trkpt lat="46.10332" lon="4.52421">
        <ele>685</ele>
        <time>2017-02-09T13:04:43Z</time>
      </trkpt>
      <trkpt lat="46.10331" lon="4.5242">
        <ele>685</ele>
        <time>2017-02-09T13:04:44Z</time>
      </trkpt>
      <trkpt lat="46.10324" lon="4.52413">
        <ele>681</ele>
        <time>2017-02-09T13:04:50Z</time>
      </trkpt>
      <trkpt lat="46.10323" lon="4.52412">
        <ele>681</ele>
        <time>2017-02-09T13:04:51Z</time>
      </trkpt>
      <trkpt lat="46.10319" lon="4.52402">
        <ele>681</ele>
        <time>2017-02-09T13:04:57Z</time>
      </trkpt>
      <trkpt lat="46.10318" lon="4.52401">
        <ele>681</ele>
        <time>2017-02-09T13:04:58Z</time>
      </trkpt>
      <trkpt lat="46.10314" lon="4.52391">
        <ele>680</ele>
        <time>2017-02-09T13:05:04Z</time>
      </trkpt>
      <trkpt lat="46.10313" lon="4.5239">
        <ele>680</ele>
        <time>2017-02-09T13:05:05Z</time>
      </trkpt>
      <trkpt lat="46.10307" lon="4.5238">
        <ele>680</ele>
        <time>2017-02-09T13:05:12Z</time>
      </trkpt>
      <trkpt lat="46.10306" lon="4.52379">
        <ele>680</ele>
        <time>2017-02-09T13:05:13Z</time>
      </trkpt>
      <trkpt lat="46.10299" lon="4.52372">
        <ele>679</ele>
        <time>2017-02-09T13:05:18Z</time>
      </trkpt>
      <trkpt lat="46.10298" lon="4.52371">
        <ele>679</ele>
        <time>2017-02-09T13:05:19Z</time>
      </trkpt>
      <trkpt lat="46.10291" lon="4.52364">
        <ele>679</ele>
        <time>2017-02-09T13:05:26Z</time>
      </trkpt>
      <trkpt lat="46.1029" lon="4.52364">
        <ele>680</ele>
        <time>2017-02-09T13:05:27Z</time>
      </trkpt>
      <trkpt lat="46.10284" lon="4.52355">
        <ele>679</ele>
        <time>2017-02-09T13:05:34Z</time>
      </trkpt>
      <trkpt lat="46.10283" lon="4.52354">
        <ele>679</ele>
        <time>2017-02-09T13:05:35Z</time>
      </trkpt>
      <trkpt lat="46.10277" lon="4.52345">
        <ele>679</ele>
        <time>2017-02-09T13:05:42Z</time>
      </trkpt>
      <trkpt lat="46.10275" lon="4.52344">
        <ele>679</ele>
        <time>2017-02-09T13:05:43Z</time>
      </trkpt>
      <trkpt lat="46.10271" lon="4.52334">
        <ele>679</ele>
        <time>2017-02-09T13:05:51Z</time>
      </trkpt>
      <trkpt lat="46.1027" lon="4.52333">
        <ele>669</ele>
        <time>2017-02-09T13:05:52Z</time>
      </trkpt>
      <trkpt lat="46.10266" lon="4.52322">
        <ele>669</ele>
        <time>2017-02-09T13:06:00Z</time>
      </trkpt>
      <trkpt lat="46.10266" lon="4.5232">
        <ele>669</ele>
        <time>2017-02-09T13:06:01Z</time>
      </trkpt>
      <trkpt lat="46.10264" lon="4.52309">
        <ele>666</ele>
        <time>2017-02-09T13:06:09Z</time>
      </trkpt>
      <trkpt lat="46.10264" lon="4.52308">
        <ele>666</ele>
        <time>2017-02-09T13:06:10Z</time>
      </trkpt>
      <trkpt lat="46.10261" lon="4.52297">
        <ele>665</ele>
        <time>2017-02-09T13:06:16Z</time>
      </trkpt>
      <trkpt lat="46.10259" lon="4.52296">
        <ele>664</ele>
        <time>2017-02-09T13:06:17Z</time>
      </trkpt>
      <trkpt lat="46.10254" lon="4.52289">
        <ele>664</ele>
        <time>2017-02-09T13:06:21Z</time>
      </trkpt>
      <trkpt lat="46.10252" lon="4.52287">
        <ele>664</ele>
        <time>2017-02-09T13:06:22Z</time>
      </trkpt>
      <trkpt lat="46.10246" lon="4.52279">
        <ele>680</ele>
        <time>2017-02-09T13:06:27Z</time>
      </trkpt>
      <trkpt lat="46.10245" lon="4.52278">
        <ele>680</ele>
        <time>2017-02-09T13:06:28Z</time>
      </trkpt>
      <trkpt lat="46.1024" lon="4.52267">
        <ele>677</ele>
        <time>2017-02-09T13:06:34Z</time>
      </trkpt>
      <trkpt lat="46.1024" lon="4.52266">
        <ele>677</ele>
        <time>2017-02-09T13:06:35Z</time>
      </trkpt>
      <trkpt lat="46.10235" lon="4.52254">
        <ele>676</ele>
        <time>2017-02-09T13:06:41Z</time>
      </trkpt>
      <trkpt lat="46.10234" lon="4.52252">
        <ele>676</ele>
        <time>2017-02-09T13:06:42Z</time>
      </trkpt>
      <trkpt lat="46.1023" lon="4.52242">
        <ele>671</ele>
        <time>2017-02-09T13:06:48Z</time>
      </trkpt>
      <trkpt lat="46.1023" lon="4.52241">
        <ele>671</ele>
        <time>2017-02-09T13:06:49Z</time>
      </trkpt>
      <trkpt lat="46.10231" lon="4.52229">
        <ele>671</ele>
        <time>2017-02-09T13:06:56Z</time>
      </trkpt>
      <trkpt lat="46.10231" lon="4.52227">
        <ele>671</ele>
        <time>2017-02-09T13:06:57Z</time>
      </trkpt>
      <trkpt lat="46.10229" lon="4.52215">
        <ele>671</ele>
        <time>2017-02-09T13:07:04Z</time>
      </trkpt>
      <trkpt lat="46.10229" lon="4.52213">
        <ele>671</ele>
        <time>2017-02-09T13:07:05Z</time>
      </trkpt>
      <trkpt lat="46.10224" lon="4.52204">
        <ele>671</ele>
        <time>2017-02-09T13:07:10Z</time>
      </trkpt>
      <trkpt lat="46.10222" lon="4.52203">
        <ele>672</ele>
        <time>2017-02-09T13:07:11Z</time>
      </trkpt>
      <trkpt lat="46.10214" lon="4.52197">
        <ele>673</ele>
        <time>2017-02-09T13:07:15Z</time>
      </trkpt>
      <trkpt lat="46.10213" lon="4.52195">
        <ele>673</ele>
        <time>2017-02-09T13:07:16Z</time>
      </trkpt>
      <trkpt lat="46.10207" lon="4.52188">
        <ele>674</ele>
        <time>2017-02-09T13:07:21Z</time>
      </trkpt>
      <trkpt lat="46.10206" lon="4.52187">
        <ele>674</ele>
        <time>2017-02-09T13:07:22Z</time>
      </trkpt>
      <trkpt lat="46.10203" lon="4.52175">
        <ele>674</ele>
        <time>2017-02-09T13:07:29Z</time>
      </trkpt>
      <trkpt lat="46.10202" lon="4.52174">
        <ele>674</ele>
        <time>2017-02-09T13:07:30Z</time>
      </trkpt>
      <trkpt lat="46.10198" lon="4.52163">
        <ele>667</ele>
        <time>2017-02-09T13:07:37Z</time>
      </trkpt>
      <trkpt lat="46.10198" lon="4.52161">
        <ele>667</ele>
        <time>2017-02-09T13:07:38Z</time>
      </trkpt>
      <trkpt lat="46.10192" lon="4.52154">
        <ele>668</ele>
        <time>2017-02-09T13:07:43Z</time>
      </trkpt>
      <trkpt lat="46.10191" lon="4.52152">
        <ele>668</ele>
        <time>2017-02-09T13:07:44Z</time>
      </trkpt>
      <trkpt lat="46.10185" lon="4.52145">
        <ele>668</ele>
        <time>2017-02-09T13:07:50Z</time>
      </trkpt>
      <trkpt lat="46.10184" lon="4.52143">
        <ele>668</ele>
        <time>2017-02-09T13:07:51Z</time>
      </trkpt>
      <trkpt lat="46.10178" lon="4.52136">
        <ele>668</ele>
        <time>2017-02-09T13:07:56Z</time>
      </trkpt>
      <trkpt lat="46.10176" lon="4.52135">
        <ele>667</ele>
        <time>2017-02-09T13:07:57Z</time>
      </trkpt>
      <trkpt lat="46.10173" lon="4.52123">
        <ele>666</ele>
        <time>2017-02-09T13:08:04Z</time>
      </trkpt>
      <trkpt lat="46.10173" lon="4.52122">
        <ele>665</ele>
        <time>2017-02-09T13:08:05Z</time>
      </trkpt>
      <trkpt lat="46.10168" lon="4.52111">
        <ele>665</ele>
        <time>2017-02-09T13:08:11Z</time>
      </trkpt>
      <trkpt lat="46.10167" lon="4.5211">
        <ele>664</ele>
        <time>2017-02-09T13:08:12Z</time>
      </trkpt>
      <trkpt lat="46.10162" lon="4.52101">
        <ele>675</ele>
        <time>2017-02-09T13:08:17Z</time>
      </trkpt>
      <trkpt lat="46.10161" lon="4.52099">
        <ele>675</ele>
        <time>2017-02-09T13:08:18Z</time>
      </trkpt>
      <trkpt lat="46.10155" lon="4.52093">
        <ele>674</ele>
        <time>2017-02-09T13:08:24Z</time>
      </trkpt>
      <trkpt lat="46.10154" lon="4.52092">
        <ele>674</ele>
        <time>2017-02-09T13:08:25Z</time>
      </trkpt>
      <trkpt lat="46.1015" lon="4.5208">
        <ele>666</ele>
        <time>2017-02-09T13:08:32Z</time>
      </trkpt>
      <trkpt lat="46.10149" lon="4.52079">
        <ele>666</ele>
        <time>2017-02-09T13:08:33Z</time>
      </trkpt>
      <trkpt lat="46.10145" lon="4.52069">
        <ele>666</ele>
        <time>2017-02-09T13:08:39Z</time>
      </trkpt>
      <trkpt lat="46.10144" lon="4.52067">
        <ele>666</ele>
        <time>2017-02-09T13:08:40Z</time>
      </trkpt>
      <trkpt lat="46.10137" lon="4.5206">
        <ele>667</ele>
        <time>2017-02-09T13:08:48Z</time>
      </trkpt>
      <trkpt lat="46.10136" lon="4.52059">
        <ele>667</ele>
        <time>2017-02-09T13:08:49Z</time>
      </trkpt>
      <trkpt lat="46.1013" lon="4.52051">
        <ele>667</ele>
        <time>2017-02-09T13:08:55Z</time>
      </trkpt>
      <trkpt lat="46.10129" lon="4.5205">
        <ele>667</ele>
        <time>2017-02-09T13:08:56Z</time>
      </trkpt>
      <trkpt lat="46.10126" lon="4.52039">
        <ele>666</ele>
        <time>2017-02-09T13:09:06Z</time>
      </trkpt>
      <trkpt lat="46.10125" lon="4.52037">
        <ele>666</ele>
        <time>2017-02-09T13:09:07Z</time>
      </trkpt>
      <trkpt lat="46.1012" lon="4.5203">
        <ele>666</ele>
        <time>2017-02-09T13:09:12Z</time>
      </trkpt>
      <trkpt lat="46.10118" lon="4.52029">
        <ele>666</ele>
        <time>2017-02-09T13:09:13Z</time>
      </trkpt>
      <trkpt lat="46.10111" lon="4.52023">
        <ele>666</ele>
        <time>2017-02-09T13:09:17Z</time>
      </trkpt>
      <trkpt lat="46.1011" lon="4.52021">
        <ele>666</ele>
        <time>2017-02-09T13:09:18Z</time>
      </trkpt>
      <trkpt lat="46.10105" lon="4.52012">
        <ele>667</ele>
        <time>2017-02-09T13:09:23Z</time>
      </trkpt>
      <trkpt lat="46.10104" lon="4.5201">
        <ele>667</ele>
        <time>2017-02-09T13:09:24Z</time>
      </trkpt>
      <trkpt lat="46.10099" lon="4.52002">
        <ele>668</ele>
        <time>2017-02-09T13:09:29Z</time>
      </trkpt>
      <trkpt lat="46.10098" lon="4.52001">
        <ele>668</ele>
        <time>2017-02-09T13:09:30Z</time>
      </trkpt>
      <trkpt lat="46.10092" lon="4.5199">
        <ele>662</ele>
        <time>2017-02-09T13:09:37Z</time>
      </trkpt>
      <trkpt lat="46.10092" lon="4.51989">
        <ele>661</ele>
        <time>2017-02-09T13:09:38Z</time>
      </trkpt>
      <trkpt lat="46.10092" lon="4.51977">
        <ele>658</ele>
        <time>2017-02-09T13:09:44Z</time>
      </trkpt>
      <trkpt lat="46.10092" lon="4.51976">
        <ele>657</ele>
        <time>2017-02-09T13:09:45Z</time>
      </trkpt>
      <trkpt lat="46.10089" lon="4.51964">
        <ele>656</ele>
        <time>2017-02-09T13:09:52Z</time>
      </trkpt>
      <trkpt lat="46.10089" lon="4.51962">
        <ele>655</ele>
        <time>2017-02-09T13:09:53Z</time>
      </trkpt>
      <trkpt lat="46.1009" lon="4.51951">
        <ele>654</ele>
        <time>2017-02-09T13:10:00Z</time>
      </trkpt>
      <trkpt lat="46.10091" lon="4.5195">
        <ele>654</ele>
        <time>2017-02-09T13:10:01Z</time>
      </trkpt>
      <trkpt lat="46.10093" lon="4.51939">
        <ele>654</ele>
        <time>2017-02-09T13:10:07Z</time>
      </trkpt>
      <trkpt lat="46.10094" lon="4.51938">
        <ele>654</ele>
        <time>2017-02-09T13:10:08Z</time>
      </trkpt>
      <trkpt lat="46.10097" lon="4.51926">
        <ele>654</ele>
        <time>2017-02-09T13:10:15Z</time>
      </trkpt>
      <trkpt lat="46.10097" lon="4.51924">
        <ele>654</ele>
        <time>2017-02-09T13:10:16Z</time>
      </trkpt>
      <trkpt lat="46.10095" lon="4.51912">
        <ele>650</ele>
        <time>2017-02-09T13:10:22Z</time>
      </trkpt>
      <trkpt lat="46.10095" lon="4.5191">
        <ele>649</ele>
        <time>2017-02-09T13:10:23Z</time>
      </trkpt>
      <trkpt lat="46.10091" lon="4.519">
        <ele>647</ele>
        <time>2017-02-09T13:10:31Z</time>
      </trkpt>
      <trkpt lat="46.1009" lon="4.51899">
        <ele>647</ele>
        <time>2017-02-09T13:10:32Z</time>
      </trkpt>
      <trkpt lat="46.10086" lon="4.51888">
        <ele>644</ele>
        <time>2017-02-09T13:10:38Z</time>
      </trkpt>
      <trkpt lat="46.10086" lon="4.51885">
        <ele>644</ele>
        <time>2017-02-09T13:10:39Z</time>
      </trkpt>
      <trkpt lat="46.10082" lon="4.51875">
        <ele>662</ele>
        <time>2017-02-09T13:10:44Z</time>
      </trkpt>
      <trkpt lat="46.10081" lon="4.51872">
        <ele>661</ele>
        <time>2017-02-09T13:10:45Z</time>
      </trkpt>
      <trkpt lat="46.10076" lon="4.51863">
        <ele>660</ele>
        <time>2017-02-09T13:10:50Z</time>
      </trkpt>
      <trkpt lat="46.10075" lon="4.51861">
        <ele>660</ele>
        <time>2017-02-09T13:10:51Z</time>
      </trkpt>
      <trkpt lat="46.10071" lon="4.51851">
        <ele>658</ele>
        <time>2017-02-09T13:10:59Z</time>
      </trkpt>
      <trkpt lat="46.10069" lon="4.5185">
        <ele>658</ele>
        <time>2017-02-09T13:11:00Z</time>
      </trkpt>
      <trkpt lat="46.10062" lon="4.51843">
        <ele>659</ele>
        <time>2017-02-09T13:11:06Z</time>
      </trkpt>
      <trkpt lat="46.10061" lon="4.51841">
        <ele>659</ele>
        <time>2017-02-09T13:11:07Z</time>
      </trkpt>
      <trkpt lat="46.10055" lon="4.51834">
        <ele>661</ele>
        <time>2017-02-09T13:11:12Z</time>
      </trkpt>
      <trkpt lat="46.10054" lon="4.51832">
        <ele>648</ele>
        <time>2017-02-09T13:11:13Z</time>
      </trkpt>
      <trkpt lat="46.10048" lon="4.51825">
        <ele>649</ele>
        <time>2017-02-09T13:11:18Z</time>
      </trkpt>
      <trkpt lat="46.10046" lon="4.51824">
        <ele>649</ele>
        <time>2017-02-09T13:11:19Z</time>
      </trkpt>
      <trkpt lat="46.1004" lon="4.51817">
        <ele>650</ele>
        <time>2017-02-09T13:11:25Z</time>
      </trkpt>
      <trkpt lat="46.10039" lon="4.51816">
        <ele>650</ele>
        <time>2017-02-09T13:11:26Z</time>
      </trkpt>
      <trkpt lat="46.10034" lon="4.51806">
        <ele>649</ele>
        <time>2017-02-09T13:11:34Z</time>
      </trkpt>
      <trkpt lat="46.10033" lon="4.51805">
        <ele>649</ele>
        <time>2017-02-09T13:11:35Z</time>
      </trkpt>
      <trkpt lat="46.10028" lon="4.51795">
        <ele>648</ele>
        <time>2017-02-09T13:11:43Z</time>
      </trkpt>
      <trkpt lat="46.10028" lon="4.51794">
        <ele>648</ele>
        <time>2017-02-09T13:11:44Z</time>
      </trkpt>
      <trkpt lat="46.10022" lon="4.51786">
        <ele>647</ele>
        <time>2017-02-09T13:11:51Z</time>
      </trkpt>
      <trkpt lat="46.10022" lon="4.51784">
        <ele>647</ele>
        <time>2017-02-09T13:11:52Z</time>
      </trkpt>
      <trkpt lat="46.10019" lon="4.51773">
        <ele>645</ele>
        <time>2017-02-09T13:12:01Z</time>
      </trkpt>
      <trkpt lat="46.10018" lon="4.51772">
        <ele>645</ele>
        <time>2017-02-09T13:12:02Z</time>
      </trkpt>
      <trkpt lat="46.10013" lon="4.51763">
        <ele>644</ele>
        <time>2017-02-09T13:12:11Z</time>
      </trkpt>
      <trkpt lat="46.10013" lon="4.51761">
        <ele>644</ele>
        <time>2017-02-09T13:12:12Z</time>
      </trkpt>
      <trkpt lat="46.10008" lon="4.51754">
        <ele>643</ele>
        <time>2017-02-09T13:12:18Z</time>
      </trkpt>
      <trkpt lat="46.10007" lon="4.51752">
        <ele>643</ele>
        <time>2017-02-09T13:12:19Z</time>
      </trkpt>
      <trkpt lat="46.1" lon="4.51744">
        <ele>641</ele>
        <time>2017-02-09T13:12:25Z</time>
      </trkpt>
      <trkpt lat="46.09999" lon="4.51742">
        <ele>640</ele>
        <time>2017-02-09T13:12:26Z</time>
      </trkpt>
      <trkpt lat="46.09992" lon="4.51734">
        <ele>639</ele>
        <time>2017-02-09T13:12:31Z</time>
      </trkpt>
      <trkpt lat="46.09991" lon="4.51733">
        <ele>639</ele>
        <time>2017-02-09T13:12:32Z</time>
      </trkpt>
      <trkpt lat="46.0999" lon="4.51721">
        <ele>637</ele>
        <time>2017-02-09T13:12:39Z</time>
      </trkpt>
      <trkpt lat="46.09989" lon="4.5172">
        <ele>636</ele>
        <time>2017-02-09T13:12:40Z</time>
      </trkpt>
      <trkpt lat="46.09986" lon="4.51708">
        <ele>634</ele>
        <time>2017-02-09T13:12:49Z</time>
      </trkpt>
      <trkpt lat="46.09986" lon="4.51706">
        <ele>633</ele>
        <time>2017-02-09T13:12:50Z</time>
      </trkpt>
      <trkpt lat="46.09985" lon="4.51694">
        <ele>630</ele>
        <time>2017-02-09T13:12:58Z</time>
      </trkpt>
      <trkpt lat="46.09985" lon="4.51692">
        <ele>630</ele>
        <time>2017-02-09T13:12:59Z</time>
      </trkpt>
      <trkpt lat="46.09981" lon="4.51682">
        <ele>628</ele>
        <time>2017-02-09T13:13:06Z</time>
      </trkpt>
      <trkpt lat="46.0998" lon="4.5168">
        <ele>628</ele>
        <time>2017-02-09T13:13:07Z</time>
      </trkpt>
      <trkpt lat="46.09978" lon="4.51669">
        <ele>627</ele>
        <time>2017-02-09T13:13:14Z</time>
      </trkpt>
      <trkpt lat="46.09977" lon="4.51668">
        <ele>627</ele>
        <time>2017-02-09T13:13:15Z</time>
      </trkpt>
      <trkpt lat="46.09971" lon="4.51658">
        <ele>615</ele>
        <time>2017-02-09T13:13:21Z</time>
      </trkpt>
      <trkpt lat="46.09971" lon="4.51657">
        <ele>615</ele>
        <time>2017-02-09T13:13:22Z</time>
      </trkpt>
      <trkpt lat="46.09964" lon="4.5165">
        <ele>616</ele>
        <time>2017-02-09T13:13:27Z</time>
      </trkpt>
      <trkpt lat="46.09962" lon="4.51649">
        <ele>616</ele>
        <time>2017-02-09T13:13:28Z</time>
      </trkpt>
      <trkpt lat="46.09953" lon="4.51644">
        <ele>617</ele>
        <time>2017-02-09T13:13:32Z</time>
      </trkpt>
      <trkpt lat="46.09951" lon="4.51643">
        <ele>618</ele>
        <time>2017-02-09T13:13:33Z</time>
      </trkpt>
      <trkpt lat="46.09944" lon="4.5164">
        <ele>618</ele>
        <time>2017-02-09T13:13:37Z</time>
      </trkpt>
      <trkpt lat="46.09942" lon="4.51639">
        <ele>619</ele>
        <time>2017-02-09T13:13:38Z</time>
      </trkpt>
      <trkpt lat="46.09934" lon="4.51635">
        <ele>619</ele>
        <time>2017-02-09T13:13:43Z</time>
      </trkpt>
      <trkpt lat="46.09933" lon="4.51635">
        <ele>619</ele>
        <time>2017-02-09T13:13:44Z</time>
      </trkpt>
      <trkpt lat="46.09924" lon="4.51631">
        <ele>619</ele>
        <time>2017-02-09T13:13:49Z</time>
      </trkpt>
      <trkpt lat="46.09922" lon="4.5163">
        <ele>619</ele>
        <time>2017-02-09T13:13:50Z</time>
      </trkpt>
      <trkpt lat="46.09915" lon="4.51626">
        <ele>626</ele>
        <time>2017-02-09T13:13:55Z</time>
      </trkpt>
      <trkpt lat="46.09913" lon="4.51625">
        <ele>626</ele>
        <time>2017-02-09T13:13:56Z</time>
      </trkpt>
      <trkpt lat="46.09905" lon="4.51622">
        <ele>625</ele>
        <time>2017-02-09T13:14:02Z</time>
      </trkpt>
      <trkpt lat="46.09904" lon="4.51622">
        <ele>625</ele>
        <time>2017-02-09T13:14:03Z</time>
      </trkpt>
      <trkpt lat="46.09896" lon="4.51619">
        <ele>625</ele>
        <time>2017-02-09T13:14:09Z</time>
      </trkpt>
      <trkpt lat="46.09894" lon="4.51618">
        <ele>625</ele>
        <time>2017-02-09T13:14:10Z</time>
      </trkpt>
      <trkpt lat="46.09886" lon="4.51614">
        <ele>624</ele>
        <time>2017-02-09T13:14:15Z</time>
      </trkpt>
      <trkpt lat="46.09885" lon="4.51613">
        <ele>624</ele>
        <time>2017-02-09T13:14:16Z</time>
      </trkpt>
      <trkpt lat="46.09877" lon="4.51611">
        <ele>624</ele>
        <time>2017-02-09T13:14:21Z</time>
      </trkpt>
      <trkpt lat="46.09875" lon="4.51611">
        <ele>624</ele>
        <time>2017-02-09T13:14:22Z</time>
      </trkpt>
      <trkpt lat="46.09868" lon="4.5161">
        <ele>624</ele>
        <time>2017-02-09T13:14:28Z</time>
      </trkpt>
      <trkpt lat="46.09866" lon="4.5161">
        <ele>624</ele>
        <time>2017-02-09T13:14:29Z</time>
      </trkpt>
      <trkpt lat="46.09858" lon="4.51613">
        <ele>625</ele>
        <time>2017-02-09T13:14:37Z</time>
      </trkpt>
      <trkpt lat="46.09857" lon="4.51613">
        <ele>624</ele>
        <time>2017-02-09T13:14:38Z</time>
      </trkpt>
      <trkpt lat="46.09849" lon="4.51614">
        <ele>625</ele>
        <time>2017-02-09T13:14:44Z</time>
      </trkpt>
      <trkpt lat="46.09847" lon="4.51614">
        <ele>625</ele>
        <time>2017-02-09T13:14:45Z</time>
      </trkpt>
      <trkpt lat="46.09839" lon="4.51616">
        <ele>625</ele>
        <time>2017-02-09T13:14:51Z</time>
      </trkpt>
      <trkpt lat="46.09838" lon="4.51617">
        <ele>625</ele>
        <time>2017-02-09T13:14:52Z</time>
      </trkpt>
      <trkpt lat="46.0983" lon="4.51622">
        <ele>619</ele>
        <time>2017-02-09T13:14:59Z</time>
      </trkpt>
      <trkpt lat="46.09828" lon="4.51622">
        <ele>619</ele>
        <time>2017-02-09T13:15:00Z</time>
      </trkpt>
      <trkpt lat="46.0982" lon="4.51627">
        <ele>619</ele>
        <time>2017-02-09T13:15:07Z</time>
      </trkpt>
      <trkpt lat="46.09819" lon="4.51628">
        <ele>619</ele>
        <time>2017-02-09T13:15:08Z</time>
      </trkpt>
      <trkpt lat="46.09811" lon="4.51633">
        <ele>619</ele>
        <time>2017-02-09T13:15:16Z</time>
      </trkpt>
      <trkpt lat="46.0981" lon="4.51633">
        <ele>619</ele>
        <time>2017-02-09T13:15:17Z</time>
      </trkpt>
      <trkpt lat="46.09802" lon="4.51637">
        <ele>618</ele>
        <time>2017-02-09T13:15:25Z</time>
      </trkpt>
      <trkpt lat="46.09801" lon="4.51638">
        <ele>618</ele>
        <time>2017-02-09T13:15:26Z</time>
      </trkpt>
      <trkpt lat="46.09793" lon="4.51642">
        <ele>617</ele>
        <time>2017-02-09T13:15:33Z</time>
      </trkpt>
      <trkpt lat="46.09792" lon="4.51643">
        <ele>617</ele>
        <time>2017-02-09T13:15:34Z</time>
      </trkpt>
      <trkpt lat="46.09784" lon="4.51646">
        <ele>616</ele>
        <time>2017-02-09T13:15:41Z</time>
      </trkpt>
      <trkpt lat="46.09782" lon="4.51647">
        <ele>616</ele>
        <time>2017-02-09T13:15:42Z</time>
      </trkpt>
      <trkpt lat="46.09774" lon="4.5165">
        <ele>616</ele>
        <time>2017-02-09T13:15:48Z</time>
      </trkpt>
      <trkpt lat="46.09772" lon="4.5165">
        <ele>615</ele>
        <time>2017-02-09T13:15:49Z</time>
      </trkpt>
      <trkpt lat="46.09764" lon="4.51655">
        <ele>615</ele>
        <time>2017-02-09T13:15:55Z</time>
      </trkpt>
      <trkpt lat="46.09763" lon="4.51656">
        <ele>615</ele>
        <time>2017-02-09T13:15:56Z</time>
      </trkpt>
      <trkpt lat="46.09756" lon="4.51663">
        <ele>614</ele>
        <time>2017-02-09T13:16:02Z</time>
      </trkpt>
      <trkpt lat="46.09755" lon="4.51664">
        <ele>614</ele>
        <time>2017-02-09T13:16:03Z</time>
      </trkpt>
      <trkpt lat="46.0975" lon="4.51672">
        <ele>617</ele>
        <time>2017-02-09T13:16:09Z</time>
      </trkpt>
      <trkpt lat="46.09749" lon="4.51674">
        <ele>614</ele>
        <time>2017-02-09T13:16:10Z</time>
      </trkpt>
      <trkpt lat="46.09743" lon="4.51681">
        <ele>615</ele>
        <time>2017-02-09T13:16:16Z</time>
      </trkpt>
      <trkpt lat="46.09742" lon="4.51682">
        <ele>615</ele>
        <time>2017-02-09T13:16:17Z</time>
      </trkpt>
      <trkpt lat="46.09733" lon="4.51685">
        <ele>614</ele>
        <time>2017-02-09T13:16:24Z</time>
      </trkpt>
      <trkpt lat="46.09732" lon="4.51684">
        <ele>614</ele>
        <time>2017-02-09T13:16:25Z</time>
      </trkpt>
      <trkpt lat="46.09724" lon="4.51682">
        <ele>614</ele>
        <time>2017-02-09T13:16:36Z</time>
      </trkpt>
      <trkpt lat="46.09723" lon="4.51681">
        <ele>614</ele>
        <time>2017-02-09T13:16:37Z</time>
      </trkpt>
      <trkpt lat="46.09715" lon="4.51678">
        <ele>613</ele>
        <time>2017-02-09T13:16:46Z</time>
      </trkpt>
      <trkpt lat="46.09714" lon="4.51677">
        <ele>612</ele>
        <time>2017-02-09T13:16:47Z</time>
      </trkpt>
      <trkpt lat="46.09706" lon="4.51674">
        <ele>611</ele>
        <time>2017-02-09T13:16:54Z</time>
      </trkpt>
      <trkpt lat="46.09705" lon="4.51674">
        <ele>611</ele>
        <time>2017-02-09T13:16:55Z</time>
      </trkpt>
      <trkpt lat="46.09697" lon="4.51668">
        <ele>609</ele>
        <time>2017-02-09T13:17:03Z</time>
      </trkpt>
      <trkpt lat="46.09696" lon="4.51667">
        <ele>609</ele>
        <time>2017-02-09T13:17:04Z</time>
      </trkpt>
      <trkpt lat="46.09688" lon="4.51662">
        <ele>596</ele>
        <time>2017-02-09T13:17:10Z</time>
      </trkpt>
      <trkpt lat="46.09687" lon="4.51661">
        <ele>596</ele>
        <time>2017-02-09T13:17:11Z</time>
      </trkpt>
      <trkpt lat="46.0968" lon="4.51654">
        <ele>595</ele>
        <time>2017-02-09T13:17:18Z</time>
      </trkpt>
      <trkpt lat="46.09679" lon="4.51654">
        <ele>595</ele>
        <time>2017-02-09T13:17:19Z</time>
      </trkpt>
      <trkpt lat="46.09671" lon="4.51647">
        <ele>595</ele>
        <time>2017-02-09T13:17:27Z</time>
      </trkpt>
      <trkpt lat="46.09671" lon="4.51646">
        <ele>594</ele>
        <time>2017-02-09T13:17:28Z</time>
      </trkpt>
      <trkpt lat="46.09663" lon="4.51642">
        <ele>586</ele>
        <time>2017-02-09T13:17:35Z</time>
      </trkpt>
      <trkpt lat="46.09662" lon="4.51641">
        <ele>586</ele>
        <time>2017-02-09T13:17:36Z</time>
      </trkpt>
      <trkpt lat="46.09655" lon="4.51633">
        <ele>584</ele>
        <time>2017-02-09T13:17:43Z</time>
      </trkpt>
      <trkpt lat="46.09654" lon="4.51632">
        <ele>583</ele>
        <time>2017-02-09T13:17:44Z</time>
      </trkpt>
      <trkpt lat="46.09647" lon="4.51628">
        <ele>582</ele>
        <time>2017-02-09T13:17:50Z</time>
      </trkpt>
      <trkpt lat="46.09646" lon="4.51627">
        <ele>582</ele>
        <time>2017-02-09T13:17:51Z</time>
      </trkpt>
      <trkpt lat="46.0964" lon="4.51619">
        <ele>581</ele>
        <time>2017-02-09T13:17:57Z</time>
      </trkpt>
      <trkpt lat="46.0964" lon="4.51617">
        <ele>581</ele>
        <time>2017-02-09T13:17:58Z</time>
      </trkpt>
      <trkpt lat="46.09634" lon="4.51609">
        <ele>579</ele>
        <time>2017-02-09T13:18:04Z</time>
      </trkpt>
      <trkpt lat="46.09632" lon="4.51608">
        <ele>579</ele>
        <time>2017-02-09T13:18:05Z</time>
      </trkpt>
      <trkpt lat="46.09625" lon="4.51601">
        <ele>578</ele>
        <time>2017-02-09T13:18:11Z</time>
      </trkpt>
      <trkpt lat="46.09624" lon="4.516">
        <ele>578</ele>
        <time>2017-02-09T13:18:12Z</time>
      </trkpt>
      <trkpt lat="46.09616" lon="4.51595">
        <ele>578</ele>
        <time>2017-02-09T13:18:20Z</time>
      </trkpt>
      <trkpt lat="46.09615" lon="4.51594">
        <ele>577</ele>
        <time>2017-02-09T13:18:21Z</time>
      </trkpt>
      <trkpt lat="46.09607" lon="4.51587">
        <ele>576</ele>
        <time>2017-02-09T13:18:28Z</time>
      </trkpt>
      <trkpt lat="46.09606" lon="4.51587">
        <ele>576</ele>
        <time>2017-02-09T13:18:29Z</time>
      </trkpt>
      <trkpt lat="46.09599" lon="4.51582">
        <ele>568</ele>
        <time>2017-02-09T13:18:37Z</time>
      </trkpt>
      <trkpt lat="46.09598" lon="4.51582">
        <ele>568</ele>
        <time>2017-02-09T13:18:38Z</time>
      </trkpt>
      <trkpt lat="46.0959" lon="4.51578">
        <ele>569</ele>
        <time>2017-02-09T13:18:45Z</time>
      </trkpt>
      <trkpt lat="46.09589" lon="4.51577">
        <ele>569</ele>
        <time>2017-02-09T13:18:46Z</time>
      </trkpt>
      <trkpt lat="46.09581" lon="4.51575">
        <ele>568</ele>
        <time>2017-02-09T13:18:53Z</time>
      </trkpt>
      <trkpt lat="46.0958" lon="4.51574">
        <ele>567</ele>
        <time>2017-02-09T13:18:54Z</time>
      </trkpt>
      <trkpt lat="46.09571" lon="4.5157">
        <ele>566</ele>
        <time>2017-02-09T13:19:01Z</time>
      </trkpt>
      <trkpt lat="46.0957" lon="4.5157">
        <ele>566</ele>
        <time>2017-02-09T13:19:02Z</time>
      </trkpt>
      <trkpt lat="46.09563" lon="4.51564">
        <ele>564</ele>
        <time>2017-02-09T13:19:09Z</time>
      </trkpt>
      <trkpt lat="46.09562" lon="4.51564">
        <ele>564</ele>
        <time>2017-02-09T13:19:10Z</time>
      </trkpt>
      <trkpt lat="46.09553" lon="4.51562">
        <ele>563</ele>
        <time>2017-02-09T13:19:18Z</time>
      </trkpt>
      <trkpt lat="46.09553" lon="4.51561">
        <ele>563</ele>
        <time>2017-02-09T13:19:19Z</time>
      </trkpt>
      <trkpt lat="46.09545" lon="4.51554">
        <ele>563</ele>
        <time>2017-02-09T13:21:39Z</time>
      </trkpt>
      <trkpt lat="46.09545" lon="4.51552">
        <ele>563</ele>
        <time>2017-02-09T13:21:40Z</time>
      </trkpt>
      <trkpt lat="46.09544" lon="4.5154">
        <ele>562</ele>
        <time>2017-02-09T13:21:47Z</time>
      </trkpt>
      <trkpt lat="46.09544" lon="4.51538">
        <ele>562</ele>
        <time>2017-02-09T13:21:48Z</time>
      </trkpt>
      <trkpt lat="46.09541" lon="4.51526">
        <ele>561</ele>
        <time>2017-02-09T13:21:55Z</time>
      </trkpt>
      <trkpt lat="46.0954" lon="4.51525">
        <ele>561</ele>
        <time>2017-02-09T13:21:56Z</time>
      </trkpt>
      <trkpt lat="46.09533" lon="4.51518">
        <ele>561</ele>
        <time>2017-02-09T13:22:06Z</time>
      </trkpt>
      <trkpt lat="46.09532" lon="4.51517">
        <ele>561</ele>
        <time>2017-02-09T13:22:07Z</time>
      </trkpt>
      <trkpt lat="46.09525" lon="4.5151">
        <ele>560</ele>
        <time>2017-02-09T13:22:14Z</time>
      </trkpt>
      <trkpt lat="46.09524" lon="4.5151">
        <ele>560</ele>
        <time>2017-02-09T13:22:15Z</time>
      </trkpt>
      <trkpt lat="46.09516" lon="4.51508">
        <ele>559</ele>
        <time>2017-02-09T13:22:24Z</time>
      </trkpt>
      <trkpt lat="46.09515" lon="4.51508">
        <ele>559</ele>
        <time>2017-02-09T13:22:25Z</time>
      </trkpt>
      <trkpt lat="46.09507" lon="4.51503">
        <ele>558</ele>
        <time>2017-02-09T13:22:31Z</time>
      </trkpt>
      <trkpt lat="46.09505" lon="4.51503">
        <ele>558</ele>
        <time>2017-02-09T13:22:32Z</time>
      </trkpt>
      <trkpt lat="46.09498" lon="4.51499">
        <ele>557</ele>
        <time>2017-02-09T13:22:38Z</time>
      </trkpt>
      <trkpt lat="46.09497" lon="4.51499">
        <ele>556</ele>
        <time>2017-02-09T13:22:39Z</time>
      </trkpt>
      <trkpt lat="46.09489" lon="4.51495">
        <ele>555</ele>
        <time>2017-02-09T13:22:45Z</time>
      </trkpt>
      <trkpt lat="46.09488" lon="4.51495">
        <ele>555</ele>
        <time>2017-02-09T13:22:46Z</time>
      </trkpt>
      <trkpt lat="46.09496" lon="4.515">
        <ele>556</ele>
        <time>2017-02-09T13:23:03Z</time>
      </trkpt>
      <trkpt lat="46.09496" lon="4.51501">
        <ele>556</ele>
        <time>2017-02-09T13:23:04Z</time>
      </trkpt>
      <trkpt lat="46.0949" lon="4.51493">
        <ele>555</ele>
        <time>2017-02-09T13:24:34Z</time>
      </trkpt>
      <trkpt lat="46.09489" lon="4.51492">
        <ele>555</ele>
        <time>2017-02-09T13:24:35Z</time>
      </trkpt>
      <trkpt lat="46.09481" lon="4.51488">
        <ele>554</ele>
        <time>2017-02-09T13:24:42Z</time>
      </trkpt>
      <trkpt lat="46.0948" lon="4.51487">
        <ele>554</ele>
        <time>2017-02-09T13:24:43Z</time>
      </trkpt>
      <trkpt lat="46.09472" lon="4.5148">
        <ele>554</ele>
        <time>2017-02-09T13:24:53Z</time>
      </trkpt>
      <trkpt lat="46.09471" lon="4.5148">
        <ele>554</ele>
        <time>2017-02-09T13:24:54Z</time>
      </trkpt>
      <trkpt lat="46.09464" lon="4.51473">
        <ele>553</ele>
        <time>2017-02-09T13:25:02Z</time>
      </trkpt>
      <trkpt lat="46.09463" lon="4.51473">
        <ele>553</ele>
        <time>2017-02-09T13:25:03Z</time>
      </trkpt>
      <trkpt lat="46.09457" lon="4.51464">
        <ele>553</ele>
        <time>2017-02-09T13:25:10Z</time>
      </trkpt>
      <trkpt lat="46.09456" lon="4.51463">
        <ele>553</ele>
        <time>2017-02-09T13:25:11Z</time>
      </trkpt>
      <trkpt lat="46.0945" lon="4.51454">
        <ele>553</ele>
        <time>2017-02-09T13:25:18Z</time>
      </trkpt>
      <trkpt lat="46.09449" lon="4.51453">
        <ele>553</ele>
        <time>2017-02-09T13:25:19Z</time>
      </trkpt>
      <trkpt lat="46.09445" lon="4.51441">
        <ele>553</ele>
        <time>2017-02-09T13:25:28Z</time>
      </trkpt>
      <trkpt lat="46.09445" lon="4.5144">
        <ele>553</ele>
        <time>2017-02-09T13:25:29Z</time>
      </trkpt>
      <trkpt lat="46.09449" lon="4.5143">
        <ele>554</ele>
        <time>2017-02-09T13:25:37Z</time>
      </trkpt>
      <trkpt lat="46.0945" lon="4.51429">
        <ele>554</ele>
        <time>2017-02-09T13:25:38Z</time>
      </trkpt>
      <trkpt lat="46.09453" lon="4.51418">
        <ele>554</ele>
        <time>2017-02-09T13:25:45Z</time>
      </trkpt>
      <trkpt lat="46.09453" lon="4.51416">
        <ele>553</ele>
        <time>2017-02-09T13:25:46Z</time>
      </trkpt>
      <trkpt lat="46.09454" lon="4.51405">
        <ele>553</ele>
        <time>2017-02-09T13:25:52Z</time>
      </trkpt>
      <trkpt lat="46.09454" lon="4.51403">
        <ele>553</ele>
        <time>2017-02-09T13:25:53Z</time>
      </trkpt>
      <trkpt lat="46.09456" lon="4.51392">
        <ele>553</ele>
        <time>2017-02-09T13:26:00Z</time>
      </trkpt>
      <trkpt lat="46.09457" lon="4.5139">
        <ele>553</ele>
        <time>2017-02-09T13:26:01Z</time>
      </trkpt>
      <trkpt lat="46.09453" lon="4.51379">
        <ele>553</ele>
        <time>2017-02-09T13:26:09Z</time>
      </trkpt>
      <trkpt lat="46.09452" lon="4.51378">
        <ele>553</ele>
        <time>2017-02-09T13:26:10Z</time>
      </trkpt>
      <trkpt lat="46.09447" lon="4.51369">
        <ele>553</ele>
        <time>2017-02-09T13:26:16Z</time>
      </trkpt>
      <trkpt lat="46.09446" lon="4.51368">
        <ele>553</ele>
        <time>2017-02-09T13:26:17Z</time>
      </trkpt>
      <trkpt lat="46.09442" lon="4.51356">
        <ele>554</ele>
        <time>2017-02-09T13:26:24Z</time>
      </trkpt>
      <trkpt lat="46.09441" lon="4.51355">
        <ele>554</ele>
        <time>2017-02-09T13:26:25Z</time>
      </trkpt>
      <trkpt lat="46.09435" lon="4.51346">
        <ele>555</ele>
        <time>2017-02-09T13:26:32Z</time>
      </trkpt>
      <trkpt lat="46.09434" lon="4.51345">
        <ele>555</ele>
        <time>2017-02-09T13:26:33Z</time>
      </trkpt>
      <trkpt lat="46.09428" lon="4.51337">
        <ele>557</ele>
        <time>2017-02-09T13:26:40Z</time>
      </trkpt>
      <trkpt lat="46.09427" lon="4.51336">
        <ele>557</ele>
        <time>2017-02-09T13:26:41Z</time>
      </trkpt>
      <trkpt lat="46.09421" lon="4.51328">
        <ele>557</ele>
        <time>2017-02-09T13:26:47Z</time>
      </trkpt>
      <trkpt lat="46.09421" lon="4.51326">
        <ele>557</ele>
        <time>2017-02-09T13:26:48Z</time>
      </trkpt>
      <trkpt lat="46.09415" lon="4.51317">
        <ele>559</ele>
        <time>2017-02-09T13:26:54Z</time>
      </trkpt>
      <trkpt lat="46.09415" lon="4.51316">
        <ele>559</ele>
        <time>2017-02-09T13:26:55Z</time>
      </trkpt>
      <trkpt lat="46.09411" lon="4.51305">
        <ele>559</ele>
        <time>2017-02-09T13:27:02Z</time>
      </trkpt>
      <trkpt lat="46.09411" lon="4.51303">
        <ele>559</ele>
        <time>2017-02-09T13:27:03Z</time>
      </trkpt>
      <trkpt lat="46.09407" lon="4.51292">
        <ele>558</ele>
        <time>2017-02-09T13:27:09Z</time>
      </trkpt>
      <trkpt lat="46.09407" lon="4.5129">
        <ele>558</ele>
        <time>2017-02-09T13:27:10Z</time>
      </trkpt>
      <trkpt lat="46.09403" lon="4.5128">
        <ele>558</ele>
        <time>2017-02-09T13:27:16Z</time>
      </trkpt>
      <trkpt lat="46.09403" lon="4.51278">
        <ele>558</ele>
        <time>2017-02-09T13:27:17Z</time>
      </trkpt>
      <trkpt lat="46.09401" lon="4.51266">
        <ele>558</ele>
        <time>2017-02-09T13:27:25Z</time>
      </trkpt>
      <trkpt lat="46.09401" lon="4.51265">
        <ele>558</ele>
        <time>2017-02-09T13:27:26Z</time>
      </trkpt>
      <trkpt lat="46.094" lon="4.51252">
        <ele>558</ele>
        <time>2017-02-09T13:27:32Z</time>
      </trkpt>
      <trkpt lat="46.09399" lon="4.5125">
        <ele>557</ele>
        <time>2017-02-09T13:27:33Z</time>
      </trkpt>
      <trkpt lat="46.09398" lon="4.51239">
        <ele>557</ele>
        <time>2017-02-09T13:27:38Z</time>
      </trkpt>
      <trkpt lat="46.09397" lon="4.51237">
        <ele>557</ele>
        <time>2017-02-09T13:27:39Z</time>
      </trkpt>
      <trkpt lat="46.09394" lon="4.51226">
        <ele>557</ele>
        <time>2017-02-09T13:27:45Z</time>
      </trkpt>
      <trkpt lat="46.09394" lon="4.51224">
        <ele>557</ele>
        <time>2017-02-09T13:27:46Z</time>
      </trkpt>
      <trkpt lat="46.09391" lon="4.51213">
        <ele>557</ele>
        <time>2017-02-09T13:27:52Z</time>
      </trkpt>
      <trkpt lat="46.09391" lon="4.51211">
        <ele>557</ele>
        <time>2017-02-09T13:27:53Z</time>
      </trkpt>
      <trkpt lat="46.09388" lon="4.51199">
        <ele>557</ele>
        <time>2017-02-09T13:28:00Z</time>
      </trkpt>
      <trkpt lat="46.09387" lon="4.51198">
        <ele>557</ele>
        <time>2017-02-09T13:28:01Z</time>
      </trkpt>
      <trkpt lat="46.09382" lon="4.51189">
        <ele>557</ele>
        <time>2017-02-09T13:28:08Z</time>
      </trkpt>
      <trkpt lat="46.09381" lon="4.51188">
        <ele>557</ele>
        <time>2017-02-09T13:28:09Z</time>
      </trkpt>
      <trkpt lat="46.09378" lon="4.51177">
        <ele>557</ele>
        <time>2017-02-09T13:28:15Z</time>
      </trkpt>
      <trkpt lat="46.09378" lon="4.51175">
        <ele>557</ele>
        <time>2017-02-09T13:28:16Z</time>
      </trkpt>
      <trkpt lat="46.09376" lon="4.51164">
        <ele>556</ele>
        <time>2017-02-09T13:28:22Z</time>
      </trkpt>
      <trkpt lat="46.09376" lon="4.51162">
        <ele>556</ele>
        <time>2017-02-09T13:28:23Z</time>
      </trkpt>
      <trkpt lat="46.09374" lon="4.5115">
        <ele>556</ele>
        <time>2017-02-09T13:28:30Z</time>
      </trkpt>
      <trkpt lat="46.09373" lon="4.51148">
        <ele>556</ele>
        <time>2017-02-09T13:28:31Z</time>
      </trkpt>
      <trkpt lat="46.0937" lon="4.51137">
        <ele>556</ele>
        <time>2017-02-09T13:28:38Z</time>
      </trkpt>
      <trkpt lat="46.0937" lon="4.51136">
        <ele>556</ele>
        <time>2017-02-09T13:28:39Z</time>
      </trkpt>
      <trkpt lat="46.09366" lon="4.51124">
        <ele>557</ele>
        <time>2017-02-09T13:28:46Z</time>
      </trkpt>
      <trkpt lat="46.09366" lon="4.51122">
        <ele>557</ele>
        <time>2017-02-09T13:28:47Z</time>
      </trkpt>
      <trkpt lat="46.09362" lon="4.51111">
        <ele>557</ele>
        <time>2017-02-09T13:28:54Z</time>
      </trkpt>
      <trkpt lat="46.09361" lon="4.51109">
        <ele>557</ele>
        <time>2017-02-09T13:28:55Z</time>
      </trkpt>
      <trkpt lat="46.09357" lon="4.51098">
        <ele>557</ele>
        <time>2017-02-09T13:29:02Z</time>
      </trkpt>
      <trkpt lat="46.09356" lon="4.51097">
        <ele>557</ele>
        <time>2017-02-09T13:29:03Z</time>
      </trkpt>
      <trkpt lat="46.09353" lon="4.51087">
        <ele>558</ele>
        <time>2017-02-09T13:29:09Z</time>
      </trkpt>
      <trkpt lat="46.09352" lon="4.51085">
        <ele>558</ele>
        <time>2017-02-09T13:29:10Z</time>
      </trkpt>
      <trkpt lat="46.09347" lon="4.51076">
        <ele>556</ele>
        <time>2017-02-09T13:29:16Z</time>
      </trkpt>
      <trkpt lat="46.09347" lon="4.51074">
        <ele>556</ele>
        <time>2017-02-09T13:29:17Z</time>
      </trkpt>
      <trkpt lat="46.09342" lon="4.51065">
        <ele>555</ele>
        <time>2017-02-09T13:29:23Z</time>
      </trkpt>
      <trkpt lat="46.09342" lon="4.51063">
        <ele>554</ele>
        <time>2017-02-09T13:29:24Z</time>
      </trkpt>
      <trkpt lat="46.09337" lon="4.51054">
        <ele>553</ele>
        <time>2017-02-09T13:29:30Z</time>
      </trkpt>
      <trkpt lat="46.09336" lon="4.51053">
        <ele>553</ele>
        <time>2017-02-09T13:29:31Z</time>
      </trkpt>
      <trkpt lat="46.09332" lon="4.51043">
        <ele>556</ele>
        <time>2017-02-09T13:29:37Z</time>
      </trkpt>
      <trkpt lat="46.09331" lon="4.51042">
        <ele>556</ele>
        <time>2017-02-09T13:29:38Z</time>
      </trkpt>
      <trkpt lat="46.09327" lon="4.51032">
        <ele>555</ele>
        <time>2017-02-09T13:29:44Z</time>
      </trkpt>
      <trkpt lat="46.09326" lon="4.51031">
        <ele>555</ele>
        <time>2017-02-09T13:29:45Z</time>
      </trkpt>
      <trkpt lat="46.09322" lon="4.51021">
        <ele>554</ele>
        <time>2017-02-09T13:29:51Z</time>
      </trkpt>
      <trkpt lat="46.09321" lon="4.51019">
        <ele>554</ele>
        <time>2017-02-09T13:29:52Z</time>
      </trkpt>
      <trkpt lat="46.09316" lon="4.51009">
        <ele>553</ele>
        <time>2017-02-09T13:29:59Z</time>
      </trkpt>
      <trkpt lat="46.09315" lon="4.51008">
        <ele>553</ele>
        <time>2017-02-09T13:30:00Z</time>
      </trkpt>
      <trkpt lat="46.09311" lon="4.50998">
        <ele>548</ele>
        <time>2017-02-09T13:30:06Z</time>
      </trkpt>
      <trkpt lat="46.0931" lon="4.50996">
        <ele>548</ele>
        <time>2017-02-09T13:30:07Z</time>
      </trkpt>
      <trkpt lat="46.09307" lon="4.50986">
        <ele>548</ele>
        <time>2017-02-09T13:30:13Z</time>
      </trkpt>
      <trkpt lat="46.09306" lon="4.50984">
        <ele>548</ele>
        <time>2017-02-09T13:30:14Z</time>
      </trkpt>
      <trkpt lat="46.09303" lon="4.50972">
        <ele>548</ele>
        <time>2017-02-09T13:30:21Z</time>
      </trkpt>
      <trkpt lat="46.09302" lon="4.5097">
        <ele>548</ele>
        <time>2017-02-09T13:30:22Z</time>
      </trkpt>
      <trkpt lat="46.093" lon="4.50958">
        <ele>547</ele>
        <time>2017-02-09T13:30:30Z</time>
      </trkpt>
      <trkpt lat="46.093" lon="4.50957">
        <ele>547</ele>
        <time>2017-02-09T13:30:31Z</time>
      </trkpt>
      <trkpt lat="46.09297" lon="4.50944">
        <ele>546</ele>
        <time>2017-02-09T13:30:39Z</time>
      </trkpt>
      <trkpt lat="46.09297" lon="4.50943">
        <ele>546</ele>
        <time>2017-02-09T13:30:40Z</time>
      </trkpt>
      <trkpt lat="46.09296" lon="4.50931">
        <ele>545</ele>
        <time>2017-02-09T13:30:47Z</time>
      </trkpt>
      <trkpt lat="46.09296" lon="4.5093">
        <ele>545</ele>
        <time>2017-02-09T13:30:48Z</time>
      </trkpt>
      <trkpt lat="46.09295" lon="4.50917">
        <ele>545</ele>
        <time>2017-02-09T13:30:55Z</time>
      </trkpt>
      <trkpt lat="46.09294" lon="4.50916">
        <ele>539</ele>
        <time>2017-02-09T13:30:56Z</time>
      </trkpt>
      <trkpt lat="46.09292" lon="4.50904">
        <ele>539</ele>
        <time>2017-02-09T13:31:03Z</time>
      </trkpt>
      <trkpt lat="46.09292" lon="4.50902">
        <ele>539</ele>
        <time>2017-02-09T13:31:04Z</time>
      </trkpt>
      <trkpt lat="46.09291" lon="4.50891">
        <ele>539</ele>
        <time>2017-02-09T13:31:10Z</time>
      </trkpt>
      <trkpt lat="46.0929" lon="4.50889">
        <ele>539</ele>
        <time>2017-02-09T13:31:11Z</time>
      </trkpt>
      <trkpt lat="46.0929" lon="4.50878">
        <ele>538</ele>
        <time>2017-02-09T13:31:17Z</time>
      </trkpt>
      <trkpt lat="46.0929" lon="4.50876">
        <ele>538</ele>
        <time>2017-02-09T13:31:18Z</time>
      </trkpt>
      <trkpt lat="46.09286" lon="4.50866">
        <ele>538</ele>
        <time>2017-02-09T13:31:24Z</time>
      </trkpt>
      <trkpt lat="46.09286" lon="4.50864">
        <ele>538</ele>
        <time>2017-02-09T13:31:25Z</time>
      </trkpt>
      <trkpt lat="46.09287" lon="4.50852">
        <ele>537</ele>
        <time>2017-02-09T13:31:32Z</time>
      </trkpt>
      <trkpt lat="46.09287" lon="4.5085">
        <ele>537</ele>
        <time>2017-02-09T13:31:33Z</time>
      </trkpt>
      <trkpt lat="46.09287" lon="4.50837">
        <ele>537</ele>
        <time>2017-02-09T13:31:39Z</time>
      </trkpt>
      <trkpt lat="46.09287" lon="4.50835">
        <ele>537</ele>
        <time>2017-02-09T13:31:40Z</time>
      </trkpt>
      <trkpt lat="46.09287" lon="4.50823">
        <ele>532</ele>
        <time>2017-02-09T13:31:46Z</time>
      </trkpt>
      <trkpt lat="46.09287" lon="4.50821">
        <ele>532</ele>
        <time>2017-02-09T13:31:47Z</time>
      </trkpt>
      <trkpt lat="46.09288" lon="4.5081">
        <ele>532</ele>
        <time>2017-02-09T13:31:52Z</time>
      </trkpt>
      <trkpt lat="46.09288" lon="4.50808">
        <ele>532</ele>
        <time>2017-02-09T13:31:53Z</time>
      </trkpt>
      <trkpt lat="46.09287" lon="4.50796">
        <ele>531</ele>
        <time>2017-02-09T13:32:00Z</time>
      </trkpt>
      <trkpt lat="46.09286" lon="4.50794">
        <ele>531</ele>
        <time>2017-02-09T13:32:01Z</time>
      </trkpt>
      <trkpt lat="46.09288" lon="4.50782">
        <ele>531</ele>
        <time>2017-02-09T13:32:07Z</time>
      </trkpt>
      <trkpt lat="46.09289" lon="4.5078">
        <ele>531</ele>
        <time>2017-02-09T13:32:08Z</time>
      </trkpt>
      <trkpt lat="46.09288" lon="4.50768">
        <ele>530</ele>
        <time>2017-02-09T13:32:14Z</time>
      </trkpt>
      <trkpt lat="46.09288" lon="4.50766">
        <ele>530</ele>
        <time>2017-02-09T13:32:15Z</time>
      </trkpt>
      <trkpt lat="46.09289" lon="4.50755">
        <ele>530</ele>
        <time>2017-02-09T13:32:21Z</time>
      </trkpt>
      <trkpt lat="46.09289" lon="4.50753">
        <ele>530</ele>
        <time>2017-02-09T13:32:22Z</time>
      </trkpt>
      <trkpt lat="46.09289" lon="4.5074">
        <ele>526</ele>
        <time>2017-02-09T13:32:30Z</time>
      </trkpt>
      <trkpt lat="46.09289" lon="4.50738">
        <ele>526</ele>
        <time>2017-02-09T13:32:31Z</time>
      </trkpt>
      <trkpt lat="46.09287" lon="4.50726">
        <ele>525</ele>
        <time>2017-02-09T13:32:39Z</time>
      </trkpt>
      <trkpt lat="46.09286" lon="4.50725">
        <ele>525</ele>
        <time>2017-02-09T13:32:40Z</time>
      </trkpt>
      <trkpt lat="46.09285" lon="4.50713">
        <ele>525</ele>
        <time>2017-02-09T13:32:47Z</time>
      </trkpt>
      <trkpt lat="46.09285" lon="4.5071">
        <ele>525</ele>
        <time>2017-02-09T13:32:48Z</time>
      </trkpt>
      <trkpt lat="46.09289" lon="4.50698">
        <ele>524</ele>
        <time>2017-02-09T13:32:55Z</time>
      </trkpt>
      <trkpt lat="46.09289" lon="4.50697">
        <ele>524</ele>
        <time>2017-02-09T13:32:56Z</time>
      </trkpt>
      <trkpt lat="46.09291" lon="4.50685">
        <ele>523</ele>
        <time>2017-02-09T13:33:04Z</time>
      </trkpt>
      <trkpt lat="46.09291" lon="4.50683">
        <ele>523</ele>
        <time>2017-02-09T13:33:05Z</time>
      </trkpt>
      <trkpt lat="46.09289" lon="4.50671">
        <ele>523</ele>
        <time>2017-02-09T13:33:12Z</time>
      </trkpt>
      <trkpt lat="46.0929" lon="4.5067">
        <ele>523</ele>
        <time>2017-02-09T13:33:13Z</time>
      </trkpt>
      <trkpt lat="46.09289" lon="4.50657">
        <ele>518</ele>
        <time>2017-02-09T13:33:20Z</time>
      </trkpt>
      <trkpt lat="46.09289" lon="4.50656">
        <ele>518</ele>
        <time>2017-02-09T13:33:21Z</time>
      </trkpt>
      <trkpt lat="46.09286" lon="4.50644">
        <ele>518</ele>
        <time>2017-02-09T13:33:28Z</time>
      </trkpt>
      <trkpt lat="46.09286" lon="4.50642">
        <ele>518</ele>
        <time>2017-02-09T13:33:29Z</time>
      </trkpt>
      <trkpt lat="46.09284" lon="4.50631">
        <ele>517</ele>
        <time>2017-02-09T13:33:37Z</time>
      </trkpt>
      <trkpt lat="46.09284" lon="4.50629">
        <ele>517</ele>
        <time>2017-02-09T13:33:38Z</time>
      </trkpt>
      <trkpt lat="46.09285" lon="4.50617">
        <ele>516</ele>
        <time>2017-02-09T13:33:46Z</time>
      </trkpt>
      <trkpt lat="46.09285" lon="4.50616">
        <ele>516</ele>
        <time>2017-02-09T13:33:47Z</time>
      </trkpt>
      <trkpt lat="46.09283" lon="4.50604">
        <ele>516</ele>
        <time>2017-02-09T13:33:55Z</time>
      </trkpt>
      <trkpt lat="46.09282" lon="4.50603">
        <ele>516</ele>
        <time>2017-02-09T13:33:56Z</time>
      </trkpt>
      <trkpt lat="46.09279" lon="4.50591">
        <ele>516</ele>
        <time>2017-02-09T13:34:04Z</time>
      </trkpt>
      <trkpt lat="46.09278" lon="4.50589">
        <ele>516</ele>
        <time>2017-02-09T13:34:05Z</time>
      </trkpt>
      <trkpt lat="46.09274" lon="4.50577">
        <ele>513</ele>
        <time>2017-02-09T13:34:11Z</time>
      </trkpt>
      <trkpt lat="46.09273" lon="4.50576">
        <ele>513</ele>
        <time>2017-02-09T13:34:12Z</time>
      </trkpt>
      <trkpt lat="46.09269" lon="4.50566">
        <ele>513</ele>
        <time>2017-02-09T13:34:17Z</time>
      </trkpt>
      <trkpt lat="46.09269" lon="4.50564">
        <ele>513</ele>
        <time>2017-02-09T13:34:18Z</time>
      </trkpt>
      <trkpt lat="46.09265" lon="4.50553">
        <ele>512</ele>
        <time>2017-02-09T13:34:25Z</time>
      </trkpt>
      <trkpt lat="46.09265" lon="4.50551">
        <ele>512</ele>
        <time>2017-02-09T13:34:26Z</time>
      </trkpt>
      <trkpt lat="46.09266" lon="4.50539">
        <ele>512</ele>
        <time>2017-02-09T13:34:34Z</time>
      </trkpt>
      <trkpt lat="46.09266" lon="4.50538">
        <ele>512</ele>
        <time>2017-02-09T13:34:35Z</time>
      </trkpt>
      <trkpt lat="46.09258" lon="4.50535">
        <ele>512</ele>
        <time>2017-02-09T13:35:16Z</time>
      </trkpt>
      <trkpt lat="46.09256" lon="4.50535">
        <ele>512</ele>
        <time>2017-02-09T13:35:17Z</time>
      </trkpt>
      <trkpt lat="46.09249" lon="4.50536">
        <ele>513</ele>
        <time>2017-02-09T13:35:22Z</time>
      </trkpt>
      <trkpt lat="46.09247" lon="4.50536">
        <ele>513</ele>
        <time>2017-02-09T13:35:23Z</time>
      </trkpt>
      <trkpt lat="46.09239" lon="4.50538">
        <ele>513</ele>
        <time>2017-02-09T13:35:28Z</time>
      </trkpt>
      <trkpt lat="46.09238" lon="4.50539">
        <ele>513</ele>
        <time>2017-02-09T13:35:29Z</time>
      </trkpt>
      <trkpt lat="46.09229" lon="4.50541">
        <ele>512</ele>
        <time>2017-02-09T13:35:35Z</time>
      </trkpt>
      <trkpt lat="46.09228" lon="4.50542">
        <ele>512</ele>
        <time>2017-02-09T13:35:36Z</time>
      </trkpt>
      <trkpt lat="46.0922" lon="4.50543">
        <ele>512</ele>
        <time>2017-02-09T13:35:42Z</time>
      </trkpt>
      <trkpt lat="46.09219" lon="4.50544">
        <ele>512</ele>
        <time>2017-02-09T13:35:43Z</time>
      </trkpt>
      <trkpt lat="46.09211" lon="4.50547">
        <ele>512</ele>
        <time>2017-02-09T13:35:49Z</time>
      </trkpt>
      <trkpt lat="46.0921" lon="4.50547">
        <ele>512</ele>
        <time>2017-02-09T13:35:50Z</time>
      </trkpt>
      <trkpt lat="46.09203" lon="4.50552">
        <ele>511</ele>
        <time>2017-02-09T13:35:57Z</time>
      </trkpt>
      <trkpt lat="46.09202" lon="4.50553">
        <ele>511</ele>
        <time>2017-02-09T13:35:58Z</time>
      </trkpt>
      <trkpt lat="46.09195" lon="4.50559">
        <ele>511</ele>
        <time>2017-02-09T13:36:04Z</time>
      </trkpt>
      <trkpt lat="46.09194" lon="4.5056">
        <ele>511</ele>
        <time>2017-02-09T13:36:05Z</time>
      </trkpt>
      <trkpt lat="46.09186" lon="4.50567">
        <ele>511</ele>
        <time>2017-02-09T13:36:12Z</time>
      </trkpt>
      <trkpt lat="46.09185" lon="4.50568">
        <ele>510</ele>
        <time>2017-02-09T13:36:13Z</time>
      </trkpt>
      <trkpt lat="46.09179" lon="4.50575">
        <ele>510</ele>
        <time>2017-02-09T13:36:20Z</time>
      </trkpt>
      <trkpt lat="46.09178" lon="4.50576">
        <ele>510</ele>
        <time>2017-02-09T13:36:21Z</time>
      </trkpt>
      <trkpt lat="46.09173" lon="4.50586">
        <ele>510</ele>
        <time>2017-02-09T13:36:29Z</time>
      </trkpt>
      <trkpt lat="46.09172" lon="4.50587">
        <ele>510</ele>
        <time>2017-02-09T13:36:30Z</time>
      </trkpt>
      <trkpt lat="46.09165" lon="4.50593">
        <ele>507</ele>
        <time>2017-02-09T13:36:37Z</time>
      </trkpt>
      <trkpt lat="46.09164" lon="4.50595">
        <ele>507</ele>
        <time>2017-02-09T13:36:38Z</time>
      </trkpt>
      <trkpt lat="46.09156" lon="4.50599">
        <ele>507</ele>
        <time>2017-02-09T13:36:44Z</time>
      </trkpt>
      <trkpt lat="46.09155" lon="4.506">
        <ele>507</ele>
        <time>2017-02-09T13:36:45Z</time>
      </trkpt>
      <trkpt lat="46.09147" lon="4.50605">
        <ele>507</ele>
        <time>2017-02-09T13:36:52Z</time>
      </trkpt>
      <trkpt lat="46.09146" lon="4.50606">
        <ele>507</ele>
        <time>2017-02-09T13:36:53Z</time>
      </trkpt>
      <trkpt lat="46.09139" lon="4.50614">
        <ele>506</ele>
        <time>2017-02-09T13:37:00Z</time>
      </trkpt>
      <trkpt lat="46.09138" lon="4.50615">
        <ele>506</ele>
        <time>2017-02-09T13:37:01Z</time>
      </trkpt>
      <trkpt lat="46.09131" lon="4.5062">
        <ele>506</ele>
        <time>2017-02-09T13:37:07Z</time>
      </trkpt>
      <trkpt lat="46.0913" lon="4.50621">
        <ele>506</ele>
        <time>2017-02-09T13:37:08Z</time>
      </trkpt>
      <trkpt lat="46.09122" lon="4.50628">
        <ele>506</ele>
        <time>2017-02-09T13:37:15Z</time>
      </trkpt>
      <trkpt lat="46.09121" lon="4.50629">
        <ele>506</ele>
        <time>2017-02-09T13:37:16Z</time>
      </trkpt>
      <trkpt lat="46.09116" lon="4.50639">
        <ele>505</ele>
        <time>2017-02-09T13:37:22Z</time>
      </trkpt>
      <trkpt lat="46.09115" lon="4.50639">
        <ele>505</ele>
        <time>2017-02-09T13:37:23Z</time>
      </trkpt>
      <trkpt lat="46.09107" lon="4.50644">
        <ele>505</ele>
        <time>2017-02-09T13:37:45Z</time>
      </trkpt>
      <trkpt lat="46.09106" lon="4.50646">
        <ele>505</ele>
        <time>2017-02-09T13:37:46Z</time>
      </trkpt>
      <trkpt lat="46.09099" lon="4.50652">
        <ele>504</ele>
        <time>2017-02-09T13:37:51Z</time>
      </trkpt>
      <trkpt lat="46.09098" lon="4.50653">
        <ele>504</ele>
        <time>2017-02-09T13:37:52Z</time>
      </trkpt>
      <trkpt lat="46.09093" lon="4.50661">
        <ele>503</ele>
        <time>2017-02-09T13:37:57Z</time>
      </trkpt>
      <trkpt lat="46.09092" lon="4.50663">
        <ele>503</ele>
        <time>2017-02-09T13:37:58Z</time>
      </trkpt>
      <trkpt lat="46.09087" lon="4.50671">
        <ele>504</ele>
        <time>2017-02-09T13:38:03Z</time>
      </trkpt>
      <trkpt lat="46.09086" lon="4.50673">
        <ele>504</ele>
        <time>2017-02-09T13:38:04Z</time>
      </trkpt>
      <trkpt lat="46.09081" lon="4.50682">
        <ele>500</ele>
        <time>2017-02-09T13:38:10Z</time>
      </trkpt>
      <trkpt lat="46.0908" lon="4.50683">
        <ele>500</ele>
        <time>2017-02-09T13:38:11Z</time>
      </trkpt>
      <trkpt lat="46.09073" lon="4.5069">
        <ele>500</ele>
        <time>2017-02-09T13:38:17Z</time>
      </trkpt>
      <trkpt lat="46.09072" lon="4.50691">
        <ele>500</ele>
        <time>2017-02-09T13:38:18Z</time>
      </trkpt>
      <trkpt lat="46.09064" lon="4.50698">
        <ele>500</ele>
        <time>2017-02-09T13:38:26Z</time>
      </trkpt>
      <trkpt lat="46.09063" lon="4.50699">
        <ele>500</ele>
        <time>2017-02-09T13:38:27Z</time>
      </trkpt>
      <trkpt lat="46.09057" lon="4.50706">
        <ele>500</ele>
        <time>2017-02-09T13:38:33Z</time>
      </trkpt>
      <trkpt lat="46.09056" lon="4.50708">
        <ele>500</ele>
        <time>2017-02-09T13:38:34Z</time>
      </trkpt>
      <trkpt lat="46.09051" lon="4.50718">
        <ele>500</ele>
        <time>2017-02-09T13:38:41Z</time>
      </trkpt>
      <trkpt lat="46.0905" lon="4.50719">
        <ele>500</ele>
        <time>2017-02-09T13:38:42Z</time>
      </trkpt>
      <trkpt lat="46.09044" lon="4.50728">
        <ele>500</ele>
        <time>2017-02-09T13:38:48Z</time>
      </trkpt>
      <trkpt lat="46.09043" lon="4.5073">
        <ele>500</ele>
        <time>2017-02-09T13:38:49Z</time>
      </trkpt>
      <trkpt lat="46.09038" lon="4.50738">
        <ele>500</ele>
        <time>2017-02-09T13:38:53Z</time>
      </trkpt>
      <trkpt lat="46.09037" lon="4.5074">
        <ele>500</ele>
        <time>2017-02-09T13:38:54Z</time>
      </trkpt>
      <trkpt lat="46.09031" lon="4.50747">
        <ele>499</ele>
        <time>2017-02-09T13:38:59Z</time>
      </trkpt>
      <trkpt lat="46.0903" lon="4.50749">
        <ele>499</ele>
        <time>2017-02-09T13:39:00Z</time>
      </trkpt>
      <trkpt lat="46.09023" lon="4.50758">
        <ele>504</ele>
        <time>2017-02-09T13:39:06Z</time>
      </trkpt>
      <trkpt lat="46.09022" lon="4.50759">
        <ele>504</ele>
        <time>2017-02-09T13:39:07Z</time>
      </trkpt>
      <trkpt lat="46.09017" lon="4.50767">
        <ele>504</ele>
        <time>2017-02-09T13:39:13Z</time>
      </trkpt>
      <trkpt lat="46.09015" lon="4.50768">
        <ele>503</ele>
        <time>2017-02-09T13:39:14Z</time>
      </trkpt>
      <trkpt lat="46.09009" lon="4.50775">
        <ele>504</ele>
        <time>2017-02-09T13:39:20Z</time>
      </trkpt>
      <trkpt lat="46.09007" lon="4.50777">
        <ele>504</ele>
        <time>2017-02-09T13:39:21Z</time>
      </trkpt>
      <trkpt lat="46.09002" lon="4.50785">
        <ele>505</ele>
        <time>2017-02-09T13:39:27Z</time>
      </trkpt>
      <trkpt lat="46.09001" lon="4.50786">
        <ele>505</ele>
        <time>2017-02-09T13:39:28Z</time>
      </trkpt>
      <trkpt lat="46.08996" lon="4.50797">
        <ele>493</ele>
        <time>2017-02-09T13:39:34Z</time>
      </trkpt>
      <trkpt lat="46.08995" lon="4.50798">
        <ele>493</ele>
        <time>2017-02-09T13:39:35Z</time>
      </trkpt>
      <trkpt lat="46.08989" lon="4.50807">
        <ele>494</ele>
        <time>2017-02-09T13:39:41Z</time>
      </trkpt>
      <trkpt lat="46.08988" lon="4.50809">
        <ele>494</ele>
        <time>2017-02-09T13:39:42Z</time>
      </trkpt>
      <trkpt lat="46.08983" lon="4.50819">
        <ele>495</ele>
        <time>2017-02-09T13:39:49Z</time>
      </trkpt>
      <trkpt lat="46.08983" lon="4.50821">
        <ele>495</ele>
        <time>2017-02-09T13:39:50Z</time>
      </trkpt>
      <trkpt lat="46.08978" lon="4.50831">
        <ele>494</ele>
        <time>2017-02-09T13:39:56Z</time>
      </trkpt>
      <trkpt lat="46.08977" lon="4.50832">
        <ele>494</ele>
        <time>2017-02-09T13:39:57Z</time>
      </trkpt>
      <trkpt lat="46.08973" lon="4.50842">
        <ele>497</ele>
        <time>2017-02-09T13:40:04Z</time>
      </trkpt>
      <trkpt lat="46.08972" lon="4.50844">
        <ele>497</ele>
        <time>2017-02-09T13:40:05Z</time>
      </trkpt>
      <trkpt lat="46.08969" lon="4.50855">
        <ele>496</ele>
        <time>2017-02-09T13:40:11Z</time>
      </trkpt>
      <trkpt lat="46.08968" lon="4.50856">
        <ele>496</ele>
        <time>2017-02-09T13:40:12Z</time>
      </trkpt>
      <trkpt lat="46.08962" lon="4.50864">
        <ele>496</ele>
        <time>2017-02-09T13:40:18Z</time>
      </trkpt>
      <trkpt lat="46.08961" lon="4.50866">
        <ele>495</ele>
        <time>2017-02-09T13:40:19Z</time>
      </trkpt>
      <trkpt lat="46.08956" lon="4.50876">
        <ele>495</ele>
        <time>2017-02-09T13:40:25Z</time>
      </trkpt>
      <trkpt lat="46.08955" lon="4.50878">
        <ele>495</ele>
        <time>2017-02-09T13:40:26Z</time>
      </trkpt>
      <trkpt lat="46.08952" lon="4.50889">
        <ele>495</ele>
        <time>2017-02-09T13:40:32Z</time>
      </trkpt>
      <trkpt lat="46.08951" lon="4.5089">
        <ele>495</ele>
        <time>2017-02-09T13:40:33Z</time>
      </trkpt>
      <trkpt lat="46.08948" lon="4.50901">
        <ele>495</ele>
        <time>2017-02-09T13:40:40Z</time>
      </trkpt>
      <trkpt lat="46.08948" lon="4.50902">
        <ele>494</ele>
        <time>2017-02-09T13:40:41Z</time>
      </trkpt>
      <trkpt lat="46.08944" lon="4.50912">
        <ele>494</ele>
        <time>2017-02-09T13:40:49Z</time>
      </trkpt>
      <trkpt lat="46.08943" lon="4.50914">
        <ele>493</ele>
        <time>2017-02-09T13:40:50Z</time>
      </trkpt>
      <trkpt lat="46.08939" lon="4.50924">
        <ele>496</ele>
        <time>2017-02-09T13:40:56Z</time>
      </trkpt>
      <trkpt lat="46.08939" lon="4.50926">
        <ele>496</ele>
        <time>2017-02-09T13:40:57Z</time>
      </trkpt>
      <trkpt lat="46.08936" lon="4.50937">
        <ele>497</ele>
        <time>2017-02-09T13:41:03Z</time>
      </trkpt>
      <trkpt lat="46.08935" lon="4.50939">
        <ele>497</ele>
        <time>2017-02-09T13:41:04Z</time>
      </trkpt>
      <trkpt lat="46.08932" lon="4.5095">
        <ele>497</ele>
        <time>2017-02-09T13:41:10Z</time>
      </trkpt>
      <trkpt lat="46.08931" lon="4.50952">
        <ele>498</ele>
        <time>2017-02-09T13:41:11Z</time>
      </trkpt>
      <trkpt lat="46.08929" lon="4.50963">
        <ele>498</ele>
        <time>2017-02-09T13:41:17Z</time>
      </trkpt>
      <trkpt lat="46.08928" lon="4.50965">
        <ele>498</ele>
        <time>2017-02-09T13:41:18Z</time>
      </trkpt>
      <trkpt lat="46.08924" lon="4.50976">
        <ele>497</ele>
        <time>2017-02-09T13:41:25Z</time>
      </trkpt>
      <trkpt lat="46.08924" lon="4.50978">
        <ele>497</ele>
        <time>2017-02-09T13:41:26Z</time>
      </trkpt>
      <trkpt lat="46.08918" lon="4.50987">
        <ele>495</ele>
        <time>2017-02-09T13:41:33Z</time>
      </trkpt>
      <trkpt lat="46.08916" lon="4.50988">
        <ele>486</ele>
        <time>2017-02-09T13:41:34Z</time>
      </trkpt>
      <trkpt lat="46.08911" lon="4.50997">
        <ele>487</ele>
        <time>2017-02-09T13:41:40Z</time>
      </trkpt>
      <trkpt lat="46.0891" lon="4.50998">
        <ele>487</ele>
        <time>2017-02-09T13:41:41Z</time>
      </trkpt>
      <trkpt lat="46.08905" lon="4.51007">
        <ele>487</ele>
        <time>2017-02-09T13:41:47Z</time>
      </trkpt>
      <trkpt lat="46.08904" lon="4.51008">
        <ele>487</ele>
        <time>2017-02-09T13:41:48Z</time>
      </trkpt>
      <trkpt lat="46.08897" lon="4.51014">
        <ele>485</ele>
        <time>2017-02-09T13:41:55Z</time>
      </trkpt>
      <trkpt lat="46.08896" lon="4.51016">
        <ele>485</ele>
        <time>2017-02-09T13:41:56Z</time>
      </trkpt>
      <trkpt lat="46.08892" lon="4.51026">
        <ele>484</ele>
        <time>2017-02-09T13:42:04Z</time>
      </trkpt>
      <trkpt lat="46.08892" lon="4.51028">
        <ele>484</ele>
        <time>2017-02-09T13:42:05Z</time>
      </trkpt>
      <trkpt lat="46.08885" lon="4.51034">
        <ele>484</ele>
        <time>2017-02-09T13:42:12Z</time>
      </trkpt>
      <trkpt lat="46.08884" lon="4.51035">
        <ele>484</ele>
        <time>2017-02-09T13:42:13Z</time>
      </trkpt>
      <trkpt lat="46.08877" lon="4.51041">
        <ele>483</ele>
        <time>2017-02-09T13:42:20Z</time>
      </trkpt>
      <trkpt lat="46.08876" lon="4.51042">
        <ele>483</ele>
        <time>2017-02-09T13:42:21Z</time>
      </trkpt>
      <trkpt lat="46.08868" lon="4.51047">
        <ele>482</ele>
        <time>2017-02-09T13:42:27Z</time>
      </trkpt>
      <trkpt lat="46.08867" lon="4.51048">
        <ele>482</ele>
        <time>2017-02-09T13:42:28Z</time>
      </trkpt>
      <trkpt lat="46.0886" lon="4.51053">
        <ele>481</ele>
        <time>2017-02-09T13:42:33Z</time>
      </trkpt>
      <trkpt lat="46.08859" lon="4.51054">
        <ele>481</ele>
        <time>2017-02-09T13:42:34Z</time>
      </trkpt>
      <trkpt lat="46.08853" lon="4.51064">
        <ele>481</ele>
        <time>2017-02-09T13:42:41Z</time>
      </trkpt>
      <trkpt lat="46.08853" lon="4.51065">
        <ele>481</ele>
        <time>2017-02-09T13:42:42Z</time>
      </trkpt>
      <trkpt lat="46.08851" lon="4.51077">
        <ele>480</ele>
        <time>2017-02-09T13:42:53Z</time>
      </trkpt>
      <trkpt lat="46.08852" lon="4.51079">
        <ele>480</ele>
        <time>2017-02-09T13:42:54Z</time>
      </trkpt>
      <trkpt lat="46.08857" lon="4.51089">
        <ele>482</ele>
        <time>2017-02-09T13:43:01Z</time>
      </trkpt>
      <trkpt lat="46.08858" lon="4.5109">
        <ele>482</ele>
        <time>2017-02-09T13:43:02Z</time>
      </trkpt>
      <trkpt lat="46.08863" lon="4.511">
        <ele>483</ele>
        <time>2017-02-09T13:43:07Z</time>
      </trkpt>
      <trkpt lat="46.08864" lon="4.51101">
        <ele>483</ele>
        <time>2017-02-09T13:43:08Z</time>
      </trkpt>
      <trkpt lat="46.08868" lon="4.51112">
        <ele>483</ele>
        <time>2017-02-09T13:43:13Z</time>
      </trkpt>
      <trkpt lat="46.08869" lon="4.51114">
        <ele>483</ele>
        <time>2017-02-09T13:43:14Z</time>
      </trkpt>
      <trkpt lat="46.08872" lon="4.51124">
        <ele>484</ele>
        <time>2017-02-09T13:43:20Z</time>
      </trkpt>
      <trkpt lat="46.08873" lon="4.51126">
        <ele>484</ele>
        <time>2017-02-09T13:43:21Z</time>
      </trkpt>
      <trkpt lat="46.08878" lon="4.51136">
        <ele>484</ele>
        <time>2017-02-09T13:43:27Z</time>
      </trkpt>
      <trkpt lat="46.08879" lon="4.51137">
        <ele>484</ele>
        <time>2017-02-09T13:43:28Z</time>
      </trkpt>
      <trkpt lat="46.08881" lon="4.51148">
        <ele>484</ele>
        <time>2017-02-09T13:43:33Z</time>
      </trkpt>
      <trkpt lat="46.08881" lon="4.5115">
        <ele>484</ele>
        <time>2017-02-09T13:43:34Z</time>
      </trkpt>
      <trkpt lat="46.08883" lon="4.51161">
        <ele>485</ele>
        <time>2017-02-09T13:43:39Z</time>
      </trkpt>
      <trkpt lat="46.08884" lon="4.51163">
        <ele>485</ele>
        <time>2017-02-09T13:43:40Z</time>
      </trkpt>
      <trkpt lat="46.08886" lon="4.51175">
        <ele>484</ele>
        <time>2017-02-09T13:43:47Z</time>
      </trkpt>
      <trkpt lat="46.08887" lon="4.51176">
        <ele>484</ele>
        <time>2017-02-09T13:43:48Z</time>
      </trkpt>
      <trkpt lat="46.08889" lon="4.51188">
        <ele>484</ele>
        <time>2017-02-09T13:43:54Z</time>
      </trkpt>
      <trkpt lat="46.08889" lon="4.51189">
        <ele>484</ele>
        <time>2017-02-09T13:43:55Z</time>
      </trkpt>
      <trkpt lat="46.08892" lon="4.512">
        <ele>484</ele>
        <time>2017-02-09T13:44:01Z</time>
      </trkpt>
      <trkpt lat="46.08892" lon="4.51202">
        <ele>484</ele>
        <time>2017-02-09T13:44:02Z</time>
      </trkpt>
      <trkpt lat="46.08896" lon="4.51212">
        <ele>484</ele>
        <time>2017-02-09T13:44:10Z</time>
      </trkpt>
      <trkpt lat="46.08897" lon="4.51213">
        <ele>484</ele>
        <time>2017-02-09T13:44:11Z</time>
      </trkpt>
      <trkpt lat="46.08901" lon="4.51223">
        <ele>484</ele>
        <time>2017-02-09T13:44:18Z</time>
      </trkpt>
      <trkpt lat="46.08902" lon="4.51225">
        <ele>484</ele>
        <time>2017-02-09T13:44:19Z</time>
      </trkpt>
      <trkpt lat="46.08904" lon="4.51236">
        <ele>484</ele>
        <time>2017-02-09T13:44:27Z</time>
      </trkpt>
      <trkpt lat="46.08904" lon="4.51238">
        <ele>484</ele>
        <time>2017-02-09T13:44:28Z</time>
      </trkpt>
      <trkpt lat="46.08907" lon="4.51249">
        <ele>484</ele>
        <time>2017-02-09T13:44:34Z</time>
      </trkpt>
      <trkpt lat="46.08908" lon="4.5125">
        <ele>484</ele>
        <time>2017-02-09T13:44:35Z</time>
      </trkpt>
      <trkpt lat="46.0891" lon="4.51261">
        <ele>484</ele>
        <time>2017-02-09T13:44:40Z</time>
      </trkpt>
      <trkpt lat="46.08911" lon="4.51263">
        <ele>484</ele>
        <time>2017-02-09T13:44:41Z</time>
      </trkpt>
      <trkpt lat="46.08914" lon="4.51275">
        <ele>484</ele>
        <time>2017-02-09T13:44:49Z</time>
      </trkpt>
      <trkpt lat="46.08915" lon="4.51276">
        <ele>484</ele>
        <time>2017-02-09T13:44:50Z</time>
      </trkpt>
      <trkpt lat="46.08917" lon="4.51288">
        <ele>484</ele>
        <time>2017-02-09T13:44:57Z</time>
      </trkpt>
      <trkpt lat="46.08917" lon="4.51289">
        <ele>490</ele>
        <time>2017-02-09T13:44:58Z</time>
      </trkpt>
      <trkpt lat="46.08918" lon="4.513">
        <ele>489</ele>
        <time>2017-02-09T13:45:06Z</time>
      </trkpt>
      <trkpt lat="46.08918" lon="4.51302">
        <ele>489</ele>
        <time>2017-02-09T13:45:07Z</time>
      </trkpt>
      <trkpt lat="46.08919" lon="4.51313">
        <ele>488</ele>
        <time>2017-02-09T13:45:13Z</time>
      </trkpt>
      <trkpt lat="46.08919" lon="4.51316">
        <ele>487</ele>
        <time>2017-02-09T13:45:14Z</time>
      </trkpt>
      <trkpt lat="46.08919" lon="4.51328">
        <ele>485</ele>
        <time>2017-02-09T13:45:19Z</time>
      </trkpt>
      <trkpt lat="46.0892" lon="4.5133">
        <ele>484</ele>
        <time>2017-02-09T13:45:20Z</time>
      </trkpt>
      <trkpt lat="46.08921" lon="4.51341">
        <ele>484</ele>
        <time>2017-02-09T13:45:26Z</time>
      </trkpt>
      <trkpt lat="46.08921" lon="4.51343">
        <ele>485</ele>
        <time>2017-02-09T13:45:27Z</time>
      </trkpt>
      <trkpt lat="46.08923" lon="4.51354">
        <ele>486</ele>
        <time>2017-02-09T13:45:35Z</time>
      </trkpt>
      <trkpt lat="46.08923" lon="4.51356">
        <ele>486</ele>
        <time>2017-02-09T13:45:36Z</time>
      </trkpt>
      <trkpt lat="46.08927" lon="4.51366">
        <ele>487</ele>
        <time>2017-02-09T13:45:44Z</time>
      </trkpt>
      <trkpt lat="46.08928" lon="4.51367">
        <ele>487</ele>
        <time>2017-02-09T13:45:45Z</time>
      </trkpt>
      <trkpt lat="46.0893" lon="4.51379">
        <ele>487</ele>
        <time>2017-02-09T13:45:53Z</time>
      </trkpt>
      <trkpt lat="46.0893" lon="4.5138">
        <ele>487</ele>
        <time>2017-02-09T13:45:54Z</time>
      </trkpt>
      <trkpt lat="46.08927" lon="4.51392">
        <ele>487</ele>
        <time>2017-02-09T13:46:01Z</time>
      </trkpt>
      <trkpt lat="46.08926" lon="4.51394">
        <ele>487</ele>
        <time>2017-02-09T13:46:02Z</time>
      </trkpt>
      <trkpt lat="46.08926" lon="4.51406">
        <ele>486</ele>
        <time>2017-02-09T13:46:08Z</time>
      </trkpt>
      <trkpt lat="46.08926" lon="4.51408">
        <ele>486</ele>
        <time>2017-02-09T13:46:09Z</time>
      </trkpt>
      <trkpt lat="46.08921" lon="4.51418">
        <ele>485</ele>
        <time>2017-02-09T13:46:16Z</time>
      </trkpt>
      <trkpt lat="46.08921" lon="4.5142">
        <ele>485</ele>
        <time>2017-02-09T13:46:17Z</time>
      </trkpt>
      <trkpt lat="46.08913" lon="4.51427">
        <ele>488</ele>
        <time>2017-02-09T13:46:26Z</time>
      </trkpt>
      <trkpt lat="46.08913" lon="4.51428">
        <ele>488</ele>
        <time>2017-02-09T13:46:27Z</time>
      </trkpt>
      <trkpt lat="46.08908" lon="4.51418">
        <ele>487</ele>
        <time>2017-02-09T13:47:14Z</time>
      </trkpt>
      <trkpt lat="46.08907" lon="4.51417">
        <ele>488</ele>
        <time>2017-02-09T13:47:15Z</time>
      </trkpt>
      <trkpt lat="46.08901" lon="4.51409">
        <ele>486</ele>
        <time>2017-02-09T13:47:23Z</time>
      </trkpt>
      <trkpt lat="46.089" lon="4.51407">
        <ele>486</ele>
        <time>2017-02-09T13:47:24Z</time>
      </trkpt>
      <trkpt lat="46.08893" lon="4.51399">
        <ele>487</ele>
        <time>2017-02-09T13:47:30Z</time>
      </trkpt>
      <trkpt lat="46.08892" lon="4.51398">
        <ele>487</ele>
        <time>2017-02-09T13:47:31Z</time>
      </trkpt>
      <trkpt lat="46.08885" lon="4.51391">
        <ele>488</ele>
        <time>2017-02-09T13:47:38Z</time>
      </trkpt>
      <trkpt lat="46.08884" lon="4.5139">
        <ele>488</ele>
        <time>2017-02-09T13:47:39Z</time>
      </trkpt>
      <trkpt lat="46.08878" lon="4.51382">
        <ele>488</ele>
        <time>2017-02-09T13:47:47Z</time>
      </trkpt>
      <trkpt lat="46.08877" lon="4.51381">
        <ele>488</ele>
        <time>2017-02-09T13:47:48Z</time>
      </trkpt>
      <trkpt lat="46.08869" lon="4.51376">
        <ele>488</ele>
        <time>2017-02-09T13:47:58Z</time>
      </trkpt>
      <trkpt lat="46.08869" lon="4.51376">
        <ele>488</ele>
        <time>2017-02-09T13:47:59Z</time>
      </trkpt>
      <trkpt lat="46.0886" lon="4.51374">
        <ele>489</ele>
        <time>2017-02-09T13:48:10Z</time>
      </trkpt>
      <trkpt lat="46.0886" lon="4.51373">
        <ele>489</ele>
        <time>2017-02-09T13:48:11Z</time>
      </trkpt>
      <trkpt lat="46.08852" lon="4.51367">
        <ele>489</ele>
        <time>2017-02-09T13:48:20Z</time>
      </trkpt>
      <trkpt lat="46.08851" lon="4.51367">
        <ele>489</ele>
        <time>2017-02-09T13:48:21Z</time>
      </trkpt>
      <trkpt lat="46.08843" lon="4.51363">
        <ele>489</ele>
        <time>2017-02-09T13:48:31Z</time>
      </trkpt>
      <trkpt lat="46.08842" lon="4.51362">
        <ele>489</ele>
        <time>2017-02-09T13:48:32Z</time>
      </trkpt>
      <trkpt lat="46.08834" lon="4.51358">
        <ele>489</ele>
        <time>2017-02-09T13:48:41Z</time>
      </trkpt>
      <trkpt lat="46.08833" lon="4.51357">
        <ele>497</ele>
        <time>2017-02-09T13:48:42Z</time>
      </trkpt>
      <trkpt lat="46.08826" lon="4.5135">
        <ele>496</ele>
        <time>2017-02-09T13:48:54Z</time>
      </trkpt>
      <trkpt lat="46.08825" lon="4.51349">
        <ele>496</ele>
        <time>2017-02-09T13:48:55Z</time>
      </trkpt>
      <trkpt lat="46.08817" lon="4.51345">
        <ele>497</ele>
        <time>2017-02-09T13:49:04Z</time>
      </trkpt>
      <trkpt lat="46.08816" lon="4.51344">
        <ele>497</ele>
        <time>2017-02-09T13:49:05Z</time>
      </trkpt>
      <trkpt lat="46.08808" lon="4.5134">
        <ele>499</ele>
        <time>2017-02-09T13:49:13Z</time>
      </trkpt>
      <trkpt lat="46.08807" lon="4.5134">
        <ele>499</ele>
        <time>2017-02-09T13:49:14Z</time>
      </trkpt>
      <trkpt lat="46.08799" lon="4.51336">
        <ele>501</ele>
        <time>2017-02-09T13:49:23Z</time>
      </trkpt>
      <trkpt lat="46.08799" lon="4.51335">
        <ele>501</ele>
        <time>2017-02-09T13:49:24Z</time>
      </trkpt>
      <trkpt lat="46.08791" lon="4.51331">
        <ele>497</ele>
        <time>2017-02-09T13:49:33Z</time>
      </trkpt>
      <trkpt lat="46.0879" lon="4.5133">
        <ele>497</ele>
        <time>2017-02-09T13:49:34Z</time>
      </trkpt>
      <trkpt lat="46.08782" lon="4.51326">
        <ele>499</ele>
        <time>2017-02-09T13:49:44Z</time>
      </trkpt>
      <trkpt lat="46.08781" lon="4.51326">
        <ele>499</ele>
        <time>2017-02-09T13:49:45Z</time>
      </trkpt>
      <trkpt lat="46.08773" lon="4.51322">
        <ele>501</ele>
        <time>2017-02-09T13:49:54Z</time>
      </trkpt>
      <trkpt lat="46.08772" lon="4.51321">
        <ele>501</ele>
        <time>2017-02-09T13:49:55Z</time>
      </trkpt>
      <trkpt lat="46.08764" lon="4.51317">
        <ele>502</ele>
        <time>2017-02-09T13:50:05Z</time>
      </trkpt>
      <trkpt lat="46.08763" lon="4.51316">
        <ele>502</ele>
        <time>2017-02-09T13:50:06Z</time>
      </trkpt>
      <trkpt lat="46.08756" lon="4.51309">
        <ele>502</ele>
        <time>2017-02-09T13:50:17Z</time>
      </trkpt>
      <trkpt lat="46.08756" lon="4.51308">
        <ele>501</ele>
        <time>2017-02-09T13:50:18Z</time>
      </trkpt>
      <trkpt lat="46.08748" lon="4.51302">
        <ele>515</ele>
        <time>2017-02-09T13:50:30Z</time>
      </trkpt>
      <trkpt lat="46.08748" lon="4.51301">
        <ele>515</ele>
        <time>2017-02-09T13:50:31Z</time>
      </trkpt>
      <trkpt lat="46.08741" lon="4.51293">
        <ele>515</ele>
        <time>2017-02-09T13:50:42Z</time>
      </trkpt>
      <trkpt lat="46.08741" lon="4.51292">
        <ele>515</ele>
        <time>2017-02-09T13:50:43Z</time>
      </trkpt>
      <trkpt lat="46.08735" lon="4.51283">
        <ele>515</ele>
        <time>2017-02-09T13:50:54Z</time>
      </trkpt>
      <trkpt lat="46.08734" lon="4.51283">
        <ele>515</ele>
        <time>2017-02-09T13:50:55Z</time>
      </trkpt>
      <trkpt lat="46.08728" lon="4.51274">
        <ele>515</ele>
        <time>2017-02-09T13:51:05Z</time>
      </trkpt>
      <trkpt lat="46.08727" lon="4.51273">
        <ele>515</ele>
        <time>2017-02-09T13:51:06Z</time>
      </trkpt>
      <trkpt lat="46.08721" lon="4.51264">
        <ele>515</ele>
        <time>2017-02-09T13:51:17Z</time>
      </trkpt>
      <trkpt lat="46.08721" lon="4.51263">
        <ele>515</ele>
        <time>2017-02-09T13:51:18Z</time>
      </trkpt>
      <trkpt lat="46.08715" lon="4.51254">
        <ele>516</ele>
        <time>2017-02-09T13:51:29Z</time>
      </trkpt>
      <trkpt lat="46.08714" lon="4.51253">
        <ele>516</ele>
        <time>2017-02-09T13:51:30Z</time>
      </trkpt>
      <trkpt lat="46.08708" lon="4.51246">
        <ele>514</ele>
        <time>2017-02-09T13:51:38Z</time>
      </trkpt>
      <trkpt lat="46.08707" lon="4.51244">
        <ele>514</ele>
        <time>2017-02-09T13:51:39Z</time>
      </trkpt>
      <trkpt lat="46.08702" lon="4.51234">
        <ele>515</ele>
        <time>2017-02-09T13:51:48Z</time>
      </trkpt>
      <trkpt lat="46.08701" lon="4.51234">
        <ele>515</ele>
        <time>2017-02-09T13:51:49Z</time>
      </trkpt>
      <trkpt lat="46.08695" lon="4.51225">
        <ele>516</ele>
        <time>2017-02-09T13:52:00Z</time>
      </trkpt>
      <trkpt lat="46.08695" lon="4.51224">
        <ele>516</ele>
        <time>2017-02-09T13:52:01Z</time>
      </trkpt>
      <trkpt lat="46.08688" lon="4.51216">
        <ele>516</ele>
        <time>2017-02-09T13:52:14Z</time>
      </trkpt>
      <trkpt lat="46.08688" lon="4.51215">
        <ele>516</ele>
        <time>2017-02-09T13:52:15Z</time>
      </trkpt>
      <trkpt lat="46.0868" lon="4.51209">
        <ele>517</ele>
        <time>2017-02-09T13:52:26Z</time>
      </trkpt>
      <trkpt lat="46.08679" lon="4.51209">
        <ele>517</ele>
        <time>2017-02-09T13:52:27Z</time>
      </trkpt>
      <trkpt lat="46.08671" lon="4.51207">
        <ele>518</ele>
        <time>2017-02-09T13:52:35Z</time>
      </trkpt>
      <trkpt lat="46.0867" lon="4.51207">
        <ele>518</ele>
        <time>2017-02-09T13:52:36Z</time>
      </trkpt>
      <trkpt lat="46.08661" lon="4.51209">
        <ele>528</ele>
        <time>2017-02-09T13:52:45Z</time>
      </trkpt>
      <trkpt lat="46.0866" lon="4.51209">
        <ele>528</ele>
        <time>2017-02-09T13:52:46Z</time>
      </trkpt>
      <trkpt lat="46.08652" lon="4.51212">
        <ele>528</ele>
        <time>2017-02-09T13:52:54Z</time>
      </trkpt>
      <trkpt lat="46.08651" lon="4.51213">
        <ele>528</ele>
        <time>2017-02-09T13:52:55Z</time>
      </trkpt>
      <trkpt lat="46.08643" lon="4.51217">
        <ele>528</ele>
        <time>2017-02-09T13:53:02Z</time>
      </trkpt>
      <trkpt lat="46.08642" lon="4.51218">
        <ele>528</ele>
        <time>2017-02-09T13:53:03Z</time>
      </trkpt>
      <trkpt lat="46.08635" lon="4.51226">
        <ele>528</ele>
        <time>2017-02-09T13:53:11Z</time>
      </trkpt>
      <trkpt lat="46.08635" lon="4.51227">
        <ele>528</ele>
        <time>2017-02-09T13:53:12Z</time>
      </trkpt>
      <trkpt lat="46.08631" lon="4.51238">
        <ele>528</ele>
        <time>2017-02-09T13:53:20Z</time>
      </trkpt>
      <trkpt lat="46.08631" lon="4.5124">
        <ele>528</ele>
        <time>2017-02-09T13:53:21Z</time>
      </trkpt>
      <trkpt lat="46.08629" lon="4.51252">
        <ele>530</ele>
        <time>2017-02-09T13:53:39Z</time>
      </trkpt>
      <trkpt lat="46.08628" lon="4.51253">
        <ele>530</ele>
        <time>2017-02-09T13:53:40Z</time>
      </trkpt>
      <trkpt lat="46.08629" lon="4.51266">
        <ele>530</ele>
        <time>2017-02-09T13:56:43Z</time>
      </trkpt>
      <trkpt lat="46.08629" lon="4.51266">
        <ele>530</ele>
        <time>2017-02-09T13:56:44Z</time>
      </trkpt>
      <trkpt lat="46.08622" lon="4.51273">
        <ele>530</ele>
        <time>2017-02-09T13:57:05Z</time>
      </trkpt>
      <trkpt lat="46.08621" lon="4.51275">
        <ele>530</ele>
        <time>2017-02-09T13:57:06Z</time>
      </trkpt>
      <trkpt lat="46.08617" lon="4.51284">
        <ele>531</ele>
        <time>2017-02-09T13:57:12Z</time>
      </trkpt>
      <trkpt lat="46.08616" lon="4.51285">
        <ele>531</ele>
        <time>2017-02-09T13:57:13Z</time>
      </trkpt>
      <trkpt lat="46.08611" lon="4.51294">
        <ele>531</ele>
        <time>2017-02-09T13:57:19Z</time>
      </trkpt>
      <trkpt lat="46.0861" lon="4.51295">
        <ele>531</ele>
        <time>2017-02-09T13:57:20Z</time>
      </trkpt>
      <trkpt lat="46.08606" lon="4.51306">
        <ele>531</ele>
        <time>2017-02-09T13:57:27Z</time>
      </trkpt>
      <trkpt lat="46.08605" lon="4.51308">
        <ele>531</ele>
        <time>2017-02-09T13:57:28Z</time>
      </trkpt>
      <trkpt lat="46.08599" lon="4.51317">
        <ele>532</ele>
        <time>2017-02-09T13:57:35Z</time>
      </trkpt>
      <trkpt lat="46.08598" lon="4.51318">
        <ele>532</ele>
        <time>2017-02-09T13:57:36Z</time>
      </trkpt>
      <trkpt lat="46.08593" lon="4.51328">
        <ele>532</ele>
        <time>2017-02-09T13:57:44Z</time>
      </trkpt>
      <trkpt lat="46.08592" lon="4.51329">
        <ele>532</ele>
        <time>2017-02-09T13:57:45Z</time>
      </trkpt>
      <trkpt lat="46.08588" lon="4.51338">
        <ele>534</ele>
        <time>2017-02-09T13:57:52Z</time>
      </trkpt>
      <trkpt lat="46.08587" lon="4.5134">
        <ele>534</ele>
        <time>2017-02-09T13:57:53Z</time>
      </trkpt>
      <trkpt lat="46.08581" lon="4.51348">
        <ele>533</ele>
        <time>2017-02-09T13:58:00Z</time>
      </trkpt>
      <trkpt lat="46.0858" lon="4.51349">
        <ele>533</ele>
        <time>2017-02-09T13:58:01Z</time>
      </trkpt>
      <trkpt lat="46.08573" lon="4.51357">
        <ele>533</ele>
        <time>2017-02-09T13:58:08Z</time>
      </trkpt>
      <trkpt lat="46.08572" lon="4.51358">
        <ele>533</ele>
        <time>2017-02-09T13:58:09Z</time>
      </trkpt>
      <trkpt lat="46.08566" lon="4.51365">
        <ele>533</ele>
        <time>2017-02-09T13:58:16Z</time>
      </trkpt>
      <trkpt lat="46.08565" lon="4.51366">
        <ele>533</ele>
        <time>2017-02-09T13:58:17Z</time>
      </trkpt>
      <trkpt lat="46.08558" lon="4.51374">
        <ele>533</ele>
        <time>2017-02-09T13:58:28Z</time>
      </trkpt>
      <trkpt lat="46.08557" lon="4.51375">
        <ele>533</ele>
        <time>2017-02-09T13:58:29Z</time>
      </trkpt>
      <trkpt lat="46.08549" lon="4.5138">
        <ele>533</ele>
        <time>2017-02-09T13:58:37Z</time>
      </trkpt>
      <trkpt lat="46.08548" lon="4.51381">
        <ele>532</ele>
        <time>2017-02-09T13:58:38Z</time>
      </trkpt>
      <trkpt lat="46.08541" lon="4.51385">
        <ele>532</ele>
        <time>2017-02-09T13:58:44Z</time>
      </trkpt>
      <trkpt lat="46.08539" lon="4.51385">
        <ele>532</ele>
        <time>2017-02-09T13:58:45Z</time>
      </trkpt>
      <trkpt lat="46.08532" lon="4.5139">
        <ele>532</ele>
        <time>2017-02-09T13:58:51Z</time>
      </trkpt>
      <trkpt lat="46.08531" lon="4.51391">
        <ele>532</ele>
        <time>2017-02-09T13:58:52Z</time>
      </trkpt>
      <trkpt lat="46.08523" lon="4.51398">
        <ele>531</ele>
        <time>2017-02-09T13:58:58Z</time>
      </trkpt>
      <trkpt lat="46.08522" lon="4.51398">
        <ele>531</ele>
        <time>2017-02-09T13:58:59Z</time>
      </trkpt>
      <trkpt lat="46.08515" lon="4.51406">
        <ele>531</ele>
        <time>2017-02-09T13:59:06Z</time>
      </trkpt>
      <trkpt lat="46.08514" lon="4.51407">
        <ele>531</ele>
        <time>2017-02-09T13:59:07Z</time>
      </trkpt>
      <trkpt lat="46.08508" lon="4.51413">
        <ele>531</ele>
        <time>2017-02-09T13:59:14Z</time>
      </trkpt>
      <trkpt lat="46.08507" lon="4.51414">
        <ele>531</ele>
        <time>2017-02-09T13:59:15Z</time>
      </trkpt>
      <trkpt lat="46.085" lon="4.51423">
        <ele>534</ele>
        <time>2017-02-09T13:59:23Z</time>
      </trkpt>
      <trkpt lat="46.08499" lon="4.51424">
        <ele>530</ele>
        <time>2017-02-09T13:59:24Z</time>
      </trkpt>
      <trkpt lat="46.08493" lon="4.51433">
        <ele>530</ele>
        <time>2017-02-09T13:59:31Z</time>
      </trkpt>
      <trkpt lat="46.08492" lon="4.51434">
        <ele>530</ele>
        <time>2017-02-09T13:59:32Z</time>
      </trkpt>
      <trkpt lat="46.08486" lon="4.51441">
        <ele>529</ele>
        <time>2017-02-09T13:59:38Z</time>
      </trkpt>
      <trkpt lat="46.08485" lon="4.51442">
        <ele>529</ele>
        <time>2017-02-09T13:59:39Z</time>
      </trkpt>
      <trkpt lat="46.08479" lon="4.5145">
        <ele>529</ele>
        <time>2017-02-09T13:59:45Z</time>
      </trkpt>
      <trkpt lat="46.08478" lon="4.51451">
        <ele>529</ele>
        <time>2017-02-09T13:59:46Z</time>
      </trkpt>
      <trkpt lat="46.08474" lon="4.5146">
        <ele>529</ele>
        <time>2017-02-09T13:59:52Z</time>
      </trkpt>
      <trkpt lat="46.08473" lon="4.51462">
        <ele>529</ele>
        <time>2017-02-09T13:59:53Z</time>
      </trkpt>
      <trkpt lat="46.08468" lon="4.51473">
        <ele>529</ele>
        <time>2017-02-09T14:00:00Z</time>
      </trkpt>
      <trkpt lat="46.08468" lon="4.51474">
        <ele>529</ele>
        <time>2017-02-09T14:00:01Z</time>
      </trkpt>
      <trkpt lat="46.08463" lon="4.51486">
        <ele>530</ele>
        <time>2017-02-09T14:00:08Z</time>
      </trkpt>
      <trkpt lat="46.08463" lon="4.51487">
        <ele>529</ele>
        <time>2017-02-09T14:00:09Z</time>
      </trkpt>
      <trkpt lat="46.0846" lon="4.51499">
        <ele>529</ele>
        <time>2017-02-09T14:00:16Z</time>
      </trkpt>
      <trkpt lat="46.08459" lon="4.51501">
        <ele>534</ele>
        <time>2017-02-09T14:00:17Z</time>
      </trkpt>
      <trkpt lat="46.08456" lon="4.51512">
        <ele>534</ele>
        <time>2017-02-09T14:00:24Z</time>
      </trkpt>
      <trkpt lat="46.08456" lon="4.51514">
        <ele>534</ele>
        <time>2017-02-09T14:00:25Z</time>
      </trkpt>
      <trkpt lat="46.08453" lon="4.51525">
        <ele>534</ele>
        <time>2017-02-09T14:00:32Z</time>
      </trkpt>
      <trkpt lat="46.08453" lon="4.51527">
        <ele>534</ele>
        <time>2017-02-09T14:00:33Z</time>
      </trkpt>
      <trkpt lat="46.08451" lon="4.51538">
        <ele>534</ele>
        <time>2017-02-09T14:00:40Z</time>
      </trkpt>
      <trkpt lat="46.08451" lon="4.5154">
        <ele>534</ele>
        <time>2017-02-09T14:00:41Z</time>
      </trkpt>
      <trkpt lat="46.0845" lon="4.51552">
        <ele>535</ele>
        <time>2017-02-09T14:00:48Z</time>
      </trkpt>
      <trkpt lat="46.08449" lon="4.51554">
        <ele>535</ele>
        <time>2017-02-09T14:00:49Z</time>
      </trkpt>
      <trkpt lat="46.08449" lon="4.51566">
        <ele>535</ele>
        <time>2017-02-09T14:00:56Z</time>
      </trkpt>
      <trkpt lat="46.08448" lon="4.51567">
        <ele>535</ele>
        <time>2017-02-09T14:00:57Z</time>
      </trkpt>
      <trkpt lat="46.08448" lon="4.5158">
        <ele>535</ele>
        <time>2017-02-09T14:01:04Z</time>
      </trkpt>
      <trkpt lat="46.08448" lon="4.51581">
        <ele>535</ele>
        <time>2017-02-09T14:01:05Z</time>
      </trkpt>
      <trkpt lat="46.08447" lon="4.51594">
        <ele>538</ele>
        <time>2017-02-09T14:01:12Z</time>
      </trkpt>
      <trkpt lat="46.08447" lon="4.51596">
        <ele>538</ele>
        <time>2017-02-09T14:01:13Z</time>
      </trkpt>
      <trkpt lat="46.08447" lon="4.51608">
        <ele>538</ele>
        <time>2017-02-09T14:01:20Z</time>
      </trkpt>
      <trkpt lat="46.08446" lon="4.5161">
        <ele>538</ele>
        <time>2017-02-09T14:01:21Z</time>
      </trkpt>
      <trkpt lat="46.08446" lon="4.51622">
        <ele>538</ele>
        <time>2017-02-09T14:01:28Z</time>
      </trkpt>
      <trkpt lat="46.08446" lon="4.51624">
        <ele>538</ele>
        <time>2017-02-09T14:01:29Z</time>
      </trkpt>
      <trkpt lat="46.08446" lon="4.51635">
        <ele>538</ele>
        <time>2017-02-09T14:01:35Z</time>
      </trkpt>
      <trkpt lat="46.08446" lon="4.51637">
        <ele>538</ele>
        <time>2017-02-09T14:01:36Z</time>
      </trkpt>
      <trkpt lat="46.08447" lon="4.5165">
        <ele>538</ele>
        <time>2017-02-09T14:01:43Z</time>
      </trkpt>
      <trkpt lat="46.08448" lon="4.51651">
        <ele>538</ele>
        <time>2017-02-09T14:01:44Z</time>
      </trkpt>
      <trkpt lat="46.08448" lon="4.51663">
        <ele>538</ele>
        <time>2017-02-09T14:01:51Z</time>
      </trkpt>
      <trkpt lat="46.08448" lon="4.51665">
        <ele>538</ele>
        <time>2017-02-09T14:01:52Z</time>
      </trkpt>
      <trkpt lat="46.08449" lon="4.51678">
        <ele>537</ele>
        <time>2017-02-09T14:02:00Z</time>
      </trkpt>
      <trkpt lat="46.08449" lon="4.51679">
        <ele>537</ele>
        <time>2017-02-09T14:02:01Z</time>
      </trkpt>
      <trkpt lat="46.0845" lon="4.51691">
        <ele>538</ele>
        <time>2017-02-09T14:02:08Z</time>
      </trkpt>
      <trkpt lat="46.0845" lon="4.51692">
        <ele>538</ele>
        <time>2017-02-09T14:02:09Z</time>
      </trkpt>
      <trkpt lat="46.08451" lon="4.51704">
        <ele>538</ele>
        <time>2017-02-09T14:02:16Z</time>
      </trkpt>
      <trkpt lat="46.08451" lon="4.51706">
        <ele>538</ele>
        <time>2017-02-09T14:02:17Z</time>
      </trkpt>
      <trkpt lat="46.08453" lon="4.51718">
        <ele>538</ele>
        <time>2017-02-09T14:02:24Z</time>
      </trkpt>
      <trkpt lat="46.08453" lon="4.51719">
        <ele>538</ele>
        <time>2017-02-09T14:02:25Z</time>
      </trkpt>
      <trkpt lat="46.08456" lon="4.51731">
        <ele>538</ele>
        <time>2017-02-09T14:02:32Z</time>
      </trkpt>
      <trkpt lat="46.08456" lon="4.51733">
        <ele>538</ele>
        <time>2017-02-09T14:02:33Z</time>
      </trkpt>
      <trkpt lat="46.08459" lon="4.51744">
        <ele>538</ele>
        <time>2017-02-09T14:02:40Z</time>
      </trkpt>
      <trkpt lat="46.0846" lon="4.51746">
        <ele>539</ele>
        <time>2017-02-09T14:02:41Z</time>
      </trkpt>
      <trkpt lat="46.08461" lon="4.51758">
        <ele>538</ele>
        <time>2017-02-09T14:02:48Z</time>
      </trkpt>
      <trkpt lat="46.08462" lon="4.51759">
        <ele>538</ele>
        <time>2017-02-09T14:02:49Z</time>
      </trkpt>
      <trkpt lat="46.08462" lon="4.51771">
        <ele>538</ele>
        <time>2017-02-09T14:02:56Z</time>
      </trkpt>
      <trkpt lat="46.08462" lon="4.51773">
        <ele>538</ele>
        <time>2017-02-09T14:02:57Z</time>
      </trkpt>
      <trkpt lat="46.0846" lon="4.51785">
        <ele>538</ele>
        <time>2017-02-09T14:03:05Z</time>
      </trkpt>
      <trkpt lat="46.08459" lon="4.51786">
        <ele>538</ele>
        <time>2017-02-09T14:03:06Z</time>
      </trkpt>
      <trkpt lat="46.08453" lon="4.51795">
        <ele>537</ele>
        <time>2017-02-09T14:03:14Z</time>
      </trkpt>
      <trkpt lat="46.08453" lon="4.51796">
        <ele>537</ele>
        <time>2017-02-09T14:03:15Z</time>
      </trkpt>
      <trkpt lat="46.08453" lon="4.51808">
        <ele>537</ele>
        <time>2017-02-09T14:03:31Z</time>
      </trkpt>
      <trkpt lat="46.08453" lon="4.5181">
        <ele>537</ele>
        <time>2017-02-09T14:03:32Z</time>
      </trkpt>
      <trkpt lat="46.0845" lon="4.51821">
        <ele>537</ele>
        <time>2017-02-09T14:03:39Z</time>
      </trkpt>
      <trkpt lat="46.0845" lon="4.51822">
        <ele>537</ele>
        <time>2017-02-09T14:03:40Z</time>
      </trkpt>
      <trkpt lat="46.08448" lon="4.51835">
        <ele>539</ele>
        <time>2017-02-09T14:03:49Z</time>
      </trkpt>
      <trkpt lat="46.08447" lon="4.51836">
        <ele>539</ele>
        <time>2017-02-09T14:03:50Z</time>
      </trkpt>
      <trkpt lat="46.08452" lon="4.51825">
        <ele>537</ele>
        <time>2017-02-09T14:04:02Z</time>
      </trkpt>
      <trkpt lat="46.08452" lon="4.51823">
        <ele>537</ele>
        <time>2017-02-09T14:04:03Z</time>
      </trkpt>
      <trkpt lat="46.08456" lon="4.51813">
        <ele>537</ele>
        <time>2017-02-09T14:04:10Z</time>
      </trkpt>
      <trkpt lat="46.08457" lon="4.51811">
        <ele>537</ele>
        <time>2017-02-09T14:04:11Z</time>
      </trkpt>
      <trkpt lat="46.0845" lon="4.51803">
        <ele>537</ele>
        <time>2017-02-09T14:04:30Z</time>
      </trkpt>
      <trkpt lat="46.0845" lon="4.51803">
        <ele>537</ele>
        <time>2017-02-09T14:04:31Z</time>
      </trkpt>
      <trkpt lat="46.08441" lon="4.51804">
        <ele>536</ele>
        <time>2017-02-09T14:04:39Z</time>
      </trkpt>
      <trkpt lat="46.0844" lon="4.51805">
        <ele>536</ele>
        <time>2017-02-09T14:04:40Z</time>
      </trkpt>
      <trkpt lat="46.08432" lon="4.51807">
        <ele>535</ele>
        <time>2017-02-09T14:04:47Z</time>
      </trkpt>
      <trkpt lat="46.08431" lon="4.51808">
        <ele>535</ele>
        <time>2017-02-09T14:04:48Z</time>
      </trkpt>
      <trkpt lat="46.08422" lon="4.5181">
        <ele>534</ele>
        <time>2017-02-09T14:04:55Z</time>
      </trkpt>
      <trkpt lat="46.08421" lon="4.5181">
        <ele>534</ele>
        <time>2017-02-09T14:04:56Z</time>
      </trkpt>
      <trkpt lat="46.08413" lon="4.51811">
        <ele>524</ele>
        <time>2017-02-09T14:05:02Z</time>
      </trkpt>
      <trkpt lat="46.08412" lon="4.51811">
        <ele>524</ele>
        <time>2017-02-09T14:05:03Z</time>
      </trkpt>
      <trkpt lat="46.08403" lon="4.51812">
        <ele>523</ele>
        <time>2017-02-09T14:05:10Z</time>
      </trkpt>
      <trkpt lat="46.08402" lon="4.51812">
        <ele>523</ele>
        <time>2017-02-09T14:05:11Z</time>
      </trkpt>
      <trkpt lat="46.08394" lon="4.51814">
        <ele>522</ele>
        <time>2017-02-09T14:05:17Z</time>
      </trkpt>
      <trkpt lat="46.08393" lon="4.51814">
        <ele>522</ele>
        <time>2017-02-09T14:05:18Z</time>
      </trkpt>
      <trkpt lat="46.08385" lon="4.51816">
        <ele>520</ele>
        <time>2017-02-09T14:05:24Z</time>
      </trkpt>
      <trkpt lat="46.08383" lon="4.51816">
        <ele>520</ele>
        <time>2017-02-09T14:05:25Z</time>
      </trkpt>
      <trkpt lat="46.08375" lon="4.5182">
        <ele>519</ele>
        <time>2017-02-09T14:05:32Z</time>
      </trkpt>
      <trkpt lat="46.08373" lon="4.51821">
        <ele>519</ele>
        <time>2017-02-09T14:05:33Z</time>
      </trkpt>
      <trkpt lat="46.08366" lon="4.51826">
        <ele>518</ele>
        <time>2017-02-09T14:05:40Z</time>
      </trkpt>
      <trkpt lat="46.08364" lon="4.51826">
        <ele>518</ele>
        <time>2017-02-09T14:05:41Z</time>
      </trkpt>
      <trkpt lat="46.08357" lon="4.51831">
        <ele>516</ele>
        <time>2017-02-09T14:05:49Z</time>
      </trkpt>
      <trkpt lat="46.08356" lon="4.51832">
        <ele>516</ele>
        <time>2017-02-09T14:05:50Z</time>
      </trkpt>
      <trkpt lat="46.08349" lon="4.51839">
        <ele>518</ele>
        <time>2017-02-09T14:05:58Z</time>
      </trkpt>
      <trkpt lat="46.08348" lon="4.5184">
        <ele>518</ele>
        <time>2017-02-09T14:05:59Z</time>
      </trkpt>
      <trkpt lat="46.08341" lon="4.51844">
        <ele>517</ele>
        <time>2017-02-09T14:06:09Z</time>
      </trkpt>
      <trkpt lat="46.0834" lon="4.51845">
        <ele>517</ele>
        <time>2017-02-09T14:06:10Z</time>
      </trkpt>
      <trkpt lat="46.08333" lon="4.51852">
        <ele>506</ele>
        <time>2017-02-09T14:06:18Z</time>
      </trkpt>
      <trkpt lat="46.08332" lon="4.51853">
        <ele>506</ele>
        <time>2017-02-09T14:06:19Z</time>
      </trkpt>
      <trkpt lat="46.0833" lon="4.51866">
        <ele>505</ele>
        <time>2017-02-09T14:06:26Z</time>
      </trkpt>
      <trkpt lat="46.0833" lon="4.51867">
        <ele>504</ele>
        <time>2017-02-09T14:06:27Z</time>
      </trkpt>
      <trkpt lat="46.08327" lon="4.51879">
        <ele>504</ele>
        <time>2017-02-09T14:06:34Z</time>
      </trkpt>
      <trkpt lat="46.08327" lon="4.5188">
        <ele>504</ele>
        <time>2017-02-09T14:06:35Z</time>
      </trkpt>
      <trkpt lat="46.08326" lon="4.51891">
        <ele>506</ele>
        <time>2017-02-09T14:06:41Z</time>
      </trkpt>
      <trkpt lat="46.08326" lon="4.51893">
        <ele>506</ele>
        <time>2017-02-09T14:06:42Z</time>
      </trkpt>
      <trkpt lat="46.08323" lon="4.51906">
        <ele>508</ele>
        <time>2017-02-09T14:06:49Z</time>
      </trkpt>
      <trkpt lat="46.08323" lon="4.51907">
        <ele>509</ele>
        <time>2017-02-09T14:06:50Z</time>
      </trkpt>
      <trkpt lat="46.0832" lon="4.51918">
        <ele>510</ele>
        <time>2017-02-09T14:06:58Z</time>
      </trkpt>
      <trkpt lat="46.08319" lon="4.51919">
        <ele>510</ele>
        <time>2017-02-09T14:06:59Z</time>
      </trkpt>
      <trkpt lat="46.08313" lon="4.51928">
        <ele>507</ele>
        <time>2017-02-09T14:07:06Z</time>
      </trkpt>
      <trkpt lat="46.08313" lon="4.5193">
        <ele>507</ele>
        <time>2017-02-09T14:07:07Z</time>
      </trkpt>
      <trkpt lat="46.08308" lon="4.5194">
        <ele>506</ele>
        <time>2017-02-09T14:07:14Z</time>
      </trkpt>
      <trkpt lat="46.08308" lon="4.51941">
        <ele>505</ele>
        <time>2017-02-09T14:07:15Z</time>
      </trkpt>
      <trkpt lat="46.08303" lon="4.51951">
        <ele>504</ele>
        <time>2017-02-09T14:07:22Z</time>
      </trkpt>
      <trkpt lat="46.08303" lon="4.51953">
        <ele>504</ele>
        <time>2017-02-09T14:07:23Z</time>
      </trkpt>
      <trkpt lat="46.08298" lon="4.51963">
        <ele>504</ele>
        <time>2017-02-09T14:07:30Z</time>
      </trkpt>
      <trkpt lat="46.08298" lon="4.51964">
        <ele>504</ele>
        <time>2017-02-09T14:07:31Z</time>
      </trkpt>
      <trkpt lat="46.08293" lon="4.51974">
        <ele>503</ele>
        <time>2017-02-09T14:07:38Z</time>
      </trkpt>
      <trkpt lat="46.08293" lon="4.51975">
        <ele>503</ele>
        <time>2017-02-09T14:07:39Z</time>
      </trkpt>
      <trkpt lat="46.08288" lon="4.51986">
        <ele>502</ele>
        <time>2017-02-09T14:07:47Z</time>
      </trkpt>
      <trkpt lat="46.08288" lon="4.51988">
        <ele>502</ele>
        <time>2017-02-09T14:07:48Z</time>
      </trkpt>
      <trkpt lat="46.08285" lon="4.51999">
        <ele>502</ele>
        <time>2017-02-09T14:07:56Z</time>
      </trkpt>
      <trkpt lat="46.08285" lon="4.52">
        <ele>502</ele>
        <time>2017-02-09T14:07:57Z</time>
      </trkpt>
      <trkpt lat="46.08281" lon="4.52011">
        <ele>503</ele>
        <time>2017-02-09T14:08:06Z</time>
      </trkpt>
      <trkpt lat="46.08281" lon="4.52013">
        <ele>503</ele>
        <time>2017-02-09T14:08:07Z</time>
      </trkpt>
      <trkpt lat="46.08276" lon="4.52023">
        <ele>503</ele>
        <time>2017-02-09T14:08:16Z</time>
      </trkpt>
      <trkpt lat="46.08275" lon="4.52024">
        <ele>503</ele>
        <time>2017-02-09T14:08:17Z</time>
      </trkpt>
      <trkpt lat="46.08271" lon="4.52035">
        <ele>503</ele>
        <time>2017-02-09T14:08:25Z</time>
      </trkpt>
      <trkpt lat="46.0827" lon="4.52036">
        <ele>503</ele>
        <time>2017-02-09T14:08:26Z</time>
      </trkpt>
      <trkpt lat="46.08266" lon="4.52047">
        <ele>502</ele>
        <time>2017-02-09T14:08:33Z</time>
      </trkpt>
      <trkpt lat="46.08265" lon="4.52048">
        <ele>502</ele>
        <time>2017-02-09T14:08:34Z</time>
      </trkpt>
      <trkpt lat="46.08258" lon="4.52057">
        <ele>501</ele>
        <time>2017-02-09T14:08:42Z</time>
      </trkpt>
      <trkpt lat="46.08258" lon="4.52058">
        <ele>501</ele>
        <time>2017-02-09T14:08:43Z</time>
      </trkpt>
      <trkpt lat="46.08253" lon="4.52067">
        <ele>499</ele>
        <time>2017-02-09T14:08:52Z</time>
      </trkpt>
      <trkpt lat="46.08252" lon="4.52068">
        <ele>499</ele>
        <time>2017-02-09T14:08:53Z</time>
      </trkpt>
      <trkpt lat="46.08246" lon="4.52076">
        <ele>492</ele>
        <time>2017-02-09T14:09:01Z</time>
      </trkpt>
      <trkpt lat="46.08245" lon="4.52077">
        <ele>492</ele>
        <time>2017-02-09T14:09:02Z</time>
      </trkpt>
      <trkpt lat="46.08241" lon="4.52065">
        <ele>490</ele>
        <time>2017-02-09T14:10:51Z</time>
      </trkpt>
      <trkpt lat="46.08241" lon="4.52064">
        <ele>490</ele>
        <time>2017-02-09T14:10:52Z</time>
      </trkpt>
      <trkpt lat="46.08243" lon="4.52052">
        <ele>489</ele>
        <time>2017-02-09T14:10:59Z</time>
      </trkpt>
      <trkpt lat="46.08244" lon="4.5205">
        <ele>489</ele>
        <time>2017-02-09T14:11:00Z</time>
      </trkpt>
      <trkpt lat="46.08247" lon="4.52038">
        <ele>489</ele>
        <time>2017-02-09T14:11:06Z</time>
      </trkpt>
      <trkpt lat="46.08246" lon="4.52036">
        <ele>489</ele>
        <time>2017-02-09T14:11:07Z</time>
      </trkpt>
      <trkpt lat="46.08244" lon="4.52025">
        <ele>488</ele>
        <time>2017-02-09T14:11:14Z</time>
      </trkpt>
      <trkpt lat="46.08244" lon="4.52024">
        <ele>488</ele>
        <time>2017-02-09T14:11:15Z</time>
      </trkpt>
      <trkpt lat="46.08244" lon="4.52012">
        <ele>488</ele>
        <time>2017-02-09T14:11:21Z</time>
      </trkpt>
      <trkpt lat="46.08244" lon="4.5201">
        <ele>488</ele>
        <time>2017-02-09T14:11:22Z</time>
      </trkpt>
      <trkpt lat="46.08244" lon="4.51998">
        <ele>488</ele>
        <time>2017-02-09T14:11:29Z</time>
      </trkpt>
      <trkpt lat="46.08244" lon="4.51996">
        <ele>488</ele>
        <time>2017-02-09T14:11:30Z</time>
      </trkpt>
      <trkpt lat="46.08245" lon="4.51985">
        <ele>487</ele>
        <time>2017-02-09T14:11:37Z</time>
      </trkpt>
      <trkpt lat="46.08246" lon="4.51983">
        <ele>487</ele>
        <time>2017-02-09T14:11:38Z</time>
      </trkpt>
      <trkpt lat="46.08247" lon="4.51971">
        <ele>486</ele>
        <time>2017-02-09T14:11:46Z</time>
      </trkpt>
      <trkpt lat="46.08247" lon="4.51969">
        <ele>486</ele>
        <time>2017-02-09T14:11:47Z</time>
      </trkpt>
      <trkpt lat="46.0825" lon="4.51958">
        <ele>496</ele>
        <time>2017-02-09T14:11:55Z</time>
      </trkpt>
      <trkpt lat="46.08251" lon="4.51957">
        <ele>496</ele>
        <time>2017-02-09T14:11:56Z</time>
      </trkpt>
      <trkpt lat="46.08251" lon="4.51945">
        <ele>495</ele>
        <time>2017-02-09T14:12:04Z</time>
      </trkpt>
      <trkpt lat="46.0825" lon="4.51944">
        <ele>495</ele>
        <time>2017-02-09T14:12:05Z</time>
      </trkpt>
      <trkpt lat="46.08249" lon="4.51931">
        <ele>484</ele>
        <time>2017-02-09T14:12:13Z</time>
      </trkpt>
      <trkpt lat="46.08249" lon="4.51929">
        <ele>484</ele>
        <time>2017-02-09T14:12:14Z</time>
      </trkpt>
      <trkpt lat="46.08249" lon="4.51917">
        <ele>484</ele>
        <time>2017-02-09T14:12:21Z</time>
      </trkpt>
      <trkpt lat="46.0825" lon="4.51915">
        <ele>485</ele>
        <time>2017-02-09T14:12:22Z</time>
      </trkpt>
      <trkpt lat="46.08253" lon="4.51904">
        <ele>490</ele>
        <time>2017-02-09T14:12:28Z</time>
      </trkpt>
      <trkpt lat="46.08253" lon="4.51902">
        <ele>490</ele>
        <time>2017-02-09T14:12:29Z</time>
      </trkpt>
      <trkpt lat="46.08252" lon="4.51891">
        <ele>492</ele>
        <time>2017-02-09T14:12:35Z</time>
      </trkpt>
      <trkpt lat="46.08251" lon="4.51889">
        <ele>493</ele>
        <time>2017-02-09T14:12:36Z</time>
      </trkpt>
      <trkpt lat="46.08254" lon="4.51878">
        <ele>494</ele>
        <time>2017-02-09T14:12:43Z</time>
      </trkpt>
      <trkpt lat="46.08254" lon="4.51876">
        <ele>494</ele>
        <time>2017-02-09T14:12:44Z</time>
      </trkpt>
      <trkpt lat="46.08249" lon="4.51867">
        <ele>483</ele>
        <time>2017-02-09T14:12:50Z</time>
      </trkpt>
      <trkpt lat="46.08248" lon="4.51866">
        <ele>483</ele>
        <time>2017-02-09T14:12:51Z</time>
      </trkpt>
      <trkpt lat="46.08241" lon="4.51862">
        <ele>483</ele>
        <time>2017-02-09T14:13:00Z</time>
      </trkpt>
      <trkpt lat="46.0824" lon="4.51861">
        <ele>483</ele>
        <time>2017-02-09T14:13:01Z</time>
      </trkpt>
      <trkpt lat="46.08234" lon="4.5187">
        <ele>483</ele>
        <time>2017-02-09T14:14:13Z</time>
      </trkpt>
      <trkpt lat="46.08233" lon="4.51872">
        <ele>483</ele>
        <time>2017-02-09T14:14:14Z</time>
      </trkpt>
      <trkpt lat="46.08227" lon="4.5188">
        <ele>483</ele>
        <time>2017-02-09T14:14:20Z</time>
      </trkpt>
      <trkpt lat="46.08226" lon="4.51882">
        <ele>483</ele>
        <time>2017-02-09T14:14:21Z</time>
      </trkpt>
      <trkpt lat="46.08223" lon="4.51893">
        <ele>483</ele>
        <time>2017-02-09T14:14:28Z</time>
      </trkpt>
      <trkpt lat="46.08223" lon="4.51895">
        <ele>483</ele>
        <time>2017-02-09T14:14:29Z</time>
      </trkpt>
      <trkpt lat="46.08221" lon="4.51906">
        <ele>483</ele>
        <time>2017-02-09T14:14:35Z</time>
      </trkpt>
      <trkpt lat="46.08221" lon="4.51907">
        <ele>483</ele>
        <time>2017-02-09T14:14:36Z</time>
      </trkpt>
      <trkpt lat="46.08217" lon="4.51919">
        <ele>484</ele>
        <time>2017-02-09T14:14:43Z</time>
      </trkpt>
      <trkpt lat="46.08217" lon="4.5192">
        <ele>484</ele>
        <time>2017-02-09T14:14:44Z</time>
      </trkpt>
      <trkpt lat="46.08215" lon="4.51932">
        <ele>484</ele>
        <time>2017-02-09T14:14:52Z</time>
      </trkpt>
      <trkpt lat="46.08215" lon="4.51934">
        <ele>484</ele>
        <time>2017-02-09T14:14:53Z</time>
      </trkpt>
      <trkpt lat="46.08211" lon="4.51945">
        <ele>484</ele>
        <time>2017-02-09T14:15:00Z</time>
      </trkpt>
      <trkpt lat="46.0821" lon="4.51946">
        <ele>484</ele>
        <time>2017-02-09T14:15:01Z</time>
      </trkpt>
      <trkpt lat="46.08207" lon="4.51958">
        <ele>484</ele>
        <time>2017-02-09T14:15:08Z</time>
      </trkpt>
      <trkpt lat="46.08207" lon="4.51959">
        <ele>484</ele>
        <time>2017-02-09T14:15:09Z</time>
      </trkpt>
      <trkpt lat="46.08203" lon="4.51969">
        <ele>484</ele>
        <time>2017-02-09T14:15:17Z</time>
      </trkpt>
      <trkpt lat="46.08202" lon="4.5197">
        <ele>484</ele>
        <time>2017-02-09T14:15:18Z</time>
      </trkpt>
      <trkpt lat="46.082" lon="4.51981">
        <ele>484</ele>
        <time>2017-02-09T14:15:26Z</time>
      </trkpt>
      <trkpt lat="46.08199" lon="4.51983">
        <ele>484</ele>
        <time>2017-02-09T14:15:27Z</time>
      </trkpt>
      <trkpt lat="46.08192" lon="4.51991">
        <ele>484</ele>
        <time>2017-02-09T14:15:36Z</time>
      </trkpt>
      <trkpt lat="46.08191" lon="4.51991">
        <ele>484</ele>
        <time>2017-02-09T14:15:37Z</time>
      </trkpt>
      <trkpt lat="46.08183" lon="4.51988">
        <ele>483</ele>
        <time>2017-02-09T14:16:07Z</time>
      </trkpt>
      <trkpt lat="46.08183" lon="4.51987">
        <ele>483</ele>
        <time>2017-02-09T14:16:08Z</time>
      </trkpt>
      <trkpt lat="46.08178" lon="4.51976">
        <ele>483</ele>
        <time>2017-02-09T14:16:16Z</time>
      </trkpt>
      <trkpt lat="46.08177" lon="4.51975">
        <ele>483</ele>
        <time>2017-02-09T14:16:17Z</time>
      </trkpt>
      <trkpt lat="46.08169" lon="4.51971">
        <ele>483</ele>
        <time>2017-02-09T14:16:26Z</time>
      </trkpt>
      <trkpt lat="46.08168" lon="4.51971">
        <ele>483</ele>
        <time>2017-02-09T14:16:27Z</time>
      </trkpt>
      <trkpt lat="46.0816" lon="4.51972">
        <ele>486</ele>
        <time>2017-02-09T14:16:34Z</time>
      </trkpt>
      <trkpt lat="46.08158" lon="4.51972">
        <ele>486</ele>
        <time>2017-02-09T14:16:35Z</time>
      </trkpt>
      <trkpt lat="46.0815" lon="4.5197">
        <ele>487</ele>
        <time>2017-02-09T14:16:41Z</time>
      </trkpt>
      <trkpt lat="46.08148" lon="4.5197">
        <ele>487</ele>
        <time>2017-02-09T14:16:42Z</time>
      </trkpt>
      <trkpt lat="46.0814" lon="4.5197">
        <ele>487</ele>
        <time>2017-02-09T14:16:49Z</time>
      </trkpt>
      <trkpt lat="46.08138" lon="4.51969">
        <ele>488</ele>
        <time>2017-02-09T14:16:50Z</time>
      </trkpt>
      <trkpt lat="46.08131" lon="4.51967">
        <ele>488</ele>
        <time>2017-02-09T14:16:58Z</time>
      </trkpt>
      <trkpt lat="46.0813" lon="4.51967">
        <ele>488</ele>
        <time>2017-02-09T14:16:59Z</time>
      </trkpt>
      <trkpt lat="46.08121" lon="4.51966">
        <ele>489</ele>
        <time>2017-02-09T14:17:08Z</time>
      </trkpt>
      <trkpt lat="46.0812" lon="4.51966">
        <ele>489</ele>
        <time>2017-02-09T14:17:09Z</time>
      </trkpt>
      <trkpt lat="46.08112" lon="4.51963">
        <ele>490</ele>
        <time>2017-02-09T14:17:18Z</time>
      </trkpt>
      <trkpt lat="46.08111" lon="4.51963">
        <ele>490</ele>
        <time>2017-02-09T14:17:19Z</time>
      </trkpt>
      <trkpt lat="46.08102" lon="4.51962">
        <ele>490</ele>
        <time>2017-02-09T14:17:31Z</time>
      </trkpt>
      <trkpt lat="46.08102" lon="4.51963">
        <ele>490</ele>
        <time>2017-02-09T14:17:32Z</time>
      </trkpt>
      <trkpt lat="46.08093" lon="4.51965">
        <ele>491</ele>
        <time>2017-02-09T14:17:41Z</time>
      </trkpt>
      <trkpt lat="46.08092" lon="4.51965">
        <ele>491</ele>
        <time>2017-02-09T14:17:42Z</time>
      </trkpt>
      <trkpt lat="46.08084" lon="4.51969">
        <ele>491</ele>
        <time>2017-02-09T14:17:50Z</time>
      </trkpt>
      <trkpt lat="46.08083" lon="4.5197">
        <ele>500</ele>
        <time>2017-02-09T14:17:51Z</time>
      </trkpt>
      <trkpt lat="46.08076" lon="4.51976">
        <ele>500</ele>
        <time>2017-02-09T14:17:58Z</time>
      </trkpt>
      <trkpt lat="46.08075" lon="4.51977">
        <ele>500</ele>
        <time>2017-02-09T14:17:59Z</time>
      </trkpt>
      <trkpt lat="46.08068" lon="4.51983">
        <ele>500</ele>
        <time>2017-02-09T14:18:06Z</time>
      </trkpt>
      <trkpt lat="46.08067" lon="4.51985">
        <ele>500</ele>
        <time>2017-02-09T14:18:07Z</time>
      </trkpt>
      <trkpt lat="46.08063" lon="4.51996">
        <ele>500</ele>
        <time>2017-02-09T14:18:14Z</time>
      </trkpt>
      <trkpt lat="46.08063" lon="4.51997">
        <ele>500</ele>
        <time>2017-02-09T14:18:15Z</time>
      </trkpt>
      <trkpt lat="46.08056" lon="4.52004">
        <ele>500</ele>
        <time>2017-02-09T14:18:24Z</time>
      </trkpt>
      <trkpt lat="46.08055" lon="4.52005">
        <ele>500</ele>
        <time>2017-02-09T14:18:25Z</time>
      </trkpt>
      <trkpt lat="46.08051" lon="4.52016">
        <ele>501</ele>
        <time>2017-02-09T14:18:33Z</time>
      </trkpt>
      <trkpt lat="46.0805" lon="4.52017">
        <ele>501</ele>
        <time>2017-02-09T14:18:34Z</time>
      </trkpt>
      <trkpt lat="46.08045" lon="4.52026">
        <ele>502</ele>
        <time>2017-02-09T14:18:42Z</time>
      </trkpt>
      <trkpt lat="46.08044" lon="4.52027">
        <ele>502</ele>
        <time>2017-02-09T14:18:43Z</time>
      </trkpt>
      <trkpt lat="46.08037" lon="4.52031">
        <ele>502</ele>
        <time>2017-02-09T14:18:49Z</time>
      </trkpt>
      <trkpt lat="46.08036" lon="4.52032">
        <ele>503</ele>
        <time>2017-02-09T14:18:50Z</time>
      </trkpt>
      <trkpt lat="46.0803" lon="4.5204">
        <ele>503</ele>
        <time>2017-02-09T14:18:57Z</time>
      </trkpt>
      <trkpt lat="46.08029" lon="4.52041">
        <ele>503</ele>
        <time>2017-02-09T14:18:58Z</time>
      </trkpt>
      <trkpt lat="46.08024" lon="4.52049">
        <ele>504</ele>
        <time>2017-02-09T14:19:04Z</time>
      </trkpt>
      <trkpt lat="46.08023" lon="4.52051">
        <ele>504</ele>
        <time>2017-02-09T14:19:05Z</time>
      </trkpt>
      <trkpt lat="46.08018" lon="4.5206">
        <ele>505</ele>
        <time>2017-02-09T14:19:11Z</time>
      </trkpt>
      <trkpt lat="46.08017" lon="4.52061">
        <ele>505</ele>
        <time>2017-02-09T14:19:12Z</time>
      </trkpt>
      <trkpt lat="46.08012" lon="4.52071">
        <ele>507</ele>
        <time>2017-02-09T14:19:19Z</time>
      </trkpt>
      <trkpt lat="46.08011" lon="4.52073">
        <ele>507</ele>
        <time>2017-02-09T14:19:20Z</time>
      </trkpt>
      <trkpt lat="46.08005" lon="4.5208">
        <ele>509</ele>
        <time>2017-02-09T14:19:26Z</time>
      </trkpt>
      <trkpt lat="46.08004" lon="4.52082">
        <ele>510</ele>
        <time>2017-02-09T14:19:27Z</time>
      </trkpt>
      <trkpt lat="46.07999" lon="4.52091">
        <ele>514</ele>
        <time>2017-02-09T14:19:34Z</time>
      </trkpt>
      <trkpt lat="46.07998" lon="4.52092">
        <ele>515</ele>
        <time>2017-02-09T14:19:35Z</time>
      </trkpt>
      <trkpt lat="46.0799" lon="4.52094">
        <ele>516</ele>
        <time>2017-02-09T14:19:44Z</time>
      </trkpt>
      <trkpt lat="46.07989" lon="4.52094">
        <ele>516</ele>
        <time>2017-02-09T14:19:45Z</time>
      </trkpt>
      <trkpt lat="46.07981" lon="4.5209">
        <ele>517</ele>
        <time>2017-02-09T14:19:54Z</time>
      </trkpt>
      <trkpt lat="46.0798" lon="4.5209">
        <ele>518</ele>
        <time>2017-02-09T14:19:55Z</time>
      </trkpt>
      <trkpt lat="46.07973" lon="4.52093">
        <ele>519</ele>
        <time>2017-02-09T14:20:03Z</time>
      </trkpt>
      <trkpt lat="46.07972" lon="4.52093">
        <ele>519</ele>
        <time>2017-02-09T14:20:04Z</time>
      </trkpt>
      <trkpt lat="46.07963" lon="4.52094">
        <ele>521</ele>
        <time>2017-02-09T14:20:12Z</time>
      </trkpt>
      <trkpt lat="46.07962" lon="4.52094">
        <ele>521</ele>
        <time>2017-02-09T14:20:13Z</time>
      </trkpt>
      <trkpt lat="46.07954" lon="4.52097">
        <ele>522</ele>
        <time>2017-02-09T14:20:22Z</time>
      </trkpt>
      <trkpt lat="46.07953" lon="4.52097">
        <ele>522</ele>
        <time>2017-02-09T14:20:23Z</time>
      </trkpt>
      <trkpt lat="46.07946" lon="4.521">
        <ele>523</ele>
        <time>2017-02-09T14:20:31Z</time>
      </trkpt>
      <trkpt lat="46.07945" lon="4.52101">
        <ele>523</ele>
        <time>2017-02-09T14:20:32Z</time>
      </trkpt>
      <trkpt lat="46.07936" lon="4.52102">
        <ele>524</ele>
        <time>2017-02-09T14:20:42Z</time>
      </trkpt>
      <trkpt lat="46.07935" lon="4.52102">
        <ele>524</ele>
        <time>2017-02-09T14:20:43Z</time>
      </trkpt>
      <trkpt lat="46.07928" lon="4.52108">
        <ele>524</ele>
        <time>2017-02-09T14:20:54Z</time>
      </trkpt>
      <trkpt lat="46.07926" lon="4.52109">
        <ele>524</ele>
        <time>2017-02-09T14:20:55Z</time>
      </trkpt>
      <trkpt lat="46.07917" lon="4.52109">
        <ele>525</ele>
        <time>2017-02-09T14:21:04Z</time>
      </trkpt>
      <trkpt lat="46.07916" lon="4.52109">
        <ele>530</ele>
        <time>2017-02-09T14:21:05Z</time>
      </trkpt>
      <trkpt lat="46.07908" lon="4.52111">
        <ele>530</ele>
        <time>2017-02-09T14:21:14Z</time>
      </trkpt>
      <trkpt lat="46.07907" lon="4.52111">
        <ele>530</ele>
        <time>2017-02-09T14:21:15Z</time>
      </trkpt>
      <trkpt lat="46.07899" lon="4.52115">
        <ele>531</ele>
        <time>2017-02-09T14:21:25Z</time>
      </trkpt>
      <trkpt lat="46.07898" lon="4.52115">
        <ele>531</ele>
        <time>2017-02-09T14:21:26Z</time>
      </trkpt>
      <trkpt lat="46.07891" lon="4.52123">
        <ele>532</ele>
        <time>2017-02-09T14:21:36Z</time>
      </trkpt>
      <trkpt lat="46.07891" lon="4.52124">
        <ele>532</ele>
        <time>2017-02-09T14:21:37Z</time>
      </trkpt>
      <trkpt lat="46.07883" lon="4.52129">
        <ele>532</ele>
        <time>2017-02-09T14:21:46Z</time>
      </trkpt>
      <trkpt lat="46.07882" lon="4.5213">
        <ele>532</ele>
        <time>2017-02-09T14:21:47Z</time>
      </trkpt>
      <trkpt lat="46.07874" lon="4.52134">
        <ele>533</ele>
        <time>2017-02-09T14:21:57Z</time>
      </trkpt>
      <trkpt lat="46.07873" lon="4.52134">
        <ele>533</ele>
        <time>2017-02-09T14:21:58Z</time>
      </trkpt>
      <trkpt lat="46.07864" lon="4.52131">
        <ele>533</ele>
        <time>2017-02-09T14:22:10Z</time>
      </trkpt>
      <trkpt lat="46.07863" lon="4.52131">
        <ele>533</ele>
        <time>2017-02-09T14:22:11Z</time>
      </trkpt>
      <trkpt lat="46.07854" lon="4.52131">
        <ele>533</ele>
        <time>2017-02-09T14:22:20Z</time>
      </trkpt>
      <trkpt lat="46.07853" lon="4.52131">
        <ele>533</ele>
        <time>2017-02-09T14:22:21Z</time>
      </trkpt>
      <trkpt lat="46.07845" lon="4.52133">
        <ele>533</ele>
        <time>2017-02-09T14:22:32Z</time>
      </trkpt>
      <trkpt lat="46.07844" lon="4.52134">
        <ele>533</ele>
        <time>2017-02-09T14:22:33Z</time>
      </trkpt>
      <trkpt lat="46.07838" lon="4.52142">
        <ele>534</ele>
        <time>2017-02-09T14:22:42Z</time>
      </trkpt>
      <trkpt lat="46.07837" lon="4.52143">
        <ele>534</ele>
        <time>2017-02-09T14:22:43Z</time>
      </trkpt>
      <trkpt lat="46.07828" lon="4.52143">
        <ele>537</ele>
        <time>2017-02-09T14:22:59Z</time>
      </trkpt>
      <trkpt lat="46.07828" lon="4.52143">
        <ele>537</ele>
        <time>2017-02-09T14:23:00Z</time>
      </trkpt>
      <trkpt lat="46.07819" lon="4.52143">
        <ele>537</ele>
        <time>2017-02-09T14:23:19Z</time>
      </trkpt>
      <trkpt lat="46.07818" lon="4.52143">
        <ele>537</ele>
        <time>2017-02-09T14:23:20Z</time>
      </trkpt>
      <trkpt lat="46.0781" lon="4.52145">
        <ele>537</ele>
        <time>2017-02-09T14:23:27Z</time>
      </trkpt>
      <trkpt lat="46.07808" lon="4.52145">
        <ele>537</ele>
        <time>2017-02-09T14:23:28Z</time>
      </trkpt>
      <trkpt lat="46.078" lon="4.52144">
        <ele>537</ele>
        <time>2017-02-09T14:24:10Z</time>
      </trkpt>
      <trkpt lat="46.07799" lon="4.52145">
        <ele>537</ele>
        <time>2017-02-09T14:24:11Z</time>
      </trkpt>
      <trkpt lat="46.07791" lon="4.5214">
        <ele>538</ele>
        <time>2017-02-09T14:24:26Z</time>
      </trkpt>
      <trkpt lat="46.07791" lon="4.52139">
        <ele>538</ele>
        <time>2017-02-09T14:24:27Z</time>
      </trkpt>
      <trkpt lat="46.07788" lon="4.52128">
        <ele>538</ele>
        <time>2017-02-09T14:24:39Z</time>
      </trkpt>
      <trkpt lat="46.07787" lon="4.52127">
        <ele>538</ele>
        <time>2017-02-09T14:24:40Z</time>
      </trkpt>
      <trkpt lat="46.0778" lon="4.52121">
        <ele>539</ele>
        <time>2017-02-09T14:24:48Z</time>
      </trkpt>
      <trkpt lat="46.07779" lon="4.5212">
        <ele>539</ele>
        <time>2017-02-09T14:24:49Z</time>
      </trkpt>
      <trkpt lat="46.0777" lon="4.52118">
        <ele>539</ele>
        <time>2017-02-09T14:24:59Z</time>
      </trkpt>
      <trkpt lat="46.07769" lon="4.52118">
        <ele>539</ele>
        <time>2017-02-09T14:25:00Z</time>
      </trkpt>
      <trkpt lat="46.07761" lon="4.52117">
        <ele>540</ele>
        <time>2017-02-09T14:25:11Z</time>
      </trkpt>
      <trkpt lat="46.0776" lon="4.52117">
        <ele>540</ele>
        <time>2017-02-09T14:25:12Z</time>
      </trkpt>
      <trkpt lat="46.07751" lon="4.52118">
        <ele>540</ele>
        <time>2017-02-09T14:25:29Z</time>
      </trkpt>
      <trkpt lat="46.07751" lon="4.52118">
        <ele>540</ele>
        <time>2017-02-09T14:25:30Z</time>
      </trkpt>
      <trkpt lat="46.07743" lon="4.52112">
        <ele>545</ele>
        <time>2017-02-09T14:25:38Z</time>
      </trkpt>
      <trkpt lat="46.07742" lon="4.52111">
        <ele>545</ele>
        <time>2017-02-09T14:25:39Z</time>
      </trkpt>
      <trkpt lat="46.07735" lon="4.52106">
        <ele>545</ele>
        <time>2017-02-09T14:25:46Z</time>
      </trkpt>
      <trkpt lat="46.07733" lon="4.52106">
        <ele>545</ele>
        <time>2017-02-09T14:25:47Z</time>
      </trkpt>
      <trkpt lat="46.07726" lon="4.521">
        <ele>546</ele>
        <time>2017-02-09T14:25:54Z</time>
      </trkpt>
      <trkpt lat="46.07725" lon="4.52099">
        <ele>546</ele>
        <time>2017-02-09T14:25:55Z</time>
      </trkpt>
      <trkpt lat="46.07717" lon="4.52094">
        <ele>546</ele>
        <time>2017-02-09T14:26:04Z</time>
      </trkpt>
      <trkpt lat="46.07716" lon="4.52093">
        <ele>546</ele>
        <time>2017-02-09T14:26:05Z</time>
      </trkpt>
      <trkpt lat="46.07711" lon="4.52084">
        <ele>547</ele>
        <time>2017-02-09T14:26:17Z</time>
      </trkpt>
      <trkpt lat="46.0771" lon="4.52084">
        <ele>547</ele>
        <time>2017-02-09T14:26:18Z</time>
      </trkpt>
      <trkpt lat="46.07703" lon="4.52077">
        <ele>555</ele>
        <time>2017-02-09T14:26:30Z</time>
      </trkpt>
      <trkpt lat="46.07702" lon="4.52076">
        <ele>555</ele>
        <time>2017-02-09T14:26:31Z</time>
      </trkpt>
      <trkpt lat="46.07695" lon="4.5207">
        <ele>556</ele>
        <time>2017-02-09T14:26:41Z</time>
      </trkpt>
      <trkpt lat="46.07694" lon="4.52069">
        <ele>556</ele>
        <time>2017-02-09T14:26:42Z</time>
      </trkpt>
      <trkpt lat="46.07686" lon="4.52064">
        <ele>557</ele>
        <time>2017-02-09T14:26:53Z</time>
      </trkpt>
      <trkpt lat="46.07686" lon="4.52063">
        <ele>557</ele>
        <time>2017-02-09T14:26:54Z</time>
      </trkpt>
      <trkpt lat="46.07679" lon="4.52055">
        <ele>557</ele>
        <time>2017-02-09T14:27:09Z</time>
      </trkpt>
      <trkpt lat="46.07678" lon="4.52055">
        <ele>557</ele>
        <time>2017-02-09T14:27:10Z</time>
      </trkpt>
      <trkpt lat="46.0767" lon="4.5205">
        <ele>558</ele>
        <time>2017-02-09T14:27:19Z</time>
      </trkpt>
      <trkpt lat="46.07669" lon="4.52049">
        <ele>558</ele>
        <time>2017-02-09T14:27:20Z</time>
      </trkpt>
      <trkpt lat="46.07662" lon="4.52042">
        <ele>567</ele>
        <time>2017-02-09T14:27:28Z</time>
      </trkpt>
      <trkpt lat="46.07661" lon="4.52041">
        <ele>568</ele>
        <time>2017-02-09T14:27:29Z</time>
      </trkpt>
      <trkpt lat="46.07654" lon="4.52034">
        <ele>569</ele>
        <time>2017-02-09T14:27:42Z</time>
      </trkpt>
      <trkpt lat="46.07653" lon="4.52033">
        <ele>569</ele>
        <time>2017-02-09T14:27:43Z</time>
      </trkpt>
      <trkpt lat="46.07647" lon="4.52023">
        <ele>570</ele>
        <time>2017-02-09T14:27:57Z</time>
      </trkpt>
      <trkpt lat="46.07647" lon="4.52022">
        <ele>570</ele>
        <time>2017-02-09T14:27:58Z</time>
      </trkpt>
      <trkpt lat="46.07643" lon="4.52011">
        <ele>570</ele>
        <time>2017-02-09T14:28:16Z</time>
      </trkpt>
      <trkpt lat="46.07642" lon="4.5201">
        <ele>570</ele>
        <time>2017-02-09T14:28:17Z</time>
      </trkpt>
      <trkpt lat="46.07638" lon="4.52">
        <ele>577</ele>
        <time>2017-02-09T14:28:25Z</time>
      </trkpt>
      <trkpt lat="46.07638" lon="4.51999">
        <ele>577</ele>
        <time>2017-02-09T14:28:26Z</time>
      </trkpt>
      <trkpt lat="46.07634" lon="4.51988">
        <ele>578</ele>
        <time>2017-02-09T14:28:35Z</time>
      </trkpt>
      <trkpt lat="46.07633" lon="4.51987">
        <ele>578</ele>
        <time>2017-02-09T14:28:36Z</time>
      </trkpt>
      <trkpt lat="46.0763" lon="4.51975">
        <ele>579</ele>
        <time>2017-02-09T14:28:45Z</time>
      </trkpt>
      <trkpt lat="46.07629" lon="4.51974">
        <ele>579</ele>
        <time>2017-02-09T14:28:46Z</time>
      </trkpt>
      <trkpt lat="46.07624" lon="4.51963">
        <ele>580</ele>
        <time>2017-02-09T14:28:55Z</time>
      </trkpt>
      <trkpt lat="46.07623" lon="4.51962">
        <ele>580</ele>
        <time>2017-02-09T14:28:56Z</time>
      </trkpt>
      <trkpt lat="46.07617" lon="4.51954">
        <ele>581</ele>
        <time>2017-02-09T14:29:04Z</time>
      </trkpt>
      <trkpt lat="46.07616" lon="4.51954">
        <ele>581</ele>
        <time>2017-02-09T14:29:05Z</time>
      </trkpt>
      <trkpt lat="46.07609" lon="4.51947">
        <ele>582</ele>
        <time>2017-02-09T14:29:12Z</time>
      </trkpt>
      <trkpt lat="46.07608" lon="4.51946">
        <ele>582</ele>
        <time>2017-02-09T14:29:13Z</time>
      </trkpt>
      <trkpt lat="46.07601" lon="4.5194">
        <ele>583</ele>
        <time>2017-02-09T14:29:20Z</time>
      </trkpt>
      <trkpt lat="46.076" lon="4.5194">
        <ele>584</ele>
        <time>2017-02-09T14:29:21Z</time>
      </trkpt>
      <trkpt lat="46.07591" lon="4.51937">
        <ele>585</ele>
        <time>2017-02-09T14:30:15Z</time>
      </trkpt>
      <trkpt lat="46.07591" lon="4.51937">
        <ele>585</ele>
        <time>2017-02-09T14:30:16Z</time>
      </trkpt>
      <trkpt lat="46.07585" lon="4.51929">
        <ele>587</ele>
        <time>2017-02-09T14:33:05Z</time>
      </trkpt>
      <trkpt lat="46.07584" lon="4.51928">
        <ele>587</ele>
        <time>2017-02-09T14:33:06Z</time>
      </trkpt>
      <trkpt lat="46.07576" lon="4.51922">
        <ele>590</ele>
        <time>2017-02-09T14:33:13Z</time>
      </trkpt>
      <trkpt lat="46.07576" lon="4.51921">
        <ele>590</ele>
        <time>2017-02-09T14:33:14Z</time>
      </trkpt>
      <trkpt lat="46.0757" lon="4.51912">
        <ele>594</ele>
        <time>2017-02-09T14:33:22Z</time>
      </trkpt>
      <trkpt lat="46.0757" lon="4.51911">
        <ele>594</ele>
        <time>2017-02-09T14:33:23Z</time>
      </trkpt>
      <trkpt lat="46.07566" lon="4.519">
        <ele>596</ele>
        <time>2017-02-09T14:33:31Z</time>
      </trkpt>
      <trkpt lat="46.07565" lon="4.51899">
        <ele>596</ele>
        <time>2017-02-09T14:33:32Z</time>
      </trkpt>
      <trkpt lat="46.07559" lon="4.5189">
        <ele>597</ele>
        <time>2017-02-09T14:33:39Z</time>
      </trkpt>
      <trkpt lat="46.07559" lon="4.51889">
        <ele>597</ele>
        <time>2017-02-09T14:33:40Z</time>
      </trkpt>
      <trkpt lat="46.07551" lon="4.51882">
        <ele>598</ele>
        <time>2017-02-09T14:33:47Z</time>
      </trkpt>
      <trkpt lat="46.0755" lon="4.51881">
        <ele>598</ele>
        <time>2017-02-09T14:33:48Z</time>
      </trkpt>
      <trkpt lat="46.07545" lon="4.51872">
        <ele>599</ele>
        <time>2017-02-09T14:33:56Z</time>
      </trkpt>
      <trkpt lat="46.07544" lon="4.5187">
        <ele>599</ele>
        <time>2017-02-09T14:33:57Z</time>
      </trkpt>
      <trkpt lat="46.07537" lon="4.51862">
        <ele>600</ele>
        <time>2017-02-09T14:34:18Z</time>
      </trkpt>
      <trkpt lat="46.07536" lon="4.51862">
        <ele>600</ele>
        <time>2017-02-09T14:34:19Z</time>
      </trkpt>
      <trkpt lat="46.0753" lon="4.51853">
        <ele>601</ele>
        <time>2017-02-09T14:34:37Z</time>
      </trkpt>
      <trkpt lat="46.0753" lon="4.51852">
        <ele>601</ele>
        <time>2017-02-09T14:34:38Z</time>
      </trkpt>
      <trkpt lat="46.07523" lon="4.51843">
        <ele>603</ele>
        <time>2017-02-09T14:34:56Z</time>
      </trkpt>
      <trkpt lat="46.07521" lon="4.51843">
        <ele>603</ele>
        <time>2017-02-09T14:34:57Z</time>
      </trkpt>
      <trkpt lat="46.07513" lon="4.51839">
        <ele>606</ele>
        <time>2017-02-09T14:35:02Z</time>
      </trkpt>
      <trkpt lat="46.07512" lon="4.51838">
        <ele>606</ele>
        <time>2017-02-09T14:35:03Z</time>
      </trkpt>
      <trkpt lat="46.07505" lon="4.51831">
        <ele>611</ele>
        <time>2017-02-09T14:35:13Z</time>
      </trkpt>
      <trkpt lat="46.07505" lon="4.5183">
        <ele>611</ele>
        <time>2017-02-09T14:35:14Z</time>
      </trkpt>
      <trkpt lat="46.07498" lon="4.51821">
        <ele>614</ele>
        <time>2017-02-09T14:35:23Z</time>
      </trkpt>
      <trkpt lat="46.07497" lon="4.5182">
        <ele>615</ele>
        <time>2017-02-09T14:35:24Z</time>
      </trkpt>
      <trkpt lat="46.07489" lon="4.51819">
        <ele>616</ele>
        <time>2017-02-09T14:35:32Z</time>
      </trkpt>
      <trkpt lat="46.07488" lon="4.51818">
        <ele>616</ele>
        <time>2017-02-09T14:35:33Z</time>
      </trkpt>
      <trkpt lat="46.07481" lon="4.5181">
        <ele>617</ele>
        <time>2017-02-09T14:35:43Z</time>
      </trkpt>
      <trkpt lat="46.0748" lon="4.5181">
        <ele>617</ele>
        <time>2017-02-09T14:35:44Z</time>
      </trkpt>
      <trkpt lat="46.07473" lon="4.51804">
        <ele>618</ele>
        <time>2017-02-09T14:35:55Z</time>
      </trkpt>
      <trkpt lat="46.07472" lon="4.51804">
        <ele>618</ele>
        <time>2017-02-09T14:35:56Z</time>
      </trkpt>
      <trkpt lat="46.07463" lon="4.51803">
        <ele>619</ele>
        <time>2017-02-09T14:36:08Z</time>
      </trkpt>
      <trkpt lat="46.07463" lon="4.51804">
        <ele>619</ele>
        <time>2017-02-09T14:36:09Z</time>
      </trkpt>
      <trkpt lat="46.07455" lon="4.51809">
        <ele>619</ele>
        <time>2017-02-09T14:36:20Z</time>
      </trkpt>
      <trkpt lat="46.07454" lon="4.51809">
        <ele>619</ele>
        <time>2017-02-09T14:36:21Z</time>
      </trkpt>
      <trkpt lat="46.07445" lon="4.51813">
        <ele>618</ele>
        <time>2017-02-09T14:36:30Z</time>
      </trkpt>
      <trkpt lat="46.07444" lon="4.51813">
        <ele>618</ele>
        <time>2017-02-09T14:36:31Z</time>
      </trkpt>
      <trkpt lat="46.07436" lon="4.51814">
        <ele>618</ele>
        <time>2017-02-09T14:36:42Z</time>
      </trkpt>
      <trkpt lat="46.07435" lon="4.51814">
        <ele>618</ele>
        <time>2017-02-09T14:36:43Z</time>
      </trkpt>
      <trkpt lat="46.07427" lon="4.51814">
        <ele>618</ele>
        <time>2017-02-09T14:36:50Z</time>
      </trkpt>
      <trkpt lat="46.07426" lon="4.51814">
        <ele>618</ele>
        <time>2017-02-09T14:36:51Z</time>
      </trkpt>
      <trkpt lat="46.07418" lon="4.51811">
        <ele>618</ele>
        <time>2017-02-09T14:37:00Z</time>
      </trkpt>
      <trkpt lat="46.07417" lon="4.51811">
        <ele>618</ele>
        <time>2017-02-09T14:37:01Z</time>
      </trkpt>
      <trkpt lat="46.07409" lon="4.51807">
        <ele>618</ele>
        <time>2017-02-09T14:37:10Z</time>
      </trkpt>
      <trkpt lat="46.07408" lon="4.51807">
        <ele>618</ele>
        <time>2017-02-09T14:37:11Z</time>
      </trkpt>
      <trkpt lat="46.074" lon="4.51802">
        <ele>618</ele>
        <time>2017-02-09T14:37:19Z</time>
      </trkpt>
      <trkpt lat="46.07399" lon="4.51801">
        <ele>619</ele>
        <time>2017-02-09T14:37:20Z</time>
      </trkpt>
      <trkpt lat="46.07391" lon="4.51797">
        <ele>619</ele>
        <time>2017-02-09T14:37:28Z</time>
      </trkpt>
      <trkpt lat="46.0739" lon="4.51796">
        <ele>619</ele>
        <time>2017-02-09T14:37:29Z</time>
      </trkpt>
      <trkpt lat="46.07383" lon="4.5179">
        <ele>619</ele>
        <time>2017-02-09T14:37:37Z</time>
      </trkpt>
      <trkpt lat="46.07382" lon="4.51789">
        <ele>619</ele>
        <time>2017-02-09T14:37:38Z</time>
      </trkpt>
      <trkpt lat="46.07375" lon="4.51782">
        <ele>620</ele>
        <time>2017-02-09T14:37:46Z</time>
      </trkpt>
      <trkpt lat="46.07374" lon="4.51781">
        <ele>620</ele>
        <time>2017-02-09T14:37:47Z</time>
      </trkpt>
      <trkpt lat="46.07367" lon="4.51774">
        <ele>620</ele>
        <time>2017-02-09T14:37:54Z</time>
      </trkpt>
      <trkpt lat="46.07366" lon="4.51773">
        <ele>620</ele>
        <time>2017-02-09T14:37:55Z</time>
      </trkpt>
      <trkpt lat="46.0736" lon="4.51766">
        <ele>621</ele>
        <time>2017-02-09T14:38:01Z</time>
      </trkpt>
      <trkpt lat="46.07359" lon="4.51765">
        <ele>621</ele>
        <time>2017-02-09T14:38:02Z</time>
      </trkpt>
      <trkpt lat="46.07353" lon="4.51757">
        <ele>621</ele>
        <time>2017-02-09T14:38:08Z</time>
      </trkpt>
      <trkpt lat="46.07352" lon="4.51756">
        <ele>622</ele>
        <time>2017-02-09T14:38:09Z</time>
      </trkpt>
      <trkpt lat="46.07346" lon="4.51748">
        <ele>629</ele>
        <time>2017-02-09T14:38:16Z</time>
      </trkpt>
      <trkpt lat="46.07345" lon="4.51746">
        <ele>629</ele>
        <time>2017-02-09T14:38:17Z</time>
      </trkpt>
      <trkpt lat="46.07339" lon="4.51738">
        <ele>629</ele>
        <time>2017-02-09T14:38:24Z</time>
      </trkpt>
      <trkpt lat="46.07338" lon="4.51737">
        <ele>629</ele>
        <time>2017-02-09T14:38:25Z</time>
      </trkpt>
      <trkpt lat="46.07331" lon="4.51729">
        <ele>626</ele>
        <time>2017-02-09T14:38:32Z</time>
      </trkpt>
      <trkpt lat="46.0733" lon="4.51728">
        <ele>626</ele>
        <time>2017-02-09T14:38:33Z</time>
      </trkpt>
      <trkpt lat="46.07324" lon="4.5172">
        <ele>627</ele>
        <time>2017-02-09T14:38:40Z</time>
      </trkpt>
      <trkpt lat="46.07323" lon="4.51719">
        <ele>627</ele>
        <time>2017-02-09T14:38:41Z</time>
      </trkpt>
      <trkpt lat="46.07318" lon="4.51711">
        <ele>628</ele>
        <time>2017-02-09T14:38:48Z</time>
      </trkpt>
      <trkpt lat="46.07317" lon="4.5171">
        <ele>628</ele>
        <time>2017-02-09T14:38:49Z</time>
      </trkpt>
      <trkpt lat="46.0731" lon="4.51703">
        <ele>629</ele>
        <time>2017-02-09T14:38:56Z</time>
      </trkpt>
      <trkpt lat="46.0731" lon="4.51702">
        <ele>629</ele>
        <time>2017-02-09T14:38:57Z</time>
      </trkpt>
      <trkpt lat="46.07303" lon="4.51694">
        <ele>629</ele>
        <time>2017-02-09T14:39:05Z</time>
      </trkpt>
      <trkpt lat="46.07302" lon="4.51693">
        <ele>629</ele>
        <time>2017-02-09T14:39:06Z</time>
      </trkpt>
      <trkpt lat="46.07295" lon="4.51686">
        <ele>629</ele>
        <time>2017-02-09T14:39:14Z</time>
      </trkpt>
      <trkpt lat="46.07294" lon="4.51685">
        <ele>629</ele>
        <time>2017-02-09T14:39:15Z</time>
      </trkpt>
      <trkpt lat="46.07288" lon="4.51676">
        <ele>629</ele>
        <time>2017-02-09T14:39:24Z</time>
      </trkpt>
      <trkpt lat="46.07287" lon="4.51675">
        <ele>629</ele>
        <time>2017-02-09T14:39:25Z</time>
      </trkpt>
      <trkpt lat="46.07281" lon="4.51667">
        <ele>628</ele>
        <time>2017-02-09T14:39:33Z</time>
      </trkpt>
      <trkpt lat="46.0728" lon="4.51666">
        <ele>639</ele>
        <time>2017-02-09T14:39:34Z</time>
      </trkpt>
      <trkpt lat="46.07274" lon="4.51657">
        <ele>638</ele>
        <time>2017-02-09T14:39:43Z</time>
      </trkpt>
      <trkpt lat="46.07273" lon="4.51656">
        <ele>638</ele>
        <time>2017-02-09T14:39:44Z</time>
      </trkpt>
      <trkpt lat="46.07267" lon="4.51649">
        <ele>638</ele>
        <time>2017-02-09T14:39:52Z</time>
      </trkpt>
      <trkpt lat="46.07266" lon="4.51648">
        <ele>638</ele>
        <time>2017-02-09T14:39:53Z</time>
      </trkpt>
      <trkpt lat="46.07259" lon="4.51641">
        <ele>638</ele>
        <time>2017-02-09T14:40:01Z</time>
      </trkpt>
      <trkpt lat="46.07258" lon="4.5164">
        <ele>639</ele>
        <time>2017-02-09T14:40:02Z</time>
      </trkpt>
      <trkpt lat="46.07251" lon="4.51633">
        <ele>640</ele>
        <time>2017-02-09T14:40:11Z</time>
      </trkpt>
      <trkpt lat="46.0725" lon="4.51633">
        <ele>634</ele>
        <time>2017-02-09T14:40:12Z</time>
      </trkpt>
      <trkpt lat="46.07243" lon="4.51627">
        <ele>635</ele>
        <time>2017-02-09T14:40:21Z</time>
      </trkpt>
      <trkpt lat="46.07242" lon="4.51626">
        <ele>635</ele>
        <time>2017-02-09T14:40:22Z</time>
      </trkpt>
      <trkpt lat="46.07235" lon="4.51619">
        <ele>636</ele>
        <time>2017-02-09T14:40:32Z</time>
      </trkpt>
      <trkpt lat="46.07234" lon="4.51618">
        <ele>636</ele>
        <time>2017-02-09T14:40:33Z</time>
      </trkpt>
      <trkpt lat="46.07226" lon="4.51613">
        <ele>637</ele>
        <time>2017-02-09T14:40:42Z</time>
      </trkpt>
      <trkpt lat="46.07225" lon="4.51613">
        <ele>637</ele>
        <time>2017-02-09T14:40:43Z</time>
      </trkpt>
      <trkpt lat="46.07217" lon="4.51607">
        <ele>637</ele>
        <time>2017-02-09T14:40:52Z</time>
      </trkpt>
      <trkpt lat="46.07216" lon="4.51607">
        <ele>637</ele>
        <time>2017-02-09T14:40:53Z</time>
      </trkpt>
      <trkpt lat="46.07208" lon="4.51602">
        <ele>636</ele>
        <time>2017-02-09T14:41:01Z</time>
      </trkpt>
      <trkpt lat="46.07207" lon="4.51601">
        <ele>636</ele>
        <time>2017-02-09T14:41:02Z</time>
      </trkpt>
      <trkpt lat="46.07199" lon="4.51597">
        <ele>636</ele>
        <time>2017-02-09T14:41:10Z</time>
      </trkpt>
      <trkpt lat="46.07198" lon="4.51596">
        <ele>636</ele>
        <time>2017-02-09T14:41:11Z</time>
      </trkpt>
      <trkpt lat="46.0719" lon="4.51592">
        <ele>636</ele>
        <time>2017-02-09T14:41:19Z</time>
      </trkpt>
      <trkpt lat="46.07189" lon="4.51592">
        <ele>636</ele>
        <time>2017-02-09T14:41:20Z</time>
      </trkpt>
      <trkpt lat="46.07181" lon="4.51588">
        <ele>636</ele>
        <time>2017-02-09T14:41:29Z</time>
      </trkpt>
      <trkpt lat="46.0718" lon="4.51588">
        <ele>636</ele>
        <time>2017-02-09T14:41:30Z</time>
      </trkpt>
      <trkpt lat="46.07171" lon="4.51586">
        <ele>637</ele>
        <time>2017-02-09T14:41:38Z</time>
      </trkpt>
      <trkpt lat="46.0717" lon="4.51586">
        <ele>637</ele>
        <time>2017-02-09T14:41:39Z</time>
      </trkpt>
      <trkpt lat="46.07162" lon="4.51583">
        <ele>639</ele>
        <time>2017-02-09T14:41:48Z</time>
      </trkpt>
      <trkpt lat="46.07161" lon="4.51583">
        <ele>640</ele>
        <time>2017-02-09T14:41:49Z</time>
      </trkpt>
      <trkpt lat="46.07152" lon="4.5158">
        <ele>642</ele>
        <time>2017-02-09T14:41:58Z</time>
      </trkpt>
      <trkpt lat="46.07151" lon="4.5158">
        <ele>643</ele>
        <time>2017-02-09T14:41:59Z</time>
      </trkpt>
      <trkpt lat="46.07143" lon="4.51578">
        <ele>644</ele>
        <time>2017-02-09T14:42:08Z</time>
      </trkpt>
      <trkpt lat="46.07142" lon="4.51578">
        <ele>645</ele>
        <time>2017-02-09T14:42:09Z</time>
      </trkpt>
      <trkpt lat="46.07134" lon="4.51575">
        <ele>646</ele>
        <time>2017-02-09T14:42:19Z</time>
      </trkpt>
      <trkpt lat="46.07133" lon="4.51575">
        <ele>646</ele>
        <time>2017-02-09T14:42:20Z</time>
      </trkpt>
      <trkpt lat="46.07125" lon="4.51572">
        <ele>647</ele>
        <time>2017-02-09T14:42:32Z</time>
      </trkpt>
      <trkpt lat="46.07124" lon="4.51572">
        <ele>647</ele>
        <time>2017-02-09T14:42:33Z</time>
      </trkpt>
      <trkpt lat="46.07116" lon="4.51578">
        <ele>648</ele>
        <time>2017-02-09T14:42:44Z</time>
      </trkpt>
      <trkpt lat="46.07115" lon="4.51578">
        <ele>648</ele>
        <time>2017-02-09T14:42:45Z</time>
      </trkpt>
      <trkpt lat="46.07107" lon="4.5158">
        <ele>649</ele>
        <time>2017-02-09T14:42:55Z</time>
      </trkpt>
      <trkpt lat="46.07106" lon="4.5158">
        <ele>650</ele>
        <time>2017-02-09T14:42:56Z</time>
      </trkpt>
      <trkpt lat="46.07098" lon="4.51581">
        <ele>651</ele>
        <time>2017-02-09T14:43:07Z</time>
      </trkpt>
      <trkpt lat="46.07097" lon="4.51582">
        <ele>651</ele>
        <time>2017-02-09T14:43:08Z</time>
      </trkpt>
      <trkpt lat="46.07088" lon="4.5158">
        <ele>653</ele>
        <time>2017-02-09T14:43:19Z</time>
      </trkpt>
      <trkpt lat="46.07087" lon="4.5158">
        <ele>653</ele>
        <time>2017-02-09T14:43:20Z</time>
      </trkpt>
      <trkpt lat="46.07079" lon="4.51575">
        <ele>652</ele>
        <time>2017-02-09T14:43:31Z</time>
      </trkpt>
      <trkpt lat="46.07079" lon="4.51574">
        <ele>652</ele>
        <time>2017-02-09T14:43:32Z</time>
      </trkpt>
      <trkpt lat="46.07072" lon="4.51567">
        <ele>650</ele>
        <time>2017-02-09T14:45:42Z</time>
      </trkpt>
      <trkpt lat="46.07071" lon="4.51567">
        <ele>650</ele>
        <time>2017-02-09T14:45:43Z</time>
      </trkpt>
      <trkpt lat="46.07062" lon="4.51564">
        <ele>649</ele>
        <time>2017-02-09T14:45:50Z</time>
      </trkpt>
      <trkpt lat="46.07061" lon="4.51564">
        <ele>649</ele>
        <time>2017-02-09T14:45:51Z</time>
      </trkpt>
      <trkpt lat="46.07052" lon="4.51562">
        <ele>649</ele>
        <time>2017-02-09T14:45:58Z</time>
      </trkpt>
      <trkpt lat="46.07051" lon="4.51562">
        <ele>648</ele>
        <time>2017-02-09T14:45:59Z</time>
      </trkpt>
      <trkpt lat="46.07043" lon="4.51561">
        <ele>648</ele>
        <time>2017-02-09T14:46:06Z</time>
      </trkpt>
      <trkpt lat="46.07041" lon="4.51561">
        <ele>648</ele>
        <time>2017-02-09T14:46:07Z</time>
      </trkpt>
      <trkpt lat="46.07033" lon="4.51559">
        <ele>647</ele>
        <time>2017-02-09T14:46:14Z</time>
      </trkpt>
      <trkpt lat="46.07032" lon="4.51558">
        <ele>647</ele>
        <time>2017-02-09T14:46:15Z</time>
      </trkpt>
      <trkpt lat="46.07024" lon="4.51555">
        <ele>647</ele>
        <time>2017-02-09T14:46:22Z</time>
      </trkpt>
      <trkpt lat="46.07023" lon="4.51555">
        <ele>647</ele>
        <time>2017-02-09T14:46:23Z</time>
      </trkpt>
      <trkpt lat="46.07015" lon="4.51552">
        <ele>647</ele>
        <time>2017-02-09T14:46:30Z</time>
      </trkpt>
      <trkpt lat="46.07013" lon="4.51552">
        <ele>646</ele>
        <time>2017-02-09T14:46:31Z</time>
      </trkpt>
      <trkpt lat="46.07005" lon="4.5155">
        <ele>646</ele>
        <time>2017-02-09T14:46:38Z</time>
      </trkpt>
      <trkpt lat="46.07004" lon="4.5155">
        <ele>646</ele>
        <time>2017-02-09T14:46:39Z</time>
      </trkpt>
      <trkpt lat="46.06995" lon="4.51549">
        <ele>641</ele>
        <time>2017-02-09T14:46:46Z</time>
      </trkpt>
      <trkpt lat="46.06994" lon="4.51548">
        <ele>641</ele>
        <time>2017-02-09T14:46:47Z</time>
      </trkpt>
      <trkpt lat="46.06985" lon="4.51547">
        <ele>640</ele>
        <time>2017-02-09T14:46:54Z</time>
      </trkpt>
      <trkpt lat="46.06984" lon="4.51547">
        <ele>640</ele>
        <time>2017-02-09T14:46:55Z</time>
      </trkpt>
      <trkpt lat="46.06976" lon="4.51545">
        <ele>639</ele>
        <time>2017-02-09T14:47:02Z</time>
      </trkpt>
      <trkpt lat="46.06975" lon="4.51545">
        <ele>639</ele>
        <time>2017-02-09T14:47:03Z</time>
      </trkpt>
      <trkpt lat="46.06966" lon="4.51544">
        <ele>639</ele>
        <time>2017-02-09T14:47:10Z</time>
      </trkpt>
      <trkpt lat="46.06965" lon="4.51544">
        <ele>639</ele>
        <time>2017-02-09T14:47:11Z</time>
      </trkpt>
      <trkpt lat="46.06957" lon="4.51542">
        <ele>638</ele>
        <time>2017-02-09T14:47:18Z</time>
      </trkpt>
      <trkpt lat="46.06956" lon="4.51542">
        <ele>638</ele>
        <time>2017-02-09T14:47:19Z</time>
      </trkpt>
      <trkpt lat="46.06947" lon="4.5154">
        <ele>638</ele>
        <time>2017-02-09T14:47:26Z</time>
      </trkpt>
      <trkpt lat="46.06946" lon="4.5154">
        <ele>638</ele>
        <time>2017-02-09T14:47:27Z</time>
      </trkpt>
      <trkpt lat="46.06938" lon="4.5154">
        <ele>637</ele>
        <time>2017-02-09T14:47:34Z</time>
      </trkpt>
      <trkpt lat="46.06937" lon="4.5154">
        <ele>637</ele>
        <time>2017-02-09T14:47:35Z</time>
      </trkpt>
      <trkpt lat="46.06928" lon="4.5154">
        <ele>637</ele>
        <time>2017-02-09T14:47:43Z</time>
      </trkpt>
      <trkpt lat="46.06927" lon="4.5154">
        <ele>637</ele>
        <time>2017-02-09T14:47:44Z</time>
      </trkpt>
      <trkpt lat="46.06918" lon="4.51539">
        <ele>636</ele>
        <time>2017-02-09T14:47:51Z</time>
      </trkpt>
      <trkpt lat="46.06917" lon="4.51539">
        <ele>636</ele>
        <time>2017-02-09T14:47:52Z</time>
      </trkpt>
      <trkpt lat="46.06908" lon="4.51537">
        <ele>639</ele>
        <time>2017-02-09T14:47:58Z</time>
      </trkpt>
      <trkpt lat="46.06907" lon="4.51537">
        <ele>639</ele>
        <time>2017-02-09T14:47:59Z</time>
      </trkpt>
      <trkpt lat="46.06899" lon="4.51533">
        <ele>639</ele>
        <time>2017-02-09T14:48:06Z</time>
      </trkpt>
      <trkpt lat="46.06898" lon="4.51533">
        <ele>639</ele>
        <time>2017-02-09T14:48:07Z</time>
      </trkpt>
      <trkpt lat="46.0689" lon="4.51528">
        <ele>640</ele>
        <time>2017-02-09T14:48:13Z</time>
      </trkpt>
      <trkpt lat="46.06889" lon="4.51527">
        <ele>640</ele>
        <time>2017-02-09T14:48:14Z</time>
      </trkpt>
      <trkpt lat="46.06882" lon="4.51519">
        <ele>640</ele>
        <time>2017-02-09T14:48:22Z</time>
      </trkpt>
      <trkpt lat="46.06882" lon="4.51517">
        <ele>640</ele>
        <time>2017-02-09T14:48:23Z</time>
      </trkpt>
      <trkpt lat="46.06882" lon="4.51506">
        <ele>639</ele>
        <time>2017-02-09T14:48:29Z</time>
      </trkpt>
      <trkpt lat="46.06882" lon="4.51504">
        <ele>639</ele>
        <time>2017-02-09T14:48:30Z</time>
      </trkpt>
      <trkpt lat="46.06879" lon="4.51493">
        <ele>631</ele>
        <time>2017-02-09T14:48:37Z</time>
      </trkpt>
      <trkpt lat="46.06879" lon="4.51492">
        <ele>632</ele>
        <time>2017-02-09T14:48:38Z</time>
      </trkpt>
      <trkpt lat="46.06876" lon="4.5148">
        <ele>632</ele>
        <time>2017-02-09T14:48:46Z</time>
      </trkpt>
      <trkpt lat="46.06876" lon="4.51478">
        <ele>631</ele>
        <time>2017-02-09T14:48:47Z</time>
      </trkpt>
      <trkpt lat="46.06876" lon="4.51467">
        <ele>631</ele>
        <time>2017-02-09T14:48:53Z</time>
      </trkpt>
      <trkpt lat="46.06877" lon="4.51465">
        <ele>631</ele>
        <time>2017-02-09T14:48:54Z</time>
      </trkpt>
      <trkpt lat="46.06877" lon="4.51454">
        <ele>630</ele>
        <time>2017-02-09T14:49:00Z</time>
      </trkpt>
      <trkpt lat="46.06876" lon="4.51452">
        <ele>630</ele>
        <time>2017-02-09T14:49:01Z</time>
      </trkpt>
      <trkpt lat="46.06872" lon="4.51441">
        <ele>629</ele>
        <time>2017-02-09T14:49:07Z</time>
      </trkpt>
      <trkpt lat="46.06872" lon="4.51439">
        <ele>629</ele>
        <time>2017-02-09T14:49:08Z</time>
      </trkpt>
      <trkpt lat="46.06873" lon="4.51427">
        <ele>629</ele>
        <time>2017-02-09T14:49:14Z</time>
      </trkpt>
      <trkpt lat="46.06874" lon="4.51425">
        <ele>629</ele>
        <time>2017-02-09T14:49:15Z</time>
      </trkpt>
      <trkpt lat="46.06871" lon="4.51415">
        <ele>621</ele>
        <time>2017-02-09T14:49:21Z</time>
      </trkpt>
      <trkpt lat="46.06871" lon="4.51413">
        <ele>621</ele>
        <time>2017-02-09T14:49:22Z</time>
      </trkpt>
      <trkpt lat="46.0687" lon="4.514">
        <ele>621</ele>
        <time>2017-02-09T14:49:28Z</time>
      </trkpt>
      <trkpt lat="46.06869" lon="4.51399">
        <ele>621</ele>
        <time>2017-02-09T14:49:29Z</time>
      </trkpt>
      <trkpt lat="46.06868" lon="4.51387">
        <ele>620</ele>
        <time>2017-02-09T14:49:36Z</time>
      </trkpt>
      <trkpt lat="46.06868" lon="4.51385">
        <ele>620</ele>
        <time>2017-02-09T14:49:37Z</time>
      </trkpt>
      <trkpt lat="46.06867" lon="4.51373">
        <ele>619</ele>
        <time>2017-02-09T14:49:44Z</time>
      </trkpt>
      <trkpt lat="46.06866" lon="4.51372">
        <ele>619</ele>
        <time>2017-02-09T14:49:45Z</time>
      </trkpt>
      <trkpt lat="46.06864" lon="4.5136">
        <ele>619</ele>
        <time>2017-02-09T14:49:52Z</time>
      </trkpt>
      <trkpt lat="46.06864" lon="4.51359">
        <ele>619</ele>
        <time>2017-02-09T14:49:53Z</time>
      </trkpt>
      <trkpt lat="46.06864" lon="4.51347">
        <ele>618</ele>
        <time>2017-02-09T14:49:59Z</time>
      </trkpt>
      <trkpt lat="46.06864" lon="4.51345">
        <ele>618</ele>
        <time>2017-02-09T14:50:00Z</time>
      </trkpt>
      <trkpt lat="46.06859" lon="4.51336">
        <ele>618</ele>
        <time>2017-02-09T14:50:06Z</time>
      </trkpt>
      <trkpt lat="46.06859" lon="4.51334">
        <ele>619</ele>
        <time>2017-02-09T14:50:07Z</time>
      </trkpt>
      <trkpt lat="46.06856" lon="4.51324">
        <ele>612</ele>
        <time>2017-02-09T14:50:12Z</time>
      </trkpt>
      <trkpt lat="46.06855" lon="4.51322">
        <ele>612</ele>
        <time>2017-02-09T14:50:13Z</time>
      </trkpt>
      <trkpt lat="46.0685" lon="4.51313">
        <ele>612</ele>
        <time>2017-02-09T14:50:18Z</time>
      </trkpt>
      <trkpt lat="46.06849" lon="4.51311">
        <ele>612</ele>
        <time>2017-02-09T14:50:19Z</time>
      </trkpt>
      <trkpt lat="46.06848" lon="4.513">
        <ele>610</ele>
        <time>2017-02-09T14:50:25Z</time>
      </trkpt>
      <trkpt lat="46.06848" lon="4.51298">
        <ele>610</ele>
        <time>2017-02-09T14:50:26Z</time>
      </trkpt>
      <trkpt lat="46.06848" lon="4.51286">
        <ele>609</ele>
        <time>2017-02-09T14:50:33Z</time>
      </trkpt>
      <trkpt lat="46.06848" lon="4.51285">
        <ele>608</ele>
        <time>2017-02-09T14:50:34Z</time>
      </trkpt>
      <trkpt lat="46.06847" lon="4.51274">
        <ele>608</ele>
        <time>2017-02-09T14:50:41Z</time>
      </trkpt>
      <trkpt lat="46.06846" lon="4.51272">
        <ele>608</ele>
        <time>2017-02-09T14:50:42Z</time>
      </trkpt>
      <trkpt lat="46.06841" lon="4.51262">
        <ele>608</ele>
        <time>2017-02-09T14:50:47Z</time>
      </trkpt>
      <trkpt lat="46.0684" lon="4.51261">
        <ele>608</ele>
        <time>2017-02-09T14:50:48Z</time>
      </trkpt>
      <trkpt lat="46.06839" lon="4.51249">
        <ele>607</ele>
        <time>2017-02-09T14:50:55Z</time>
      </trkpt>
      <trkpt lat="46.06839" lon="4.51247">
        <ele>607</ele>
        <time>2017-02-09T14:50:56Z</time>
      </trkpt>
      <trkpt lat="46.06838" lon="4.51234">
        <ele>604</ele>
        <time>2017-02-09T14:51:04Z</time>
      </trkpt>
      <trkpt lat="46.06838" lon="4.51233">
        <ele>604</ele>
        <time>2017-02-09T14:51:05Z</time>
      </trkpt>
      <trkpt lat="46.06834" lon="4.51223">
        <ele>603</ele>
        <time>2017-02-09T14:51:10Z</time>
      </trkpt>
      <trkpt lat="46.06833" lon="4.51221">
        <ele>614</ele>
        <time>2017-02-09T14:51:11Z</time>
      </trkpt>
      <trkpt lat="46.06829" lon="4.5121">
        <ele>614</ele>
        <time>2017-02-09T14:51:16Z</time>
      </trkpt>
      <trkpt lat="46.06829" lon="4.51208">
        <ele>614</ele>
        <time>2017-02-09T14:51:17Z</time>
      </trkpt>
      <trkpt lat="46.06823" lon="4.51199">
        <ele>614</ele>
        <time>2017-02-09T14:51:22Z</time>
      </trkpt>
      <trkpt lat="46.06822" lon="4.51197">
        <ele>614</ele>
        <time>2017-02-09T14:51:23Z</time>
      </trkpt>
      <trkpt lat="46.06819" lon="4.51185">
        <ele>613</ele>
        <time>2017-02-09T14:51:30Z</time>
      </trkpt>
      <trkpt lat="46.06819" lon="4.51184">
        <ele>612</ele>
        <time>2017-02-09T14:51:31Z</time>
      </trkpt>
      <trkpt lat="46.06818" lon="4.51171">
        <ele>611</ele>
        <time>2017-02-09T14:51:41Z</time>
      </trkpt>
      <trkpt lat="46.06818" lon="4.5117">
        <ele>611</ele>
        <time>2017-02-09T14:51:42Z</time>
      </trkpt>
      <trkpt lat="46.06814" lon="4.51158">
        <ele>608</ele>
        <time>2017-02-09T14:51:50Z</time>
      </trkpt>
      <trkpt lat="46.06813" lon="4.51157">
        <ele>608</ele>
        <time>2017-02-09T14:51:51Z</time>
      </trkpt>
      <trkpt lat="46.0681" lon="4.51147">
        <ele>609</ele>
        <time>2017-02-09T14:51:57Z</time>
      </trkpt>
      <trkpt lat="46.06809" lon="4.51145">
        <ele>609</ele>
        <time>2017-02-09T14:51:58Z</time>
      </trkpt>
      <trkpt lat="46.06803" lon="4.51136">
        <ele>609</ele>
        <time>2017-02-09T14:52:03Z</time>
      </trkpt>
      <trkpt lat="46.06802" lon="4.51134">
        <ele>609</ele>
        <time>2017-02-09T14:52:04Z</time>
      </trkpt>
      <trkpt lat="46.06797" lon="4.51125">
        <ele>609</ele>
        <time>2017-02-09T14:52:09Z</time>
      </trkpt>
      <trkpt lat="46.06796" lon="4.51123">
        <ele>609</ele>
        <time>2017-02-09T14:52:10Z</time>
      </trkpt>
      <trkpt lat="46.0679" lon="4.51114">
        <ele>609</ele>
        <time>2017-02-09T14:52:16Z</time>
      </trkpt>
      <trkpt lat="46.06789" lon="4.51112">
        <ele>609</ele>
        <time>2017-02-09T14:52:17Z</time>
      </trkpt>
      <trkpt lat="46.06784" lon="4.51102">
        <ele>609</ele>
        <time>2017-02-09T14:52:24Z</time>
      </trkpt>
      <trkpt lat="46.06783" lon="4.51101">
        <ele>609</ele>
        <time>2017-02-09T14:52:25Z</time>
      </trkpt>
      <trkpt lat="46.06779" lon="4.51091">
        <ele>609</ele>
        <time>2017-02-09T14:52:32Z</time>
      </trkpt>
      <trkpt lat="46.06779" lon="4.51089">
        <ele>609</ele>
        <time>2017-02-09T14:52:33Z</time>
      </trkpt>
      <trkpt lat="46.06775" lon="4.51079">
        <ele>605</ele>
        <time>2017-02-09T14:52:40Z</time>
      </trkpt>
      <trkpt lat="46.06774" lon="4.51077">
        <ele>605</ele>
        <time>2017-02-09T14:52:41Z</time>
      </trkpt>
      <trkpt lat="46.06769" lon="4.51067">
        <ele>604</ele>
        <time>2017-02-09T14:52:47Z</time>
      </trkpt>
      <trkpt lat="46.06769" lon="4.51065">
        <ele>604</ele>
        <time>2017-02-09T14:52:48Z</time>
      </trkpt>
      <trkpt lat="46.06764" lon="4.51056">
        <ele>604</ele>
        <time>2017-02-09T14:52:54Z</time>
      </trkpt>
      <trkpt lat="46.06763" lon="4.51054">
        <ele>604</ele>
        <time>2017-02-09T14:52:55Z</time>
      </trkpt>
      <trkpt lat="46.06759" lon="4.51044">
        <ele>603</ele>
        <time>2017-02-09T14:53:02Z</time>
      </trkpt>
      <trkpt lat="46.06759" lon="4.51042">
        <ele>603</ele>
        <time>2017-02-09T14:53:03Z</time>
      </trkpt>
      <trkpt lat="46.06758" lon="4.5103">
        <ele>603</ele>
        <time>2017-02-09T14:53:11Z</time>
      </trkpt>
      <trkpt lat="46.06758" lon="4.51029">
        <ele>603</ele>
        <time>2017-02-09T14:53:12Z</time>
      </trkpt>
      <trkpt lat="46.06756" lon="4.51018">
        <ele>603</ele>
        <time>2017-02-09T14:53:19Z</time>
      </trkpt>
      <trkpt lat="46.06756" lon="4.51016">
        <ele>603</ele>
        <time>2017-02-09T14:53:20Z</time>
      </trkpt>
      <trkpt lat="46.06753" lon="4.51005">
        <ele>603</ele>
        <time>2017-02-09T14:53:25Z</time>
      </trkpt>
      <trkpt lat="46.06753" lon="4.51002">
        <ele>604</ele>
        <time>2017-02-09T14:53:26Z</time>
      </trkpt>
      <trkpt lat="46.06749" lon="4.50992">
        <ele>604</ele>
        <time>2017-02-09T14:53:31Z</time>
      </trkpt>
      <trkpt lat="46.06749" lon="4.50989">
        <ele>604</ele>
        <time>2017-02-09T14:53:32Z</time>
      </trkpt>
      <trkpt lat="46.06746" lon="4.50979">
        <ele>604</ele>
        <time>2017-02-09T14:53:38Z</time>
      </trkpt>
      <trkpt lat="46.06746" lon="4.50977">
        <ele>604</ele>
        <time>2017-02-09T14:53:39Z</time>
      </trkpt>
      <trkpt lat="46.06744" lon="4.50965">
        <ele>603</ele>
        <time>2017-02-09T14:53:46Z</time>
      </trkpt>
      <trkpt lat="46.06744" lon="4.50963">
        <ele>603</ele>
        <time>2017-02-09T14:53:47Z</time>
      </trkpt>
      <trkpt lat="46.06746" lon="4.50952">
        <ele>603</ele>
        <time>2017-02-09T14:53:54Z</time>
      </trkpt>
      <trkpt lat="46.06746" lon="4.5095">
        <ele>602</ele>
        <time>2017-02-09T14:53:55Z</time>
      </trkpt>
      <trkpt lat="46.06748" lon="4.50938">
        <ele>601</ele>
        <time>2017-02-09T14:54:02Z</time>
      </trkpt>
      <trkpt lat="46.06749" lon="4.50937">
        <ele>601</ele>
        <time>2017-02-09T14:54:03Z</time>
      </trkpt>
      <trkpt lat="46.0675" lon="4.50925">
        <ele>599</ele>
        <time>2017-02-09T14:54:09Z</time>
      </trkpt>
      <trkpt lat="46.0675" lon="4.50923">
        <ele>596</ele>
        <time>2017-02-09T14:54:10Z</time>
      </trkpt>
      <trkpt lat="46.06751" lon="4.50912">
        <ele>595</ele>
        <time>2017-02-09T14:54:15Z</time>
      </trkpt>
      <trkpt lat="46.06752" lon="4.5091">
        <ele>595</ele>
        <time>2017-02-09T14:54:16Z</time>
      </trkpt>
      <trkpt lat="46.06753" lon="4.50898">
        <ele>592</ele>
        <time>2017-02-09T14:54:21Z</time>
      </trkpt>
      <trkpt lat="46.06753" lon="4.50896">
        <ele>592</ele>
        <time>2017-02-09T14:54:22Z</time>
      </trkpt>
      <trkpt lat="46.06755" lon="4.50886">
        <ele>591</ele>
        <time>2017-02-09T14:54:27Z</time>
      </trkpt>
      <trkpt lat="46.06756" lon="4.50884">
        <ele>591</ele>
        <time>2017-02-09T14:54:28Z</time>
      </trkpt>
      <trkpt lat="46.06759" lon="4.50873">
        <ele>590</ele>
        <time>2017-02-09T14:54:33Z</time>
      </trkpt>
      <trkpt lat="46.06759" lon="4.50871">
        <ele>590</ele>
        <time>2017-02-09T14:54:34Z</time>
      </trkpt>
      <trkpt lat="46.06762" lon="4.50859">
        <ele>590</ele>
        <time>2017-02-09T14:54:40Z</time>
      </trkpt>
      <trkpt lat="46.06762" lon="4.50857">
        <ele>590</ele>
        <time>2017-02-09T14:54:41Z</time>
      </trkpt>
      <trkpt lat="46.06764" lon="4.50846">
        <ele>591</ele>
        <time>2017-02-09T14:54:47Z</time>
      </trkpt>
      <trkpt lat="46.06764" lon="4.50844">
        <ele>591</ele>
        <time>2017-02-09T14:54:48Z</time>
      </trkpt>
      <trkpt lat="46.06762" lon="4.50832">
        <ele>592</ele>
        <time>2017-02-09T14:55:38Z</time>
      </trkpt>
      <trkpt lat="46.06762" lon="4.50831">
        <ele>592</ele>
        <time>2017-02-09T14:55:39Z</time>
      </trkpt>
      <trkpt lat="46.06769" lon="4.50824">
        <ele>590</ele>
        <time>2017-02-09T14:55:50Z</time>
      </trkpt>
      <trkpt lat="46.0677" lon="4.50824">
        <ele>590</ele>
        <time>2017-02-09T14:55:51Z</time>
      </trkpt>
      <trkpt lat="46.06777" lon="4.5082">
        <ele>590</ele>
        <time>2017-02-09T14:56:02Z</time>
      </trkpt>
      <trkpt lat="46.06778" lon="4.50819">
        <ele>589</ele>
        <time>2017-02-09T14:56:03Z</time>
      </trkpt>
      <trkpt lat="46.06785" lon="4.50814">
        <ele>589</ele>
        <time>2017-02-09T14:56:09Z</time>
      </trkpt>
      <trkpt lat="46.06786" lon="4.50813">
        <ele>589</ele>
        <time>2017-02-09T14:56:10Z</time>
      </trkpt>
      <trkpt lat="46.06794" lon="4.50808">
        <ele>588</ele>
        <time>2017-02-09T14:56:16Z</time>
      </trkpt>
      <trkpt lat="46.06795" lon="4.50806">
        <ele>588</ele>
        <time>2017-02-09T14:56:17Z</time>
      </trkpt>
      <trkpt lat="46.068" lon="4.50797">
        <ele>588</ele>
        <time>2017-02-09T14:56:23Z</time>
      </trkpt>
      <trkpt lat="46.06801" lon="4.50796">
        <ele>588</ele>
        <time>2017-02-09T14:56:24Z</time>
      </trkpt>
      <trkpt lat="46.06808" lon="4.50789">
        <ele>588</ele>
        <time>2017-02-09T14:56:30Z</time>
      </trkpt>
      <trkpt lat="46.06809" lon="4.50787">
        <ele>588</ele>
        <time>2017-02-09T14:56:31Z</time>
      </trkpt>
      <trkpt lat="46.06816" lon="4.5078">
        <ele>588</ele>
        <time>2017-02-09T14:56:39Z</time>
      </trkpt>
      <trkpt lat="46.06817" lon="4.5078">
        <ele>588</ele>
        <time>2017-02-09T14:56:40Z</time>
      </trkpt>
      <trkpt lat="46.06826" lon="4.50779">
        <ele>588</ele>
        <time>2017-02-09T14:56:58Z</time>
      </trkpt>
      <trkpt lat="46.06827" lon="4.50779">
        <ele>588</ele>
        <time>2017-02-09T14:56:59Z</time>
      </trkpt>
      <trkpt lat="46.06834" lon="4.50778">
        <ele>581</ele>
        <time>2017-02-09T14:57:06Z</time>
      </trkpt>
      <trkpt lat="46.06836" lon="4.50777">
        <ele>581</ele>
        <time>2017-02-09T14:57:07Z</time>
      </trkpt>
      <trkpt lat="46.06844" lon="4.50776">
        <ele>581</ele>
        <time>2017-02-09T14:57:12Z</time>
      </trkpt>
      <trkpt lat="46.06845" lon="4.50776">
        <ele>580</ele>
        <time>2017-02-09T14:57:13Z</time>
      </trkpt>
      <trkpt lat="46.06854" lon="4.50776">
        <ele>580</ele>
        <time>2017-02-09T14:57:21Z</time>
      </trkpt>
      <trkpt lat="46.06855" lon="4.50776">
        <ele>579</ele>
        <time>2017-02-09T14:57:22Z</time>
      </trkpt>
      <trkpt lat="46.06863" lon="4.50774">
        <ele>579</ele>
        <time>2017-02-09T14:57:29Z</time>
      </trkpt>
      <trkpt lat="46.06864" lon="4.50774">
        <ele>578</ele>
        <time>2017-02-09T14:57:30Z</time>
      </trkpt>
      <trkpt lat="46.06873" lon="4.50774">
        <ele>577</ele>
        <time>2017-02-09T14:57:36Z</time>
      </trkpt>
      <trkpt lat="46.06875" lon="4.50773">
        <ele>577</ele>
        <time>2017-02-09T14:57:37Z</time>
      </trkpt>
      <trkpt lat="46.06882" lon="4.50771">
        <ele>577</ele>
        <time>2017-02-09T14:57:42Z</time>
      </trkpt>
      <trkpt lat="46.06884" lon="4.50771">
        <ele>576</ele>
        <time>2017-02-09T14:57:43Z</time>
      </trkpt>
      <trkpt lat="46.06892" lon="4.50768">
        <ele>576</ele>
        <time>2017-02-09T14:57:48Z</time>
      </trkpt>
      <trkpt lat="46.06893" lon="4.50768">
        <ele>576</ele>
        <time>2017-02-09T14:57:49Z</time>
      </trkpt>
      <trkpt lat="46.06902" lon="4.50767">
        <ele>575</ele>
        <time>2017-02-09T14:57:55Z</time>
      </trkpt>
      <trkpt lat="46.06904" lon="4.50767">
        <ele>575</ele>
        <time>2017-02-09T14:57:56Z</time>
      </trkpt>
      <trkpt lat="46.06911" lon="4.50765">
        <ele>575</ele>
        <time>2017-02-09T14:58:02Z</time>
      </trkpt>
      <trkpt lat="46.06912" lon="4.50765">
        <ele>575</ele>
        <time>2017-02-09T14:58:03Z</time>
      </trkpt>
      <trkpt lat="46.0692" lon="4.50758">
        <ele>570</ele>
        <time>2017-02-09T14:58:16Z</time>
      </trkpt>
      <trkpt lat="46.0692" lon="4.50758">
        <ele>570</ele>
        <time>2017-02-09T14:58:17Z</time>
      </trkpt>
      <trkpt lat="46.06928" lon="4.50754">
        <ele>568</ele>
        <time>2017-02-09T14:58:32Z</time>
      </trkpt>
      <trkpt lat="46.06929" lon="4.50754">
        <ele>568</ele>
        <time>2017-02-09T14:58:33Z</time>
      </trkpt>
      <trkpt lat="46.06937" lon="4.50748">
        <ele>571</ele>
        <time>2017-02-09T14:58:48Z</time>
      </trkpt>
      <trkpt lat="46.06938" lon="4.50748">
        <ele>571</ele>
        <time>2017-02-09T14:58:49Z</time>
      </trkpt>
      <trkpt lat="46.06946" lon="4.50747">
        <ele>570</ele>
        <time>2017-02-09T14:59:12Z</time>
      </trkpt>
      <trkpt lat="46.06947" lon="4.50747">
        <ele>569</ele>
        <time>2017-02-09T14:59:13Z</time>
      </trkpt>
      <trkpt lat="46.06955" lon="4.50749">
        <ele>568</ele>
        <time>2017-02-09T14:59:20Z</time>
      </trkpt>
      <trkpt lat="46.06956" lon="4.50749">
        <ele>568</ele>
        <time>2017-02-09T14:59:21Z</time>
      </trkpt>
      <trkpt lat="46.06964" lon="4.50746">
        <ele>566</ele>
        <time>2017-02-09T14:59:31Z</time>
      </trkpt>
      <trkpt lat="46.06966" lon="4.50746">
        <ele>566</ele>
        <time>2017-02-09T14:59:32Z</time>
      </trkpt>
      <trkpt lat="46.06974" lon="4.50748">
        <ele>564</ele>
        <time>2017-02-09T14:59:38Z</time>
      </trkpt>
      <trkpt lat="46.06975" lon="4.50747">
        <ele>564</ele>
        <time>2017-02-09T14:59:39Z</time>
      </trkpt>
      <trkpt lat="46.06984" lon="4.50744">
        <ele>562</ele>
        <time>2017-02-09T14:59:46Z</time>
      </trkpt>
      <trkpt lat="46.06984" lon="4.50744">
        <ele>562</ele>
        <time>2017-02-09T14:59:47Z</time>
      </trkpt>
      <trkpt lat="46.06991" lon="4.50738">
        <ele>561</ele>
        <time>2017-02-09T14:59:54Z</time>
      </trkpt>
      <trkpt lat="46.06992" lon="4.50737">
        <ele>561</ele>
        <time>2017-02-09T14:59:55Z</time>
      </trkpt>
      <trkpt lat="46.07001" lon="4.50735">
        <ele>551</ele>
        <time>2017-02-09T15:00:04Z</time>
      </trkpt>
      <trkpt lat="46.07002" lon="4.50735">
        <ele>551</ele>
        <time>2017-02-09T15:00:05Z</time>
      </trkpt>
      <trkpt lat="46.07011" lon="4.50735">
        <ele>550</ele>
        <time>2017-02-09T15:00:13Z</time>
      </trkpt>
      <trkpt lat="46.07012" lon="4.50734">
        <ele>550</ele>
        <time>2017-02-09T15:00:14Z</time>
      </trkpt>
      <trkpt lat="46.07019" lon="4.50727">
        <ele>549</ele>
        <time>2017-02-09T15:00:21Z</time>
      </trkpt>
      <trkpt lat="46.07019" lon="4.50725">
        <ele>549</ele>
        <time>2017-02-09T15:00:22Z</time>
      </trkpt>
      <trkpt lat="46.07024" lon="4.50714">
        <ele>548</ele>
        <time>2017-02-09T15:00:31Z</time>
      </trkpt>
      <trkpt lat="46.07024" lon="4.50714">
        <ele>548</ele>
        <time>2017-02-09T15:00:32Z</time>
      </trkpt>
      <trkpt lat="46.0703" lon="4.50705">
        <ele>548</ele>
        <time>2017-02-09T15:00:55Z</time>
      </trkpt>
      <trkpt lat="46.0703" lon="4.50704">
        <ele>548</ele>
        <time>2017-02-09T15:00:56Z</time>
      </trkpt>
      <trkpt lat="46.07033" lon="4.50692">
        <ele>548</ele>
        <time>2017-02-09T15:01:04Z</time>
      </trkpt>
      <trkpt lat="46.07033" lon="4.50691">
        <ele>548</ele>
        <time>2017-02-09T15:01:05Z</time>
      </trkpt>
      <trkpt lat="46.07037" lon="4.5068">
        <ele>548</ele>
        <time>2017-02-09T15:01:11Z</time>
      </trkpt>
      <trkpt lat="46.07038" lon="4.50678">
        <ele>548</ele>
        <time>2017-02-09T15:01:12Z</time>
      </trkpt>
      <trkpt lat="46.07041" lon="4.50668">
        <ele>547</ele>
        <time>2017-02-09T15:01:19Z</time>
      </trkpt>
      <trkpt lat="46.07041" lon="4.50666">
        <ele>548</ele>
        <time>2017-02-09T15:01:20Z</time>
      </trkpt>
      <trkpt lat="46.07043" lon="4.50654">
        <ele>548</ele>
        <time>2017-02-09T15:01:27Z</time>
      </trkpt>
      <trkpt lat="46.07044" lon="4.50653">
        <ele>548</ele>
        <time>2017-02-09T15:01:28Z</time>
      </trkpt>
      <trkpt lat="46.07046" lon="4.5064">
        <ele>547</ele>
        <time>2017-02-09T15:01:37Z</time>
      </trkpt>
      <trkpt lat="46.07046" lon="4.50639">
        <ele>547</ele>
        <time>2017-02-09T15:01:38Z</time>
      </trkpt>
      <trkpt lat="46.07048" lon="4.50627">
        <ele>547</ele>
        <time>2017-02-09T15:01:47Z</time>
      </trkpt>
      <trkpt lat="46.07048" lon="4.50626">
        <ele>547</ele>
        <time>2017-02-09T15:01:48Z</time>
      </trkpt>
      <trkpt lat="46.07048" lon="4.50613">
        <ele>546</ele>
        <time>2017-02-09T15:01:58Z</time>
      </trkpt>
      <trkpt lat="46.07048" lon="4.50611">
        <ele>546</ele>
        <time>2017-02-09T15:01:59Z</time>
      </trkpt>
      <trkpt lat="46.07048" lon="4.506">
        <ele>546</ele>
        <time>2017-02-09T15:02:06Z</time>
      </trkpt>
      <trkpt lat="46.07048" lon="4.50598">
        <ele>546</ele>
        <time>2017-02-09T15:02:07Z</time>
      </trkpt>
      <trkpt lat="46.07052" lon="4.50587">
        <ele>544</ele>
        <time>2017-02-09T15:02:16Z</time>
      </trkpt>
      <trkpt lat="46.07053" lon="4.50586">
        <ele>544</ele>
        <time>2017-02-09T15:02:17Z</time>
      </trkpt>
      <trkpt lat="46.07051" lon="4.50574">
        <ele>541</ele>
        <time>2017-02-09T15:02:24Z</time>
      </trkpt>
      <trkpt lat="46.07051" lon="4.50573">
        <ele>541</ele>
        <time>2017-02-09T15:02:25Z</time>
      </trkpt>
      <trkpt lat="46.07055" lon="4.50562">
        <ele>540</ele>
        <time>2017-02-09T15:02:32Z</time>
      </trkpt>
      <trkpt lat="46.07056" lon="4.50561">
        <ele>540</ele>
        <time>2017-02-09T15:02:33Z</time>
      </trkpt>
      <trkpt lat="46.07061" lon="4.5055">
        <ele>539</ele>
        <time>2017-02-09T15:02:42Z</time>
      </trkpt>
      <trkpt lat="46.07061" lon="4.50549">
        <ele>539</ele>
        <time>2017-02-09T15:02:43Z</time>
      </trkpt>
      <trkpt lat="46.07063" lon="4.50537">
        <ele>538</ele>
        <time>2017-02-09T15:02:55Z</time>
      </trkpt>
      <trkpt lat="46.07063" lon="4.50535">
        <ele>538</ele>
        <time>2017-02-09T15:02:56Z</time>
      </trkpt>
      <trkpt lat="46.07063" lon="4.50523">
        <ele>536</ele>
        <time>2017-02-09T15:03:07Z</time>
      </trkpt>
      <trkpt lat="46.07063" lon="4.50521">
        <ele>536</ele>
        <time>2017-02-09T15:03:08Z</time>
      </trkpt>
      <trkpt lat="46.07064" lon="4.5051">
        <ele>533</ele>
        <time>2017-02-09T15:03:16Z</time>
      </trkpt>
      <trkpt lat="46.07064" lon="4.50508">
        <ele>533</ele>
        <time>2017-02-09T15:03:17Z</time>
      </trkpt>
      <trkpt lat="46.07068" lon="4.50496">
        <ele>526</ele>
        <time>2017-02-09T15:03:25Z</time>
      </trkpt>
      <trkpt lat="46.07067" lon="4.50495">
        <ele>526</ele>
        <time>2017-02-09T15:03:26Z</time>
      </trkpt>
      <trkpt lat="46.07068" lon="4.50483">
        <ele>526</ele>
        <time>2017-02-09T15:03:32Z</time>
      </trkpt>
      <trkpt lat="46.07068" lon="4.50481">
        <ele>527</ele>
        <time>2017-02-09T15:03:33Z</time>
      </trkpt>
      <trkpt lat="46.07066" lon="4.50469">
        <ele>527</ele>
        <time>2017-02-09T15:03:40Z</time>
      </trkpt>
      <trkpt lat="46.07066" lon="4.50467">
        <ele>527</ele>
        <time>2017-02-09T15:03:41Z</time>
      </trkpt>
      <trkpt lat="46.07064" lon="4.50454">
        <ele>526</ele>
        <time>2017-02-09T15:03:48Z</time>
      </trkpt>
      <trkpt lat="46.07065" lon="4.50452">
        <ele>526</ele>
        <time>2017-02-09T15:03:49Z</time>
      </trkpt>
      <trkpt lat="46.07063" lon="4.5044">
        <ele>524</ele>
        <time>2017-02-09T15:03:56Z</time>
      </trkpt>
      <trkpt lat="46.07062" lon="4.50438">
        <ele>524</ele>
        <time>2017-02-09T15:03:57Z</time>
      </trkpt>
      <trkpt lat="46.07059" lon="4.50425">
        <ele>523</ele>
        <time>2017-02-09T15:04:04Z</time>
      </trkpt>
      <trkpt lat="46.07059" lon="4.50424">
        <ele>523</ele>
        <time>2017-02-09T15:04:05Z</time>
      </trkpt>
      <trkpt lat="46.07054" lon="4.50414">
        <ele>517</ele>
        <time>2017-02-09T15:04:12Z</time>
      </trkpt>
      <trkpt lat="46.07054" lon="4.50412">
        <ele>517</ele>
        <time>2017-02-09T15:04:13Z</time>
      </trkpt>
      <trkpt lat="46.0705" lon="4.50402">
        <ele>517</ele>
        <time>2017-02-09T15:04:19Z</time>
      </trkpt>
      <trkpt lat="46.07049" lon="4.504">
        <ele>517</ele>
        <time>2017-02-09T15:04:20Z</time>
      </trkpt>
      <trkpt lat="46.07046" lon="4.50389">
        <ele>518</ele>
        <time>2017-02-09T15:04:26Z</time>
      </trkpt>
      <trkpt lat="46.07045" lon="4.50386">
        <ele>517</ele>
        <time>2017-02-09T15:04:27Z</time>
      </trkpt>
      <trkpt lat="46.07047" lon="4.50374">
        <ele>516</ele>
        <time>2017-02-09T15:04:33Z</time>
      </trkpt>
      <trkpt lat="46.07047" lon="4.50373">
        <ele>516</ele>
        <time>2017-02-09T15:04:34Z</time>
      </trkpt>
      <trkpt lat="46.0705" lon="4.50362">
        <ele>515</ele>
        <time>2017-02-09T15:04:41Z</time>
      </trkpt>
      <trkpt lat="46.0705" lon="4.5036">
        <ele>515</ele>
        <time>2017-02-09T15:04:42Z</time>
      </trkpt>
      <trkpt lat="46.07049" lon="4.50349">
        <ele>514</ele>
        <time>2017-02-09T15:04:49Z</time>
      </trkpt>
      <trkpt lat="46.07049" lon="4.50347">
        <ele>514</ele>
        <time>2017-02-09T15:04:50Z</time>
      </trkpt>
      <trkpt lat="46.07048" lon="4.50335">
        <ele>513</ele>
        <time>2017-02-09T15:04:59Z</time>
      </trkpt>
      <trkpt lat="46.07049" lon="4.50333">
        <ele>506</ele>
        <time>2017-02-09T15:05:00Z</time>
      </trkpt>
      <trkpt lat="46.07048" lon="4.50321">
        <ele>506</ele>
        <time>2017-02-09T15:05:07Z</time>
      </trkpt>
      <trkpt lat="46.07048" lon="4.5032">
        <ele>506</ele>
        <time>2017-02-09T15:05:08Z</time>
      </trkpt>
      <trkpt lat="46.07047" lon="4.50307">
        <ele>505</ele>
        <time>2017-02-09T15:05:18Z</time>
      </trkpt>
      <trkpt lat="46.07047" lon="4.50306">
        <ele>505</ele>
        <time>2017-02-09T15:05:19Z</time>
      </trkpt>
      <trkpt lat="46.07045" lon="4.50294">
        <ele>505</ele>
        <time>2017-02-09T15:05:31Z</time>
      </trkpt>
      <trkpt lat="46.07044" lon="4.50292">
        <ele>505</ele>
        <time>2017-02-09T15:05:32Z</time>
      </trkpt>
      <trkpt lat="46.07042" lon="4.50281">
        <ele>504</ele>
        <time>2017-02-09T15:05:38Z</time>
      </trkpt>
      <trkpt lat="46.07041" lon="4.50279">
        <ele>504</ele>
        <time>2017-02-09T15:05:39Z</time>
      </trkpt>
      <trkpt lat="46.07038" lon="4.50269">
        <ele>504</ele>
        <time>2017-02-09T15:05:45Z</time>
      </trkpt>
      <trkpt lat="46.07038" lon="4.50267">
        <ele>504</ele>
        <time>2017-02-09T15:05:46Z</time>
      </trkpt>
      <trkpt lat="46.07035" lon="4.50254">
        <ele>504</ele>
        <time>2017-02-09T15:05:54Z</time>
      </trkpt>
      <trkpt lat="46.07036" lon="4.50253">
        <ele>504</ele>
        <time>2017-02-09T15:05:55Z</time>
      </trkpt>
      <trkpt lat="46.07032" lon="4.50243">
        <ele>495</ele>
        <time>2017-02-09T15:06:04Z</time>
      </trkpt>
      <trkpt lat="46.07031" lon="4.50241">
        <ele>495</ele>
        <time>2017-02-09T15:06:05Z</time>
      </trkpt>
      <trkpt lat="46.07024" lon="4.50235">
        <ele>496</ele>
        <time>2017-02-09T15:06:09Z</time>
      </trkpt>
      <trkpt lat="46.07022" lon="4.50234">
        <ele>496</ele>
        <time>2017-02-09T15:06:10Z</time>
      </trkpt>
      <trkpt lat="46.07015" lon="4.5023">
        <ele>496</ele>
        <time>2017-02-09T15:06:14Z</time>
      </trkpt>
      <trkpt lat="46.07013" lon="4.5023">
        <ele>496</ele>
        <time>2017-02-09T15:06:15Z</time>
      </trkpt>
      <trkpt lat="46.07006" lon="4.50226">
        <ele>496</ele>
        <time>2017-02-09T15:06:19Z</time>
      </trkpt>
      <trkpt lat="46.07003" lon="4.50225">
        <ele>496</ele>
        <time>2017-02-09T15:06:20Z</time>
      </trkpt>
      <trkpt lat="46.06996" lon="4.50221">
        <ele>499</ele>
        <time>2017-02-09T15:06:24Z</time>
      </trkpt>
      <trkpt lat="46.06995" lon="4.5022">
        <ele>498</ele>
        <time>2017-02-09T15:06:25Z</time>
      </trkpt>
      <trkpt lat="46.06988" lon="4.50215">
        <ele>497</ele>
        <time>2017-02-09T15:06:30Z</time>
      </trkpt>
      <trkpt lat="46.06986" lon="4.50214">
        <ele>497</ele>
        <time>2017-02-09T15:06:31Z</time>
      </trkpt>
      <trkpt lat="46.06978" lon="4.50209">
        <ele>496</ele>
        <time>2017-02-09T15:06:37Z</time>
      </trkpt>
      <trkpt lat="46.06977" lon="4.50208">
        <ele>496</ele>
        <time>2017-02-09T15:06:38Z</time>
      </trkpt>
      <trkpt lat="46.06968" lon="4.50205">
        <ele>495</ele>
        <time>2017-02-09T15:06:45Z</time>
      </trkpt>
      <trkpt lat="46.06967" lon="4.50206">
        <ele>495</ele>
        <time>2017-02-09T15:06:46Z</time>
      </trkpt>
      <trkpt lat="46.06959" lon="4.50205">
        <ele>495</ele>
        <time>2017-02-09T15:06:53Z</time>
      </trkpt>
      <trkpt lat="46.06958" lon="4.50205">
        <ele>495</ele>
        <time>2017-02-09T15:06:54Z</time>
      </trkpt>
      <trkpt lat="46.0695" lon="4.50201">
        <ele>495</ele>
        <time>2017-02-09T15:07:02Z</time>
      </trkpt>
      <trkpt lat="46.06948" lon="4.502">
        <ele>494</ele>
        <time>2017-02-09T15:07:03Z</time>
      </trkpt>
      <trkpt lat="46.0694" lon="4.50196">
        <ele>493</ele>
        <time>2017-02-09T15:07:11Z</time>
      </trkpt>
      <trkpt lat="46.06939" lon="4.50196">
        <ele>493</ele>
        <time>2017-02-09T15:07:12Z</time>
      </trkpt>
      <trkpt lat="46.06931" lon="4.50194">
        <ele>493</ele>
        <time>2017-02-09T15:07:18Z</time>
      </trkpt>
      <trkpt lat="46.06929" lon="4.50193">
        <ele>492</ele>
        <time>2017-02-09T15:07:19Z</time>
      </trkpt>
      <trkpt lat="46.06921" lon="4.50188">
        <ele>491</ele>
        <time>2017-02-09T15:07:25Z</time>
      </trkpt>
      <trkpt lat="46.0692" lon="4.50187">
        <ele>490</ele>
        <time>2017-02-09T15:07:26Z</time>
      </trkpt>
      <trkpt lat="46.06912" lon="4.50184">
        <ele>489</ele>
        <time>2017-02-09T15:07:32Z</time>
      </trkpt>
      <trkpt lat="46.06911" lon="4.50184">
        <ele>489</ele>
        <time>2017-02-09T15:07:33Z</time>
      </trkpt>
      <trkpt lat="46.06902" lon="4.5018">
        <ele>490</ele>
        <time>2017-02-09T15:07:40Z</time>
      </trkpt>
      <trkpt lat="46.06901" lon="4.50179">
        <ele>490</ele>
        <time>2017-02-09T15:07:41Z</time>
      </trkpt>
      <trkpt lat="46.06895" lon="4.50172">
        <ele>490</ele>
        <time>2017-02-09T15:07:48Z</time>
      </trkpt>
      <trkpt lat="46.06894" lon="4.50171">
        <ele>490</ele>
        <time>2017-02-09T15:07:49Z</time>
      </trkpt>
      <trkpt lat="46.06887" lon="4.50167">
        <ele>477</ele>
        <time>2017-02-09T15:07:55Z</time>
      </trkpt>
      <trkpt lat="46.06886" lon="4.50166">
        <ele>477</ele>
        <time>2017-02-09T15:07:56Z</time>
      </trkpt>
      <trkpt lat="46.06879" lon="4.50157">
        <ele>477</ele>
        <time>2017-02-09T15:08:03Z</time>
      </trkpt>
      <trkpt lat="46.06878" lon="4.50157">
        <ele>477</ele>
        <time>2017-02-09T15:08:04Z</time>
      </trkpt>
      <trkpt lat="46.0687" lon="4.50152">
        <ele>476</ele>
        <time>2017-02-09T15:08:11Z</time>
      </trkpt>
      <trkpt lat="46.06869" lon="4.50151">
        <ele>477</ele>
        <time>2017-02-09T15:08:12Z</time>
      </trkpt>
      <trkpt lat="46.06862" lon="4.50144">
        <ele>476</ele>
        <time>2017-02-09T15:08:19Z</time>
      </trkpt>
      <trkpt lat="46.06861" lon="4.50143">
        <ele>476</ele>
        <time>2017-02-09T15:08:20Z</time>
      </trkpt>
      <trkpt lat="46.06855" lon="4.50135">
        <ele>475</ele>
        <time>2017-02-09T15:08:28Z</time>
      </trkpt>
      <trkpt lat="46.06854" lon="4.50134">
        <ele>475</ele>
        <time>2017-02-09T15:08:29Z</time>
      </trkpt>
      <trkpt lat="46.06847" lon="4.50127">
        <ele>474</ele>
        <time>2017-02-09T15:08:37Z</time>
      </trkpt>
      <trkpt lat="46.06846" lon="4.50126">
        <ele>473</ele>
        <time>2017-02-09T15:08:38Z</time>
      </trkpt>
      <trkpt lat="46.06842" lon="4.50115">
        <ele>471</ele>
        <time>2017-02-09T15:08:46Z</time>
      </trkpt>
      <trkpt lat="46.06842" lon="4.50114">
        <ele>471</ele>
        <time>2017-02-09T15:08:47Z</time>
      </trkpt>
      <trkpt lat="46.06836" lon="4.50105">
        <ele>469</ele>
        <time>2017-02-09T15:08:55Z</time>
      </trkpt>
      <trkpt lat="46.06835" lon="4.50105">
        <ele>469</ele>
        <time>2017-02-09T15:08:56Z</time>
      </trkpt>
      <trkpt lat="46.06827" lon="4.50099">
        <ele>465</ele>
        <time>2017-02-09T15:09:04Z</time>
      </trkpt>
      <trkpt lat="46.06826" lon="4.50098">
        <ele>465</ele>
        <time>2017-02-09T15:09:05Z</time>
      </trkpt>
      <trkpt lat="46.06819" lon="4.50092">
        <ele>465</ele>
        <time>2017-02-09T15:09:12Z</time>
      </trkpt>
      <trkpt lat="46.06818" lon="4.50091">
        <ele>465</ele>
        <time>2017-02-09T15:09:13Z</time>
      </trkpt>
      <trkpt lat="46.0681" lon="4.50087">
        <ele>465</ele>
        <time>2017-02-09T15:09:22Z</time>
      </trkpt>
      <trkpt lat="46.06809" lon="4.50086">
        <ele>465</ele>
        <time>2017-02-09T15:09:23Z</time>
      </trkpt>
      <trkpt lat="46.06801" lon="4.50082">
        <ele>455</ele>
        <time>2017-02-09T15:09:32Z</time>
      </trkpt>
      <trkpt lat="46.068" lon="4.50081">
        <ele>455</ele>
        <time>2017-02-09T15:09:33Z</time>
      </trkpt>
      <trkpt lat="46.06792" lon="4.50077">
        <ele>454</ele>
        <time>2017-02-09T15:09:41Z</time>
      </trkpt>
      <trkpt lat="46.06792" lon="4.50076">
        <ele>454</ele>
        <time>2017-02-09T15:09:42Z</time>
      </trkpt>
      <trkpt lat="46.06791" lon="4.50064">
        <ele>453</ele>
        <time>2017-02-09T15:11:20Z</time>
      </trkpt>
      <trkpt lat="46.06791" lon="4.50063">
        <ele>453</ele>
        <time>2017-02-09T15:11:21Z</time>
      </trkpt>
      <trkpt lat="46.06798" lon="4.50056">
        <ele>453</ele>
        <time>2017-02-09T15:11:29Z</time>
      </trkpt>
      <trkpt lat="46.06798" lon="4.50055">
        <ele>453</ele>
        <time>2017-02-09T15:11:30Z</time>
      </trkpt>
      <trkpt lat="46.06805" lon="4.50049">
        <ele>452</ele>
        <time>2017-02-09T15:11:37Z</time>
      </trkpt>
      <trkpt lat="46.06806" lon="4.50048">
        <ele>452</ele>
        <time>2017-02-09T15:11:38Z</time>
      </trkpt>
      <trkpt lat="46.06813" lon="4.50041">
        <ele>452</ele>
        <time>2017-02-09T15:11:44Z</time>
      </trkpt>
      <trkpt lat="46.06814" lon="4.5004">
        <ele>452</ele>
        <time>2017-02-09T15:11:45Z</time>
      </trkpt>
      <trkpt lat="46.0682" lon="4.50033">
        <ele>451</ele>
        <time>2017-02-09T15:11:51Z</time>
      </trkpt>
      <trkpt lat="46.06821" lon="4.50031">
        <ele>451</ele>
        <time>2017-02-09T15:11:52Z</time>
      </trkpt>
      <trkpt lat="46.06826" lon="4.50021">
        <ele>449</ele>
        <time>2017-02-09T15:11:59Z</time>
      </trkpt>
      <trkpt lat="46.06826" lon="4.50019">
        <ele>449</ele>
        <time>2017-02-09T15:12:00Z</time>
      </trkpt>
      <trkpt lat="46.06832" lon="4.50011">
        <ele>448</ele>
        <time>2017-02-09T15:12:06Z</time>
      </trkpt>
      <trkpt lat="46.06834" lon="4.5001">
        <ele>450</ele>
        <time>2017-02-09T15:12:07Z</time>
      </trkpt>
      <trkpt lat="46.06839" lon="4.50001">
        <ele>448</ele>
        <time>2017-02-09T15:12:13Z</time>
      </trkpt>
      <trkpt lat="46.0684" lon="4.49999">
        <ele>446</ele>
        <time>2017-02-09T15:12:14Z</time>
      </trkpt>
      <trkpt lat="46.06843" lon="4.49988">
        <ele>447</ele>
        <time>2017-02-09T15:12:21Z</time>
      </trkpt>
      <trkpt lat="46.06844" lon="4.49986">
        <ele>447</ele>
        <time>2017-02-09T15:12:22Z</time>
      </trkpt>
      <trkpt lat="46.06847" lon="4.49976">
        <ele>447</ele>
        <time>2017-02-09T15:12:28Z</time>
      </trkpt>
      <trkpt lat="46.06847" lon="4.49974">
        <ele>447</ele>
        <time>2017-02-09T15:12:29Z</time>
      </trkpt>
      <trkpt lat="46.06851" lon="4.49965">
        <ele>446</ele>
        <time>2017-02-09T15:12:34Z</time>
      </trkpt>
      <trkpt lat="46.06852" lon="4.49963">
        <ele>446</ele>
        <time>2017-02-09T15:12:35Z</time>
      </trkpt>
      <trkpt lat="46.0685" lon="4.49951">
        <ele>445</ele>
        <time>2017-02-09T15:12:42Z</time>
      </trkpt>
      <trkpt lat="46.06849" lon="4.49949">
        <ele>445</ele>
        <time>2017-02-09T15:12:43Z</time>
      </trkpt>
      <trkpt lat="46.06844" lon="4.49939">
        <ele>444</ele>
        <time>2017-02-09T15:12:50Z</time>
      </trkpt>
      <trkpt lat="46.06843" lon="4.49938">
        <ele>443</ele>
        <time>2017-02-09T15:12:51Z</time>
      </trkpt>
      <trkpt lat="46.06837" lon="4.49929">
        <ele>441</ele>
        <time>2017-02-09T15:12:58Z</time>
      </trkpt>
      <trkpt lat="46.06837" lon="4.49927">
        <ele>441</ele>
        <time>2017-02-09T15:12:59Z</time>
      </trkpt>
      <trkpt lat="46.06834" lon="4.49915">
        <ele>437</ele>
        <time>2017-02-09T15:13:06Z</time>
      </trkpt>
      <trkpt lat="46.06833" lon="4.49913">
        <ele>436</ele>
        <time>2017-02-09T15:13:07Z</time>
      </trkpt>
      <trkpt lat="46.0683" lon="4.49903">
        <ele>435</ele>
        <time>2017-02-09T15:13:14Z</time>
      </trkpt>
      <trkpt lat="46.06829" lon="4.49902">
        <ele>434</ele>
        <time>2017-02-09T15:13:15Z</time>
      </trkpt>
      <trkpt lat="46.06824" lon="4.49892">
        <ele>433</ele>
        <time>2017-02-09T15:13:21Z</time>
      </trkpt>
      <trkpt lat="46.06823" lon="4.49891">
        <ele>433</ele>
        <time>2017-02-09T15:13:22Z</time>
      </trkpt>
      <trkpt lat="46.06816" lon="4.49884">
        <ele>433</ele>
        <time>2017-02-09T15:13:29Z</time>
      </trkpt>
      <trkpt lat="46.06815" lon="4.49883">
        <ele>433</ele>
        <time>2017-02-09T15:13:30Z</time>
      </trkpt>
      <trkpt lat="46.06808" lon="4.49876">
        <ele>432</ele>
        <time>2017-02-09T15:13:36Z</time>
      </trkpt>
      <trkpt lat="46.06807" lon="4.49875">
        <ele>432</ele>
        <time>2017-02-09T15:13:37Z</time>
      </trkpt>
      <trkpt lat="46.068" lon="4.49868">
        <ele>432</ele>
        <time>2017-02-09T15:13:44Z</time>
      </trkpt>
      <trkpt lat="46.06799" lon="4.49867">
        <ele>432</ele>
        <time>2017-02-09T15:13:45Z</time>
      </trkpt>
      <trkpt lat="46.06791" lon="4.49863">
        <ele>431</ele>
        <time>2017-02-09T15:13:50Z</time>
      </trkpt>
      <trkpt lat="46.0679" lon="4.49862">
        <ele>431</ele>
        <time>2017-02-09T15:13:51Z</time>
      </trkpt>
      <trkpt lat="46.06782" lon="4.49857">
        <ele>431</ele>
        <time>2017-02-09T15:13:57Z</time>
      </trkpt>
      <trkpt lat="46.06781" lon="4.49857">
        <ele>430</ele>
        <time>2017-02-09T15:13:58Z</time>
      </trkpt>
      <trkpt lat="46.06773" lon="4.49855">
        <ele>430</ele>
        <time>2017-02-09T15:14:04Z</time>
      </trkpt>
      <trkpt lat="46.06771" lon="4.49856">
        <ele>430</ele>
        <time>2017-02-09T15:14:05Z</time>
      </trkpt>
      <trkpt lat="46.06763" lon="4.49858">
        <ele>430</ele>
        <time>2017-02-09T15:14:11Z</time>
      </trkpt>
      <trkpt lat="46.06762" lon="4.49858">
        <ele>430</ele>
        <time>2017-02-09T15:14:12Z</time>
      </trkpt>
      <trkpt lat="46.06754" lon="4.49858">
        <ele>429</ele>
        <time>2017-02-09T15:14:18Z</time>
      </trkpt>
      <trkpt lat="46.06753" lon="4.49858">
        <ele>429</ele>
        <time>2017-02-09T15:14:19Z</time>
      </trkpt>
      <trkpt lat="46.06745" lon="4.49855">
        <ele>427</ele>
        <time>2017-02-09T15:14:25Z</time>
      </trkpt>
      <trkpt lat="46.06743" lon="4.49855">
        <ele>427</ele>
        <time>2017-02-09T15:14:26Z</time>
      </trkpt>
      <trkpt lat="46.06734" lon="4.49853">
        <ele>427</ele>
        <time>2017-02-09T15:14:32Z</time>
      </trkpt>
      <trkpt lat="46.06733" lon="4.49852">
        <ele>427</ele>
        <time>2017-02-09T15:14:33Z</time>
      </trkpt>
      <trkpt lat="46.06725" lon="4.49849">
        <ele>427</ele>
        <time>2017-02-09T15:14:40Z</time>
      </trkpt>
      <trkpt lat="46.06724" lon="4.49848">
        <ele>427</ele>
        <time>2017-02-09T15:14:41Z</time>
      </trkpt>
      <trkpt lat="46.06716" lon="4.49844">
        <ele>427</ele>
        <time>2017-02-09T15:14:48Z</time>
      </trkpt>
      <trkpt lat="46.06715" lon="4.49843">
        <ele>427</ele>
        <time>2017-02-09T15:14:49Z</time>
      </trkpt>
      <trkpt lat="46.06708" lon="4.49837">
        <ele>427</ele>
        <time>2017-02-09T15:14:57Z</time>
      </trkpt>
      <trkpt lat="46.06707" lon="4.49836">
        <ele>427</ele>
        <time>2017-02-09T15:14:58Z</time>
      </trkpt>
      <trkpt lat="46.06699" lon="4.49832">
        <ele>422</ele>
        <time>2017-02-09T15:15:05Z</time>
      </trkpt>
      <trkpt lat="46.06697" lon="4.49832">
        <ele>422</ele>
        <time>2017-02-09T15:15:06Z</time>
      </trkpt>
      <trkpt lat="46.06689" lon="4.49829">
        <ele>422</ele>
        <time>2017-02-09T15:15:12Z</time>
      </trkpt>
      <trkpt lat="46.06688" lon="4.49828">
        <ele>422</ele>
        <time>2017-02-09T15:15:13Z</time>
      </trkpt>
      <trkpt lat="46.06679" lon="4.49826">
        <ele>422</ele>
        <time>2017-02-09T15:15:19Z</time>
      </trkpt>
      <trkpt lat="46.06678" lon="4.49826">
        <ele>422</ele>
        <time>2017-02-09T15:15:20Z</time>
      </trkpt>
      <trkpt lat="46.0667" lon="4.49826">
        <ele>423</ele>
        <time>2017-02-09T15:15:26Z</time>
      </trkpt>
      <trkpt lat="46.06669" lon="4.49826">
        <ele>423</ele>
        <time>2017-02-09T15:15:27Z</time>
      </trkpt>
      <trkpt lat="46.06661" lon="4.49829">
        <ele>422</ele>
        <time>2017-02-09T15:15:33Z</time>
      </trkpt>
      <trkpt lat="46.06659" lon="4.49829">
        <ele>422</ele>
        <time>2017-02-09T15:15:34Z</time>
      </trkpt>
      <trkpt lat="46.06651" lon="4.49831">
        <ele>421</ele>
        <time>2017-02-09T15:15:41Z</time>
      </trkpt>
      <trkpt lat="46.0665" lon="4.49831">
        <ele>421</ele>
        <time>2017-02-09T15:15:42Z</time>
      </trkpt>
      <trkpt lat="46.06642" lon="4.49832">
        <ele>420</ele>
        <time>2017-02-09T15:15:48Z</time>
      </trkpt>
      <trkpt lat="46.06641" lon="4.49831">
        <ele>420</ele>
        <time>2017-02-09T15:15:49Z</time>
      </trkpt>
      <trkpt lat="46.06632" lon="4.49831">
        <ele>419</ele>
        <time>2017-02-09T15:15:55Z</time>
      </trkpt>
      <trkpt lat="46.06631" lon="4.49831">
        <ele>419</ele>
        <time>2017-02-09T15:15:56Z</time>
      </trkpt>
      <trkpt lat="46.06622" lon="4.49833">
        <ele>419</ele>
        <time>2017-02-09T15:16:03Z</time>
      </trkpt>
      <trkpt lat="46.06621" lon="4.49833">
        <ele>419</ele>
        <time>2017-02-09T15:16:04Z</time>
      </trkpt>
      <trkpt lat="46.06613" lon="4.49836">
        <ele>423</ele>
        <time>2017-02-09T15:16:12Z</time>
      </trkpt>
      <trkpt lat="46.06612" lon="4.49836">
        <ele>423</ele>
        <time>2017-02-09T15:16:13Z</time>
      </trkpt>
      <trkpt lat="46.06604" lon="4.49841">
        <ele>423</ele>
        <time>2017-02-09T15:16:20Z</time>
      </trkpt>
      <trkpt lat="46.06602" lon="4.49841">
        <ele>423</ele>
        <time>2017-02-09T15:16:21Z</time>
      </trkpt>
      <trkpt lat="46.06594" lon="4.49846">
        <ele>422</ele>
        <time>2017-02-09T15:16:28Z</time>
      </trkpt>
      <trkpt lat="46.06593" lon="4.49846">
        <ele>422</ele>
        <time>2017-02-09T15:16:29Z</time>
      </trkpt>
      <trkpt lat="46.06585" lon="4.4985">
        <ele>422</ele>
        <time>2017-02-09T15:16:35Z</time>
      </trkpt>
      <trkpt lat="46.06584" lon="4.49851">
        <ele>423</ele>
        <time>2017-02-09T15:16:36Z</time>
      </trkpt>
      <trkpt lat="46.06576" lon="4.49852">
        <ele>424</ele>
        <time>2017-02-09T15:16:41Z</time>
      </trkpt>
      <trkpt lat="46.06575" lon="4.49852">
        <ele>424</ele>
        <time>2017-02-09T15:16:42Z</time>
      </trkpt>
      <trkpt lat="46.06566" lon="4.49851">
        <ele>425</ele>
        <time>2017-02-09T15:16:49Z</time>
      </trkpt>
      <trkpt lat="46.06565" lon="4.4985">
        <ele>425</ele>
        <time>2017-02-09T15:16:50Z</time>
      </trkpt>
      <trkpt lat="46.06558" lon="4.49844">
        <ele>425</ele>
        <time>2017-02-09T15:16:58Z</time>
      </trkpt>
      <trkpt lat="46.06558" lon="4.49842">
        <ele>425</ele>
        <time>2017-02-09T15:16:59Z</time>
      </trkpt>
      <trkpt lat="46.06553" lon="4.49832">
        <ele>421</ele>
        <time>2017-02-09T15:17:07Z</time>
      </trkpt>
      <trkpt lat="46.06553" lon="4.49831">
        <ele>421</ele>
        <time>2017-02-09T15:17:08Z</time>
      </trkpt>
      <trkpt lat="46.06546" lon="4.49823">
        <ele>421</ele>
        <time>2017-02-09T15:17:16Z</time>
      </trkpt>
      <trkpt lat="46.06544" lon="4.49823">
        <ele>421</ele>
        <time>2017-02-09T15:17:17Z</time>
      </trkpt>
      <trkpt lat="46.06537" lon="4.49819">
        <ele>421</ele>
        <time>2017-02-09T15:17:24Z</time>
      </trkpt>
      <trkpt lat="46.06536" lon="4.49818">
        <ele>421</ele>
        <time>2017-02-09T15:17:25Z</time>
      </trkpt>
      <trkpt lat="46.0653" lon="4.49809">
        <ele>421</ele>
        <time>2017-02-09T15:17:33Z</time>
      </trkpt>
      <trkpt lat="46.06529" lon="4.49807">
        <ele>421</ele>
        <time>2017-02-09T15:17:34Z</time>
      </trkpt>
      <trkpt lat="46.06527" lon="4.49795">
        <ele>421</ele>
        <time>2017-02-09T15:17:41Z</time>
      </trkpt>
      <trkpt lat="46.06527" lon="4.49793">
        <ele>421</ele>
        <time>2017-02-09T15:17:42Z</time>
      </trkpt>
      <trkpt lat="46.06529" lon="4.4978">
        <ele>420</ele>
        <time>2017-02-09T15:17:49Z</time>
      </trkpt>
      <trkpt lat="46.06529" lon="4.49778">
        <ele>420</ele>
        <time>2017-02-09T15:17:50Z</time>
      </trkpt>
      <trkpt lat="46.06528" lon="4.49766">
        <ele>420</ele>
        <time>2017-02-09T15:17:57Z</time>
      </trkpt>
      <trkpt lat="46.06528" lon="4.49764">
        <ele>420</ele>
        <time>2017-02-09T15:17:58Z</time>
      </trkpt>
      <trkpt lat="46.06528" lon="4.49752">
        <ele>420</ele>
        <time>2017-02-09T15:18:05Z</time>
      </trkpt>
      <trkpt lat="46.06528" lon="4.49751">
        <ele>420</ele>
        <time>2017-02-09T15:18:06Z</time>
      </trkpt>
      <trkpt lat="46.0653" lon="4.49739">
        <ele>416</ele>
        <time>2017-02-09T15:18:13Z</time>
      </trkpt>
      <trkpt lat="46.06531" lon="4.49738">
        <ele>416</ele>
        <time>2017-02-09T15:18:14Z</time>
      </trkpt>
      <trkpt lat="46.06531" lon="4.49727">
        <ele>416</ele>
        <time>2017-02-09T15:18:20Z</time>
      </trkpt>
      <trkpt lat="46.06531" lon="4.49725">
        <ele>415</ele>
        <time>2017-02-09T15:18:21Z</time>
      </trkpt>
      <trkpt lat="46.0653" lon="4.49713">
        <ele>415</ele>
        <time>2017-02-09T15:18:27Z</time>
      </trkpt>
      <trkpt lat="46.06529" lon="4.49711">
        <ele>415</ele>
        <time>2017-02-09T15:18:28Z</time>
      </trkpt>
      <trkpt lat="46.06525" lon="4.49699">
        <ele>415</ele>
        <time>2017-02-09T15:18:34Z</time>
      </trkpt>
      <trkpt lat="46.06524" lon="4.49697">
        <ele>415</ele>
        <time>2017-02-09T15:18:35Z</time>
      </trkpt>
      <trkpt lat="46.06519" lon="4.49687">
        <ele>416</ele>
        <time>2017-02-09T15:18:41Z</time>
      </trkpt>
      <trkpt lat="46.06519" lon="4.49685">
        <ele>416</ele>
        <time>2017-02-09T15:18:42Z</time>
      </trkpt>
      <trkpt lat="46.06517" lon="4.49674">
        <ele>416</ele>
        <time>2017-02-09T15:18:49Z</time>
      </trkpt>
      <trkpt lat="46.06516" lon="4.49672">
        <ele>417</ele>
        <time>2017-02-09T15:18:50Z</time>
      </trkpt>
      <trkpt lat="46.0651" lon="4.49662">
        <ele>416</ele>
        <time>2017-02-09T15:18:58Z</time>
      </trkpt>
      <trkpt lat="46.06509" lon="4.49661">
        <ele>416</ele>
        <time>2017-02-09T15:18:59Z</time>
      </trkpt>
      <trkpt lat="46.06504" lon="4.49653">
        <ele>415</ele>
        <time>2017-02-09T15:19:05Z</time>
      </trkpt>
      <trkpt lat="46.06503" lon="4.49651">
        <ele>415</ele>
        <time>2017-02-09T15:19:06Z</time>
      </trkpt>
      <trkpt lat="46.06499" lon="4.49641">
        <ele>419</ele>
        <time>2017-02-09T15:19:13Z</time>
      </trkpt>
      <trkpt lat="46.06498" lon="4.4964">
        <ele>419</ele>
        <time>2017-02-09T15:19:14Z</time>
      </trkpt>
      <trkpt lat="46.06492" lon="4.49631">
        <ele>419</ele>
        <time>2017-02-09T15:19:22Z</time>
      </trkpt>
      <trkpt lat="46.06491" lon="4.49631">
        <ele>419</ele>
        <time>2017-02-09T15:19:23Z</time>
      </trkpt>
      <trkpt lat="46.06484" lon="4.49625">
        <ele>419</ele>
        <time>2017-02-09T15:19:31Z</time>
      </trkpt>
      <trkpt lat="46.06483" lon="4.49624">
        <ele>419</ele>
        <time>2017-02-09T15:19:32Z</time>
      </trkpt>
      <trkpt lat="46.06477" lon="4.49615">
        <ele>418</ele>
        <time>2017-02-09T15:19:39Z</time>
      </trkpt>
      <trkpt lat="46.06477" lon="4.49613">
        <ele>418</ele>
        <time>2017-02-09T15:19:40Z</time>
      </trkpt>
      <trkpt lat="46.06471" lon="4.49603">
        <ele>418</ele>
        <time>2017-02-09T15:19:47Z</time>
      </trkpt>
      <trkpt lat="46.0647" lon="4.49602">
        <ele>418</ele>
        <time>2017-02-09T15:19:48Z</time>
      </trkpt>
      <trkpt lat="46.06464" lon="4.49594">
        <ele>418</ele>
        <time>2017-02-09T15:19:54Z</time>
      </trkpt>
      <trkpt lat="46.06463" lon="4.49593">
        <ele>418</ele>
        <time>2017-02-09T15:19:55Z</time>
      </trkpt>
      <trkpt lat="46.06459" lon="4.49583">
        <ele>414</ele>
        <time>2017-02-09T15:20:01Z</time>
      </trkpt>
      <trkpt lat="46.06459" lon="4.49581">
        <ele>414</ele>
        <time>2017-02-09T15:20:02Z</time>
      </trkpt>
      <trkpt lat="46.06456" lon="4.4957">
        <ele>414</ele>
        <time>2017-02-09T15:20:08Z</time>
      </trkpt>
      <trkpt lat="46.06455" lon="4.49569">
        <ele>414</ele>
        <time>2017-02-09T15:20:09Z</time>
      </trkpt>
      <trkpt lat="46.0645" lon="4.49558">
        <ele>414</ele>
        <time>2017-02-09T15:20:16Z</time>
      </trkpt>
      <trkpt lat="46.06449" lon="4.49557">
        <ele>414</ele>
        <time>2017-02-09T15:20:17Z</time>
      </trkpt>
      <trkpt lat="46.06454" lon="4.49567">
        <ele>414</ele>
        <time>2017-02-09T15:20:46Z</time>
      </trkpt>
      <trkpt lat="46.06454" lon="4.49568">
        <ele>414</ele>
        <time>2017-02-09T15:20:47Z</time>
      </trkpt>
      <trkpt lat="46.06459" lon="4.49578">
        <ele>414</ele>
        <time>2017-02-09T15:20:57Z</time>
      </trkpt>
      <trkpt lat="46.06459" lon="4.4958">
        <ele>414</ele>
        <time>2017-02-09T15:20:58Z</time>
      </trkpt>
      <trkpt lat="46.06454" lon="4.4957">
        <ele>414</ele>
        <time>2017-02-09T15:21:35Z</time>
      </trkpt>
      <trkpt lat="46.06454" lon="4.49568">
        <ele>414</ele>
        <time>2017-02-09T15:21:36Z</time>
      </trkpt>
      <trkpt lat="46.06449" lon="4.49558">
        <ele>414</ele>
        <time>2017-02-09T15:21:43Z</time>
      </trkpt>
      <trkpt lat="46.06449" lon="4.49557">
        <ele>414</ele>
        <time>2017-02-09T15:21:44Z</time>
      </trkpt>
      <trkpt lat="46.06446" lon="4.49545">
        <ele>413</ele>
        <time>2017-02-09T15:21:52Z</time>
      </trkpt>
      <trkpt lat="46.06446" lon="4.49544">
        <ele>413</ele>
        <time>2017-02-09T15:21:53Z</time>
      </trkpt>
      <trkpt lat="46.0644" lon="4.49535">
        <ele>413</ele>
        <time>2017-02-09T15:22:00Z</time>
      </trkpt>
      <trkpt lat="46.06439" lon="4.49534">
        <ele>413</ele>
        <time>2017-02-09T15:22:01Z</time>
      </trkpt>
      <trkpt lat="46.06433" lon="4.49524">
        <ele>412</ele>
        <time>2017-02-09T15:22:07Z</time>
      </trkpt>
      <trkpt lat="46.06433" lon="4.49523">
        <ele>412</ele>
        <time>2017-02-09T15:22:08Z</time>
      </trkpt>
      <trkpt lat="46.06428" lon="4.49513">
        <ele>412</ele>
        <time>2017-02-09T15:22:14Z</time>
      </trkpt>
      <trkpt lat="46.06427" lon="4.49512">
        <ele>412</ele>
        <time>2017-02-09T15:22:15Z</time>
      </trkpt>
      <trkpt lat="46.06421" lon="4.49502">
        <ele>411</ele>
        <time>2017-02-09T15:22:22Z</time>
      </trkpt>
      <trkpt lat="46.0642" lon="4.49501">
        <ele>411</ele>
        <time>2017-02-09T15:22:23Z</time>
      </trkpt>
      <trkpt lat="46.06413" lon="4.49494">
        <ele>410</ele>
        <time>2017-02-09T15:22:30Z</time>
      </trkpt>
      <trkpt lat="46.06413" lon="4.49493">
        <ele>410</ele>
        <time>2017-02-09T15:22:31Z</time>
      </trkpt>
      <trkpt lat="46.06411" lon="4.49481">
        <ele>409</ele>
        <time>2017-02-09T15:22:39Z</time>
      </trkpt>
      <trkpt lat="46.0641" lon="4.4948">
        <ele>409</ele>
        <time>2017-02-09T15:22:40Z</time>
      </trkpt>
      <trkpt lat="46.06405" lon="4.4947">
        <ele>408</ele>
        <time>2017-02-09T15:22:47Z</time>
      </trkpt>
      <trkpt lat="46.06404" lon="4.49468">
        <ele>408</ele>
        <time>2017-02-09T15:22:48Z</time>
      </trkpt>
      <trkpt lat="46.06399" lon="4.49459">
        <ele>407</ele>
        <time>2017-02-09T15:22:54Z</time>
      </trkpt>
      <trkpt lat="46.06398" lon="4.49457">
        <ele>407</ele>
        <time>2017-02-09T15:22:55Z</time>
      </trkpt>
      <trkpt lat="46.06392" lon="4.49449">
        <ele>407</ele>
        <time>2017-02-09T15:23:02Z</time>
      </trkpt>
      <trkpt lat="46.06391" lon="4.49448">
        <ele>407</ele>
        <time>2017-02-09T15:23:03Z</time>
      </trkpt>
      <trkpt lat="46.06385" lon="4.4944">
        <ele>406</ele>
        <time>2017-02-09T15:23:10Z</time>
      </trkpt>
      <trkpt lat="46.06384" lon="4.49438">
        <ele>406</ele>
        <time>2017-02-09T15:23:11Z</time>
      </trkpt>
      <trkpt lat="46.0638" lon="4.49428">
        <ele>406</ele>
        <time>2017-02-09T15:23:17Z</time>
      </trkpt>
      <trkpt lat="46.0638" lon="4.49426">
        <ele>406</ele>
        <time>2017-02-09T15:23:18Z</time>
      </trkpt>
      <trkpt lat="46.06374" lon="4.49417">
        <ele>405</ele>
        <time>2017-02-09T15:23:25Z</time>
      </trkpt>
      <trkpt lat="46.06374" lon="4.49416">
        <ele>398</ele>
        <time>2017-02-09T15:23:26Z</time>
      </trkpt>
      <trkpt lat="46.06369" lon="4.49407">
        <ele>398</ele>
        <time>2017-02-09T15:23:32Z</time>
      </trkpt>
      <trkpt lat="46.06368" lon="4.49405">
        <ele>397</ele>
        <time>2017-02-09T15:23:33Z</time>
      </trkpt>
      <trkpt lat="46.06363" lon="4.49396">
        <ele>397</ele>
        <time>2017-02-09T15:23:40Z</time>
      </trkpt>
      <trkpt lat="46.06362" lon="4.49395">
        <ele>397</ele>
        <time>2017-02-09T15:23:41Z</time>
      </trkpt>
      <trkpt lat="46.06356" lon="4.49387">
        <ele>397</ele>
        <time>2017-02-09T15:23:48Z</time>
      </trkpt>
      <trkpt lat="46.06355" lon="4.49386">
        <ele>397</ele>
        <time>2017-02-09T15:23:49Z</time>
      </trkpt>
      <trkpt lat="46.06349" lon="4.49379">
        <ele>396</ele>
        <time>2017-02-09T15:23:55Z</time>
      </trkpt>
      <trkpt lat="46.06348" lon="4.49378">
        <ele>396</ele>
        <time>2017-02-09T15:23:56Z</time>
      </trkpt>
      <trkpt lat="46.06341" lon="4.49369">
        <ele>395</ele>
        <time>2017-02-09T15:24:04Z</time>
      </trkpt>
      <trkpt lat="46.06341" lon="4.49368">
        <ele>395</ele>
        <time>2017-02-09T15:24:05Z</time>
      </trkpt>
      <trkpt lat="46.06333" lon="4.49361">
        <ele>394</ele>
        <time>2017-02-09T15:24:13Z</time>
      </trkpt>
      <trkpt lat="46.06332" lon="4.4936">
        <ele>394</ele>
        <time>2017-02-09T15:24:14Z</time>
      </trkpt>
      <trkpt lat="46.06326" lon="4.49353">
        <ele>393</ele>
        <time>2017-02-09T15:24:22Z</time>
      </trkpt>
      <trkpt lat="46.06324" lon="4.49352">
        <ele>393</ele>
        <time>2017-02-09T15:24:23Z</time>
      </trkpt>
      <trkpt lat="46.06316" lon="4.49346">
        <ele>393</ele>
        <time>2017-02-09T15:24:29Z</time>
      </trkpt>
      <trkpt lat="46.06315" lon="4.49345">
        <ele>393</ele>
        <time>2017-02-09T15:24:30Z</time>
      </trkpt>
      <trkpt lat="46.06308" lon="4.49339">
        <ele>393</ele>
        <time>2017-02-09T15:24:36Z</time>
      </trkpt>
      <trkpt lat="46.06307" lon="4.49338">
        <ele>393</ele>
        <time>2017-02-09T15:24:37Z</time>
      </trkpt>
      <trkpt lat="46.063" lon="4.49332">
        <ele>389</ele>
        <time>2017-02-09T15:24:44Z</time>
      </trkpt>
      <trkpt lat="46.06298" lon="4.49331">
        <ele>389</ele>
        <time>2017-02-09T15:24:45Z</time>
      </trkpt>
      <trkpt lat="46.0629" lon="4.49328">
        <ele>389</ele>
        <time>2017-02-09T15:24:54Z</time>
      </trkpt>
      <trkpt lat="46.06289" lon="4.49327">
        <ele>389</ele>
        <time>2017-02-09T15:24:55Z</time>
      </trkpt>
      <trkpt lat="46.06281" lon="4.49324">
        <ele>389</ele>
        <time>2017-02-09T15:25:03Z</time>
      </trkpt>
      <trkpt lat="46.0628" lon="4.49324">
        <ele>389</ele>
        <time>2017-02-09T15:25:04Z</time>
      </trkpt>
      <trkpt lat="46.06273" lon="4.49317">
        <ele>389</ele>
        <time>2017-02-09T15:25:14Z</time>
      </trkpt>
      <trkpt lat="46.06272" lon="4.49316">
        <ele>389</ele>
        <time>2017-02-09T15:25:15Z</time>
      </trkpt>
      <trkpt lat="46.06267" lon="4.49307">
        <ele>389</ele>
        <time>2017-02-09T15:25:24Z</time>
      </trkpt>
      <trkpt lat="46.06267" lon="4.49305">
        <ele>389</ele>
        <time>2017-02-09T15:25:25Z</time>
      </trkpt>
      <trkpt lat="46.06265" lon="4.49294">
        <ele>388</ele>
        <time>2017-02-09T15:25:37Z</time>
      </trkpt>
      <trkpt lat="46.06265" lon="4.49292">
        <ele>388</ele>
        <time>2017-02-09T15:25:38Z</time>
      </trkpt>
      <trkpt lat="46.0627" lon="4.49283">
        <ele>388</ele>
        <time>2017-02-09T15:25:45Z</time>
      </trkpt>
      <trkpt lat="46.0627" lon="4.49281">
        <ele>388</ele>
        <time>2017-02-09T15:25:46Z</time>
      </trkpt>
      <trkpt lat="46.06276" lon="4.49272">
        <ele>388</ele>
        <time>2017-02-09T15:25:54Z</time>
      </trkpt>
      <trkpt lat="46.06276" lon="4.4927">
        <ele>388</ele>
        <time>2017-02-09T15:25:55Z</time>
      </trkpt>
      <trkpt lat="46.06282" lon="4.49261">
        <ele>387</ele>
        <time>2017-02-09T15:26:02Z</time>
      </trkpt>
      <trkpt lat="46.06282" lon="4.4926">
        <ele>387</ele>
        <time>2017-02-09T15:26:03Z</time>
      </trkpt>
      <trkpt lat="46.06289" lon="4.49252">
        <ele>387</ele>
        <time>2017-02-09T15:26:13Z</time>
      </trkpt>
      <trkpt lat="46.0629" lon="4.49252">
        <ele>387</ele>
        <time>2017-02-09T15:26:14Z</time>
      </trkpt>
      <trkpt lat="46.06298" lon="4.49252">
        <ele>387</ele>
        <time>2017-02-09T15:26:21Z</time>
      </trkpt>
      <trkpt lat="46.06299" lon="4.49253">
        <ele>387</ele>
        <time>2017-02-09T15:26:22Z</time>
      </trkpt>
      <trkpt lat="46.06308" lon="4.49257">
        <ele>387</ele>
        <time>2017-02-09T15:26:29Z</time>
      </trkpt>
      <trkpt lat="46.06308" lon="4.49258">
        <ele>387</ele>
        <time>2017-02-09T15:26:30Z</time>
      </trkpt>
      <trkpt lat="46.06313" lon="4.49267">
        <ele>387</ele>
        <time>2017-02-09T15:26:39Z</time>
      </trkpt>
      <trkpt lat="46.06313" lon="4.49269">
        <ele>387</ele>
        <time>2017-02-09T15:26:40Z</time>
      </trkpt>
      <trkpt lat="46.0632" lon="4.49277">
        <ele>387</ele>
        <time>2017-02-09T15:26:49Z</time>
      </trkpt>
      <trkpt lat="46.0632" lon="4.49278">
        <ele>387</ele>
        <time>2017-02-09T15:26:50Z</time>
      </trkpt>
      <trkpt lat="46.06325" lon="4.49287">
        <ele>387</ele>
        <time>2017-02-09T15:27:34.375Z</time>
      </trkpt>
    </trkseg>
  </trk>
</gpx>